<?xml version='1.0' encoding='UTF-8'?><gpx version="1.1" creator="JPX - https://github.com/jenetics/jpx" xmlns="http://www.topografix.com/GPX/1/1"><trk><trkseg><trkpt lat="43.71476377698716" lon="13.220277010539998"><ele>5.0</ele><time>2026-04-29T10:50:44.001Z</time></trkpt><trkpt lat="43.71475942772034" lon="13.220406128561734"><ele>5.0</ele><time>2026-04-29T10:50:46.001Z</time></trkpt><trkpt lat="43.71473862058699" lon="13.220536955408821"><ele>5.0</ele><time>2026-04-29T10:50:48.001Z</time></trkpt><trkpt lat="43.714722148223956" lon="13.220674528687454"><ele>5.0</ele><time>2026-04-29T10:50:50.001Z</time></trkpt><trkpt lat="43.714710739856116" lon="13.220813287422285"><ele>5.0</ele><time>2026-04-29T10:50:52.001Z</time></trkpt><trkpt lat="43.71470640071163" lon="13.220926720849945"><ele>4.666666666666667</ele><time>2026-04-29T10:50:53.001Z</time></trkpt><trkpt lat="43.71467054900983" lon="13.221030635087365"><ele>4.333333333333334</ele><time>2026-04-29T10:50:54.001Z</time></trkpt><trkpt lat="43.714617904914356" lon="13.221127015361485"><ele>4.0</ele><time>2026-04-29T10:50:55.001Z</time></trkpt><trkpt lat="43.71455984097181" lon="13.221198475740712"><ele>3.666666666666667</ele><time>2026-04-29T10:50:56.001Z</time></trkpt><trkpt lat="43.71450465256802" lon="13.2212655326015"><ele>3.3333333333333335</ele><time>2026-04-29T10:50:57.001Z</time></trkpt><trkpt lat="43.71445621980488" lon="13.2213250407761"><ele>3.0</ele><time>2026-04-29T10:50:58.001Z</time></trkpt><trkpt lat="43.71441047023738" lon="13.22139188960002"><ele>3.8</ele><time>2026-04-29T10:50:59.001Z</time></trkpt><trkpt lat="43.71431592660915" lon="13.221516502169882"><ele>4.6</ele><time>2026-04-29T10:51:01.001Z</time></trkpt><trkpt lat="43.7142605479433" lon="13.221582704642836"><ele>5.3999999999999995</ele><time>2026-04-29T10:51:02.001Z</time></trkpt><trkpt lat="43.714193542982464" lon="13.221712014805785"><ele>6.199999999999999</ele><time>2026-04-29T10:51:04.001Z</time></trkpt><trkpt lat="43.71414155783326" lon="13.221798543784331"><ele>7.0</ele><time>2026-04-29T10:51:06.001Z</time></trkpt><trkpt lat="43.714054303826" lon="13.221762966084166"><ele>7.000000000000001</ele><time>2026-04-29T10:51:08.001Z</time></trkpt><trkpt lat="43.71400146514874" lon="13.22170372542922"><ele>7.0</ele><time>2026-04-29T10:51:09.001Z</time></trkpt><trkpt lat="43.713965077309155" lon="13.2215772129554"><ele>7.0</ele><time>2026-04-29T10:51:10.001Z</time></trkpt><trkpt lat="43.71392868111195" lon="13.221467598897584"><ele>7.0</ele><time>2026-04-29T10:51:11.001Z</time></trkpt><trkpt lat="43.7138547958141" lon="13.221360124581256"><ele>7.000000000000001</ele><time>2026-04-29T10:51:13.001Z</time></trkpt><trkpt lat="43.71381287186479" lon="13.221281765399898"><ele>7.0</ele><time>2026-04-29T10:51:14.001Z</time></trkpt><trkpt lat="43.71376076473524" lon="13.221198464097917"><ele>6.833333333333334</ele><time>2026-04-29T10:51:15.001Z</time></trkpt><trkpt lat="43.71372015648094" lon="13.221105044596646"><ele>6.666666666666667</ele><time>2026-04-29T10:51:16.001Z</time></trkpt><trkpt lat="43.71366821171486" lon="13.221003024573852"><ele>6.5</ele><time>2026-04-29T10:51:17.001Z</time></trkpt><trkpt lat="43.7136412759625" lon="13.22092382083748"><ele>6.333333333333334</ele><time>2026-04-29T10:51:18.001Z</time></trkpt><trkpt lat="43.7136104815104" lon="13.220833219242909"><ele>6.166666666666667</ele><time>2026-04-29T10:51:21.001Z</time></trkpt><trkpt lat="43.713553918573886" lon="13.220747900474128"><ele>6.0</ele><time>2026-04-29T10:51:24.001Z</time></trkpt><trkpt lat="43.71352018881354" lon="13.220655810478602"><ele>5.833333333333333</ele><time>2026-04-29T10:51:25.001Z</time></trkpt><trkpt lat="43.71347605390769" lon="13.22056044470714"><ele>5.666666666666667</ele><time>2026-04-29T10:51:26.001Z</time></trkpt><trkpt lat="43.713418719885944" lon="13.220412647793193"><ele>5.5</ele><time>2026-04-29T10:51:28.001Z</time></trkpt><trkpt lat="43.71338481535939" lon="13.220332643618912"><ele>5.333333333333334</ele><time>2026-04-29T10:51:29.001Z</time></trkpt><trkpt lat="43.71334384540261" lon="13.220236186459688"><ele>5.166666666666667</ele><time>2026-04-29T10:51:30.001Z</time></trkpt><trkpt lat="43.71329457403907" lon="13.220119479683284"><ele>5.0</ele><time>2026-04-29T10:51:32.001Z</time></trkpt><trkpt lat="43.71325701537147" lon="13.220044812763163"><ele>5.0</ele><time>2026-04-29T10:51:35.001Z</time></trkpt><trkpt lat="43.713204351687665" lon="13.219929947131703"><ele>5.0</ele><time>2026-04-29T10:51:37.001Z</time></trkpt><trkpt lat="43.71316155183694" lon="13.219862749691755"><ele>5.0</ele><time>2026-04-29T10:51:38.001Z</time></trkpt><trkpt lat="43.71307461631964" lon="13.219747583075632"><ele>5.0</ele><time>2026-04-29T10:51:40.001Z</time></trkpt><trkpt lat="43.712959971320494" lon="13.219631913290272"><ele>5.0</ele><time>2026-04-29T10:51:42.001Z</time></trkpt><trkpt lat="43.712856576632355" lon="13.21955365670245"><ele>5.333333333333334</ele><time>2026-04-29T10:51:43.001Z</time></trkpt><trkpt lat="43.712764707559174" lon="13.219423632945784"><ele>5.666666666666667</ele><time>2026-04-29T10:51:44.001Z</time></trkpt><trkpt lat="43.712645205503584" lon="13.219294354844063"><ele>6.0</ele><time>2026-04-29T10:51:45.001Z</time></trkpt><trkpt lat="43.71252296503624" lon="13.21913469759745"><ele>6.0</ele><time>2026-04-29T10:51:46.001Z</time></trkpt><trkpt lat="43.712398224903055" lon="13.218992218542816"><ele>6.0</ele><time>2026-04-29T10:51:47.001Z</time></trkpt><trkpt lat="43.71228063078961" lon="13.218850279870882"><ele>6.0</ele><time>2026-04-29T10:51:48.001Z</time></trkpt><trkpt lat="43.71219072732325" lon="13.218737766296393"><ele>6.0</ele><time>2026-04-29T10:51:49.001Z</time></trkpt><trkpt lat="43.71212646803151" lon="13.218628255652533"><ele>5.8</ele><time>2026-04-29T10:51:50.001Z</time></trkpt><trkpt lat="43.7120583361273" lon="13.2185103360702"><ele>5.6</ele><time>2026-04-29T10:51:51.001Z</time></trkpt><trkpt lat="43.711990465271235" lon="13.21838774898858"><ele>5.4</ele><time>2026-04-29T10:51:52.001Z</time></trkpt><trkpt lat="43.711917254761126" lon="13.21826850643622"><ele>5.2</ele><time>2026-04-29T10:51:53.001Z</time></trkpt><trkpt lat="43.711854263891524" lon="13.218144780679104"><ele>5.0</ele><time>2026-04-29T10:51:54.001Z</time></trkpt><trkpt lat="43.71180131986507" lon="13.218002036024057"><ele>5.0</ele><time>2026-04-29T10:51:55.001Z</time></trkpt><trkpt lat="43.71175865949648" lon="13.21786500460043"><ele>5.0</ele><time>2026-04-29T10:51:56.001Z</time></trkpt><trkpt lat="43.71173700496899" lon="13.217723909884945"><ele>5.0</ele><time>2026-04-29T10:51:57.001Z</time></trkpt><trkpt lat="43.71171016496632" lon="13.21758387040672"><ele>5.0</ele><time>2026-04-29T10:51:58.001Z</time></trkpt><trkpt lat="43.71167627071485" lon="13.217444765136324"><ele>5.0</ele><time>2026-04-29T10:51:59.001Z</time></trkpt><trkpt lat="43.711628744066026" lon="13.217316319752586"><ele>5.8</ele><time>2026-04-29T10:52:00.001Z</time></trkpt><trkpt lat="43.71156676871673" lon="13.217204479526705"><ele>6.6</ele><time>2026-04-29T10:52:01.001Z</time></trkpt><trkpt lat="43.71149387361489" lon="13.217097849977854"><ele>7.4</ele><time>2026-04-29T10:52:02.001Z</time></trkpt><trkpt lat="43.71141666610999" lon="13.2169857384917"><ele>8.2</ele><time>2026-04-29T10:52:03.001Z</time></trkpt><trkpt lat="43.71134179357162" lon="13.216868659723755"><ele>9.0</ele><time>2026-04-29T10:52:04.001Z</time></trkpt><trkpt lat="43.71126790036541" lon="13.216750766428278"><ele>9.0</ele><time>2026-04-29T10:52:05.001Z</time></trkpt><trkpt lat="43.71119482360871" lon="13.216632804435568"><ele>9.0</ele><time>2026-04-29T10:52:06.001Z</time></trkpt><trkpt lat="43.71111340589005" lon="13.21650576239006"><ele>9.0</ele><time>2026-04-29T10:52:07.001Z</time></trkpt><trkpt lat="43.71100476580194" lon="13.21632504429479"><ele>9.0</ele><time>2026-04-29T10:52:08.001Z</time></trkpt><trkpt lat="43.71087979530987" lon="13.216154407400875"><ele>7.333333333333333</ele><time>2026-04-29T10:52:09.001Z</time></trkpt><trkpt lat="43.71075601603583" lon="13.216003967545236"><ele>5.666666666666666</ele><time>2026-04-29T10:52:10.001Z</time></trkpt><trkpt lat="43.710645778534165" lon="13.21586226511977"><ele>4.0</ele><time>2026-04-29T10:52:11.001Z</time></trkpt><trkpt lat="43.71056563540012" lon="13.215710404428377"><ele>3.333333333333333</ele><time>2026-04-29T10:52:12.001Z</time></trkpt><trkpt lat="43.710488863500174" lon="13.215557926099631"><ele>2.6666666666666665</ele><time>2026-04-29T10:52:13.001Z</time></trkpt><trkpt lat="43.71042787805039" lon="13.215370779556755"><ele>2.0</ele><time>2026-04-29T10:52:14.001Z</time></trkpt><trkpt lat="43.71034564937145" lon="13.215162920720838"><ele>2.0</ele><time>2026-04-29T10:52:15.001Z</time></trkpt><trkpt lat="43.710262873224345" lon="13.214946038644252"><ele>2.0</ele><time>2026-04-29T10:52:16.001Z</time></trkpt><trkpt lat="43.71018015544128" lon="13.214742028949805"><ele>2.0</ele><time>2026-04-29T10:52:17.001Z</time></trkpt><trkpt lat="43.71008815560277" lon="13.214574575988648"><ele>2.5</ele><time>2026-04-29T10:52:18.001Z</time></trkpt><trkpt lat="43.70999416679499" lon="13.214428426826828"><ele>3.0</ele><time>2026-04-29T10:52:19.001Z</time></trkpt><trkpt lat="43.709891767906804" lon="13.214294022095125"><ele>3.5</ele><time>2026-04-29T10:52:20.001Z</time></trkpt><trkpt lat="43.70977148848622" lon="13.214168272019169"><ele>4.0</ele><time>2026-04-29T10:52:21.001Z</time></trkpt><trkpt lat="43.70964706799116" lon="13.21405983347679"><ele>4.0</ele><time>2026-04-29T10:52:22.001Z</time></trkpt><trkpt lat="43.70953226305238" lon="13.213984612161955"><ele>4.0</ele><time>2026-04-29T10:52:23.001Z</time></trkpt><trkpt lat="43.709428101025864" lon="13.213917627157027"><ele>4.0</ele><time>2026-04-29T10:52:24.001Z</time></trkpt><trkpt lat="43.70932244718347" lon="13.213846837983143"><ele>4.0</ele><time>2026-04-29T10:52:25.001Z</time></trkpt><trkpt lat="43.70919518790849" lon="13.21375709181986"><ele>4.0</ele><time>2026-04-29T10:52:26.001Z</time></trkpt><trkpt lat="43.70910635011181" lon="13.213697775863537"><ele>4.0</ele><time>2026-04-29T10:52:27.001Z</time></trkpt><trkpt lat="43.709012220287086" lon="13.213644605535576"><ele>4.0</ele><time>2026-04-29T10:52:28.001Z</time></trkpt><trkpt lat="43.70891208869533" lon="13.213577270696062"><ele>4.0</ele><time>2026-04-29T10:52:29.001Z</time></trkpt><trkpt lat="43.70881913030402" lon="13.213506474843827"><ele>4.0</ele><time>2026-04-29T10:52:30.001Z</time></trkpt><trkpt lat="43.708744370438325" lon="13.21346872533141"><ele>4.0</ele><time>2026-04-29T10:52:31.001Z</time></trkpt><trkpt lat="43.708642875817034" lon="13.213398014989371"><ele>4.0</ele><time>2026-04-29T10:52:32.001Z</time></trkpt><trkpt lat="43.70852590411428" lon="13.213322136173476"><ele>4.0</ele><time>2026-04-29T10:52:33.001Z</time></trkpt><trkpt lat="43.708405580150576" lon="13.213220218283034"><ele>4.0</ele><time>2026-04-29T10:52:34.001Z</time></trkpt><trkpt lat="43.708288386157946" lon="13.213079193534828"><ele>4.333333333333333</ele><time>2026-04-29T10:52:35.001Z</time></trkpt><trkpt lat="43.70817650536672" lon="13.21290638647299"><ele>4.666666666666667</ele><time>2026-04-29T10:52:36.001Z</time></trkpt><trkpt lat="43.708068818972244" lon="13.212747941268683"><ele>5.0</ele><time>2026-04-29T10:52:37.001Z</time></trkpt><trkpt lat="43.70797424599012" lon="13.212598775845027"><ele>5.0</ele><time>2026-04-29T10:52:38.001Z</time></trkpt><trkpt lat="43.70788734025261" lon="13.212470532483064"><ele>5.0</ele><time>2026-04-29T10:52:39.001Z</time></trkpt><trkpt lat="43.707809767455856" lon="13.212353081199659"><ele>5.0</ele><time>2026-04-29T10:52:40.001Z</time></trkpt><trkpt lat="43.707753600684576" lon="13.21224975927671"><ele>5.0</ele><time>2026-04-29T10:52:41.001Z</time></trkpt><trkpt lat="43.707711793747066" lon="13.21216496755148"><ele>5.0</ele><time>2026-04-29T10:52:42.001Z</time></trkpt><trkpt lat="43.70767519917716" lon="13.212072911167063"><ele>4.8</ele><time>2026-04-29T10:52:43.001Z</time></trkpt><trkpt lat="43.70763310621525" lon="13.211967947162092"><ele>4.6</ele><time>2026-04-29T10:52:44.001Z</time></trkpt><trkpt lat="43.70758227317459" lon="13.211862777402342"><ele>4.4</ele><time>2026-04-29T10:52:45.001Z</time></trkpt><trkpt lat="43.70750574364997" lon="13.211745166886663"><ele>4.2</ele><time>2026-04-29T10:52:46.001Z</time></trkpt><trkpt lat="43.70741228398267" lon="13.211626260368972"><ele>4.0</ele><time>2026-04-29T10:52:47.001Z</time></trkpt><trkpt lat="43.707325103256764" lon="13.2115249597212"><ele>4.25</ele><time>2026-04-29T10:52:48.001Z</time></trkpt><trkpt lat="43.70723799839011" lon="13.21142860776738"><ele>4.5</ele><time>2026-04-29T10:52:49.001Z</time></trkpt><trkpt lat="43.70714293673775" lon="13.21133021690281"><ele>4.75</ele><time>2026-04-29T10:52:50.001Z</time></trkpt><trkpt lat="43.70703866826108" lon="13.211239888592853"><ele>5.0</ele><time>2026-04-29T10:52:51.001Z</time></trkpt><trkpt lat="43.70692431144225" lon="13.211166024694744"><ele>5.0</ele><time>2026-04-29T10:52:52.001Z</time></trkpt><trkpt lat="43.70679987114359" lon="13.211104436219061"><ele>5.0</ele><time>2026-04-29T10:52:53.001Z</time></trkpt><trkpt lat="43.70668995248829" lon="13.211045579496783"><ele>5.0</ele><time>2026-04-29T10:52:54.001Z</time></trkpt><trkpt lat="43.706606264797536" lon="13.210979363239021"><ele>5.0</ele><time>2026-04-29T10:52:55.001Z</time></trkpt><trkpt lat="43.706526224388156" lon="13.210883374841726"><ele>5.0</ele><time>2026-04-29T10:52:56.001Z</time></trkpt><trkpt lat="43.70644161013347" lon="13.210774892951042"><ele>5.0</ele><time>2026-04-29T10:52:57.001Z</time></trkpt><trkpt lat="43.7063523083455" lon="13.210652670447912"><ele>5.0</ele><time>2026-04-29T10:52:58.001Z</time></trkpt><trkpt lat="43.70625968182719" lon="13.210529068284744"><ele>5.0</ele><time>2026-04-29T10:52:59.001Z</time></trkpt><trkpt lat="43.70616402364835" lon="13.210407404548494"><ele>5.25</ele><time>2026-04-29T10:53:00Z</time></trkpt><trkpt lat="43.706070609318274" lon="13.210284747268192"><ele>5.5</ele><time>2026-04-29T10:53:01Z</time></trkpt><trkpt lat="43.705980344234945" lon="13.210168483069864"><ele>5.75</ele><time>2026-04-29T10:53:02Z</time></trkpt><trkpt lat="43.70590913966018" lon="13.210061629585104"><ele>6.0</ele><time>2026-04-29T10:53:03Z</time></trkpt><trkpt lat="43.70583894799808" lon="13.20996651905945"><ele>6.0</ele><time>2026-04-29T10:53:04Z</time></trkpt><trkpt lat="43.70577529716865" lon="13.209875230953896"><ele>6.0</ele><time>2026-04-29T10:53:05Z</time></trkpt><trkpt lat="43.7057195095131" lon="13.209792602314609"><ele>6.0</ele><time>2026-04-29T10:53:06Z</time></trkpt><trkpt lat="43.7056719016627" lon="13.209696260399916"><ele>6.0</ele><time>2026-04-29T10:53:07Z</time></trkpt><trkpt lat="43.705600139678644" lon="13.209630948080878"><ele>6.0</ele><time>2026-04-29T10:53:08Z</time></trkpt><trkpt lat="43.70551544571011" lon="13.209580717624904"><ele>6.0</ele><time>2026-04-29T10:53:09Z</time></trkpt><trkpt lat="43.705430594238244" lon="13.209509196557754"><ele>5.8</ele><time>2026-04-29T10:53:10Z</time></trkpt><trkpt lat="43.7053532922019" lon="13.209413703693837"><ele>5.6</ele><time>2026-04-29T10:53:11Z</time></trkpt><trkpt lat="43.70528292015914" lon="13.209318629958224"><ele>5.4</ele><time>2026-04-29T10:53:12Z</time></trkpt><trkpt lat="43.70521327444117" lon="13.209229388304355"><ele>5.2</ele><time>2026-04-29T10:53:13Z</time></trkpt><trkpt lat="43.705138959288306" lon="13.209141355181234"><ele>5.0</ele><time>2026-04-29T10:53:14Z</time></trkpt><trkpt lat="43.70505986754274" lon="13.209059817357542"><ele>5.0</ele><time>2026-04-29T10:53:15Z</time></trkpt><trkpt lat="43.704973232248115" lon="13.20897643197704"><ele>5.0</ele><time>2026-04-29T10:53:16Z</time></trkpt><trkpt lat="43.70487869630801" lon="13.208908057867434"><ele>5.0</ele><time>2026-04-29T10:53:17Z</time></trkpt><trkpt lat="43.704784947471566" lon="13.208838913106655"><ele>5.0</ele><time>2026-04-29T10:53:18Z</time></trkpt><trkpt lat="43.70468864471538" lon="13.208766876322937"><ele>5.0</ele><time>2026-04-29T10:53:19Z</time></trkpt><trkpt lat="43.70458835680515" lon="13.208686226336352"><ele>5.0</ele><time>2026-04-29T10:53:20Z</time></trkpt><trkpt lat="43.70448995586853" lon="13.208586163094244"><ele>5.0</ele><time>2026-04-29T10:53:21Z</time></trkpt><trkpt lat="43.70439473495097" lon="13.208476390907512"><ele>5.0</ele><time>2026-04-29T10:53:22Z</time></trkpt><trkpt lat="43.70431052375062" lon="13.20836540459312"><ele>5.0</ele><time>2026-04-29T10:53:23Z</time></trkpt><trkpt lat="43.70423039373758" lon="13.208257670064054"><ele>5.0</ele><time>2026-04-29T10:53:24Z</time></trkpt><trkpt lat="43.70413288052872" lon="13.20814111471464"><ele>5.0</ele><time>2026-04-29T10:53:25Z</time></trkpt><trkpt lat="43.70402756624908" lon="13.208015620270096"><ele>5.0</ele><time>2026-04-29T10:53:26Z</time></trkpt><trkpt lat="43.70396356384488" lon="13.207917276592678"><ele>5.0</ele><time>2026-04-29T10:53:27Z</time></trkpt><trkpt lat="43.703907237270634" lon="13.207845073973003"><ele>5.0</ele><time>2026-04-29T10:53:28Z</time></trkpt><trkpt lat="43.70385713521026" lon="13.207753222640783"><ele>5.0</ele><time>2026-04-29T10:53:29Z</time></trkpt><trkpt lat="43.70378937938396" lon="13.20767224403947"><ele>5.0</ele><time>2026-04-29T10:53:30Z</time></trkpt><trkpt lat="43.70378127230285" lon="13.207534212002985"><ele>5.0</ele><time>2026-04-29T10:53:31Z</time></trkpt><trkpt lat="43.70372688609178" lon="13.207422743192314"><ele>5.0</ele><time>2026-04-29T10:53:32Z</time></trkpt><trkpt lat="43.7036574967522" lon="13.20731315872632"><ele>5.0</ele><time>2026-04-29T10:53:33Z</time></trkpt><trkpt lat="43.70357512210786" lon="13.207200314921717"><ele>5.4</ele><time>2026-04-29T10:53:34Z</time></trkpt><trkpt lat="43.70349362122823" lon="13.207090015926537"><ele>5.8</ele><time>2026-04-29T10:53:35Z</time></trkpt><trkpt lat="43.703414851095935" lon="13.206994248269819"><ele>6.199999999999999</ele><time>2026-04-29T10:53:36Z</time></trkpt><trkpt lat="43.703331330686964" lon="13.206888463563253"><ele>6.6</ele><time>2026-04-29T10:53:37Z</time></trkpt><trkpt lat="43.70324605572874" lon="13.206783359229416"><ele>7.0</ele><time>2026-04-29T10:53:38Z</time></trkpt><trkpt lat="43.70316717080842" lon="13.20668569238212"><ele>7.0</ele><time>2026-04-29T10:53:39Z</time></trkpt><trkpt lat="43.703090750719966" lon="13.206605251046856"><ele>6.999999999999999</ele><time>2026-04-29T10:53:40Z</time></trkpt><trkpt lat="43.703002692635884" lon="13.206546856033404"><ele>6.999999999999999</ele><time>2026-04-29T10:53:41Z</time></trkpt><trkpt lat="43.702893926005466" lon="13.206497425132866"><ele>7.0</ele><time>2026-04-29T10:53:42Z</time></trkpt><trkpt lat="43.70278844751879" lon="13.206435470352739"><ele>7.0</ele><time>2026-04-29T10:53:43Z</time></trkpt><trkpt lat="43.702686151367175" lon="13.20635620079942"><ele>6.666666666666667</ele><time>2026-04-29T10:53:44Z</time></trkpt><trkpt lat="43.70257894238596" lon="13.206242661871539"><ele>6.333333333333334</ele><time>2026-04-29T10:53:45Z</time></trkpt><trkpt lat="43.70245077135322" lon="13.206103148007825"><ele>6.0</ele><time>2026-04-29T10:53:46Z</time></trkpt><trkpt lat="43.702323511131354" lon="13.205925355601314"><ele>6.0</ele><time>2026-04-29T10:53:47Z</time></trkpt><trkpt lat="43.70218991092805" lon="13.205764477317826"><ele>6.0</ele><time>2026-04-29T10:53:48Z</time></trkpt><trkpt lat="43.70206725988842" lon="13.205614461913957"><ele>6.0</ele><time>2026-04-29T10:53:49Z</time></trkpt><trkpt lat="43.701938184836465" lon="13.205480509603351"><ele>6.0</ele><time>2026-04-29T10:53:50Z</time></trkpt><trkpt lat="43.70182005294758" lon="13.205323785691254"><ele>6.0</ele><time>2026-04-29T10:53:51Z</time></trkpt><trkpt lat="43.70169873391253" lon="13.205165605695667"><ele>6.0</ele><time>2026-04-29T10:53:52Z</time></trkpt><trkpt lat="43.70157890219122" lon="13.205009742652477"><ele>6.0</ele><time>2026-04-29T10:53:53Z</time></trkpt><trkpt lat="43.701463687782336" lon="13.204860609295185"><ele>6.0</ele><time>2026-04-29T10:53:54Z</time></trkpt><trkpt lat="43.70135322028434" lon="13.204721093506837"><ele>6.0</ele><time>2026-04-29T10:53:55Z</time></trkpt><trkpt lat="43.70124786310592" lon="13.204583131948235"><ele>6.0</ele><time>2026-04-29T10:53:56Z</time></trkpt><trkpt lat="43.701150073397756" lon="13.204436929631933"><ele>6.0</ele><time>2026-04-29T10:53:57Z</time></trkpt><trkpt lat="43.70106635506837" lon="13.204300913980177"><ele>6.0</ele><time>2026-04-29T10:53:58Z</time></trkpt><trkpt lat="43.70098763824616" lon="13.204156270960722"><ele>6.0</ele><time>2026-04-29T10:53:59Z</time></trkpt><trkpt lat="43.70090901747179" lon="13.2039914725691"><ele>5.75</ele><time>2026-04-29T10:54:00Z</time></trkpt><trkpt lat="43.70083653779901" lon="13.203804483040338"><ele>5.5</ele><time>2026-04-29T10:54:01Z</time></trkpt><trkpt lat="43.70078198425788" lon="13.203639935276682"><ele>5.25</ele><time>2026-04-29T10:54:02Z</time></trkpt><trkpt lat="43.70074128966323" lon="13.20348610095472"><ele>5.0</ele><time>2026-04-29T10:54:03Z</time></trkpt><trkpt lat="43.700717370052" lon="13.203330826362604"><ele>5.0</ele><time>2026-04-29T10:54:04Z</time></trkpt><trkpt lat="43.700711422279504" lon="13.203163783266913"><ele>5.0</ele><time>2026-04-29T10:54:05Z</time></trkpt><trkpt lat="43.700707802285805" lon="13.202970603960273"><ele>5.0</ele><time>2026-04-29T10:54:06Z</time></trkpt><trkpt lat="43.700716679738804" lon="13.202775827390633"><ele>5.0</ele><time>2026-04-29T10:54:07Z</time></trkpt><trkpt lat="43.700740919008425" lon="13.202559462407683"><ele>5.0</ele><time>2026-04-29T10:54:08Z</time></trkpt><trkpt lat="43.70077159868627" lon="13.20233662816908"><ele>5.0</ele><time>2026-04-29T10:54:09Z</time></trkpt><trkpt lat="43.70081224363472" lon="13.20211577367534"><ele>5.0</ele><time>2026-04-29T10:54:10Z</time></trkpt><trkpt lat="43.70085719914747" lon="13.201884460935146"><ele>5.0</ele><time>2026-04-29T10:54:11Z</time></trkpt><trkpt lat="43.700902481996955" lon="13.201647829607655"><ele>5.0</ele><time>2026-04-29T10:54:12Z</time></trkpt><trkpt lat="43.70095253694291" lon="13.20141346891781"><ele>5.0</ele><time>2026-04-29T10:54:13Z</time></trkpt><trkpt lat="43.701002273863445" lon="13.201151332101949"><ele>5.0</ele><time>2026-04-29T10:54:14Z</time></trkpt><trkpt lat="43.70105412660345" lon="13.200889553039493"><ele>5.0</ele><time>2026-04-29T10:54:15Z</time></trkpt><trkpt lat="43.70110943447339" lon="13.200613771804367"><ele>5.0</ele><time>2026-04-29T10:54:16Z</time></trkpt><trkpt lat="43.70116813937685" lon="13.200329914449405"><ele>5.0</ele><time>2026-04-29T10:54:17Z</time></trkpt><trkpt lat="43.70122462665698" lon="13.200050571639158"><ele>5.0</ele><time>2026-04-29T10:54:18Z</time></trkpt><trkpt lat="43.701282658309566" lon="13.199762921109006"><ele>5.0</ele><time>2026-04-29T10:54:19Z</time></trkpt><trkpt lat="43.70134226723816" lon="13.199473833784298"><ele>5.333333333333334</ele><time>2026-04-29T10:54:20Z</time></trkpt><trkpt lat="43.701402374950526" lon="13.199186724996434"><ele>5.666666666666667</ele><time>2026-04-29T10:54:21Z</time></trkpt><trkpt lat="43.70146190407505" lon="13.198898821636265"><ele>6.0</ele><time>2026-04-29T10:54:22Z</time></trkpt><trkpt lat="43.70151859724943" lon="13.19861341364642"><ele>6.0</ele><time>2026-04-29T10:54:23Z</time></trkpt><trkpt lat="43.70157783620222" lon="13.198331470907025"><ele>6.0</ele><time>2026-04-29T10:54:24Z</time></trkpt><trkpt lat="43.70163828589516" lon="13.198042721791461"><ele>6.0</ele><time>2026-04-29T10:54:25Z</time></trkpt><trkpt lat="43.70169883360851" lon="13.197756923076154"><ele>6.333333333333334</ele><time>2026-04-29T10:54:26Z</time></trkpt><trkpt lat="43.70175661940154" lon="13.19748983680094"><ele>6.666666666666667</ele><time>2026-04-29T10:54:27Z</time></trkpt><trkpt lat="43.701809375800465" lon="13.197208485584028"><ele>7.0</ele><time>2026-04-29T10:54:28Z</time></trkpt><trkpt lat="43.7018657386007" lon="13.19693040334808"><ele>8.0</ele><time>2026-04-29T10:54:29Z</time></trkpt><trkpt lat="43.70192314234973" lon="13.19664994414607"><ele>9.0</ele><time>2026-04-29T10:54:30Z</time></trkpt><trkpt lat="43.70198477372697" lon="13.19637300192829"><ele>10.0</ele><time>2026-04-29T10:54:31Z</time></trkpt><trkpt lat="43.70204766454534" lon="13.196103736848121"><ele>10.0</ele><time>2026-04-29T10:54:32Z</time></trkpt><trkpt lat="43.702102481626135" lon="13.19582607516022"><ele>10.0</ele><time>2026-04-29T10:54:33Z</time></trkpt><trkpt lat="43.70215300266936" lon="13.195556474394683"><ele>10.0</ele><time>2026-04-29T10:54:34Z</time></trkpt><trkpt lat="43.702195953001905" lon="13.19527241108099"><ele>10.333333333333334</ele><time>2026-04-29T10:54:35Z</time></trkpt><trkpt lat="43.7022137696658" lon="13.194984773806109"><ele>10.666666666666666</ele><time>2026-04-29T10:54:36Z</time></trkpt><trkpt lat="43.702208596627" lon="13.194700659639853"><ele>11.0</ele><time>2026-04-29T10:54:37Z</time></trkpt><trkpt lat="43.70219066607505" lon="13.194415322285641"><ele>11.333333333333332</ele><time>2026-04-29T10:54:38Z</time></trkpt><trkpt lat="43.702144863599216" lon="13.194145577025097"><ele>11.666666666666666</ele><time>2026-04-29T10:54:39Z</time></trkpt><trkpt lat="43.70208173435064" lon="13.193882764825299"><ele>12.0</ele><time>2026-04-29T10:54:40Z</time></trkpt><trkpt lat="43.70201401640501" lon="13.193626479985193"><ele>12.666666666666668</ele><time>2026-04-29T10:54:41Z</time></trkpt><trkpt lat="43.70193048946274" lon="13.193382208029512"><ele>13.333333333333334</ele><time>2026-04-29T10:54:42Z</time></trkpt><trkpt lat="43.701823100508705" lon="13.193169643195672"><ele>14.0</ele><time>2026-04-29T10:54:43Z</time></trkpt><trkpt lat="43.701706687266594" lon="13.19296147914219"><ele>14.0</ele><time>2026-04-29T10:54:44Z</time></trkpt><trkpt lat="43.70157536819445" lon="13.192775587113768"><ele>14.0</ele><time>2026-04-29T10:54:45Z</time></trkpt><trkpt lat="43.701437500884104" lon="13.192608638117497"><ele>14.0</ele><time>2026-04-29T10:54:46Z</time></trkpt><trkpt lat="43.70130925596872" lon="13.19247068646561"><ele>14.0</ele><time>2026-04-29T10:54:47Z</time></trkpt><trkpt lat="43.701172291030325" lon="13.19235843336142"><ele>14.0</ele><time>2026-04-29T10:54:48Z</time></trkpt><trkpt lat="43.70100930396477" lon="13.192261622596732"><ele>14.0</ele><time>2026-04-29T10:54:49Z</time></trkpt><trkpt lat="43.7008460479637" lon="13.192179987200412"><ele>14.0</ele><time>2026-04-29T10:54:50Z</time></trkpt><trkpt lat="43.70067978929574" lon="13.192082897943783"><ele>14.0</ele><time>2026-04-29T10:54:51Z</time></trkpt><trkpt lat="43.7005149027472" lon="13.19198719284965"><ele>14.0</ele><time>2026-04-29T10:54:52Z</time></trkpt><trkpt lat="43.70035800725001" lon="13.191889572194283"><ele>14.333333333333334</ele><time>2026-04-29T10:54:53Z</time></trkpt><trkpt lat="43.70018763697039" lon="13.191780850915586"><ele>14.666666666666668</ele><time>2026-04-29T10:54:54Z</time></trkpt><trkpt lat="43.70002139855717" lon="13.19167373258465"><ele>15.0</ele><time>2026-04-29T10:54:55Z</time></trkpt><trkpt lat="43.6998587415112" lon="13.191572796337972"><ele>15.333333333333332</ele><time>2026-04-29T10:54:56Z</time></trkpt><trkpt lat="43.699692918847276" lon="13.191479884425366"><ele>15.666666666666666</ele><time>2026-04-29T10:54:57Z</time></trkpt><trkpt lat="43.6995340216219" lon="13.191379768437077"><ele>16.0</ele><time>2026-04-29T10:54:58Z</time></trkpt><trkpt lat="43.69938668848044" lon="13.191282465991948"><ele>16.666666666666664</ele><time>2026-04-29T10:54:59Z</time></trkpt><trkpt lat="43.69923349151975" lon="13.191186135125731"><ele>17.333333333333332</ele><time>2026-04-29T10:55:00Z</time></trkpt><trkpt lat="43.69908175224237" lon="13.191093001058325"><ele>18.0</ele><time>2026-04-29T10:55:01Z</time></trkpt><trkpt lat="43.698929265042494" lon="13.190993208843569"><ele>18.0</ele><time>2026-04-29T10:55:02Z</time></trkpt><trkpt lat="43.69877414422346" lon="13.190894148230745"><ele>18.0</ele><time>2026-04-29T10:55:03Z</time></trkpt><trkpt lat="43.69862575773957" lon="13.190799127494527"><ele>18.0</ele><time>2026-04-29T10:55:04Z</time></trkpt><trkpt lat="43.698474861017154" lon="13.190703566458359"><ele>18.0</ele><time>2026-04-29T10:55:05Z</time></trkpt><trkpt lat="43.69832194158804" lon="13.19060635093165"><ele>18.0</ele><time>2026-04-29T10:55:06Z</time></trkpt><trkpt lat="43.698174538962554" lon="13.190500661768949"><ele>18.0</ele><time>2026-04-29T10:55:07Z</time></trkpt><trkpt lat="43.69802474421118" lon="13.190388644513773"><ele>18.0</ele><time>2026-04-29T10:55:08Z</time></trkpt><trkpt lat="43.69787708338892" lon="13.190273257535813"><ele>18.0</ele><time>2026-04-29T10:55:09Z</time></trkpt><trkpt lat="43.697735846782145" lon="13.19015137694932"><ele>18.0</ele><time>2026-04-29T10:55:10Z</time></trkpt><trkpt lat="43.69760023763846" lon="13.190020921846935"><ele>18.0</ele><time>2026-04-29T10:55:11Z</time></trkpt><trkpt lat="43.69746134473198" lon="13.189888527710778"><ele>18.0</ele><time>2026-04-29T10:55:12Z</time></trkpt><trkpt lat="43.69732035435068" lon="13.189740224578902"><ele>18.0</ele><time>2026-04-29T10:55:13Z</time></trkpt><trkpt lat="43.69718212933342" lon="13.189594592529536"><ele>18.666666666666668</ele><time>2026-04-29T10:55:14Z</time></trkpt><trkpt lat="43.69704994717576" lon="13.189437273004808"><ele>19.333333333333336</ele><time>2026-04-29T10:55:15Z</time></trkpt><trkpt lat="43.69691620393879" lon="13.189279425045434"><ele>20.0</ele><time>2026-04-29T10:55:16Z</time></trkpt><trkpt lat="43.69679066179978" lon="13.18912674620886"><ele>20.666666666666668</ele><time>2026-04-29T10:55:17Z</time></trkpt><trkpt lat="43.696668665350984" lon="13.188972091849891"><ele>21.333333333333332</ele><time>2026-04-29T10:55:18Z</time></trkpt><trkpt lat="43.69654719422721" lon="13.188819421334513"><ele>22.0</ele><time>2026-04-29T10:55:19Z</time></trkpt><trkpt lat="43.69642278589042" lon="13.188665424724489"><ele>22.0</ele><time>2026-04-29T10:55:20Z</time></trkpt><trkpt lat="43.69630175535848" lon="13.188510455545744"><ele>22.0</ele><time>2026-04-29T10:55:21Z</time></trkpt><trkpt lat="43.69617833098" lon="13.188348486458747"><ele>22.0</ele><time>2026-04-29T10:55:22Z</time></trkpt><trkpt lat="43.69605426236793" lon="13.188186685697087"><ele>22.333333333333332</ele><time>2026-04-29T10:55:23Z</time></trkpt><trkpt lat="43.69592834361058" lon="13.188029671460493"><ele>22.666666666666668</ele><time>2026-04-29T10:55:24Z</time></trkpt><trkpt lat="43.695808150423325" lon="13.18786211221456"><ele>23.0</ele><time>2026-04-29T10:55:25Z</time></trkpt><trkpt lat="43.695694575811956" lon="13.187684583839372"><ele>23.0</ele><time>2026-04-29T10:55:26Z</time></trkpt><trkpt lat="43.69557939645695" lon="13.187511558593524"><ele>23.0</ele><time>2026-04-29T10:55:27Z</time></trkpt><trkpt lat="43.69546429066243" lon="13.187320227068847"><ele>23.0</ele><time>2026-04-29T10:55:28Z</time></trkpt><trkpt lat="43.69535105072182" lon="13.187127575331228"><ele>22.666666666666668</ele><time>2026-04-29T10:55:29Z</time></trkpt><trkpt lat="43.69523816162928" lon="13.186936176681293"><ele>22.333333333333332</ele><time>2026-04-29T10:55:30Z</time></trkpt><trkpt lat="43.69513244271456" lon="13.186722570004138"><ele>22.0</ele><time>2026-04-29T10:55:31Z</time></trkpt><trkpt lat="43.69502261085144" lon="13.186521670249599"><ele>22.666666666666664</ele><time>2026-04-29T10:55:32Z</time></trkpt><trkpt lat="43.694921748982075" lon="13.18632676052477"><ele>23.333333333333332</ele><time>2026-04-29T10:55:33Z</time></trkpt><trkpt lat="43.694815370462074" lon="13.186123568132668"><ele>24.0</ele><time>2026-04-29T10:55:34Z</time></trkpt><trkpt lat="43.69471497485497" lon="13.185917694473233"><ele>24.0</ele><time>2026-04-29T10:55:35Z</time></trkpt><trkpt lat="43.69461018781057" lon="13.18571062599683"><ele>24.0</ele><time>2026-04-29T10:55:36Z</time></trkpt><trkpt lat="43.69450771943479" lon="13.185501299455254"><ele>24.0</ele><time>2026-04-29T10:55:37Z</time></trkpt><trkpt lat="43.694408509658146" lon="13.185291739738874"><ele>23.666666666666668</ele><time>2026-04-29T10:55:38Z</time></trkpt><trkpt lat="43.694307397177774" lon="13.185092428713633"><ele>23.333333333333336</ele><time>2026-04-29T10:55:39Z</time></trkpt><trkpt lat="43.694205849330544" lon="13.18488473902956"><ele>23.0</ele><time>2026-04-29T10:55:40Z</time></trkpt><trkpt lat="43.69410245443227" lon="13.184673814003597"><ele>23.666666666666668</ele><time>2026-04-29T10:55:41Z</time></trkpt><trkpt lat="43.69400569286638" lon="13.184482402293096"><ele>24.333333333333336</ele><time>2026-04-29T10:55:42Z</time></trkpt><trkpt lat="43.693899552850226" lon="13.184278561672059"><ele>25.0</ele><time>2026-04-29T10:55:43Z</time></trkpt><trkpt lat="43.69379116227431" lon="13.184077814553236"><ele>25.666666666666668</ele><time>2026-04-29T10:55:44Z</time></trkpt><trkpt lat="43.69368269223491" lon="13.183874934914787"><ele>26.333333333333336</ele><time>2026-04-29T10:55:45Z</time></trkpt><trkpt lat="43.69356020008437" lon="13.183678232850808"><ele>27.0</ele><time>2026-04-29T10:55:46Z</time></trkpt><trkpt lat="43.693450537475144" lon="13.18347787359538"><ele>27.0</ele><time>2026-04-29T10:55:47Z</time></trkpt><trkpt lat="43.693328107883886" lon="13.18328484164209"><ele>27.0</ele><time>2026-04-29T10:55:48Z</time></trkpt><trkpt lat="43.69319908252648" lon="13.183094538332988"><ele>27.0</ele><time>2026-04-29T10:55:49Z</time></trkpt><trkpt lat="43.693078265150476" lon="13.182907883188275"><ele>27.666666666666664</ele><time>2026-04-29T10:55:50Z</time></trkpt><trkpt lat="43.692951450568785" lon="13.182721799103195"><ele>28.333333333333332</ele><time>2026-04-29T10:55:51Z</time></trkpt><trkpt lat="43.69282106019295" lon="13.182531592943334"><ele>29.0</ele><time>2026-04-29T10:55:52Z</time></trkpt><trkpt lat="43.69269078507366" lon="13.182350475040918"><ele>29.0</ele><time>2026-04-29T10:55:53Z</time></trkpt><trkpt lat="43.6925614337312" lon="13.18217268797933"><ele>29.0</ele><time>2026-04-29T10:55:54Z</time></trkpt><trkpt lat="43.69242906417027" lon="13.182009462794742"><ele>29.0</ele><time>2026-04-29T10:55:55Z</time></trkpt><trkpt lat="43.692288877735244" lon="13.181829548405245"><ele>29.0</ele><time>2026-04-29T10:55:56Z</time></trkpt><trkpt lat="43.692156026494914" lon="13.181669089371443"><ele>29.0</ele><time>2026-04-29T10:55:57Z</time></trkpt><trkpt lat="43.69201248394871" lon="13.181494597704578"><ele>29.0</ele><time>2026-04-29T10:55:58Z</time></trkpt><trkpt lat="43.69186951853557" lon="13.181326623238656"><ele>28.666666666666664</ele><time>2026-04-29T10:55:59Z</time></trkpt><trkpt lat="43.691735854935985" lon="13.181166531536796"><ele>28.333333333333336</ele><time>2026-04-29T10:56:00Z</time></trkpt><trkpt lat="43.6915992613529" lon="13.181002159623976"><ele>28.0</ele><time>2026-04-29T10:56:01Z</time></trkpt><trkpt lat="43.69146292776687" lon="13.180839898602645"><ele>27.666666666666668</ele><time>2026-04-29T10:56:02Z</time></trkpt><trkpt lat="43.69132636832766" lon="13.18067485479932"><ele>27.333333333333336</ele><time>2026-04-29T10:56:03Z</time></trkpt><trkpt lat="43.69119454458516" lon="13.180507317973296"><ele>27.0</ele><time>2026-04-29T10:56:04Z</time></trkpt><trkpt lat="43.69105537029689" lon="13.180339408444238"><ele>27.666666666666664</ele><time>2026-04-29T10:56:05Z</time></trkpt><trkpt lat="43.690923141762205" lon="13.180173789532262"><ele>28.333333333333332</ele><time>2026-04-29T10:56:06Z</time></trkpt><trkpt lat="43.69078891150027" lon="13.180009196902857"><ele>29.0</ele><time>2026-04-29T10:56:07Z</time></trkpt><trkpt lat="43.69065689036738" lon="13.179837920582015"><ele>27.333333333333332</ele><time>2026-04-29T10:56:08Z</time></trkpt><trkpt lat="43.69052541472107" lon="13.179669474776443"><ele>25.666666666666664</ele><time>2026-04-29T10:56:09Z</time></trkpt><trkpt lat="43.690385262161875" lon="13.179510137091917"><ele>24.0</ele><time>2026-04-29T10:56:10Z</time></trkpt><trkpt lat="43.69024657236596" lon="13.179353890503673"><ele>22.666666666666668</ele><time>2026-04-29T10:56:11Z</time></trkpt><trkpt lat="43.69009660494579" lon="13.179175771146442"><ele>21.333333333333336</ele><time>2026-04-29T10:56:12Z</time></trkpt><trkpt lat="43.68994510337726" lon="13.179010164160857"><ele>20.0</ele><time>2026-04-29T10:56:13Z</time></trkpt><trkpt lat="43.68977754449426" lon="13.178887674050591"><ele>19.0</ele><time>2026-04-29T10:56:14Z</time></trkpt><trkpt lat="43.689616193566536" lon="13.178780990940448"><ele>18.0</ele><time>2026-04-29T10:56:15Z</time></trkpt><trkpt lat="43.68946226617921" lon="13.178705465251747"><ele>17.0</ele><time>2026-04-29T10:56:16Z</time></trkpt><trkpt lat="43.68932598794035" lon="13.178652909447068"><ele>16.75</ele><time>2026-04-29T10:56:17Z</time></trkpt><trkpt lat="43.689190802881" lon="13.178612276205943"><ele>16.5</ele><time>2026-04-29T10:56:18Z</time></trkpt><trkpt lat="43.68905582268359" lon="13.178577732129476"><ele>16.25</ele><time>2026-04-29T10:56:19Z</time></trkpt><trkpt lat="43.68893214624503" lon="13.17855123561082"><ele>16.0</ele><time>2026-04-29T10:56:20Z</time></trkpt><trkpt lat="43.68883079780776" lon="13.178519283227718"><ele>16.0</ele><time>2026-04-29T10:56:21Z</time></trkpt><trkpt lat="43.68874893767282" lon="13.178507053047305"><ele>16.0</ele><time>2026-04-29T10:56:22Z</time></trkpt><trkpt lat="43.68868905638046" lon="13.178394628958658"><ele>16.0</ele><time>2026-04-29T10:56:23Z</time></trkpt><trkpt lat="43.68865310753413" lon="13.178289861784885"><ele>16.0</ele><time>2026-04-29T10:56:24Z</time></trkpt><trkpt lat="43.68860717805379" lon="13.178203715123676"><ele>16.0</ele><time>2026-04-29T10:56:25Z</time></trkpt><trkpt lat="43.68862205015149" lon="13.178053541029595"><ele>16.2</ele><time>2026-04-29T10:56:26Z</time></trkpt><trkpt lat="43.688628753847055" lon="13.177925668055723"><ele>16.400000000000002</ele><time>2026-04-29T10:56:27Z</time></trkpt><trkpt lat="43.688630347747775" lon="13.177828940122232"><ele>16.6</ele><time>2026-04-29T10:56:28Z</time></trkpt><trkpt lat="43.68846751892952" lon="13.177770944377597"><ele>16.8</ele><time>2026-04-29T10:56:29Z</time></trkpt><trkpt lat="43.688367206854785" lon="13.177728399077346"><ele>17.0</ele><time>2026-04-29T10:56:30Z</time></trkpt><trkpt lat="43.68824870945033" lon="13.177682000218855"><ele>17.2</ele><time>2026-04-29T10:56:31Z</time></trkpt><trkpt lat="43.68812518677089" lon="13.177621619082135"><ele>17.4</ele><time>2026-04-29T10:56:32Z</time></trkpt><trkpt lat="43.688021056761016" lon="13.177551956667337"><ele>17.6</ele><time>2026-04-29T10:56:33Z</time></trkpt><trkpt lat="43.68793138325245" lon="13.177489104619855"><ele>17.8</ele><time>2026-04-29T10:56:34Z</time></trkpt><trkpt lat="43.68784238115457" lon="13.177430803471893"><ele>18.0</ele><time>2026-04-29T10:56:35Z</time></trkpt><trkpt lat="43.68775393677963" lon="13.177344098419253"><ele>20.25</ele><time>2026-04-29T10:56:36Z</time></trkpt><trkpt lat="43.687659503039676" lon="13.177274682502189"><ele>22.5</ele><time>2026-04-29T10:56:37Z</time></trkpt><trkpt lat="43.687600838452994" lon="13.177084082222926"><ele>24.75</ele><time>2026-04-29T10:56:38Z</time></trkpt><trkpt lat="43.68752212470508" lon="13.176897273859712"><ele>27.0</ele><time>2026-04-29T10:56:39Z</time></trkpt><trkpt lat="43.68745626555181" lon="13.17668361431524"><ele>30.333333333333336</ele><time>2026-04-29T10:56:40Z</time></trkpt><trkpt lat="43.68734999620922" lon="13.176464622327352"><ele>33.66666666666667</ele><time>2026-04-29T10:56:41Z</time></trkpt><trkpt lat="43.6872169475419" lon="13.176274950061238"><ele>37.0</ele><time>2026-04-29T10:56:42Z</time></trkpt><trkpt lat="43.68710815911302" lon="13.176096281231535"><ele>37.0</ele><time>2026-04-29T10:56:43Z</time></trkpt><trkpt lat="43.68703681715932" lon="13.175923775099426"><ele>37.0</ele><time>2026-04-29T10:56:44Z</time></trkpt><trkpt lat="43.686967739735096" lon="13.175750975274207"><ele>37.0</ele><time>2026-04-29T10:56:45Z</time></trkpt><trkpt lat="43.68690849554148" lon="13.175574764275812"><ele>37.0</ele><time>2026-04-29T10:56:46Z</time></trkpt><trkpt lat="43.68685189913346" lon="13.175376395706538"><ele>36.66666666666667</ele><time>2026-04-29T10:56:47Z</time></trkpt><trkpt lat="43.68680228499249" lon="13.175164199643987"><ele>36.333333333333336</ele><time>2026-04-29T10:56:48Z</time></trkpt><trkpt lat="43.68675653053735" lon="13.174936522018886"><ele>36.0</ele><time>2026-04-29T10:56:49Z</time></trkpt><trkpt lat="43.68670040301702" lon="13.174713177321117"><ele>37.666666666666664</ele><time>2026-04-29T10:56:50Z</time></trkpt><trkpt lat="43.68667253660209" lon="13.174468527792444"><ele>39.33333333333333</ele><time>2026-04-29T10:56:51Z</time></trkpt><trkpt lat="43.68663255454596" lon="13.174232454810827"><ele>41.0</ele><time>2026-04-29T10:56:52Z</time></trkpt><trkpt lat="43.68658952134559" lon="13.173981986071304"><ele>44.666666666666664</ele><time>2026-04-29T10:56:53Z</time></trkpt><trkpt lat="43.68653280267595" lon="13.17374798635876"><ele>48.33333333333333</ele><time>2026-04-29T10:56:54Z</time></trkpt><trkpt lat="43.686487399509794" lon="13.173503921482217"><ele>52.0</ele><time>2026-04-29T10:56:55Z</time></trkpt><trkpt lat="43.686440674389615" lon="13.173258475092423"><ele>55.0</ele><time>2026-04-29T10:56:56Z</time></trkpt><trkpt lat="43.68639279491409" lon="13.173020811289007"><ele>58.0</ele><time>2026-04-29T10:56:57Z</time></trkpt><trkpt lat="43.686341172615826" lon="13.172804876922648"><ele>61.0</ele><time>2026-04-29T10:56:58Z</time></trkpt><trkpt lat="43.68627870770099" lon="13.172576441073403"><ele>61.0</ele><time>2026-04-29T10:56:59Z</time></trkpt><trkpt lat="43.6862265319798" lon="13.172371678726178"><ele>61.0</ele><time>2026-04-29T10:57:00Z</time></trkpt><trkpt lat="43.68615363358492" lon="13.172208078016164"><ele>61.0</ele><time>2026-04-29T10:57:01Z</time></trkpt><trkpt lat="43.686111883551085" lon="13.172055028094723"><ele>61.0</ele><time>2026-04-29T10:57:02Z</time></trkpt><trkpt lat="43.68609170981057" lon="13.171892266345552"><ele>61.0</ele><time>2026-04-29T10:57:03Z</time></trkpt><trkpt lat="43.68607817097283" lon="13.171720740146313"><ele>61.0</ele><time>2026-04-29T10:57:04Z</time></trkpt><trkpt lat="43.686070292771994" lon="13.171550934188387"><ele>61.0</ele><time>2026-04-29T10:57:05Z</time></trkpt><trkpt lat="43.68610177165263" lon="13.171376358528368"><ele>61.0</ele><time>2026-04-29T10:57:06Z</time></trkpt><trkpt lat="43.68612354191851" lon="13.171196306983568"><ele>64.5</ele><time>2026-04-29T10:57:07Z</time></trkpt><trkpt lat="43.68618342007111" lon="13.17102520749221"><ele>68.0</ele><time>2026-04-29T10:57:08Z</time></trkpt><trkpt lat="43.68626117793386" lon="13.17084044005373"><ele>71.5</ele><time>2026-04-29T10:57:09Z</time></trkpt><trkpt lat="43.686351662678916" lon="13.170665304539849"><ele>75.0</ele><time>2026-04-29T10:57:10Z</time></trkpt><trkpt lat="43.68643895987482" lon="13.170478062173167"><ele>75.0</ele><time>2026-04-29T10:57:11Z</time></trkpt><trkpt lat="43.68653319859836" lon="13.170302289087552"><ele>75.0</ele><time>2026-04-29T10:57:12Z</time></trkpt><trkpt lat="43.68663336808278" lon="13.170157355598743"><ele>75.0</ele><time>2026-04-29T10:57:13Z</time></trkpt><trkpt lat="43.686744455776626" lon="13.170020235493713"><ele>75.0</ele><time>2026-04-29T10:57:14Z</time></trkpt><trkpt lat="43.68685447737503" lon="13.169887737103872"><ele>75.0</ele><time>2026-04-29T10:57:15Z</time></trkpt><trkpt lat="43.68698489518148" lon="13.16980613691163"><ele>75.0</ele><time>2026-04-29T10:57:16Z</time></trkpt><trkpt lat="43.68713804377956" lon="13.169752307300778"><ele>75.0</ele><time>2026-04-29T10:57:17Z</time></trkpt><trkpt lat="43.68727938347167" lon="13.169659532855945"><ele>76.66666666666667</ele><time>2026-04-29T10:57:18Z</time></trkpt><trkpt lat="43.687443211641835" lon="13.169600671514155"><ele>78.33333333333334</ele><time>2026-04-29T10:57:19Z</time></trkpt><trkpt lat="43.68759546317767" lon="13.16947670219991"><ele>80.0</ele><time>2026-04-29T10:57:20Z</time></trkpt><trkpt lat="43.68772829009481" lon="13.1693645008513"><ele>80.0</ele><time>2026-04-29T10:57:21Z</time></trkpt><trkpt lat="43.68784596007895" lon="13.16925267373174"><ele>80.0</ele><time>2026-04-29T10:57:22Z</time></trkpt><trkpt lat="43.68791137485752" lon="13.169090877967923"><ele>80.0</ele><time>2026-04-29T10:57:23Z</time></trkpt><trkpt lat="43.68796447798889" lon="13.168917490485905"><ele>80.0</ele><time>2026-04-29T10:57:24Z</time></trkpt><trkpt lat="43.68801126758243" lon="13.168713999599898"><ele>80.0</ele><time>2026-04-29T10:57:25Z</time></trkpt><trkpt lat="43.68806903570326" lon="13.16849641130066"><ele>80.0</ele><time>2026-04-29T10:57:26Z</time></trkpt><trkpt lat="43.68813722095172" lon="13.168284691639583"><ele>80.0</ele><time>2026-04-29T10:57:27Z</time></trkpt><trkpt lat="43.68821664917649" lon="13.168081348855202"><ele>81.0</ele><time>2026-04-29T10:57:28Z</time></trkpt><trkpt lat="43.688300471076765" lon="13.167874537192413"><ele>82.0</ele><time>2026-04-29T10:57:29Z</time></trkpt><trkpt lat="43.68836940102128" lon="13.167651765304951"><ele>83.0</ele><time>2026-04-29T10:57:30Z</time></trkpt><trkpt lat="43.68842022957886" lon="13.167407703485583"><ele>84.66666666666667</ele><time>2026-04-29T10:57:31Z</time></trkpt><trkpt lat="43.68845675318577" lon="13.167145387142755"><ele>86.33333333333333</ele><time>2026-04-29T10:57:32Z</time></trkpt><trkpt lat="43.68848555065837" lon="13.166884896291663"><ele>88.0</ele><time>2026-04-29T10:57:33Z</time></trkpt><trkpt lat="43.68851791039392" lon="13.166634370182159"><ele>89.33333333333333</ele><time>2026-04-29T10:57:34Z</time></trkpt><trkpt lat="43.68855563781805" lon="13.16640655652581"><ele>90.66666666666667</ele><time>2026-04-29T10:57:35Z</time></trkpt><trkpt lat="43.68859062069869" lon="13.166163833983154"><ele>92.0</ele><time>2026-04-29T10:57:36Z</time></trkpt><trkpt lat="43.688613446859414" lon="13.165918003083645"><ele>88.33333333333334</ele><time>2026-04-29T10:57:37Z</time></trkpt><trkpt lat="43.688633458445096" lon="13.165625979154017"><ele>84.66666666666667</ele><time>2026-04-29T10:57:38Z</time></trkpt><trkpt lat="43.688645319285826" lon="13.165330618824397"><ele>81.0</ele><time>2026-04-29T10:57:39Z</time></trkpt><trkpt lat="43.68864620651923" lon="13.165126658170385"><ele>81.0</ele><time>2026-04-29T10:57:40Z</time></trkpt><trkpt lat="43.68864842869166" lon="13.16487222817289"><ele>81.0</ele><time>2026-04-29T10:57:41Z</time></trkpt><trkpt lat="43.68865812991178" lon="13.164630354444611"><ele>81.0</ele><time>2026-04-29T10:57:42Z</time></trkpt><trkpt lat="43.68865836372129" lon="13.164391050418436"><ele>83.33333333333333</ele><time>2026-04-29T10:57:43Z</time></trkpt><trkpt lat="43.688671161569616" lon="13.164171133775382"><ele>85.66666666666666</ele><time>2026-04-29T10:57:44Z</time></trkpt><trkpt lat="43.68869714107397" lon="13.163941272853984"><ele>88.0</ele><time>2026-04-29T10:57:45Z</time></trkpt><trkpt lat="43.68874035683909" lon="13.163690803668914"><ele>90.66666666666666</ele><time>2026-04-29T10:57:46Z</time></trkpt><trkpt lat="43.688804826383816" lon="13.163464374136904"><ele>93.33333333333333</ele><time>2026-04-29T10:57:47Z</time></trkpt><trkpt lat="43.688891291603774" lon="13.163239099986601"><ele>96.0</ele><time>2026-04-29T10:57:48Z</time></trkpt><trkpt lat="43.688992674387976" lon="13.163013815474626"><ele>99.0</ele><time>2026-04-29T10:57:49Z</time></trkpt><trkpt lat="43.6890929632795" lon="13.162799309279368"><ele>102.0</ele><time>2026-04-29T10:57:50Z</time></trkpt><trkpt lat="43.68918533174352" lon="13.16260172360722"><ele>105.0</ele><time>2026-04-29T10:57:51Z</time></trkpt><trkpt lat="43.689273119488675" lon="13.162386318370661"><ele>105.33333333333334</ele><time>2026-04-29T10:57:52Z</time></trkpt><trkpt lat="43.68935455567281" lon="13.162166117352456"><ele>105.66666666666667</ele><time>2026-04-29T10:57:53Z</time></trkpt><trkpt lat="43.68943415049454" lon="13.16196201280368"><ele>106.0</ele><time>2026-04-29T10:57:54Z</time></trkpt><trkpt lat="43.689514426106015" lon="13.161740117595095"><ele>107.33333333333334</ele><time>2026-04-29T10:57:55Z</time></trkpt><trkpt lat="43.689593472832726" lon="13.161505207421769"><ele>108.66666666666666</ele><time>2026-04-29T10:57:56Z</time></trkpt><trkpt lat="43.689691161565115" lon="13.161255368661505"><ele>110.0</ele><time>2026-04-29T10:57:57Z</time></trkpt><trkpt lat="43.68978138515399" lon="13.16100278631452"><ele>110.0</ele><time>2026-04-29T10:57:58Z</time></trkpt><trkpt lat="43.68987256702861" lon="13.16073775118672"><ele>110.0</ele><time>2026-04-29T10:57:59Z</time></trkpt><trkpt lat="43.68995628457828" lon="13.160489674043985"><ele>110.0</ele><time>2026-04-29T10:58:00Z</time></trkpt><trkpt lat="43.69004141133862" lon="13.160276630139359"><ele>110.66666666666666</ele><time>2026-04-29T10:58:01Z</time></trkpt><trkpt lat="43.690152743324475" lon="13.16010829581239"><ele>111.33333333333334</ele><time>2026-04-29T10:58:02Z</time></trkpt><trkpt lat="43.69027007107074" lon="13.15994774150717"><ele>112.0</ele><time>2026-04-29T10:58:03Z</time></trkpt><trkpt lat="43.690394180335915" lon="13.15977135925503"><ele>113.66666666666667</ele><time>2026-04-29T10:58:04Z</time></trkpt><trkpt lat="43.69052445639041" lon="13.159606282101189"><ele>115.33333333333334</ele><time>2026-04-29T10:58:05Z</time></trkpt><trkpt lat="43.69065546873386" lon="13.159426755172195"><ele>117.0</ele><time>2026-04-29T10:58:06Z</time></trkpt><trkpt lat="43.690794062331136" lon="13.159263089777559"><ele>117.0</ele><time>2026-04-29T10:58:07Z</time></trkpt><trkpt lat="43.690905894657476" lon="13.159078292095119"><ele>117.0</ele><time>2026-04-29T10:58:08Z</time></trkpt><trkpt lat="43.691000193787204" lon="13.158877312337685"><ele>117.0</ele><time>2026-04-29T10:58:09Z</time></trkpt><trkpt lat="43.6910713483972" lon="13.158650152440341"><ele>116.0</ele><time>2026-04-29T10:58:10Z</time></trkpt><trkpt lat="43.69111300243889" lon="13.158395965093808"><ele>115.0</ele><time>2026-04-29T10:58:11Z</time></trkpt><trkpt lat="43.69115823646456" lon="13.158156412059379"><ele>114.0</ele><time>2026-04-29T10:58:12Z</time></trkpt><trkpt lat="43.69120799468357" lon="13.157920610939149"><ele>117.0</ele><time>2026-04-29T10:58:13Z</time></trkpt><trkpt lat="43.69124774288101" lon="13.157689664948482"><ele>120.0</ele><time>2026-04-29T10:58:14Z</time></trkpt><trkpt lat="43.69130147985423" lon="13.157440839447217"><ele>123.0</ele><time>2026-04-29T10:58:15Z</time></trkpt><trkpt lat="43.691364857096396" lon="13.15721914588822"><ele>124.66666666666666</ele><time>2026-04-29T10:58:16Z</time></trkpt><trkpt lat="43.69144821819099" lon="13.157031313027122"><ele>126.33333333333333</ele><time>2026-04-29T10:58:17Z</time></trkpt><trkpt lat="43.691521723479966" lon="13.156850030460973"><ele>128.0</ele><time>2026-04-29T10:58:18Z</time></trkpt><trkpt lat="43.691596624008504" lon="13.15664216169281"><ele>128.66666666666666</ele><time>2026-04-29T10:58:19Z</time></trkpt><trkpt lat="43.691696919599266" lon="13.156420815693238"><ele>129.33333333333334</ele><time>2026-04-29T10:58:20Z</time></trkpt><trkpt lat="43.691778124391014" lon="13.15621415115798"><ele>130.0</ele><time>2026-04-29T10:58:21Z</time></trkpt><trkpt lat="43.69185660787469" lon="13.156004111017179"><ele>128.33333333333334</ele><time>2026-04-29T10:58:22Z</time></trkpt><trkpt lat="43.691930728771766" lon="13.155797058252695"><ele>126.66666666666666</ele><time>2026-04-29T10:58:23Z</time></trkpt><trkpt lat="43.69200237584458" lon="13.155602848269373"><ele>125.0</ele><time>2026-04-29T10:58:24Z</time></trkpt><trkpt lat="43.692077244572616" lon="13.155404914352852"><ele>125.0</ele><time>2026-04-29T10:58:25Z</time></trkpt><trkpt lat="43.692152248493166" lon="13.155193901359842"><ele>125.0</ele><time>2026-04-29T10:58:26Z</time></trkpt><trkpt lat="43.69224995465381" lon="13.154997105577463"><ele>125.0</ele><time>2026-04-29T10:58:27Z</time></trkpt><trkpt lat="43.69235168499834" lon="13.154784661608922"><ele>125.66666666666666</ele><time>2026-04-29T10:58:28Z</time></trkpt><trkpt lat="43.69246087097603" lon="13.154556648005164"><ele>126.33333333333334</ele><time>2026-04-29T10:58:29Z</time></trkpt><trkpt lat="43.692569456318466" lon="13.154328553707966"><ele>127.0</ele><time>2026-04-29T10:58:30Z</time></trkpt><trkpt lat="43.69266874814966" lon="13.154117788699176"><ele>128.66666666666669</ele><time>2026-04-29T10:58:31Z</time></trkpt><trkpt lat="43.69276647989274" lon="13.15391033480477"><ele>130.33333333333334</ele><time>2026-04-29T10:58:32Z</time></trkpt><trkpt lat="43.69287032994935" lon="13.153689675540004"><ele>132.0</ele><time>2026-04-29T10:58:33Z</time></trkpt><trkpt lat="43.69298162050194" lon="13.153453062368925"><ele>132.0</ele><time>2026-04-29T10:58:34Z</time></trkpt><trkpt lat="43.69308000601969" lon="13.153243886317755"><ele>132.0</ele><time>2026-04-29T10:58:35Z</time></trkpt><trkpt lat="43.69317712373979" lon="13.153037406070224"><ele>132.0</ele><time>2026-04-29T10:58:36Z</time></trkpt><trkpt lat="43.693255429812965" lon="13.15282273657052"><ele>132.66666666666666</ele><time>2026-04-29T10:58:37Z</time></trkpt><trkpt lat="43.69335315873334" lon="13.152610876643806"><ele>133.33333333333331</ele><time>2026-04-29T10:58:38Z</time></trkpt><trkpt lat="43.69344963825422" lon="13.152404983653552"><ele>134.0</ele><time>2026-04-29T10:58:39Z</time></trkpt><trkpt lat="43.69354017914557" lon="13.152209887046524"><ele>129.66666666666666</ele><time>2026-04-29T10:58:40Z</time></trkpt><trkpt lat="43.69362131791976" lon="13.15202392246904"><ele>125.33333333333334</ele><time>2026-04-29T10:58:41Z</time></trkpt><trkpt lat="43.693692630265296" lon="13.151826088549756"><ele>121.0</ele><time>2026-04-29T10:58:42Z</time></trkpt><trkpt lat="43.693752192982366" lon="13.151617718378573"><ele>122.66666666666667</ele><time>2026-04-29T10:58:43Z</time></trkpt><trkpt lat="43.69379756533537" lon="13.151399893002298"><ele>124.33333333333334</ele><time>2026-04-29T10:58:44Z</time></trkpt><trkpt lat="43.69383110963062" lon="13.15116414775327"><ele>126.0</ele><time>2026-04-29T10:58:45Z</time></trkpt><trkpt lat="43.693852639667824" lon="13.15093061768718"><ele>126.0</ele><time>2026-04-29T10:58:46Z</time></trkpt><trkpt lat="43.693875991444195" lon="13.150727752984805"><ele>126.0</ele><time>2026-04-29T10:58:47Z</time></trkpt><trkpt lat="43.69390123062949" lon="13.150538532675553"><ele>126.0</ele><time>2026-04-29T10:58:48Z</time></trkpt><trkpt lat="43.69392749553423" lon="13.150363197796677"><ele>126.0</ele><time>2026-04-29T10:58:49Z</time></trkpt><trkpt lat="43.69395405691496" lon="13.150198475879415"><ele>127.5</ele><time>2026-04-29T10:58:50Z</time></trkpt><trkpt lat="43.693971195929336" lon="13.150042048843822"><ele>129.0</ele><time>2026-04-29T10:58:51Z</time></trkpt><trkpt lat="43.69398276059899" lon="13.149886778248248"><ele>130.5</ele><time>2026-04-29T10:58:52Z</time></trkpt><trkpt lat="43.69398639506411" lon="13.149730754703107"><ele>132.0</ele><time>2026-04-29T10:58:53Z</time></trkpt><trkpt lat="43.69398708828624" lon="13.14956059265186"><ele>133.75</ele><time>2026-04-29T10:58:54Z</time></trkpt><trkpt lat="43.69397654534602" lon="13.149358215465023"><ele>135.5</ele><time>2026-04-29T10:58:55Z</time></trkpt><trkpt lat="43.69395432540261" lon="13.149156037673224"><ele>137.25</ele><time>2026-04-29T10:58:56Z</time></trkpt><trkpt lat="43.693921796039746" lon="13.148953102121546"><ele>139.0</ele><time>2026-04-29T10:58:57Z</time></trkpt><trkpt lat="43.69388428829672" lon="13.148736748166886"><ele>141.25</ele><time>2026-04-29T10:58:58Z</time></trkpt><trkpt lat="43.69384215278894" lon="13.148517022582926"><ele>143.5</ele><time>2026-04-29T10:58:59Z</time></trkpt><trkpt lat="43.69383270688819" lon="13.148333758681979"><ele>145.75</ele><time>2026-04-29T10:59:00Z</time></trkpt><trkpt lat="43.693878930283866" lon="13.148189485618962"><ele>148.0</ele><time>2026-04-29T10:59:01Z</time></trkpt><trkpt lat="43.693922576845" lon="13.148056981332799"><ele>148.25</ele><time>2026-04-29T10:59:02Z</time></trkpt><trkpt lat="43.69402964095988" lon="13.147982012661503"><ele>148.5</ele><time>2026-04-29T10:59:03Z</time></trkpt><trkpt lat="43.69414569982152" lon="13.147869968167491"><ele>148.75</ele><time>2026-04-29T10:59:04Z</time></trkpt><trkpt lat="43.69427705741156" lon="13.147723270509363"><ele>149.0</ele><time>2026-04-29T10:59:05Z</time></trkpt><trkpt lat="43.69440839666192" lon="13.14758355383363"><ele>149.25</ele><time>2026-04-29T10:59:06Z</time></trkpt><trkpt lat="43.69453156996443" lon="13.147449282630479"><ele>149.5</ele><time>2026-04-29T10:59:07Z</time></trkpt><trkpt lat="43.69463637629398" lon="13.147310191772663"><ele>149.75</ele><time>2026-04-29T10:59:08Z</time></trkpt><trkpt lat="43.69474235305489" lon="13.147182114984032"><ele>150.0</ele><time>2026-04-29T10:59:09Z</time></trkpt><trkpt lat="43.694837064810685" lon="13.14707062322464"><ele>150.0</ele><time>2026-04-29T10:59:10Z</time></trkpt><trkpt lat="43.69492458134627" lon="13.146942273927559"><ele>150.0</ele><time>2026-04-29T10:59:11Z</time></trkpt><trkpt lat="43.69501717652551" lon="13.146825461240553"><ele>150.0</ele><time>2026-04-29T10:59:12Z</time></trkpt><trkpt lat="43.69511773192665" lon="13.14670098451596"><ele>150.0</ele><time>2026-04-29T10:59:13Z</time></trkpt><trkpt lat="43.69521609600342" lon="13.146556347339937"><ele>149.75</ele><time>2026-04-29T10:59:14Z</time></trkpt><trkpt lat="43.695308500833676" lon="13.14642650463617"><ele>149.5</ele><time>2026-04-29T10:59:15Z</time></trkpt><trkpt lat="43.69539883598683" lon="13.146324335122653"><ele>149.25</ele><time>2026-04-29T10:59:16Z</time></trkpt><trkpt lat="43.69548379344504" lon="13.14622894759373"><ele>149.0</ele><time>2026-04-29T10:59:17Z</time></trkpt><trkpt lat="43.69556750484485" lon="13.146117213817545"><ele>149.0</ele><time>2026-04-29T10:59:18Z</time></trkpt><trkpt lat="43.69565326508977" lon="13.145994161600084"><ele>149.0</ele><time>2026-04-29T10:59:19Z</time></trkpt><trkpt lat="43.69572491499399" lon="13.145867256033805"><ele>149.0</ele><time>2026-04-29T10:59:20Z</time></trkpt><trkpt lat="43.69576817491201" lon="13.145732319305141"><ele>149.0</ele><time>2026-04-29T10:59:21Z</time></trkpt><trkpt lat="43.69580471064077" lon="13.145574295796001"><ele>149.0</ele><time>2026-04-29T10:59:22Z</time></trkpt><trkpt lat="43.695824921597456" lon="13.145400605951341"><ele>149.0</ele><time>2026-04-29T10:59:23Z</time></trkpt><trkpt lat="43.69583521536961" lon="13.145220088239705"><ele>149.0</ele><time>2026-04-29T10:59:24Z</time></trkpt><trkpt lat="43.69583803793391" lon="13.145069109612676"><ele>149.0</ele><time>2026-04-29T10:59:25Z</time></trkpt><trkpt lat="43.69581870012246" lon="13.144959296539838"><ele>149.0</ele><time>2026-04-29T10:59:26Z</time></trkpt><trkpt lat="43.695787769989025" lon="13.144879194761316"><ele>149.0</ele><time>2026-04-29T10:59:27Z</time></trkpt><trkpt lat="43.69575079078371" lon="13.14480753326952"><ele>149.0</ele><time>2026-04-29T10:59:28Z</time></trkpt><trkpt lat="43.69569717202341" lon="13.14469342120915"><ele>149.0</ele><time>2026-04-29T10:59:30Z</time></trkpt><trkpt lat="43.695746739166424" lon="13.14458828527316"><ele>149.0</ele><time>2026-04-29T10:59:32Z</time></trkpt><trkpt lat="43.69585952308252" lon="13.144559726165937"><ele>149.0</ele><time>2026-04-29T10:59:34Z</time></trkpt><trkpt lat="43.695938469388466" lon="13.144541901367168"><ele>149.0</ele><time>2026-04-29T10:59:35Z</time></trkpt><trkpt lat="43.696048188274695" lon="13.14453813321712"><ele>147.8</ele><time>2026-04-29T10:59:36Z</time></trkpt><trkpt lat="43.69615946933524" lon="13.144528854643651"><ele>146.60000000000002</ele><time>2026-04-29T10:59:37Z</time></trkpt><trkpt lat="43.696277424386075" lon="13.144549548091394"><ele>145.4</ele><time>2026-04-29T10:59:38Z</time></trkpt><trkpt lat="43.69637849568333" lon="13.14454954809688"><ele>144.20000000000002</ele><time>2026-04-29T10:59:39Z</time></trkpt><trkpt lat="43.69646453240245" lon="13.144545006609622"><ele>143.0</ele><time>2026-04-29T10:59:40Z</time></trkpt><trkpt lat="43.696548858452594" lon="13.144592579082827"><ele>143.0</ele><time>2026-04-29T10:59:41Z</time></trkpt><trkpt lat="43.696626153056116" lon="13.14465955159103"><ele>143.0</ele><time>2026-04-29T10:59:42Z</time></trkpt><trkpt lat="43.69670798255341" lon="13.14473789678672"><ele>143.0</ele><time>2026-04-29T10:59:43Z</time></trkpt><trkpt lat="43.696818682788944" lon="13.144816264284747"><ele>143.0</ele><time>2026-04-29T10:59:44Z</time></trkpt><trkpt lat="43.69694161197795" lon="13.144861469703141"><ele>143.0</ele><time>2026-04-29T10:59:45Z</time></trkpt><trkpt lat="43.69705784011006" lon="13.14486130457254"><ele>142.0</ele><time>2026-04-29T10:59:46Z</time></trkpt><trkpt lat="43.6971674211487" lon="13.14484021928825"><ele>141.0</ele><time>2026-04-29T10:59:47Z</time></trkpt><trkpt lat="43.69726649078483" lon="13.144787311380929"><ele>140.0</ele><time>2026-04-29T10:59:48Z</time></trkpt><trkpt lat="43.69735619878155" lon="13.144709999017783"><ele>139.0</ele><time>2026-04-29T10:59:49Z</time></trkpt><trkpt lat="43.69745488262451" lon="13.14460248816917"><ele>138.0</ele><time>2026-04-29T10:59:50Z</time></trkpt><trkpt lat="43.697551378685084" lon="13.144481610771562"><ele>138.0</ele><time>2026-04-29T10:59:51Z</time></trkpt><trkpt lat="43.69764930404674" lon="13.144393206450735"><ele>138.0</ele><time>2026-04-29T10:59:52Z</time></trkpt><trkpt lat="43.69772403478251" lon="13.144306000527594"><ele>138.0</ele><time>2026-04-29T10:59:53Z</time></trkpt><trkpt lat="43.69779566481846" lon="13.14422397406889"><ele>138.0</ele><time>2026-04-29T10:59:54Z</time></trkpt><trkpt lat="43.69785947370771" lon="13.14415883798396"><ele>138.0</ele><time>2026-04-29T10:59:55Z</time></trkpt><trkpt lat="43.69791703110332" lon="13.14410646368541"><ele>137.6</ele><time>2026-04-29T10:59:56Z</time></trkpt><trkpt lat="43.69798069389317" lon="13.14406185373478"><ele>137.20000000000002</ele><time>2026-04-29T10:59:57Z</time></trkpt><trkpt lat="43.698045434808215" lon="13.144024755614922"><ele>136.8</ele><time>2026-04-29T10:59:58Z</time></trkpt><trkpt lat="43.69812670052291" lon="13.143990723547706"><ele>136.4</ele><time>2026-04-29T11:00:00Z</time></trkpt><trkpt lat="43.69809693310485" lon="13.143729492106319"><ele>136.0</ele><time>2026-04-29T11:00:02Z</time></trkpt><trkpt lat="43.69806623611413" lon="13.143618243678544"><ele>136.0</ele><time>2026-04-29T11:00:03Z</time></trkpt><trkpt lat="43.69802591971914" lon="13.143502730521789"><ele>136.0</ele><time>2026-04-29T11:00:04Z</time></trkpt><trkpt lat="43.697985579992725" lon="13.14335774077285"><ele>136.0</ele><time>2026-04-29T11:00:05Z</time></trkpt><trkpt lat="43.69795047924092" lon="13.143234973525185"><ele>136.0</ele><time>2026-04-29T11:00:06Z</time></trkpt><trkpt lat="43.69792646557354" lon="13.143128886330112"><ele>136.0</ele><time>2026-04-29T11:00:07Z</time></trkpt><trkpt lat="43.69791413803163" lon="13.142971486774751"><ele>135.8</ele><time>2026-04-29T11:00:09Z</time></trkpt><trkpt lat="43.69800628626642" lon="13.142873759321343"><ele>135.6</ele><time>2026-04-29T11:00:11Z</time></trkpt><trkpt lat="43.69806490450099" lon="13.142788042810418"><ele>135.4</ele><time>2026-04-29T11:00:12Z</time></trkpt><trkpt lat="43.698124488443646" lon="13.142672329109146"><ele>135.2</ele><time>2026-04-29T11:00:13Z</time></trkpt><trkpt lat="43.69814567866305" lon="13.142550039577332"><ele>135.0</ele><time>2026-04-29T11:00:14Z</time></trkpt><trkpt lat="43.69817259066127" lon="13.14243420546375"><ele>135.0</ele><time>2026-04-29T11:00:15Z</time></trkpt><trkpt lat="43.69817282425699" lon="13.142331429220498"><ele>135.0</ele><time>2026-04-29T11:00:16Z</time></trkpt><trkpt lat="43.69816365103841" lon="13.142208240375995"><ele>135.0</ele><time>2026-04-29T11:00:17Z</time></trkpt><trkpt lat="43.698147531748674" lon="13.142056045022622"><ele>135.0</ele><time>2026-04-29T11:00:18Z</time></trkpt><trkpt lat="43.69813062739426" lon="13.141885444176507"><ele>135.0</ele><time>2026-04-29T11:00:19Z</time></trkpt><trkpt lat="43.69808710748543" lon="13.141714910520214"><ele>135.0</ele><time>2026-04-29T11:00:20Z</time></trkpt><trkpt lat="43.69804893554912" lon="13.141563992330369"><ele>135.0</ele><time>2026-04-29T11:00:21Z</time></trkpt><trkpt lat="43.698027994878125" lon="13.14143778709739"><ele>135.0</ele><time>2026-04-29T11:00:22Z</time></trkpt><trkpt lat="43.69801958622395" lon="13.141321144160463"><ele>135.0</ele><time>2026-04-29T11:00:23Z</time></trkpt><trkpt lat="43.69801913259537" lon="13.14119053272131"><ele>135.0</ele><time>2026-04-29T11:00:24Z</time></trkpt><trkpt lat="43.69804206302901" lon="13.141016232904398"><ele>134.5</ele><time>2026-04-29T11:00:25Z</time></trkpt><trkpt lat="43.69807644007144" lon="13.140827434865892"><ele>134.0</ele><time>2026-04-29T11:00:26Z</time></trkpt><trkpt lat="43.698067327571955" lon="13.140634623239793"><ele>133.5</ele><time>2026-04-29T11:00:27Z</time></trkpt><trkpt lat="43.69805445616824" lon="13.140428587632726"><ele>133.0</ele><time>2026-04-29T11:00:28Z</time></trkpt><trkpt lat="43.69804636273952" lon="13.140228953898879"><ele>131.8</ele><time>2026-04-29T11:00:29Z</time></trkpt><trkpt lat="43.69804837011704" lon="13.14006649052775"><ele>130.60000000000002</ele><time>2026-04-29T11:00:30Z</time></trkpt><trkpt lat="43.69804908684789" lon="13.139926036381734"><ele>129.39999999999998</ele><time>2026-04-29T11:00:31Z</time></trkpt><trkpt lat="43.69806822416976" lon="13.139803637744205"><ele>128.2</ele><time>2026-04-29T11:00:32Z</time></trkpt><trkpt lat="43.69810234772948" lon="13.13968762211782"><ele>127.0</ele><time>2026-04-29T11:00:33Z</time></trkpt><trkpt lat="43.69815184082652" lon="13.13959123552929"><ele>125.75</ele><time>2026-04-29T11:00:34Z</time></trkpt><trkpt lat="43.69821112622116" lon="13.139495021941185"><ele>124.5</ele><time>2026-04-29T11:00:35Z</time></trkpt><trkpt lat="43.69829405089578" lon="13.13937187321548"><ele>123.25</ele><time>2026-04-29T11:00:36Z</time></trkpt><trkpt lat="43.69839154092892" lon="13.139265810997655"><ele>122.0</ele><time>2026-04-29T11:00:37Z</time></trkpt><trkpt lat="43.69847987880086" lon="13.139158719897837"><ele>122.75</ele><time>2026-04-29T11:00:38Z</time></trkpt><trkpt lat="43.69857340838911" lon="13.139034268931297"><ele>123.5</ele><time>2026-04-29T11:00:39Z</time></trkpt><trkpt lat="43.69868452890506" lon="13.138966836456685"><ele>124.25</ele><time>2026-04-29T11:00:40Z</time></trkpt><trkpt lat="43.698784619866025" lon="13.138888701465058"><ele>125.0</ele><time>2026-04-29T11:00:41Z</time></trkpt><trkpt lat="43.69885073129401" lon="13.138794594114227"><ele>125.0</ele><time>2026-04-29T11:00:42Z</time></trkpt><trkpt lat="43.69888534909666" lon="13.138686720612139"><ele>125.0</ele><time>2026-04-29T11:00:43Z</time></trkpt><trkpt lat="43.69888657174646" lon="13.138548856959197"><ele>125.0</ele><time>2026-04-29T11:00:44Z</time></trkpt><trkpt lat="43.69890150207801" lon="13.138406706422723"><ele>125.0</ele><time>2026-04-29T11:00:45Z</time></trkpt><trkpt lat="43.69891729888559" lon="13.13825693366728"><ele>125.0</ele><time>2026-04-29T11:00:46Z</time></trkpt><trkpt lat="43.698940475196295" lon="13.138143920637376"><ele>124.0</ele><time>2026-04-29T11:00:47Z</time></trkpt><trkpt lat="43.69898261936011" lon="13.138050172892207"><ele>123.0</ele><time>2026-04-29T11:00:48Z</time></trkpt><trkpt lat="43.69904726386843" lon="13.137956603229894"><ele>122.0</ele><time>2026-04-29T11:00:49Z</time></trkpt><trkpt lat="43.69913841810532" lon="13.137854658242198"><ele>121.0</ele><time>2026-04-29T11:00:50Z</time></trkpt><trkpt lat="43.69925069265099" lon="13.13771970091745"><ele>120.0</ele><time>2026-04-29T11:00:51Z</time></trkpt><trkpt lat="43.69933667459812" lon="13.137608075029217"><ele>120.0</ele><time>2026-04-29T11:00:52Z</time></trkpt><trkpt lat="43.69941339746728" lon="13.137500000845861"><ele>120.0</ele><time>2026-04-29T11:00:53Z</time></trkpt><trkpt lat="43.699513585724404" lon="13.137396719212125"><ele>120.0</ele><time>2026-04-29T11:00:54Z</time></trkpt><trkpt lat="43.69958789748127" lon="13.137276421309986"><ele>120.0</ele><time>2026-04-29T11:00:55Z</time></trkpt><trkpt lat="43.699650097338626" lon="13.137188582666896"><ele>120.0</ele><time>2026-04-29T11:00:56Z</time></trkpt><trkpt lat="43.69970758104901" lon="13.13711378113137"><ele>119.0</ele><time>2026-04-29T11:00:57Z</time></trkpt><trkpt lat="43.69975769757789" lon="13.13699369537977"><ele>118.0</ele><time>2026-04-29T11:00:58Z</time></trkpt><trkpt lat="43.699779484797" lon="13.136848397763941"><ele>117.0</ele><time>2026-04-29T11:00:59Z</time></trkpt><trkpt lat="43.69981929255423" lon="13.136665393959687"><ele>116.0</ele><time>2026-04-29T11:01:00Z</time></trkpt><trkpt lat="43.699869290112794" lon="13.136480219943241"><ele>114.5</ele><time>2026-04-29T11:01:01Z</time></trkpt><trkpt lat="43.699905806449145" lon="13.136291711494566"><ele>113.0</ele><time>2026-04-29T11:01:02Z</time></trkpt><trkpt lat="43.699936100848724" lon="13.136126638115323"><ele>111.5</ele><time>2026-04-29T11:01:03Z</time></trkpt><trkpt lat="43.6999646217233" lon="13.135971229366895"><ele>110.0</ele><time>2026-04-29T11:01:04Z</time></trkpt><trkpt lat="43.69999242737194" lon="13.135819717802674"><ele>110.4</ele><time>2026-04-29T11:01:05Z</time></trkpt><trkpt lat="43.70001573251139" lon="13.135681328616583"><ele>110.8</ele><time>2026-04-29T11:01:06.001Z</time></trkpt><trkpt lat="43.70002340566542" lon="13.13553174474718"><ele>111.19999999999999</ele><time>2026-04-29T11:01:07.001Z</time></trkpt><trkpt lat="43.700055271263075" lon="13.135365556863018"><ele>111.6</ele><time>2026-04-29T11:01:08.001Z</time></trkpt><trkpt lat="43.7000937924696" lon="13.135231536371073"><ele>112.0</ele><time>2026-04-29T11:01:09.001Z</time></trkpt><trkpt lat="43.70011399193446" lon="13.135096171347264"><ele>112.0</ele><time>2026-04-29T11:01:10.001Z</time></trkpt><trkpt lat="43.700154090416355" lon="13.13497320511977"><ele>112.0</ele><time>2026-04-29T11:01:11.001Z</time></trkpt><trkpt lat="43.700196706798074" lon="13.134825738485596"><ele>112.0</ele><time>2026-04-29T11:01:12.001Z</time></trkpt><trkpt lat="43.70023788737598" lon="13.134673676721347"><ele>112.0</ele><time>2026-04-29T11:01:13.001Z</time></trkpt><trkpt lat="43.70023495531535" lon="13.134480921489747"><ele>113.19999999999999</ele><time>2026-04-29T11:01:15.001Z</time></trkpt><trkpt lat="43.70021874791909" lon="13.134341346714267"><ele>114.39999999999999</ele><time>2026-04-29T11:01:16.001Z</time></trkpt><trkpt lat="43.7001995352099" lon="13.134202395932588"><ele>115.60000000000001</ele><time>2026-04-29T11:01:17.001Z</time></trkpt><trkpt lat="43.70017214374534" lon="13.134059777291208"><ele>116.80000000000001</ele><time>2026-04-29T11:01:18.001Z</time></trkpt><trkpt lat="43.70013603467925" lon="13.133911090898977"><ele>118.0</ele><time>2026-04-29T11:01:19.001Z</time></trkpt><trkpt lat="43.700097797045174" lon="13.133794025899759"><ele>118.83333333333334</ele><time>2026-04-29T11:01:20.001Z</time></trkpt><trkpt lat="43.70005384982664" lon="13.133697433953687"><ele>119.66666666666667</ele><time>2026-04-29T11:01:21.001Z</time></trkpt><trkpt lat="43.700001447488056" lon="13.133643556136642"><ele>120.5</ele><time>2026-04-29T11:01:22.001Z</time></trkpt><trkpt lat="43.69993122804494" lon="13.133574024092082"><ele>121.33333333333334</ele><time>2026-04-29T11:01:23.001Z</time></trkpt><trkpt lat="43.69985828513691" lon="13.133525696213773"><ele>122.16666666666667</ele><time>2026-04-29T11:01:24.001Z</time></trkpt><trkpt lat="43.69977769358385" lon="13.133460999908108"><ele>123.0</ele><time>2026-04-29T11:01:25.001Z</time></trkpt><trkpt lat="43.69968906218655" lon="13.133389915532039"><ele>123.0</ele><time>2026-04-29T11:01:26.001Z</time></trkpt><trkpt lat="43.69961460235849" lon="13.133330198223504"><ele>123.0</ele><time>2026-04-29T11:01:27.001Z</time></trkpt><trkpt lat="43.69956517820846" lon="13.133240864649387"><ele>123.0</ele><time>2026-04-29T11:01:28.001Z</time></trkpt><trkpt lat="43.69954259039491" lon="13.133149447715693"><ele>123.0</ele><time>2026-04-29T11:01:29.001Z</time></trkpt><trkpt lat="43.69953268744809" lon="13.133038308327173"><ele>123.0</ele><time>2026-04-29T11:01:30.001Z</time></trkpt><trkpt lat="43.69952017966685" lon="13.132916816620883"><ele>123.0</ele><time>2026-04-29T11:01:31.001Z</time></trkpt><trkpt lat="43.69951147779035" lon="13.132792247051501"><ele>125.5</ele><time>2026-04-29T11:01:32.001Z</time></trkpt><trkpt lat="43.69950367571387" lon="13.132672418160807"><ele>128.0</ele><time>2026-04-29T11:01:33.001Z</time></trkpt><trkpt lat="43.699496877115735" lon="13.132515630422562"><ele>130.5</ele><time>2026-04-29T11:01:34.001Z</time></trkpt><trkpt lat="43.69948964931425" lon="13.13232131422499"><ele>133.0</ele><time>2026-04-29T11:01:35.001Z</time></trkpt><trkpt lat="43.69949596479664" lon="13.132163306752838"><ele>134.0</ele><time>2026-04-29T11:01:36.001Z</time></trkpt><trkpt lat="43.69948319197265" lon="13.13203730186799"><ele>135.0</ele><time>2026-04-29T11:01:37.001Z</time></trkpt><trkpt lat="43.699438646897825" lon="13.131895466958959"><ele>136.0</ele><time>2026-04-29T11:01:38.001Z</time></trkpt><trkpt lat="43.699371024299516" lon="13.131764569197765"><ele>137.0</ele><time>2026-04-29T11:01:39Z</time></trkpt><trkpt lat="43.69929565623904" lon="13.131631514768216"><ele>138.0</ele><time>2026-04-29T11:01:40Z</time></trkpt><trkpt lat="43.69920412424889" lon="13.131506514559243"><ele>140.75</ele><time>2026-04-29T11:01:41Z</time></trkpt><trkpt lat="43.699103389144334" lon="13.131382010256294"><ele>143.5</ele><time>2026-04-29T11:01:42Z</time></trkpt><trkpt lat="43.69899376353675" lon="13.131260928936491"><ele>146.25</ele><time>2026-04-29T11:01:43Z</time></trkpt><trkpt lat="43.69891637044594" lon="13.131118778024268"><ele>149.0</ele><time>2026-04-29T11:01:44Z</time></trkpt><trkpt lat="43.698846055862454" lon="13.130992149168485"><ele>149.0</ele><time>2026-04-29T11:01:45Z</time></trkpt><trkpt lat="43.69880305524838" lon="13.13088298204607"><ele>149.0</ele><time>2026-04-29T11:01:46Z</time></trkpt><trkpt lat="43.69878088198788" lon="13.130736926669302"><ele>149.0</ele><time>2026-04-29T11:01:48Z</time></trkpt><trkpt lat="43.69875795675086" lon="13.130613474021954"><ele>149.0</ele><time>2026-04-29T11:01:50Z</time></trkpt><trkpt lat="43.69871572866145" lon="13.130469047200659"><ele>149.0</ele><time>2026-04-29T11:01:52Z</time></trkpt><trkpt lat="43.69867827977483" lon="13.130354067856281"><ele>149.33333333333331</ele><time>2026-04-29T11:01:54Z</time></trkpt><trkpt lat="43.69860035418644" lon="13.130231800526452"><ele>149.66666666666666</ele><time>2026-04-29T11:01:56Z</time></trkpt><trkpt lat="43.698533582422975" lon="13.130175849883855"><ele>150.0</ele><time>2026-04-29T11:01:57Z</time></trkpt><trkpt lat="43.69846733778893" lon="13.130122946128406"><ele>150.33333333333334</ele><time>2026-04-29T11:01:58Z</time></trkpt><trkpt lat="43.69840654231014" lon="13.130067116613674"><ele>150.66666666666669</ele><time>2026-04-29T11:02:00Z</time></trkpt><trkpt lat="43.69836047006834" lon="13.129976608706935"><ele>151.0</ele><time>2026-04-29T11:02:17Z</time></trkpt><trkpt lat="43.69825196186017" lon="13.129864277281458"><ele>151.25</ele><time>2026-04-29T11:02:19Z</time></trkpt><trkpt lat="43.6981793515339" lon="13.129803619757997"><ele>151.5</ele><time>2026-04-29T11:02:20Z</time></trkpt><trkpt lat="43.69811351128785" lon="13.129752111748546"><ele>151.75</ele><time>2026-04-29T11:02:21Z</time></trkpt><trkpt lat="43.69794494165982" lon="13.1295402720329"><ele>152.0</ele><time>2026-04-29T11:02:22Z</time></trkpt><trkpt lat="43.6978564885843" lon="13.129348233867487"><ele>152.0</ele><time>2026-04-29T11:02:23Z</time></trkpt><trkpt lat="43.697770058727414" lon="13.12912533130284"><ele>152.0</ele><time>2026-04-29T11:02:24Z</time></trkpt><trkpt lat="43.69766425968141" lon="13.128892806014875"><ele>152.0</ele><time>2026-04-29T11:02:25Z</time></trkpt><trkpt lat="43.69757514610436" lon="13.128652821785078"><ele>156.66666666666666</ele><time>2026-04-29T11:02:26Z</time></trkpt><trkpt lat="43.697500524887836" lon="13.128441138464131"><ele>161.33333333333334</ele><time>2026-04-29T11:02:27Z</time></trkpt><trkpt lat="43.697425224348265" lon="13.128241494770062"><ele>166.0</ele><time>2026-04-29T11:02:28Z</time></trkpt><trkpt lat="43.69735818191065" lon="13.12806470897809"><ele>167.25</ele><time>2026-04-29T11:02:29Z</time></trkpt><trkpt lat="43.69730193771656" lon="13.127912144820147"><ele>168.5</ele><time>2026-04-29T11:02:30Z</time></trkpt><trkpt lat="43.69724000013156" lon="13.127764064944232"><ele>169.75</ele><time>2026-04-29T11:02:31Z</time></trkpt><trkpt lat="43.69719542252867" lon="13.127639222255423"><ele>171.0</ele><time>2026-04-29T11:02:32Z</time></trkpt><trkpt lat="43.69713310631357" lon="13.127492917534392"><ele>170.75</ele><time>2026-04-29T11:02:33Z</time></trkpt><trkpt lat="43.697092392179044" lon="13.127373277870898"><ele>170.5</ele><time>2026-04-29T11:02:34Z</time></trkpt><trkpt lat="43.697079295139424" lon="13.127226393984532"><ele>170.25</ele><time>2026-04-29T11:02:35Z</time></trkpt><trkpt lat="43.697055902831856" lon="13.127053163634255"><ele>170.0</ele><time>2026-04-29T11:02:36Z</time></trkpt><trkpt lat="43.69702281026052" lon="13.126865581749666"><ele>170.0</ele><time>2026-04-29T11:02:37Z</time></trkpt><trkpt lat="43.69700579709974" lon="13.12667801041808"><ele>170.0</ele><time>2026-04-29T11:02:38Z</time></trkpt><trkpt lat="43.69698361389138" lon="13.126487345328425"><ele>170.0</ele><time>2026-04-29T11:02:39Z</time></trkpt><trkpt lat="43.696960447834584" lon="13.126267685043743"><ele>170.0</ele><time>2026-04-29T11:02:40Z</time></trkpt><trkpt lat="43.69693696775745" lon="13.1260338814813"><ele>168.33333333333331</ele><time>2026-04-29T11:02:41Z</time></trkpt><trkpt lat="43.69691355588182" lon="13.125788859314396"><ele>166.66666666666666</ele><time>2026-04-29T11:02:42Z</time></trkpt><trkpt lat="43.69689512560883" lon="13.125536332454862"><ele>165.0</ele><time>2026-04-29T11:02:43Z</time></trkpt><trkpt lat="43.69687003230676" lon="13.125259026513863"><ele>165.0</ele><time>2026-04-29T11:02:44Z</time></trkpt><trkpt lat="43.6968502886333" lon="13.125002222749758"><ele>165.0</ele><time>2026-04-29T11:02:45Z</time></trkpt><trkpt lat="43.696827608198326" lon="13.124750951419866"><ele>165.0</ele><time>2026-04-29T11:02:46Z</time></trkpt><trkpt lat="43.69680001993276" lon="13.12451311567399"><ele>166.0</ele><time>2026-04-29T11:02:47Z</time></trkpt><trkpt lat="43.69676799790795" lon="13.12428728857101"><ele>167.0</ele><time>2026-04-29T11:02:48Z</time></trkpt><trkpt lat="43.69672803793954" lon="13.124076850768285"><ele>168.0</ele><time>2026-04-29T11:02:49Z</time></trkpt><trkpt lat="43.696676696495395" lon="13.123901080384375"><ele>168.0</ele><time>2026-04-29T11:02:50Z</time></trkpt><trkpt lat="43.69660613938582" lon="13.12375188112685"><ele>168.0</ele><time>2026-04-29T11:02:51Z</time></trkpt><trkpt lat="43.696510437922456" lon="13.123640433126667"><ele>168.0</ele><time>2026-04-29T11:02:52Z</time></trkpt><trkpt lat="43.696395567595175" lon="13.123539096540616"><ele>168.0</ele><time>2026-04-29T11:02:53Z</time></trkpt><trkpt lat="43.69625382862019" lon="13.123433814129038"><ele>168.0</ele><time>2026-04-29T11:02:54Z</time></trkpt><trkpt lat="43.696109974514776" lon="13.123309775783301"><ele>168.0</ele><time>2026-04-29T11:02:55Z</time></trkpt><trkpt lat="43.69597550807338" lon="13.123185532245058"><ele>168.0</ele><time>2026-04-29T11:02:56Z</time></trkpt><trkpt lat="43.695873271472216" lon="13.123027618785422"><ele>171.0</ele><time>2026-04-29T11:02:57Z</time></trkpt><trkpt lat="43.69576113984898" lon="13.122874553322152"><ele>174.0</ele><time>2026-04-29T11:02:58Z</time></trkpt><trkpt lat="43.695670517769415" lon="13.122693501264042"><ele>177.0</ele><time>2026-04-29T11:02:59Z</time></trkpt><trkpt lat="43.6955782893065" lon="13.122498661374506"><ele>177.66666666666666</ele><time>2026-04-29T11:03:00Z</time></trkpt><trkpt lat="43.69548042332274" lon="13.122276669195292"><ele>178.33333333333331</ele><time>2026-04-29T11:03:01Z</time></trkpt><trkpt lat="43.69538301966276" lon="13.122043351666361"><ele>179.0</ele><time>2026-04-29T11:03:02Z</time></trkpt><trkpt lat="43.69526468199788" lon="13.121867485653203"><ele>180.0</ele><time>2026-04-29T11:03:03Z</time></trkpt><trkpt lat="43.69516846315862" lon="13.12170770947633"><ele>181.0</ele><time>2026-04-29T11:03:04Z</time></trkpt><trkpt lat="43.69504077040299" lon="13.121567134602541"><ele>182.0</ele><time>2026-04-29T11:03:05Z</time></trkpt><trkpt lat="43.69489896349155" lon="13.121429334130395"><ele>182.0</ele><time>2026-04-29T11:03:06Z</time></trkpt><trkpt lat="43.69476317997336" lon="13.12128149538059"><ele>182.0</ele><time>2026-04-29T11:03:07Z</time></trkpt><trkpt lat="43.694657453037344" lon="13.121122530810387"><ele>182.0</ele><time>2026-04-29T11:03:08Z</time></trkpt><trkpt lat="43.69456038442883" lon="13.120938270510525"><ele>183.0</ele><time>2026-04-29T11:03:09Z</time></trkpt><trkpt lat="43.69447199450732" lon="13.120727210244635"><ele>184.0</ele><time>2026-04-29T11:03:10Z</time></trkpt><trkpt lat="43.69440732614452" lon="13.120484536966153"><ele>185.0</ele><time>2026-04-29T11:03:11Z</time></trkpt><trkpt lat="43.69432714132443" lon="13.12024218890553"><ele>185.0</ele><time>2026-04-29T11:03:12.001Z</time></trkpt><trkpt lat="43.69423070786485" lon="13.119998002178589"><ele>185.0</ele><time>2026-04-29T11:03:13.001Z</time></trkpt><trkpt lat="43.694146704737186" lon="13.119742643717883"><ele>185.0</ele><time>2026-04-29T11:03:14.001Z</time></trkpt><trkpt lat="43.694058420968204" lon="13.119475356775698"><ele>185.66666666666666</ele><time>2026-04-29T11:03:15.001Z</time></trkpt><trkpt lat="43.6939732461377" lon="13.11919771577006"><ele>186.33333333333334</ele><time>2026-04-29T11:03:16.001Z</time></trkpt><trkpt lat="43.693913509515966" lon="13.118910495052925"><ele>187.0</ele><time>2026-04-29T11:03:17.001Z</time></trkpt><trkpt lat="43.693849354358974" lon="13.118626139046485"><ele>187.0</ele><time>2026-04-29T11:03:18.001Z</time></trkpt><trkpt lat="43.69378408304597" lon="13.118365597327859"><ele>187.0</ele><time>2026-04-29T11:03:19.001Z</time></trkpt><trkpt lat="43.69374121778774" lon="13.118104924911064"><ele>187.0</ele><time>2026-04-29T11:03:20.001Z</time></trkpt><trkpt lat="43.69370686937133" lon="13.117864240695491"><ele>187.0</ele><time>2026-04-29T11:03:21.001Z</time></trkpt><trkpt lat="43.69368441784798" lon="13.11764232696475"><ele>187.0</ele><time>2026-04-29T11:03:22.001Z</time></trkpt><trkpt lat="43.69369908837468" lon="13.117424799753854"><ele>187.0</ele><time>2026-04-29T11:03:23.001Z</time></trkpt><trkpt lat="43.69369978869108" lon="13.117179350074608"><ele>186.33333333333334</ele><time>2026-04-29T11:03:24.001Z</time></trkpt><trkpt lat="43.69367283315643" lon="13.116932431547415"><ele>185.66666666666666</ele><time>2026-04-29T11:03:25.001Z</time></trkpt><trkpt lat="43.69364879662013" lon="13.116704483183026"><ele>185.0</ele><time>2026-04-29T11:03:26.001Z</time></trkpt><trkpt lat="43.69364037552038" lon="13.116472713746145"><ele>185.0</ele><time>2026-04-29T11:03:27.001Z</time></trkpt><trkpt lat="43.69364102476215" lon="13.116251370612925"><ele>185.0</ele><time>2026-04-29T11:03:28.001Z</time></trkpt><trkpt lat="43.6936535697968" lon="13.116040119475008"><ele>185.0</ele><time>2026-04-29T11:03:29.001Z</time></trkpt><trkpt lat="43.693674033271435" lon="13.115812633435292"><ele>185.66666666666666</ele><time>2026-04-29T11:03:30.001Z</time></trkpt><trkpt lat="43.69369776766112" lon="13.115610575235255"><ele>186.33333333333334</ele><time>2026-04-29T11:03:31.001Z</time></trkpt><trkpt lat="43.693728509948734" lon="13.115406951889774"><ele>187.0</ele><time>2026-04-29T11:03:32.001Z</time></trkpt><trkpt lat="43.69377967566149" lon="13.115197456809597"><ele>187.0</ele><time>2026-04-29T11:03:33.001Z</time></trkpt><trkpt lat="43.693863044048875" lon="13.115009393581978"><ele>187.0</ele><time>2026-04-29T11:03:34.001Z</time></trkpt><trkpt lat="43.69394965037867" lon="13.11481278805294"><ele>187.0</ele><time>2026-04-29T11:03:35.001Z</time></trkpt><trkpt lat="43.694052540856255" lon="13.114616551217713"><ele>188.66666666666669</ele><time>2026-04-29T11:03:36.001Z</time></trkpt><trkpt lat="43.694155983075554" lon="13.114405304281641"><ele>190.33333333333334</ele><time>2026-04-29T11:03:37.001Z</time></trkpt><trkpt lat="43.694236733034955" lon="13.114184199074664"><ele>192.0</ele><time>2026-04-29T11:03:38.001Z</time></trkpt><trkpt lat="43.694325882124744" lon="13.11397552600346"><ele>192.66666666666669</ele><time>2026-04-29T11:03:39.001Z</time></trkpt><trkpt lat="43.694400136251154" lon="13.11377157213727"><ele>193.33333333333334</ele><time>2026-04-29T11:03:40.001Z</time></trkpt><trkpt lat="43.69446351451294" lon="13.113564786204387"><ele>194.0</ele><time>2026-04-29T11:03:41.001Z</time></trkpt><trkpt lat="43.694521432629024" lon="13.113358477155243"><ele>194.5</ele><time>2026-04-29T11:03:42.001Z</time></trkpt><trkpt lat="43.69457454192206" lon="13.11316527666465"><ele>195.0</ele><time>2026-04-29T11:03:43.001Z</time></trkpt><trkpt lat="43.69462209452309" lon="13.113007995885368"><ele>195.5</ele><time>2026-04-29T11:03:44.001Z</time></trkpt><trkpt lat="43.69466150947901" lon="13.112873051747217"><ele>196.0</ele><time>2026-04-29T11:03:45.001Z</time></trkpt><trkpt lat="43.69469205353402" lon="13.112750147340295"><ele>195.99999999999997</ele><time>2026-04-29T11:03:46.001Z</time></trkpt><trkpt lat="43.69471136756746" lon="13.112632218505638"><ele>196.0</ele><time>2026-04-29T11:03:47.001Z</time></trkpt><trkpt lat="43.694706071959295" lon="13.112535184907681"><ele>196.0</ele><time>2026-04-29T11:03:48.001Z</time></trkpt><trkpt lat="43.694678778375916" lon="13.112439879079266"><ele>196.0</ele><time>2026-04-29T11:03:49.001Z</time></trkpt><trkpt lat="43.69463772907359" lon="13.11234500576006"><ele>195.99999999999997</ele><time>2026-04-29T11:03:50.001Z</time></trkpt><trkpt lat="43.694586089357756" lon="13.112236459295326"><ele>196.0</ele><time>2026-04-29T11:03:51.001Z</time></trkpt><trkpt lat="43.694501347345074" lon="13.112120862507457"><ele>196.25</ele><time>2026-04-29T11:03:52.001Z</time></trkpt><trkpt lat="43.694413493080724" lon="13.111989150787439"><ele>196.5</ele><time>2026-04-29T11:03:53.001Z</time></trkpt><trkpt lat="43.694347658571125" lon="13.111851219966761"><ele>196.75</ele><time>2026-04-29T11:03:54.001Z</time></trkpt><trkpt lat="43.694303759296815" lon="13.111690893671952"><ele>197.0</ele><time>2026-04-29T11:03:55.001Z</time></trkpt><trkpt lat="43.694293676073556" lon="13.11150507065914"><ele>196.33333333333334</ele><time>2026-04-29T11:03:56.001Z</time></trkpt><trkpt lat="43.69430077790805" lon="13.111287104818931"><ele>195.66666666666669</ele><time>2026-04-29T11:03:57.001Z</time></trkpt><trkpt lat="43.69430887781477" lon="13.111061410939293"><ele>195.0</ele><time>2026-04-29T11:03:58.001Z</time></trkpt><trkpt lat="43.69431749320078" lon="13.11081687347197"><ele>196.66666666666669</ele><time>2026-04-29T11:03:59.001Z</time></trkpt><trkpt lat="43.69432398950249" lon="13.110553222025732"><ele>198.33333333333334</ele><time>2026-04-29T11:04:00.001Z</time></trkpt><trkpt lat="43.69431758516961" lon="13.110302536016606"><ele>200.0</ele><time>2026-04-29T11:04:01.001Z</time></trkpt><trkpt lat="43.694310706150645" lon="13.110091767287763"><ele>200.0</ele><time>2026-04-29T11:04:02.001Z</time></trkpt><trkpt lat="43.69429209219106" lon="13.109947786320275"><ele>200.0</ele><time>2026-04-29T11:04:03.001Z</time></trkpt><trkpt lat="43.69423895645665" lon="13.109831065637328"><ele>200.0</ele><time>2026-04-29T11:04:04.001Z</time></trkpt><trkpt lat="43.69416397872993" lon="13.109728643017736"><ele>200.0</ele><time>2026-04-29T11:04:05.001Z</time></trkpt><trkpt lat="43.69405576954103" lon="13.10966026109864"><ele>200.0</ele><time>2026-04-29T11:04:06.001Z</time></trkpt><trkpt lat="43.69392853349347" lon="13.109598589292649"><ele>200.33333333333334</ele><time>2026-04-29T11:04:07.001Z</time></trkpt><trkpt lat="43.69378161437764" lon="13.109533899686427"><ele>200.66666666666669</ele><time>2026-04-29T11:04:08.001Z</time></trkpt><trkpt lat="43.69362808507781" lon="13.109460855731296"><ele>201.0</ele><time>2026-04-29T11:04:09.001Z</time></trkpt><trkpt lat="43.69346788671696" lon="13.109381200928485"><ele>201.0</ele><time>2026-04-29T11:04:10.001Z</time></trkpt><trkpt lat="43.693313142997184" lon="13.109304124053635"><ele>201.0</ele><time>2026-04-29T11:04:11Z</time></trkpt><trkpt lat="43.693160157304824" lon="13.10922840905438"><ele>201.0</ele><time>2026-04-29T11:04:12Z</time></trkpt><trkpt lat="43.693004241128136" lon="13.109152685883767"><ele>200.66666666666669</ele><time>2026-04-29T11:04:13Z</time></trkpt><trkpt lat="43.692848949317636" lon="13.109072581157763"><ele>200.33333333333334</ele><time>2026-04-29T11:04:14Z</time></trkpt><trkpt lat="43.69269925341498" lon="13.108974294291194"><ele>200.0</ele><time>2026-04-29T11:04:15Z</time></trkpt><trkpt lat="43.69255538417486" lon="13.108853727228468"><ele>200.0</ele><time>2026-04-29T11:04:16Z</time></trkpt><trkpt lat="43.69242306941535" lon="13.108707331388512"><ele>200.0</ele><time>2026-04-29T11:04:17Z</time></trkpt><trkpt lat="43.692302651902885" lon="13.108548156158095"><ele>200.0</ele><time>2026-04-29T11:04:18Z</time></trkpt><trkpt lat="43.69220538019268" lon="13.108380788640046"><ele>199.0</ele><time>2026-04-29T11:04:19Z</time></trkpt><trkpt lat="43.692093346773134" lon="13.108203399639756"><ele>198.0</ele><time>2026-04-29T11:04:20Z</time></trkpt><trkpt lat="43.69197729701323" lon="13.10803926692929"><ele>197.0</ele><time>2026-04-29T11:04:21Z</time></trkpt><trkpt lat="43.69185566247527" lon="13.107880634750874"><ele>197.0</ele><time>2026-04-29T11:04:22Z</time></trkpt><trkpt lat="43.69173537406199" lon="13.107735290570954"><ele>197.0</ele><time>2026-04-29T11:04:23Z</time></trkpt><trkpt lat="43.691602168809794" lon="13.107578464020463"><ele>197.0</ele><time>2026-04-29T11:04:24Z</time></trkpt><trkpt lat="43.69146757575953" lon="13.107427722645422"><ele>196.33333333333334</ele><time>2026-04-29T11:04:25Z</time></trkpt><trkpt lat="43.69133457614889" lon="13.10730446849874"><ele>195.66666666666669</ele><time>2026-04-29T11:04:26Z</time></trkpt><trkpt lat="43.69120143599933" lon="13.107198620623734"><ele>195.0</ele><time>2026-04-29T11:04:27Z</time></trkpt><trkpt lat="43.69106274748279" lon="13.107102458957295"><ele>194.0</ele><time>2026-04-29T11:04:28Z</time></trkpt><trkpt lat="43.690921845436925" lon="13.107026341318258"><ele>193.0</ele><time>2026-04-29T11:04:29Z</time></trkpt><trkpt lat="43.69078340297863" lon="13.106947909140125"><ele>192.0</ele><time>2026-04-29T11:04:30Z</time></trkpt><trkpt lat="43.69065014632612" lon="13.106862744728646"><ele>191.0</ele><time>2026-04-29T11:04:31Z</time></trkpt><trkpt lat="43.69051390640553" lon="13.106783500470373"><ele>191.0</ele><time>2026-04-29T11:04:32Z</time></trkpt><trkpt lat="43.690367868897816" lon="13.106702538109094"><ele>191.0</ele><time>2026-04-29T11:04:33Z</time></trkpt><trkpt lat="43.690229146628454" lon="13.106612110440324"><ele>191.0</ele><time>2026-04-29T11:04:34Z</time></trkpt><trkpt lat="43.6901026839788" lon="13.106520151126245"><ele>192.0</ele><time>2026-04-29T11:04:35Z</time></trkpt><trkpt lat="43.68997260510373" lon="13.106418739958501"><ele>193.0</ele><time>2026-04-29T11:04:36Z</time></trkpt><trkpt lat="43.689835106461636" lon="13.106310999967013"><ele>194.0</ele><time>2026-04-29T11:04:37Z</time></trkpt><trkpt lat="43.68969875520235" lon="13.106202050789184"><ele>194.0</ele><time>2026-04-29T11:04:38Z</time></trkpt><trkpt lat="43.68956491036252" lon="13.106092295360206"><ele>194.0</ele><time>2026-04-29T11:04:39Z</time></trkpt><trkpt lat="43.6894357038945" lon="13.105978957751928"><ele>194.0</ele><time>2026-04-29T11:04:40Z</time></trkpt><trkpt lat="43.689323090851154" lon="13.105852342966424"><ele>194.0</ele><time>2026-04-29T11:04:41Z</time></trkpt><trkpt lat="43.68922940014105" lon="13.105709711606186"><ele>194.0</ele><time>2026-04-29T11:04:42Z</time></trkpt><trkpt lat="43.68918268718789" lon="13.10552392807046"><ele>194.0</ele><time>2026-04-29T11:04:43Z</time></trkpt><trkpt lat="43.68913106847269" lon="13.10536155170846"><ele>194.0</ele><time>2026-04-29T11:04:44Z</time></trkpt><trkpt lat="43.689084567258405" lon="13.10513910662706"><ele>194.0</ele><time>2026-04-29T11:04:45Z</time></trkpt><trkpt lat="43.68904005861939" lon="13.104917152117213"><ele>194.0</ele><time>2026-04-29T11:04:46Z</time></trkpt><trkpt lat="43.68899446734914" lon="13.104704260209832"><ele>194.0</ele><time>2026-04-29T11:04:47Z</time></trkpt><trkpt lat="43.688950906382566" lon="13.104496103056377"><ele>192.75</ele><time>2026-04-29T11:04:48Z</time></trkpt><trkpt lat="43.68890194231261" lon="13.10430096780743"><ele>191.5</ele><time>2026-04-29T11:04:49Z</time></trkpt><trkpt lat="43.688858419979766" lon="13.104100300595798"><ele>190.25</ele><time>2026-04-29T11:04:50Z</time></trkpt><trkpt lat="43.688819344359814" lon="13.103913307046712"><ele>189.0</ele><time>2026-04-29T11:04:51Z</time></trkpt><trkpt lat="43.68877450437211" lon="13.103735598701794"><ele>188.0</ele><time>2026-04-29T11:04:52Z</time></trkpt><trkpt lat="43.68873509473101" lon="13.103544815541477"><ele>187.0</ele><time>2026-04-29T11:04:53Z</time></trkpt><trkpt lat="43.688688333418135" lon="13.103355302900361"><ele>186.0</ele><time>2026-04-29T11:04:54Z</time></trkpt><trkpt lat="43.68864345734175" lon="13.103170165755564"><ele>185.0</ele><time>2026-04-29T11:04:55Z</time></trkpt><trkpt lat="43.68860291972285" lon="13.102971378387325"><ele>186.0</ele><time>2026-04-29T11:04:56Z</time></trkpt><trkpt lat="43.68856622475375" lon="13.102781341371834"><ele>187.0</ele><time>2026-04-29T11:04:57Z</time></trkpt><trkpt lat="43.68854838548751" lon="13.102588329690809"><ele>188.0</ele><time>2026-04-29T11:04:58Z</time></trkpt><trkpt lat="43.68854550398193" lon="13.102394358458605"><ele>189.0</ele><time>2026-04-29T11:04:59Z</time></trkpt><trkpt lat="43.68854788860185" lon="13.102210281379977"><ele>189.25</ele><time>2026-04-29T11:05:00Z</time></trkpt><trkpt lat="43.68854855002792" lon="13.102013603093518"><ele>189.5</ele><time>2026-04-29T11:05:01Z</time></trkpt><trkpt lat="43.68854138668046" lon="13.101812225929123"><ele>189.75</ele><time>2026-04-29T11:05:02Z</time></trkpt><trkpt lat="43.68852247910929" lon="13.101614529117686"><ele>190.0</ele><time>2026-04-29T11:05:03Z</time></trkpt><trkpt lat="43.68849156888562" lon="13.1014183310565"><ele>190.25</ele><time>2026-04-29T11:05:04Z</time></trkpt><trkpt lat="43.68845102865598" lon="13.101234915110606"><ele>190.5</ele><time>2026-04-29T11:05:05Z</time></trkpt><trkpt lat="43.68840860715312" lon="13.101070628495902"><ele>190.75</ele><time>2026-04-29T11:05:06Z</time></trkpt><trkpt lat="43.68836589620134" lon="13.100905537518365"><ele>191.0</ele><time>2026-04-29T11:05:07Z</time></trkpt><trkpt lat="43.68832452405322" lon="13.100750925136245"><ele>192.25</ele><time>2026-04-29T11:05:08Z</time></trkpt><trkpt lat="43.688283278141554" lon="13.100585277900938"><ele>193.5</ele><time>2026-04-29T11:05:09Z</time></trkpt><trkpt lat="43.68823920988304" lon="13.100401324616783"><ele>194.75</ele><time>2026-04-29T11:05:10Z</time></trkpt><trkpt lat="43.68819762088353" lon="13.100222387963965"><ele>196.0</ele><time>2026-04-29T11:05:11Z</time></trkpt><trkpt lat="43.68816317938068" lon="13.10004575176247"><ele>197.8</ele><time>2026-04-29T11:05:12Z</time></trkpt><trkpt lat="43.68813748728826" lon="13.099881028096187"><ele>199.60000000000002</ele><time>2026-04-29T11:05:13Z</time></trkpt><trkpt lat="43.68811305819699" lon="13.099722478496894"><ele>201.4</ele><time>2026-04-29T11:05:14Z</time></trkpt><trkpt lat="43.688088994130126" lon="13.099584921403368"><ele>203.2</ele><time>2026-04-29T11:05:15Z</time></trkpt><trkpt lat="43.68807126111689" lon="13.09946745929863"><ele>205.0</ele><time>2026-04-29T11:05:16Z</time></trkpt><trkpt lat="43.68805592050359" lon="13.099358637032864"><ele>205.0</ele><time>2026-04-29T11:05:17Z</time></trkpt><trkpt lat="43.68804990309646" lon="13.09924301541533"><ele>205.0</ele><time>2026-04-29T11:05:18.001Z</time></trkpt><trkpt lat="43.68803771076066" lon="13.099144018698476"><ele>205.0</ele><time>2026-04-29T11:05:19.001Z</time></trkpt><trkpt lat="43.688117473342004" lon="13.098941221858826"><ele>205.0</ele><time>2026-04-29T11:05:21.001Z</time></trkpt><trkpt lat="43.688161065653006" lon="13.09883100971897"><ele>205.0</ele><time>2026-04-29T11:05:22.001Z</time></trkpt><trkpt lat="43.68821081536442" lon="13.098710178365357"><ele>204.5</ele><time>2026-04-29T11:05:23.001Z</time></trkpt><trkpt lat="43.68826847116451" lon="13.098567508053303"><ele>204.0</ele><time>2026-04-29T11:05:24.001Z</time></trkpt><trkpt lat="43.688334269014405" lon="13.098415525686882"><ele>203.5</ele><time>2026-04-29T11:05:25.001Z</time></trkpt><trkpt lat="43.68840736084769" lon="13.098258506526232"><ele>203.0</ele><time>2026-04-29T11:05:26.001Z</time></trkpt><trkpt lat="43.68848524780923" lon="13.098100757256814"><ele>201.0</ele><time>2026-04-29T11:05:27.001Z</time></trkpt><trkpt lat="43.688570782024236" lon="13.097934004238743"><ele>199.0</ele><time>2026-04-29T11:05:28.001Z</time></trkpt><trkpt lat="43.688663554101396" lon="13.09775759601555"><ele>197.0</ele><time>2026-04-29T11:05:29.001Z</time></trkpt><trkpt lat="43.68876208414579" lon="13.097568140497978"><ele>196.0</ele><time>2026-04-29T11:05:30.001Z</time></trkpt><trkpt lat="43.68886489791276" lon="13.097370062277482"><ele>195.0</ele><time>2026-04-29T11:05:31.001Z</time></trkpt><trkpt lat="43.68897255419737" lon="13.097163890734928"><ele>194.0</ele><time>2026-04-29T11:05:32.001Z</time></trkpt><trkpt lat="43.68907947137719" lon="13.09695921695672"><ele>194.0</ele><time>2026-04-29T11:05:33.001Z</time></trkpt><trkpt lat="43.68919125743673" lon="13.0967506321512"><ele>194.0</ele><time>2026-04-29T11:05:34.001Z</time></trkpt><trkpt lat="43.68930223959585" lon="13.096541352430604"><ele>194.0</ele><time>2026-04-29T11:05:35.001Z</time></trkpt><trkpt lat="43.689410136120756" lon="13.09632595124651"><ele>194.0</ele><time>2026-04-29T11:05:36.001Z</time></trkpt><trkpt lat="43.68951495631405" lon="13.096117969522977"><ele>194.0</ele><time>2026-04-29T11:05:37.001Z</time></trkpt><trkpt lat="43.68961878514585" lon="13.09591151700185"><ele>194.0</ele><time>2026-04-29T11:05:38.001Z</time></trkpt><trkpt lat="43.689720303552136" lon="13.095699814250759"><ele>194.0</ele><time>2026-04-29T11:05:39.001Z</time></trkpt><trkpt lat="43.68981762872427" lon="13.095487622607315"><ele>194.0</ele><time>2026-04-29T11:05:40.001Z</time></trkpt><trkpt lat="43.68991374949064" lon="13.095280499973057"><ele>194.0</ele><time>2026-04-29T11:05:41.001Z</time></trkpt><trkpt lat="43.69000836407352" lon="13.095065851369332"><ele>195.33333333333334</ele><time>2026-04-29T11:05:42.001Z</time></trkpt><trkpt lat="43.690121508755226" lon="13.094850041035317"><ele>196.66666666666669</ele><time>2026-04-29T11:05:43.001Z</time></trkpt><trkpt lat="43.69023006235592" lon="13.094613970966979"><ele>198.0</ele><time>2026-04-29T11:05:44.001Z</time></trkpt><trkpt lat="43.69030238491596" lon="13.094436244045683"><ele>194.66666666666666</ele><time>2026-04-29T11:05:45.001Z</time></trkpt><trkpt lat="43.69040333713174" lon="13.094223957348268"><ele>191.33333333333331</ele><time>2026-04-29T11:05:46.001Z</time></trkpt><trkpt lat="43.6905020882252" lon="13.094027079494355"><ele>188.0</ele><time>2026-04-29T11:05:47Z</time></trkpt><trkpt lat="43.69060108723243" lon="13.093839271710818"><ele>188.0</ele><time>2026-04-29T11:05:48Z</time></trkpt><trkpt lat="43.69070479297882" lon="13.093665781127195"><ele>188.0</ele><time>2026-04-29T11:05:49Z</time></trkpt><trkpt lat="43.690814220068056" lon="13.093502700559702"><ele>188.0</ele><time>2026-04-29T11:05:50Z</time></trkpt><trkpt lat="43.690919103602305" lon="13.093372654626297"><ele>188.0</ele><time>2026-04-29T11:05:51Z</time></trkpt><trkpt lat="43.69101872791231" lon="13.093256613742149"><ele>188.0</ele><time>2026-04-29T11:05:52Z</time></trkpt><trkpt lat="43.69111128622777" lon="13.093150831553213"><ele>188.0</ele><time>2026-04-29T11:05:53Z</time></trkpt><trkpt lat="43.69120617618761" lon="13.09305805875685"><ele>188.0</ele><time>2026-04-29T11:05:54Z</time></trkpt><trkpt lat="43.69129185439804" lon="13.092985700343423"><ele>187.5</ele><time>2026-04-29T11:05:55Z</time></trkpt><trkpt lat="43.69135849572994" lon="13.092950897908883"><ele>187.0</ele><time>2026-04-29T11:05:56Z</time></trkpt><trkpt lat="43.6914275139336" lon="13.092897201455356"><ele>186.5</ele><time>2026-04-29T11:05:58Z</time></trkpt><trkpt lat="43.69148178512641" lon="13.092838206053344"><ele>186.0</ele><time>2026-04-29T11:06:02Z</time></trkpt><trkpt lat="43.691414546171515" lon="13.092655547330358"><ele>185.5</ele><time>2026-04-29T11:06:03Z</time></trkpt><trkpt lat="43.69138254175461" lon="13.09256662528475"><ele>185.0</ele><time>2026-04-29T11:06:04Z</time></trkpt><trkpt lat="43.69133956294304" lon="13.092447597910164"><ele>185.5</ele><time>2026-04-29T11:06:05Z</time></trkpt><trkpt lat="43.691283318686914" lon="13.092295727092937"><ele>186.0</ele><time>2026-04-29T11:06:06Z</time></trkpt><trkpt lat="43.691220934025374" lon="13.092124275704991"><ele>186.5</ele><time>2026-04-29T11:06:07Z</time></trkpt><trkpt lat="43.69115624277468" lon="13.091901779827117"><ele>187.0</ele><time>2026-04-29T11:06:08Z</time></trkpt><trkpt lat="43.69107570081591" lon="13.091672928193411"><ele>189.33333333333334</ele><time>2026-04-29T11:06:09Z</time></trkpt><trkpt lat="43.691018177738286" lon="13.091439917843404"><ele>191.66666666666669</ele><time>2026-04-29T11:06:10Z</time></trkpt><trkpt lat="43.69095343840243" lon="13.091213000315427"><ele>194.0</ele><time>2026-04-29T11:06:11Z</time></trkpt><trkpt lat="43.69089474984149" lon="13.090983799358058"><ele>194.0</ele><time>2026-04-29T11:06:12Z</time></trkpt><trkpt lat="43.69087485371573" lon="13.090765954519972"><ele>194.0</ele><time>2026-04-29T11:06:13Z</time></trkpt><trkpt lat="43.6908603970815" lon="13.090566199683852"><ele>194.0</ele><time>2026-04-29T11:06:14Z</time></trkpt><trkpt lat="43.690851307626424" lon="13.090379478960214"><ele>194.0</ele><time>2026-04-29T11:06:15Z</time></trkpt><trkpt lat="43.69085394372503" lon="13.09020447883094"><ele>194.5</ele><time>2026-04-29T11:06:16Z</time></trkpt><trkpt lat="43.690870536677615" lon="13.090030101739845"><ele>195.0</ele><time>2026-04-29T11:06:17Z</time></trkpt><trkpt lat="43.690880269778624" lon="13.089852871273283"><ele>195.5</ele><time>2026-04-29T11:06:18Z</time></trkpt><trkpt lat="43.690874729527074" lon="13.089669310438126"><ele>196.0</ele><time>2026-04-29T11:06:19Z</time></trkpt><trkpt lat="43.69086462156167" lon="13.089485922024934"><ele>196.0</ele><time>2026-04-29T11:06:20Z</time></trkpt><trkpt lat="43.690846532029695" lon="13.089298635875451"><ele>196.0</ele><time>2026-04-29T11:06:21Z</time></trkpt><trkpt lat="43.69081820652318" lon="13.089124360462565"><ele>196.0</ele><time>2026-04-29T11:06:22Z</time></trkpt><trkpt lat="43.690775140081044" lon="13.08896132001579"><ele>196.0</ele><time>2026-04-29T11:06:23Z</time></trkpt><trkpt lat="43.690707187498305" lon="13.088811377949803"><ele>194.75</ele><time>2026-04-29T11:06:24Z</time></trkpt><trkpt lat="43.69062384063766" lon="13.08867388309214"><ele>193.5</ele><time>2026-04-29T11:06:25Z</time></trkpt><trkpt lat="43.69054991887075" lon="13.08853131704517"><ele>192.25</ele><time>2026-04-29T11:06:26Z</time></trkpt><trkpt lat="43.69049125916001" lon="13.08837945168546"><ele>191.0</ele><time>2026-04-29T11:06:27Z</time></trkpt><trkpt lat="43.690482043474624" lon="13.088212827379232"><ele>190.0</ele><time>2026-04-29T11:06:28Z</time></trkpt><trkpt lat="43.69047410726701" lon="13.08803638293943"><ele>189.0</ele><time>2026-04-29T11:06:29Z</time></trkpt><trkpt lat="43.69045723249968" lon="13.08783089980798"><ele>188.0</ele><time>2026-04-29T11:06:30Z</time></trkpt><trkpt lat="43.69045908049799" lon="13.087608591923543"><ele>187.0</ele><time>2026-04-29T11:06:31Z</time></trkpt><trkpt lat="43.69044604903063" lon="13.087399383939978"><ele>185.25</ele><time>2026-04-29T11:06:32Z</time></trkpt><trkpt lat="43.69043601038892" lon="13.087211781357217"><ele>183.5</ele><time>2026-04-29T11:06:33Z</time></trkpt><trkpt lat="43.690375066579364" lon="13.087044564566645"><ele>181.75</ele><time>2026-04-29T11:06:34Z</time></trkpt><trkpt lat="43.69031085007609" lon="13.0868961821673"><ele>180.0</ele><time>2026-04-29T11:06:35Z</time></trkpt><trkpt lat="43.69021810696943" lon="13.086754758071713"><ele>185.0</ele><time>2026-04-29T11:06:36Z</time></trkpt><trkpt lat="43.69013415728681" lon="13.08660779380626"><ele>190.0</ele><time>2026-04-29T11:06:37Z</time></trkpt><trkpt lat="43.690063222751256" lon="13.086445149954146"><ele>195.0</ele><time>2026-04-29T11:06:38Z</time></trkpt><trkpt lat="43.689993749456484" lon="13.08627236245596"><ele>200.0</ele><time>2026-04-29T11:06:39Z</time></trkpt><trkpt lat="43.68991552527346" lon="13.086105685659193"><ele>200.0</ele><time>2026-04-29T11:06:40Z</time></trkpt><trkpt lat="43.68983086686508" lon="13.08595614929183"><ele>200.0</ele><time>2026-04-29T11:06:41Z</time></trkpt><trkpt lat="43.68974194353208" lon="13.085833551131758"><ele>200.0</ele><time>2026-04-29T11:06:42Z</time></trkpt><trkpt lat="43.68963996423159" lon="13.085713455279109"><ele>200.0</ele><time>2026-04-29T11:06:43Z</time></trkpt><trkpt lat="43.68953501323498" lon="13.08558900890352"><ele>200.25</ele><time>2026-04-29T11:06:44Z</time></trkpt><trkpt lat="43.689434644231895" lon="13.0854605769229"><ele>200.5</ele><time>2026-04-29T11:06:45Z</time></trkpt><trkpt lat="43.68933757717008" lon="13.085344414085414"><ele>200.75</ele><time>2026-04-29T11:06:46Z</time></trkpt><trkpt lat="43.68925618267678" lon="13.08521606916982"><ele>201.0</ele><time>2026-04-29T11:06:47Z</time></trkpt><trkpt lat="43.68919878470678" lon="13.085059868559243"><ele>200.5</ele><time>2026-04-29T11:06:48Z</time></trkpt><trkpt lat="43.689124626780874" lon="13.084916367595827"><ele>200.0</ele><time>2026-04-29T11:06:49Z</time></trkpt><trkpt lat="43.68906470861826" lon="13.084756988996517"><ele>199.5</ele><time>2026-04-29T11:06:50Z</time></trkpt><trkpt lat="43.689006175439125" lon="13.084600182854253"><ele>199.0</ele><time>2026-04-29T11:06:51Z</time></trkpt><trkpt lat="43.688952331027245" lon="13.084445080982576"><ele>199.0</ele><time>2026-04-29T11:06:52Z</time></trkpt><trkpt lat="43.68890705522179" lon="13.084282804946676"><ele>199.0</ele><time>2026-04-29T11:06:53Z</time></trkpt><trkpt lat="43.6888781774368" lon="13.084121722246289"><ele>199.0</ele><time>2026-04-29T11:06:54Z</time></trkpt><trkpt lat="43.68886733218056" lon="13.083919335764994"><ele>199.0</ele><time>2026-04-29T11:06:55Z</time></trkpt><trkpt lat="43.688864337583674" lon="13.083714742610798"><ele>196.25</ele><time>2026-04-29T11:06:56Z</time></trkpt><trkpt lat="43.688851428759634" lon="13.083548696396782"><ele>193.5</ele><time>2026-04-29T11:06:57Z</time></trkpt><trkpt lat="43.68880692372105" lon="13.083376634507855"><ele>190.75</ele><time>2026-04-29T11:06:58Z</time></trkpt><trkpt lat="43.688728528217325" lon="13.08321633571624"><ele>188.0</ele><time>2026-04-29T11:06:59Z</time></trkpt><trkpt lat="43.688627738748956" lon="13.083065071292944"><ele>185.5</ele><time>2026-04-29T11:07:00Z</time></trkpt><trkpt lat="43.68851645732429" lon="13.082925623146277"><ele>183.0</ele><time>2026-04-29T11:07:01Z</time></trkpt><trkpt lat="43.68840941777517" lon="13.082796137924566"><ele>180.5</ele><time>2026-04-29T11:07:02Z</time></trkpt><trkpt lat="43.68830149672199" lon="13.08267816139458"><ele>178.0</ele><time>2026-04-29T11:07:03Z</time></trkpt><trkpt lat="43.6881954188482" lon="13.082561354260324"><ele>178.0</ele><time>2026-04-29T11:07:04Z</time></trkpt><trkpt lat="43.68808854148492" lon="13.082436719884326"><ele>178.0</ele><time>2026-04-29T11:07:05Z</time></trkpt><trkpt lat="43.68797797409643" lon="13.082311297858068"><ele>178.0</ele><time>2026-04-29T11:07:06Z</time></trkpt><trkpt lat="43.68786838448253" lon="13.082177853058194"><ele>178.0</ele><time>2026-04-29T11:07:07Z</time></trkpt><trkpt lat="43.68776234393652" lon="13.082034008733938"><ele>176.0</ele><time>2026-04-29T11:07:08Z</time></trkpt><trkpt lat="43.68766759245384" lon="13.081884190660912"><ele>174.0</ele><time>2026-04-29T11:07:09Z</time></trkpt><trkpt lat="43.687577991439795" lon="13.081735612789354"><ele>172.0</ele><time>2026-04-29T11:07:10Z</time></trkpt><trkpt lat="43.687502563360646" lon="13.081566917959004"><ele>170.0</ele><time>2026-04-29T11:07:11Z</time></trkpt><trkpt lat="43.68739919765064" lon="13.081404238973048"><ele>168.66666666666666</ele><time>2026-04-29T11:07:12Z</time></trkpt><trkpt lat="43.687306534856695" lon="13.081219292828958"><ele>167.33333333333334</ele><time>2026-04-29T11:07:13Z</time></trkpt><trkpt lat="43.68721387648609" lon="13.081039238260011"><ele>166.0</ele><time>2026-04-29T11:07:14Z</time></trkpt><trkpt lat="43.687118212954914" lon="13.080856901597645"><ele>168.0</ele><time>2026-04-29T11:07:15Z</time></trkpt><trkpt lat="43.68700861417031" lon="13.080651971765148"><ele>170.0</ele><time>2026-04-29T11:07:16Z</time></trkpt><trkpt lat="43.68689928168309" lon="13.08040868204657"><ele>172.0</ele><time>2026-04-29T11:07:17Z</time></trkpt><trkpt lat="43.68677173150967" lon="13.080162651619696"><ele>169.0</ele><time>2026-04-29T11:07:18Z</time></trkpt><trkpt lat="43.686628644052234" lon="13.079886651439347"><ele>166.0</ele><time>2026-04-29T11:07:19Z</time></trkpt><trkpt lat="43.68646028113959" lon="13.079561897548063"><ele>166.0</ele><time>2026-04-29T11:07:20Z</time></trkpt><trkpt lat="43.686303509817904" lon="13.079266786582924"><ele>166.0</ele><time>2026-04-29T11:07:21Z</time></trkpt><trkpt lat="43.68617261685504" lon="13.079046947068749"><ele>169.66666666666669</ele><time>2026-04-29T11:07:22Z</time></trkpt><trkpt lat="43.686049600444555" lon="13.078853278544456"><ele>173.33333333333334</ele><time>2026-04-29T11:07:23Z</time></trkpt><trkpt lat="43.68593019885556" lon="13.078673129373756"><ele>177.0</ele><time>2026-04-29T11:07:24.001Z</time></trkpt><trkpt lat="43.68578269265012" lon="13.07852178687881"><ele>177.0</ele><time>2026-04-29T11:07:25.001Z</time></trkpt><trkpt lat="43.6856559979094" lon="13.07838909072451"><ele>177.0</ele><time>2026-04-29T11:07:26.001Z</time></trkpt><trkpt lat="43.68554283847567" lon="13.078276998773582"><ele>177.0</ele><time>2026-04-29T11:07:27.001Z</time></trkpt><trkpt lat="43.6854215255376" lon="13.07817866976529"><ele>177.0</ele><time>2026-04-29T11:07:28.001Z</time></trkpt><trkpt lat="43.685275575971865" lon="13.078112350267885"><ele>180.66666666666666</ele><time>2026-04-29T11:07:29.001Z</time></trkpt><trkpt lat="43.6850982019366" lon="13.078057790030638"><ele>184.33333333333331</ele><time>2026-04-29T11:07:30.001Z</time></trkpt><trkpt lat="43.68490236292469" lon="13.078024971089606"><ele>188.0</ele><time>2026-04-29T11:07:31.001Z</time></trkpt><trkpt lat="43.68471651611494" lon="13.077992763502644"><ele>188.0</ele><time>2026-04-29T11:07:32Z</time></trkpt><trkpt lat="43.68453698151445" lon="13.077926482683212"><ele>188.0</ele><time>2026-04-29T11:07:33Z</time></trkpt><trkpt lat="43.68436747316049" lon="13.0778850848522"><ele>188.0</ele><time>2026-04-29T11:07:34Z</time></trkpt><trkpt lat="43.6842035924325" lon="13.07787437682542"><ele>189.0</ele><time>2026-04-29T11:07:35Z</time></trkpt><trkpt lat="43.68403565697753" lon="13.077836808783607"><ele>190.0</ele><time>2026-04-29T11:07:36Z</time></trkpt><trkpt lat="43.683862297009966" lon="13.077804740421591"><ele>191.0</ele><time>2026-04-29T11:07:37Z</time></trkpt><trkpt lat="43.68369053015074" lon="13.07777305040395"><ele>192.0</ele><time>2026-04-29T11:07:38Z</time></trkpt><trkpt lat="43.68352108083046" lon="13.07773196353324"><ele>193.0</ele><time>2026-04-29T11:07:39Z</time></trkpt><trkpt lat="43.68335043572015" lon="13.077674353465536"><ele>194.0</ele><time>2026-04-29T11:07:40Z</time></trkpt><trkpt lat="43.683185363406515" lon="13.077604812267532"><ele>194.0</ele><time>2026-04-29T11:07:41Z</time></trkpt><trkpt lat="43.68302348856253" lon="13.077545057189074"><ele>194.0</ele><time>2026-04-29T11:07:42Z</time></trkpt><trkpt lat="43.682858611857554" lon="13.077485713056003"><ele>194.0</ele><time>2026-04-29T11:07:43Z</time></trkpt><trkpt lat="43.68269304961592" lon="13.077427737983932"><ele>192.66666666666669</ele><time>2026-04-29T11:07:44Z</time></trkpt><trkpt lat="43.68252449832127" lon="13.077370142474962"><ele>191.33333333333334</ele><time>2026-04-29T11:07:45Z</time></trkpt><trkpt lat="43.68235867845214" lon="13.077308605474432"><ele>190.0</ele><time>2026-04-29T11:07:46Z</time></trkpt><trkpt lat="43.68219471036048" lon="13.077236040973956"><ele>190.0</ele><time>2026-04-29T11:07:47Z</time></trkpt><trkpt lat="43.682029900709715" lon="13.077146990123241"><ele>190.0</ele><time>2026-04-29T11:07:48Z</time></trkpt><trkpt lat="43.68187405541867" lon="13.077047902065836"><ele>190.0</ele><time>2026-04-29T11:07:49Z</time></trkpt><trkpt lat="43.68172879248117" lon="13.076942946365138"><ele>190.0</ele><time>2026-04-29T11:07:50Z</time></trkpt><trkpt lat="43.6816101757142" lon="13.076850610685003"><ele>190.0</ele><time>2026-04-29T11:07:51Z</time></trkpt><trkpt lat="43.681501305187815" lon="13.07675376773711"><ele>190.0</ele><time>2026-04-29T11:07:52Z</time></trkpt><trkpt lat="43.681408585197524" lon="13.076645331640785"><ele>190.0</ele><time>2026-04-29T11:07:53Z</time></trkpt><trkpt lat="43.68132612996372" lon="13.076542169114726"><ele>189.8</ele><time>2026-04-29T11:07:54Z</time></trkpt><trkpt lat="43.6812298139914" lon="13.076461441794132"><ele>189.6</ele><time>2026-04-29T11:07:55Z</time></trkpt><trkpt lat="43.68113523322226" lon="13.076395284014522"><ele>189.39999999999998</ele><time>2026-04-29T11:07:56Z</time></trkpt><trkpt lat="43.68103972661308" lon="13.076333109152142"><ele>189.2</ele><time>2026-04-29T11:07:57Z</time></trkpt><trkpt lat="43.68094059505782" lon="13.07627694033434"><ele>189.0</ele><time>2026-04-29T11:07:58Z</time></trkpt><trkpt lat="43.68083931523662" lon="13.076216795580914"><ele>188.6</ele><time>2026-04-29T11:07:59Z</time></trkpt><trkpt lat="43.680735227863174" lon="13.07616095022074"><ele>188.2</ele><time>2026-04-29T11:08:00Z</time></trkpt><trkpt lat="43.680626018967544" lon="13.07610353951783"><ele>187.79999999999998</ele><time>2026-04-29T11:08:01Z</time></trkpt><trkpt lat="43.6805193934999" lon="13.076047594941972"><ele>187.39999999999998</ele><time>2026-04-29T11:08:02Z</time></trkpt><trkpt lat="43.68041966574329" lon="13.075994539140487"><ele>187.0</ele><time>2026-04-29T11:08:03Z</time></trkpt><trkpt lat="43.68032171784955" lon="13.075941936815784"><ele>187.0</ele><time>2026-04-29T11:08:04Z</time></trkpt><trkpt lat="43.68022129004915" lon="13.075884456430703"><ele>187.0</ele><time>2026-04-29T11:08:05Z</time></trkpt><trkpt lat="43.68013310500178" lon="13.075823349734904"><ele>187.0</ele><time>2026-04-29T11:08:06Z</time></trkpt><trkpt lat="43.68000960826952" lon="13.075766626636861"><ele>187.0</ele><time>2026-04-29T11:08:07Z</time></trkpt><trkpt lat="43.67989991190787" lon="13.075680965169651"><ele>186.5</ele><time>2026-04-29T11:08:08Z</time></trkpt><trkpt lat="43.67979822681459" lon="13.075600593493945"><ele>186.0</ele><time>2026-04-29T11:08:09Z</time></trkpt><trkpt lat="43.67969345672519" lon="13.075510609676845"><ele>185.5</ele><time>2026-04-29T11:08:10Z</time></trkpt><trkpt lat="43.67959386137821" lon="13.075415918382216"><ele>185.0</ele><time>2026-04-29T11:08:11Z</time></trkpt><trkpt lat="43.67949831564137" lon="13.075315094976322"><ele>185.25</ele><time>2026-04-29T11:08:12Z</time></trkpt><trkpt lat="43.67940776375845" lon="13.075197729986874"><ele>185.5</ele><time>2026-04-29T11:08:13Z</time></trkpt><trkpt lat="43.67931571563085" lon="13.075053506303544"><ele>185.75</ele><time>2026-04-29T11:08:14Z</time></trkpt><trkpt lat="43.679237874234715" lon="13.074899787742103"><ele>186.0</ele><time>2026-04-29T11:08:15Z</time></trkpt><trkpt lat="43.67915611175401" lon="13.07475118560418"><ele>186.0</ele><time>2026-04-29T11:08:16Z</time></trkpt><trkpt lat="43.67907217018572" lon="13.074598622944123"><ele>186.0</ele><time>2026-04-29T11:08:17Z</time></trkpt><trkpt lat="43.67899122379441" lon="13.074451504268378"><ele>186.0</ele><time>2026-04-29T11:08:18Z</time></trkpt><trkpt lat="43.67890227815996" lon="13.074316294871666"><ele>186.0</ele><time>2026-04-29T11:08:19Z</time></trkpt><trkpt lat="43.678825751611505" lon="13.074180359877895"><ele>188.0</ele><time>2026-04-29T11:08:20Z</time></trkpt><trkpt lat="43.67873835429568" lon="13.07403419878409"><ele>190.0</ele><time>2026-04-29T11:08:21Z</time></trkpt><trkpt lat="43.678635875293494" lon="13.073817090751858"><ele>192.0</ele><time>2026-04-29T11:08:22Z</time></trkpt><trkpt lat="43.67850911520836" lon="13.073588273047344"><ele>192.0</ele><time>2026-04-29T11:08:23Z</time></trkpt><trkpt lat="43.67837271387567" lon="13.073334504471664"><ele>192.0</ele><time>2026-04-29T11:08:24Z</time></trkpt><trkpt lat="43.678247563398024" lon="13.073087447726717"><ele>192.0</ele><time>2026-04-29T11:08:25Z</time></trkpt><trkpt lat="43.67814590416555" lon="13.072842211259493"><ele>189.66666666666666</ele><time>2026-04-29T11:08:26Z</time></trkpt><trkpt lat="43.678062260763966" lon="13.072591255124786"><ele>187.33333333333331</ele><time>2026-04-29T11:08:27Z</time></trkpt><trkpt lat="43.677988455553134" lon="13.072329926634197"><ele>185.0</ele><time>2026-04-29T11:08:28Z</time></trkpt><trkpt lat="43.677919831620684" lon="13.072049729791347"><ele>185.0</ele><time>2026-04-29T11:08:29Z</time></trkpt><trkpt lat="43.6778584164696" lon="13.071806362749427"><ele>185.0</ele><time>2026-04-29T11:08:30Z</time></trkpt><trkpt lat="43.677794087910776" lon="13.071555601942338"><ele>185.0</ele><time>2026-04-29T11:08:31Z</time></trkpt><trkpt lat="43.67771460015424" lon="13.07130509010414"><ele>185.0</ele><time>2026-04-29T11:08:32Z</time></trkpt><trkpt lat="43.67765304020448" lon="13.071041453714477"><ele>185.0</ele><time>2026-04-29T11:08:33Z</time></trkpt><trkpt lat="43.67758475857345" lon="13.070772367699467"><ele>185.0</ele><time>2026-04-29T11:08:34Z</time></trkpt><trkpt lat="43.67751025589397" lon="13.070488701807397"><ele>184.66666666666666</ele><time>2026-04-29T11:08:35Z</time></trkpt><trkpt lat="43.6774306661655" lon="13.070206169636696"><ele>184.33333333333334</ele><time>2026-04-29T11:08:36Z</time></trkpt><trkpt lat="43.67733660525898" lon="13.069936764144353"><ele>184.0</ele><time>2026-04-29T11:08:37Z</time></trkpt><trkpt lat="43.67722571708316" lon="13.069674734615077"><ele>182.33333333333334</ele><time>2026-04-29T11:08:38Z</time></trkpt><trkpt lat="43.677114776601506" lon="13.069445804861964"><ele>180.66666666666666</ele><time>2026-04-29T11:08:39Z</time></trkpt><trkpt lat="43.67699611326182" lon="13.06924699265348"><ele>179.0</ele><time>2026-04-29T11:08:40Z</time></trkpt><trkpt lat="43.67687847689678" lon="13.069084703982531"><ele>182.5</ele><time>2026-04-29T11:08:41Z</time></trkpt><trkpt lat="43.676770535603076" lon="13.068948830365422"><ele>186.0</ele><time>2026-04-29T11:08:42Z</time></trkpt><trkpt lat="43.676667933908995" lon="13.068820678035411"><ele>189.5</ele><time>2026-04-29T11:08:43Z</time></trkpt><trkpt lat="43.67658315235585" lon="13.068682185540402"><ele>193.0</ele><time>2026-04-29T11:08:44Z</time></trkpt><trkpt lat="43.67651613635985" lon="13.068527715979721"><ele>193.0</ele><time>2026-04-29T11:08:45Z</time></trkpt><trkpt lat="43.676453866243534" lon="13.06836472603927"><ele>193.0</ele><time>2026-04-29T11:08:46Z</time></trkpt><trkpt lat="43.67641578656715" lon="13.068179247627105"><ele>193.0</ele><time>2026-04-29T11:08:47Z</time></trkpt><trkpt lat="43.67639026902901" lon="13.067992653471586"><ele>193.0</ele><time>2026-04-29T11:08:48Z</time></trkpt><trkpt lat="43.676391245018415" lon="13.067792120962544"><ele>192.75</ele><time>2026-04-29T11:08:49Z</time></trkpt><trkpt lat="43.67639060880183" lon="13.067570272375699"><ele>192.5</ele><time>2026-04-29T11:08:50Z</time></trkpt><trkpt lat="43.67638056288664" lon="13.067375451581686"><ele>192.25</ele><time>2026-04-29T11:08:51Z</time></trkpt><trkpt lat="43.67634920997568" lon="13.067211755234103"><ele>192.0</ele><time>2026-04-29T11:08:52Z</time></trkpt><trkpt lat="43.67630829190325" lon="13.06707284066292"><ele>192.0</ele><time>2026-04-29T11:08:53Z</time></trkpt><trkpt lat="43.676227137588214" lon="13.066949099344205"><ele>192.0</ele><time>2026-04-29T11:08:54Z</time></trkpt><trkpt lat="43.676116019755796" lon="13.0668194592642"><ele>192.0</ele><time>2026-04-29T11:08:55Z</time></trkpt><trkpt lat="43.67599602172136" lon="13.066675958448984"><ele>192.0</ele><time>2026-04-29T11:08:56Z</time></trkpt><trkpt lat="43.67587134614878" lon="13.066522010699208"><ele>193.25</ele><time>2026-04-29T11:08:57Z</time></trkpt><trkpt lat="43.67574915159137" lon="13.066372126082861"><ele>194.5</ele><time>2026-04-29T11:08:58Z</time></trkpt><trkpt lat="43.67562834060944" lon="13.066269970044726"><ele>195.75</ele><time>2026-04-29T11:08:59Z</time></trkpt><trkpt lat="43.675508520997674" lon="13.066205336755928"><ele>197.0</ele><time>2026-04-29T11:09:00Z</time></trkpt><trkpt lat="43.67536554648486" lon="13.066202131069803"><ele>199.66666666666669</ele><time>2026-04-29T11:09:01Z</time></trkpt><trkpt lat="43.675193354394644" lon="13.06626211573087"><ele>202.33333333333331</ele><time>2026-04-29T11:09:02Z</time></trkpt><trkpt lat="43.67501902817016" lon="13.066297119795559"><ele>205.0</ele><time>2026-04-29T11:09:03Z</time></trkpt><trkpt lat="43.67485443081714" lon="13.066304877244743"><ele>205.0</ele><time>2026-04-29T11:09:04Z</time></trkpt><trkpt lat="43.674696365805694" lon="13.066280533983434"><ele>205.0</ele><time>2026-04-29T11:09:05Z</time></trkpt><trkpt lat="43.67454271616043" lon="13.066237971031068"><ele>205.0</ele><time>2026-04-29T11:09:06Z</time></trkpt><trkpt lat="43.67439670363651" lon="13.066172485780678"><ele>206.0</ele><time>2026-04-29T11:09:07Z</time></trkpt><trkpt lat="43.674260299174534" lon="13.066107616117671"><ele>207.0</ele><time>2026-04-29T11:09:08Z</time></trkpt><trkpt lat="43.67411213626813" lon="13.066038380766612"><ele>208.0</ele><time>2026-04-29T11:09:09Z</time></trkpt><trkpt lat="43.67395578870984" lon="13.065956021620815"><ele>208.0</ele><time>2026-04-29T11:09:10Z</time></trkpt><trkpt lat="43.67379658343252" lon="13.06585762933361"><ele>208.0</ele><time>2026-04-29T11:09:11Z</time></trkpt><trkpt lat="43.67365844041242" lon="13.065695627583278"><ele>208.0</ele><time>2026-04-29T11:09:12Z</time></trkpt><trkpt lat="43.67349664862581" lon="13.065587456559083"><ele>205.0</ele><time>2026-04-29T11:09:13Z</time></trkpt><trkpt lat="43.67333994774787" lon="13.065499381780048"><ele>202.0</ele><time>2026-04-29T11:09:14Z</time></trkpt><trkpt lat="43.67316720415552" lon="13.065434266321313"><ele>199.0</ele><time>2026-04-29T11:09:15Z</time></trkpt><trkpt lat="43.67298960862042" lon="13.06536519092084"><ele>199.0</ele><time>2026-04-29T11:09:16Z</time></trkpt><trkpt lat="43.672817260838194" lon="13.065279310833965"><ele>199.0</ele><time>2026-04-29T11:09:17Z</time></trkpt><trkpt lat="43.67265531312649" lon="13.065184137132098"><ele>199.0</ele><time>2026-04-29T11:09:18Z</time></trkpt><trkpt lat="43.67249259758291" lon="13.065081774836349"><ele>197.33333333333331</ele><time>2026-04-29T11:09:19Z</time></trkpt><trkpt lat="43.67232961731255" lon="13.064982495329664"><ele>195.66666666666669</ele><time>2026-04-29T11:09:20Z</time></trkpt><trkpt lat="43.67217336037349" lon="13.064887869630612"><ele>194.0</ele><time>2026-04-29T11:09:21Z</time></trkpt><trkpt lat="43.67203837740154" lon="13.064792039923772"><ele>197.0</ele><time>2026-04-29T11:09:22Z</time></trkpt><trkpt lat="43.67192053727059" lon="13.064677408207885"><ele>200.0</ele><time>2026-04-29T11:09:23Z</time></trkpt><trkpt lat="43.67180006645577" lon="13.064535372671342"><ele>203.0</ele><time>2026-04-29T11:09:24Z</time></trkpt><trkpt lat="43.671676279186286" lon="13.06438614225115"><ele>203.0</ele><time>2026-04-29T11:09:25Z</time></trkpt><trkpt lat="43.67154496537865" lon="13.0642357884676"><ele>203.0</ele><time>2026-04-29T11:09:26Z</time></trkpt><trkpt lat="43.671399873372195" lon="13.064085434724444"><ele>203.0</ele><time>2026-04-29T11:09:27Z</time></trkpt><trkpt lat="43.67125144393241" lon="13.063944008193948"><ele>202.66666666666669</ele><time>2026-04-29T11:09:28Z</time></trkpt><trkpt lat="43.67110289145987" lon="13.063799790477583"><ele>202.33333333333331</ele><time>2026-04-29T11:09:29Z</time></trkpt><trkpt lat="43.670959241013946" lon="13.063656870953437"><ele>202.0</ele><time>2026-04-29T11:09:30Z</time></trkpt><trkpt lat="43.67081846074342" lon="13.063505414891427"><ele>202.0</ele><time>2026-04-29T11:09:31Z</time></trkpt><trkpt lat="43.67068321175012" lon="13.063342446045308"><ele>202.0</ele><time>2026-04-29T11:09:32Z</time></trkpt><trkpt lat="43.67055860716845" lon="13.06316107642372"><ele>202.0</ele><time>2026-04-29T11:09:33Z</time></trkpt><trkpt lat="43.67043978255888" lon="13.06296074019078"><ele>200.66666666666666</ele><time>2026-04-29T11:09:34Z</time></trkpt><trkpt lat="43.67032247994678" lon="13.062763846983035"><ele>199.33333333333331</ele><time>2026-04-29T11:09:35Z</time></trkpt><trkpt lat="43.670196287385465" lon="13.062567247632435"><ele>198.0</ele><time>2026-04-29T11:09:36Z</time></trkpt><trkpt lat="43.67007216940491" lon="13.06238197592623"><ele>200.66666666666669</ele><time>2026-04-29T11:09:37Z</time></trkpt><trkpt lat="43.66995851404148" lon="13.062202377971717"><ele>203.33333333333334</ele><time>2026-04-29T11:09:38Z</time></trkpt><trkpt lat="43.669822170604405" lon="13.062026829272584"><ele>206.0</ele><time>2026-04-29T11:09:39Z</time></trkpt><trkpt lat="43.66968368444681" lon="13.061877901080646"><ele>206.0</ele><time>2026-04-29T11:09:40Z</time></trkpt><trkpt lat="43.6695556998289" lon="13.061741557603385"><ele>206.0</ele><time>2026-04-29T11:09:41Z</time></trkpt><trkpt lat="43.66944544320885" lon="13.061597094518612"><ele>206.0</ele><time>2026-04-29T11:09:42Z</time></trkpt><trkpt lat="43.66932755147473" lon="13.06144855313559"><ele>208.0</ele><time>2026-04-29T11:09:43Z</time></trkpt><trkpt lat="43.66922704524626" lon="13.061286150251428"><ele>210.0</ele><time>2026-04-29T11:09:44Z</time></trkpt><trkpt lat="43.669111399136916" lon="13.061138255767869"><ele>212.0</ele><time>2026-04-29T11:09:45Z</time></trkpt><trkpt lat="43.66899795066204" lon="13.060973114243515"><ele>212.0</ele><time>2026-04-29T11:09:46Z</time></trkpt><trkpt lat="43.668888502549216" lon="13.060798074908668"><ele>212.0</ele><time>2026-04-29T11:09:47Z</time></trkpt><trkpt lat="43.66877288145384" lon="13.060610829891353"><ele>212.0</ele><time>2026-04-29T11:09:48Z</time></trkpt><trkpt lat="43.66866874467838" lon="13.060419796724585"><ele>212.0</ele><time>2026-04-29T11:09:49Z</time></trkpt><trkpt lat="43.668573085734955" lon="13.060224493287645"><ele>212.0</ele><time>2026-04-29T11:09:50Z</time></trkpt><trkpt lat="43.66847185895138" lon="13.060036692518135"><ele>212.0</ele><time>2026-04-29T11:09:51Z</time></trkpt><trkpt lat="43.66837560193983" lon="13.059845269295334"><ele>212.0</ele><time>2026-04-29T11:09:52Z</time></trkpt><trkpt lat="43.6682797310989" lon="13.05966332901103"><ele>212.0</ele><time>2026-04-29T11:09:53Z</time></trkpt><trkpt lat="43.66817980103306" lon="13.059472302171619"><ele>212.0</ele><time>2026-04-29T11:09:54Z</time></trkpt><trkpt lat="43.668086176950354" lon="13.05931221965931"><ele>212.0</ele><time>2026-04-29T11:09:55Z</time></trkpt><trkpt lat="43.66800198198893" lon="13.059124017958663"><ele>212.0</ele><time>2026-04-29T11:09:56Z</time></trkpt><trkpt lat="43.66791601912623" lon="13.05894766502654"><ele>212.0</ele><time>2026-04-29T11:09:57Z</time></trkpt><trkpt lat="43.667830977905155" lon="13.058782528085098"><ele>212.25</ele><time>2026-04-29T11:09:58Z</time></trkpt><trkpt lat="43.66775794334408" lon="13.058623269575005"><ele>212.5</ele><time>2026-04-29T11:09:59Z</time></trkpt><trkpt lat="43.66768930172329" lon="13.058466977330795"><ele>212.75</ele><time>2026-04-29T11:10:00Z</time></trkpt><trkpt lat="43.66762163691062" lon="13.05833441851414"><ele>213.0</ele><time>2026-04-29T11:10:01Z</time></trkpt><trkpt lat="43.66756249503371" lon="13.058185916307353"><ele>213.0</ele><time>2026-04-29T11:10:02Z</time></trkpt><trkpt lat="43.66752083961037" lon="13.058020583406423"><ele>213.0</ele><time>2026-04-29T11:10:03Z</time></trkpt><trkpt lat="43.6675042532342" lon="13.057852140767684"><ele>213.0</ele><time>2026-04-29T11:10:04Z</time></trkpt><trkpt lat="43.66751065366214" lon="13.057707316415897"><ele>213.0</ele><time>2026-04-29T11:10:05Z</time></trkpt><trkpt lat="43.66751607028005" lon="13.05755146452193"><ele>212.25</ele><time>2026-04-29T11:10:06Z</time></trkpt><trkpt lat="43.6674949321687" lon="13.057419136755449"><ele>211.5</ele><time>2026-04-29T11:10:07Z</time></trkpt><trkpt lat="43.6674930708469" lon="13.057291640676658"><ele>210.75</ele><time>2026-04-29T11:10:08Z</time></trkpt><trkpt lat="43.66749800169095" lon="13.057138095309682"><ele>210.0</ele><time>2026-04-29T11:10:09Z</time></trkpt><trkpt lat="43.667480517547844" lon="13.056930841640693"><ele>210.0</ele><time>2026-04-29T11:10:10Z</time></trkpt><trkpt lat="43.66745997973318" lon="13.056702048983556"><ele>210.0</ele><time>2026-04-29T11:10:11Z</time></trkpt><trkpt lat="43.667433844386046" lon="13.056486193422085"><ele>210.0</ele><time>2026-04-29T11:10:12Z</time></trkpt><trkpt lat="43.667395492464784" lon="13.056294623811164"><ele>209.33333333333331</ele><time>2026-04-29T11:10:13Z</time></trkpt><trkpt lat="43.66735821297043" lon="13.056087473075038"><ele>208.66666666666666</ele><time>2026-04-29T11:10:14Z</time></trkpt><trkpt lat="43.66730367761395" lon="13.055878867077993"><ele>208.0</ele><time>2026-04-29T11:10:15Z</time></trkpt><trkpt lat="43.66724187003068" lon="13.055660449374912"><ele>206.66666666666666</ele><time>2026-04-29T11:10:16Z</time></trkpt><trkpt lat="43.667193095546295" lon="13.05544173801121"><ele>205.33333333333331</ele><time>2026-04-29T11:10:17Z</time></trkpt><trkpt lat="43.667133550058296" lon="13.05521956826864"><ele>204.0</ele><time>2026-04-29T11:10:18Z</time></trkpt><trkpt lat="43.667063561264776" lon="13.054988072300587"><ele>203.33333333333331</ele><time>2026-04-29T11:10:19Z</time></trkpt><trkpt lat="43.66699488071903" lon="13.054764528708567"><ele>202.66666666666666</ele><time>2026-04-29T11:10:20Z</time></trkpt><trkpt lat="43.66693708915582" lon="13.054543762808398"><ele>202.0</ele><time>2026-04-29T11:10:21Z</time></trkpt><trkpt lat="43.6668824793263" lon="13.054325886584145"><ele>205.33333333333331</ele><time>2026-04-29T11:10:22Z</time></trkpt><trkpt lat="43.666826131214044" lon="13.054120732778602"><ele>208.66666666666669</ele><time>2026-04-29T11:10:23Z</time></trkpt><trkpt lat="43.66678254246074" lon="13.05390232551807"><ele>212.0</ele><time>2026-04-29T11:10:24Z</time></trkpt><trkpt lat="43.666710283587115" lon="13.053693535820392"><ele>212.0</ele><time>2026-04-29T11:10:25Z</time></trkpt><trkpt lat="43.66665279359871" lon="13.053465682280176"><ele>212.0</ele><time>2026-04-29T11:10:26Z</time></trkpt><trkpt lat="43.66658881784884" lon="13.053247222032981"><ele>212.0</ele><time>2026-04-29T11:10:27Z</time></trkpt><trkpt lat="43.66651778221165" lon="13.053032233109455"><ele>211.66666666666669</ele><time>2026-04-29T11:10:28Z</time></trkpt><trkpt lat="43.666444418939385" lon="13.05281817429619"><ele>211.33333333333331</ele><time>2026-04-29T11:10:29Z</time></trkpt><trkpt lat="43.66636604126346" lon="13.052601377150935"><ele>211.0</ele><time>2026-04-29T11:10:30Z</time></trkpt><trkpt lat="43.666282448639954" lon="13.052401580536145"><ele>210.66666666666666</ele><time>2026-04-29T11:10:31Z</time></trkpt><trkpt lat="43.666178656292004" lon="13.052222152873696"><ele>210.33333333333331</ele><time>2026-04-29T11:10:32Z</time></trkpt><trkpt lat="43.66605480676428" lon="13.052059993239734"><ele>210.0</ele><time>2026-04-29T11:10:33Z</time></trkpt><trkpt lat="43.6659140731775" lon="13.051898927525272"><ele>210.0</ele><time>2026-04-29T11:10:34Z</time></trkpt><trkpt lat="43.66577285254737" lon="13.051729407044396"><ele>210.0</ele><time>2026-04-29T11:10:35Z</time></trkpt><trkpt lat="43.66563777415023" lon="13.051549124577523"><ele>210.0</ele><time>2026-04-29T11:10:36Z</time></trkpt><trkpt lat="43.66550107535497" lon="13.051362036166465"><ele>207.33333333333331</ele><time>2026-04-29T11:10:37Z</time></trkpt><trkpt lat="43.66535849299985" lon="13.0511677307266"><ele>204.66666666666666</ele><time>2026-04-29T11:10:38Z</time></trkpt><trkpt lat="43.665209186666935" lon="13.050972095182876"><ele>202.0</ele><time>2026-04-29T11:10:39Z</time></trkpt><trkpt lat="43.66505779908906" lon="13.050780411322195"><ele>200.66666666666666</ele><time>2026-04-29T11:10:40Z</time></trkpt><trkpt lat="43.66491108069249" lon="13.050589615241085"><ele>199.33333333333331</ele><time>2026-04-29T11:10:41Z</time></trkpt><trkpt lat="43.66478418057109" lon="13.050373071053965"><ele>198.0</ele><time>2026-04-29T11:10:42Z</time></trkpt><trkpt lat="43.66464678828674" lon="13.050157426259037"><ele>200.0</ele><time>2026-04-29T11:10:43Z</time></trkpt><trkpt lat="43.664506269881976" lon="13.049955284256223"><ele>202.0</ele><time>2026-04-29T11:10:44Z</time></trkpt><trkpt lat="43.66437787312545" lon="13.049738839073344"><ele>204.0</ele><time>2026-04-29T11:10:45Z</time></trkpt><trkpt lat="43.664251699752555" lon="13.049522224365962"><ele>204.0</ele><time>2026-04-29T11:10:46Z</time></trkpt><trkpt lat="43.66413305162084" lon="13.04930787303757"><ele>204.0</ele><time>2026-04-29T11:10:47Z</time></trkpt><trkpt lat="43.6640205160654" lon="13.04909292684879"><ele>204.0</ele><time>2026-04-29T11:10:48Z</time></trkpt><trkpt lat="43.66390457650845" lon="13.04887294813988"><ele>203.0</ele><time>2026-04-29T11:10:49Z</time></trkpt><trkpt lat="43.66378875603742" lon="13.048661671285029"><ele>202.0</ele><time>2026-04-29T11:10:50Z</time></trkpt><trkpt lat="43.66367892078809" lon="13.048471731054201"><ele>201.0</ele><time>2026-04-29T11:10:51Z</time></trkpt><trkpt lat="43.66354423511528" lon="13.048287647295904"><ele>204.0</ele><time>2026-04-29T11:10:52Z</time></trkpt><trkpt lat="43.66339044585579" lon="13.048173689932785"><ele>207.0</ele><time>2026-04-29T11:10:53Z</time></trkpt><trkpt lat="43.66322693960011" lon="13.048112711094815"><ele>210.0</ele><time>2026-04-29T11:10:54Z</time></trkpt><trkpt lat="43.66306256614728" lon="13.048088240593158"><ele>210.0</ele><time>2026-04-29T11:10:55Z</time></trkpt><trkpt lat="43.662897931322995" lon="13.04802181584537"><ele>210.0</ele><time>2026-04-29T11:10:56Z</time></trkpt><trkpt lat="43.66274325856714" lon="13.047946691880322"><ele>210.0</ele><time>2026-04-29T11:10:57Z</time></trkpt><trkpt lat="43.662592517979576" lon="13.047862304655995"><ele>212.33333333333331</ele><time>2026-04-29T11:10:58Z</time></trkpt><trkpt lat="43.66246206560096" lon="13.047719796813304"><ele>214.66666666666666</ele><time>2026-04-29T11:10:59Z</time></trkpt><trkpt lat="43.662346143265" lon="13.047557455776412"><ele>217.0</ele><time>2026-04-29T11:11:00Z</time></trkpt><trkpt lat="43.66220788786022" lon="13.047407695625013"><ele>218.0</ele><time>2026-04-29T11:11:01Z</time></trkpt><trkpt lat="43.66207476773391" lon="13.04722029500312"><ele>219.0</ele><time>2026-04-29T11:11:02Z</time></trkpt><trkpt lat="43.661934684943304" lon="13.047056816388766"><ele>220.0</ele><time>2026-04-29T11:11:03Z</time></trkpt><trkpt lat="43.661789942230826" lon="13.046908749074117"><ele>220.0</ele><time>2026-04-29T11:11:04Z</time></trkpt><trkpt lat="43.66163834494307" lon="13.046763294587068"><ele>220.0</ele><time>2026-04-29T11:11:05Z</time></trkpt><trkpt lat="43.6614842758026" lon="13.046618537011208"><ele>220.0</ele><time>2026-04-29T11:11:06Z</time></trkpt><trkpt lat="43.66133062388236" lon="13.046470987565513"><ele>219.66666666666666</ele><time>2026-04-29T11:11:07Z</time></trkpt><trkpt lat="43.66117765214178" lon="13.046319288273336"><ele>219.33333333333331</ele><time>2026-04-29T11:11:08Z</time></trkpt><trkpt lat="43.66101794018486" lon="13.046177499508278"><ele>219.0</ele><time>2026-04-29T11:11:09Z</time></trkpt><trkpt lat="43.660854390513386" lon="13.046040671234897"><ele>219.0</ele><time>2026-04-29T11:11:10Z</time></trkpt><trkpt lat="43.66068684553135" lon="13.045905503517147"><ele>219.0</ele><time>2026-04-29T11:11:11Z</time></trkpt><trkpt lat="43.66052417440082" lon="13.045779369157751"><ele>219.0</ele><time>2026-04-29T11:11:12Z</time></trkpt><trkpt lat="43.66035777288643" lon="13.045682444932504"><ele>221.33333333333331</ele><time>2026-04-29T11:11:13Z</time></trkpt><trkpt lat="43.66020194699668" lon="13.045602744328038"><ele>223.66666666666666</ele><time>2026-04-29T11:11:14Z</time></trkpt><trkpt lat="43.66003508509335" lon="13.045545118660565"><ele>226.0</ele><time>2026-04-29T11:11:15Z</time></trkpt><trkpt lat="43.6598712055299" lon="13.045512796992133"><ele>226.0</ele><time>2026-04-29T11:11:16Z</time></trkpt><trkpt lat="43.65969576070772" lon="13.045496319120556"><ele>226.0</ele><time>2026-04-29T11:11:17Z</time></trkpt><trkpt lat="43.65952281305165" lon="13.045478402501478"><ele>226.0</ele><time>2026-04-29T11:11:18Z</time></trkpt><trkpt lat="43.65935842496345" lon="13.045461379452144"><ele>227.0</ele><time>2026-04-29T11:11:19Z</time></trkpt><trkpt lat="43.65919871145622" lon="13.045436814633609"><ele>228.0</ele><time>2026-04-29T11:11:20Z</time></trkpt><trkpt lat="43.65904224530498" lon="13.045393632699332"><ele>229.0</ele><time>2026-04-29T11:11:21Z</time></trkpt><trkpt lat="43.658895250312476" lon="13.045332137553705"><ele>229.0</ele><time>2026-04-29T11:11:22Z</time></trkpt><trkpt lat="43.658763106327285" lon="13.045275770572887"><ele>229.0</ele><time>2026-04-29T11:11:23Z</time></trkpt><trkpt lat="43.65863674711396" lon="13.045222775012045"><ele>229.0</ele><time>2026-04-29T11:11:24Z</time></trkpt><trkpt lat="43.65850800123687" lon="13.045163702392584"><ele>229.0</ele><time>2026-04-29T11:11:25Z</time></trkpt><trkpt lat="43.65837905797241" lon="13.045100252854908"><ele>228.75</ele><time>2026-04-29T11:11:26Z</time></trkpt><trkpt lat="43.65826337821419" lon="13.04501408290977"><ele>228.5</ele><time>2026-04-29T11:11:27Z</time></trkpt><trkpt lat="43.65817029911688" lon="13.044873166072213"><ele>228.25</ele><time>2026-04-29T11:11:28Z</time></trkpt><trkpt lat="43.65805371243203" lon="13.04474558303326"><ele>228.0</ele><time>2026-04-29T11:11:29Z</time></trkpt><trkpt lat="43.65795043012382" lon="13.04460710936736"><ele>227.5</ele><time>2026-04-29T11:11:30Z</time></trkpt><trkpt lat="43.657869635907225" lon="13.04449035287181"><ele>227.0</ele><time>2026-04-29T11:11:31Z</time></trkpt><trkpt lat="43.65780791707263" lon="13.044391488882441"><ele>226.5</ele><time>2026-04-29T11:11:32Z</time></trkpt><trkpt lat="43.657768591382016" lon="13.044317362472706"><ele>226.0</ele><time>2026-04-29T11:11:33Z</time></trkpt><trkpt lat="43.65775291196945" lon="13.044233039379357"><ele>225.5</ele><time>2026-04-29T11:11:35Z</time></trkpt><trkpt lat="43.65773729333093" lon="13.044095860531911"><ele>225.0</ele><time>2026-04-29T11:11:37Z</time></trkpt><trkpt lat="43.657591585447896" lon="13.044061847298856"><ele>222.6</ele><time>2026-04-29T11:11:38Z</time></trkpt><trkpt lat="43.657511922692606" lon="13.044013001216422"><ele>220.2</ele><time>2026-04-29T11:11:39Z</time></trkpt><trkpt lat="43.657430386272026" lon="13.043956748928109"><ele>217.8</ele><time>2026-04-29T11:11:40Z</time></trkpt><trkpt lat="43.65735726201104" lon="13.04389112157307"><ele>215.4</ele><time>2026-04-29T11:11:41Z</time></trkpt><trkpt lat="43.657271607543954" lon="13.043797646662014"><ele>213.0</ele><time>2026-04-29T11:11:42Z</time></trkpt><trkpt lat="43.657176502423795" lon="13.043669700090664"><ele>213.0</ele><time>2026-04-29T11:11:43Z</time></trkpt><trkpt lat="43.65706534921158" lon="13.04353797689215"><ele>213.0</ele><time>2026-04-29T11:11:44Z</time></trkpt><trkpt lat="43.65694381704682" lon="13.04344856121391"><ele>213.0</ele><time>2026-04-29T11:11:45Z</time></trkpt><trkpt lat="43.65681621347022" lon="13.043406327791727"><ele>213.0</ele><time>2026-04-29T11:11:46Z</time></trkpt><trkpt lat="43.65668772263698" lon="13.04341006462061"><ele>213.5</ele><time>2026-04-29T11:11:47Z</time></trkpt><trkpt lat="43.656568644335536" lon="13.043453329780439"><ele>214.0</ele><time>2026-04-29T11:11:48Z</time></trkpt><trkpt lat="43.65647273547691" lon="13.043534306900007"><ele>214.5</ele><time>2026-04-29T11:11:49Z</time></trkpt><trkpt lat="43.65640227401184" lon="13.043651931275544"><ele>215.0</ele><time>2026-04-29T11:11:50Z</time></trkpt><trkpt lat="43.656367326814625" lon="13.04378967562278"><ele>215.0</ele><time>2026-04-29T11:11:51Z</time></trkpt><trkpt lat="43.656374394165745" lon="13.04394751753886"><ele>215.0</ele><time>2026-04-29T11:11:52Z</time></trkpt><trkpt lat="43.656411083614" lon="13.04412515824895"><ele>215.0</ele><time>2026-04-29T11:11:53Z</time></trkpt><trkpt lat="43.65647609966851" lon="13.044329165924792"><ele>215.0</ele><time>2026-04-29T11:11:54Z</time></trkpt><trkpt lat="43.656546474562866" lon="13.04453246228323"><ele>215.33333333333334</ele><time>2026-04-29T11:11:55Z</time></trkpt><trkpt lat="43.656611666106826" lon="13.044764778399038"><ele>215.66666666666669</ele><time>2026-04-29T11:11:56Z</time></trkpt><trkpt lat="43.656647791634015" lon="13.045002094761115"><ele>216.0</ele><time>2026-04-29T11:11:57Z</time></trkpt><trkpt lat="43.6566709899071" lon="13.045243070782272"><ele>216.0</ele><time>2026-04-29T11:11:58Z</time></trkpt><trkpt lat="43.6567115178003" lon="13.04538799924565"><ele>216.0</ele><time>2026-04-29T11:11:59Z</time></trkpt><trkpt lat="43.65667408464896" lon="13.045591180587046"><ele>216.0</ele><time>2026-04-29T11:12:00Z</time></trkpt><trkpt lat="43.65663045160509" lon="13.045803979674108"><ele>216.0</ele><time>2026-04-29T11:12:01Z</time></trkpt><trkpt lat="43.65656998680349" lon="13.046022917077"><ele>216.0</ele><time>2026-04-29T11:12:02Z</time></trkpt><trkpt lat="43.656518279994344" lon="13.046253605301004"><ele>216.0</ele><time>2026-04-29T11:12:03Z</time></trkpt><trkpt lat="43.65646302835942" lon="13.046458885601725"><ele>216.0</ele><time>2026-04-29T11:12:04Z</time></trkpt><trkpt lat="43.65640857684821" lon="13.046646407857377"><ele>216.0</ele><time>2026-04-29T11:12:05Z</time></trkpt><trkpt lat="43.656373431307415" lon="13.04681082550796"><ele>216.00000000000003</ele><time>2026-04-29T11:12:06Z</time></trkpt><trkpt lat="43.65633665536387" lon="13.04695139485619"><ele>216.00000000000003</ele><time>2026-04-29T11:12:07Z</time></trkpt><trkpt lat="43.65627602712142" lon="13.04707964911669"><ele>216.0</ele><time>2026-04-29T11:12:08Z</time></trkpt><trkpt lat="43.656203098190055" lon="13.047184174255921"><ele>216.0</ele><time>2026-04-29T11:12:09Z</time></trkpt><trkpt lat="43.656112978338285" lon="13.04727100906999"><ele>212.5</ele><time>2026-04-29T11:12:10Z</time></trkpt><trkpt lat="43.655999637658" lon="13.047305626681196"><ele>209.0</ele><time>2026-04-29T11:12:11Z</time></trkpt><trkpt lat="43.655865024029026" lon="13.047325315342242"><ele>205.5</ele><time>2026-04-29T11:12:12Z</time></trkpt><trkpt lat="43.65570952762505" lon="13.047355979811849"><ele>202.0</ele><time>2026-04-29T11:12:13Z</time></trkpt><trkpt lat="43.655547974922776" lon="13.047385842118928"><ele>202.0</ele><time>2026-04-29T11:12:14Z</time></trkpt><trkpt lat="43.655388332881635" lon="13.047433945475795"><ele>202.0</ele><time>2026-04-29T11:12:15Z</time></trkpt><trkpt lat="43.655223418427475" lon="13.047461998496784"><ele>202.0</ele><time>2026-04-29T11:12:16Z</time></trkpt><trkpt lat="43.655067257650046" lon="13.047493805753694"><ele>201.5</ele><time>2026-04-29T11:12:17Z</time></trkpt><trkpt lat="43.654928705498605" lon="13.047523833806721"><ele>201.0</ele><time>2026-04-29T11:12:18Z</time></trkpt><trkpt lat="43.654790236989655" lon="13.047529904470014"><ele>200.5</ele><time>2026-04-29T11:12:19Z</time></trkpt><trkpt lat="43.65465325144045" lon="13.047558024968083"><ele>200.0</ele><time>2026-04-29T11:12:20Z</time></trkpt><trkpt lat="43.65450584428337" lon="13.047593548120048"><ele>200.0</ele><time>2026-04-29T11:12:21Z</time></trkpt><trkpt lat="43.654350749842614" lon="13.047653562339061"><ele>200.0</ele><time>2026-04-29T11:12:22Z</time></trkpt><trkpt lat="43.654187408783606" lon="13.04769942945354"><ele>200.0</ele><time>2026-04-29T11:12:23Z</time></trkpt><trkpt lat="43.65401389990307" lon="13.047743032160245"><ele>200.0</ele><time>2026-04-29T11:12:24Z</time></trkpt><trkpt lat="43.65383138457895" lon="13.0477707627017"><ele>200.0</ele><time>2026-04-29T11:12:25Z</time></trkpt><trkpt lat="43.653655469883766" lon="13.04782783342456"><ele>200.0</ele><time>2026-04-29T11:12:26Z</time></trkpt><trkpt lat="43.653490726934926" lon="13.04786472215885"><ele>199.5</ele><time>2026-04-29T11:12:27Z</time></trkpt><trkpt lat="43.65333986514336" lon="13.047892725462084"><ele>199.0</ele><time>2026-04-29T11:12:28Z</time></trkpt><trkpt lat="43.65318848647837" lon="13.04790484503973"><ele>198.5</ele><time>2026-04-29T11:12:29Z</time></trkpt><trkpt lat="43.65304549872209" lon="13.047886216028452"><ele>198.0</ele><time>2026-04-29T11:12:30Z</time></trkpt><trkpt lat="43.65291857983083" lon="13.047895879670508"><ele>198.0</ele><time>2026-04-29T11:12:31Z</time></trkpt><trkpt lat="43.65282366859897" lon="13.04787609341751"><ele>198.0</ele><time>2026-04-29T11:12:32Z</time></trkpt><trkpt lat="43.65269657221027" lon="13.047882362545515"><ele>198.0</ele><time>2026-04-29T11:12:33Z</time></trkpt><trkpt lat="43.65259616746831" lon="13.047885647019712"><ele>198.0</ele><time>2026-04-29T11:12:34Z</time></trkpt><trkpt lat="43.65249973524343" lon="13.047883734934636"><ele>198.0</ele><time>2026-04-29T11:12:35Z</time></trkpt><trkpt lat="43.65241554109492" lon="13.047870423135832"><ele>196.16666666666666</ele><time>2026-04-29T11:12:36Z</time></trkpt><trkpt lat="43.65234634069297" lon="13.047858604289376"><ele>194.33333333333334</ele><time>2026-04-29T11:12:37Z</time></trkpt><trkpt lat="43.6522396402929" lon="13.04786010203964"><ele>192.5</ele><time>2026-04-29T11:12:39Z</time></trkpt><trkpt lat="43.65214725276917" lon="13.047845149135043"><ele>190.66666666666669</ele><time>2026-04-29T11:15:25Z</time></trkpt><trkpt lat="43.652076237943284" lon="13.047846928750618"><ele>188.83333333333334</ele><time>2026-04-29T11:15:28Z</time></trkpt><trkpt lat="43.65197268621855" lon="13.04785450027561"><ele>187.0</ele><time>2026-04-29T11:15:30Z</time></trkpt><trkpt lat="43.651906020415474" lon="13.047831115664652"><ele>187.0</ele><time>2026-04-29T11:15:31Z</time></trkpt><trkpt lat="43.65184039912165" lon="13.047858635065436"><ele>187.0</ele><time>2026-04-29T11:15:32Z</time></trkpt><trkpt lat="43.65177073565611" lon="13.047859354554646"><ele>187.0</ele><time>2026-04-29T11:15:33Z</time></trkpt><trkpt lat="43.65169948064366" lon="13.047855860164475"><ele>187.0</ele><time>2026-04-29T11:15:34Z</time></trkpt><trkpt lat="43.65163328230353" lon="13.047851470775989"><ele>187.0</ele><time>2026-04-29T11:15:35Z</time></trkpt><trkpt lat="43.65156224043484" lon="13.047853040006235"><ele>187.0</ele><time>2026-04-29T11:15:36Z</time></trkpt><trkpt lat="43.65149302887115" lon="13.047854695527734"><ele>187.0</ele><time>2026-04-29T11:15:37Z</time></trkpt><trkpt lat="43.65142042792318" lon="13.047847761202148"><ele>187.0</ele><time>2026-04-29T11:15:38Z</time></trkpt><trkpt lat="43.65134563064246" lon="13.04783942333665"><ele>187.0</ele><time>2026-04-29T11:15:39Z</time></trkpt><trkpt lat="43.6512743001745" lon="13.047835252561871"><ele>187.0</ele><time>2026-04-29T11:15:40Z</time></trkpt><trkpt lat="43.65120423803711" lon="13.047837604021703"><ele>187.0</ele><time>2026-04-29T11:15:41Z</time></trkpt><trkpt lat="43.651123316589384" lon="13.04784381753052"><ele>187.0</ele><time>2026-04-29T11:15:42Z</time></trkpt><trkpt lat="43.651032870662185" lon="13.047843606382864"><ele>187.0</ele><time>2026-04-29T11:15:43Z</time></trkpt><trkpt lat="43.650931445593294" lon="13.047845475497043"><ele>188.39999999999998</ele><time>2026-04-29T11:15:44Z</time></trkpt><trkpt lat="43.650821667394766" lon="13.047846191157973"><ele>189.79999999999998</ele><time>2026-04-29T11:15:45Z</time></trkpt><trkpt lat="43.6507171676363" lon="13.047846976838041"><ele>191.2</ele><time>2026-04-29T11:15:46Z</time></trkpt><trkpt lat="43.6506311948946" lon="13.047835814850888"><ele>192.6</ele><time>2026-04-29T11:15:47Z</time></trkpt><trkpt lat="43.65055229790504" lon="13.047698482723066"><ele>194.0</ele><time>2026-04-29T11:15:49Z</time></trkpt><trkpt lat="43.65053748759388" lon="13.047607668642275"><ele>194.00000000000003</ele><time>2026-04-29T11:15:50Z</time></trkpt><trkpt lat="43.6505150389746" lon="13.047512841876726"><ele>194.0</ele><time>2026-04-29T11:15:51Z</time></trkpt><trkpt lat="43.65049408063732" lon="13.04741805131464"><ele>194.0</ele><time>2026-04-29T11:15:52Z</time></trkpt><trkpt lat="43.650473387424725" lon="13.047324290713394"><ele>194.0</ele><time>2026-04-29T11:15:53Z</time></trkpt><trkpt lat="43.650470561728206" lon="13.047212988102755"><ele>194.00000000000003</ele><time>2026-04-29T11:15:54Z</time></trkpt><trkpt lat="43.650443356798334" lon="13.047059970480207"><ele>194.0</ele><time>2026-04-29T11:15:55Z</time></trkpt><trkpt lat="43.65042234713327" lon="13.046959322740303"><ele>193.2</ele><time>2026-04-29T11:15:56Z</time></trkpt><trkpt lat="43.65039913036592" lon="13.046841098320806"><ele>192.39999999999998</ele><time>2026-04-29T11:15:57Z</time></trkpt><trkpt lat="43.650363085411016" lon="13.04675363785195"><ele>191.6</ele><time>2026-04-29T11:15:58Z</time></trkpt><trkpt lat="43.65033132736558" lon="13.04662292478612"><ele>190.8</ele><time>2026-04-29T11:15:59Z</time></trkpt><trkpt lat="43.65029377092999" lon="13.046505095744887"><ele>190.0</ele><time>2026-04-29T11:16:00Z</time></trkpt><trkpt lat="43.6502459110773" lon="13.046380239480943"><ele>190.0</ele><time>2026-04-29T11:16:01Z</time></trkpt><trkpt lat="43.650211146487464" lon="13.046255521160289"><ele>190.0</ele><time>2026-04-29T11:16:02Z</time></trkpt><trkpt lat="43.650170462778384" lon="13.046136920372087"><ele>190.0</ele><time>2026-04-29T11:16:03Z</time></trkpt><trkpt lat="43.6501148178541" lon="13.046038540534266"><ele>190.0</ele><time>2026-04-29T11:16:04Z</time></trkpt><trkpt lat="43.6500492062213" lon="13.045957645843773"><ele>190.0</ele><time>2026-04-29T11:16:05Z</time></trkpt><trkpt lat="43.64996201965805" lon="13.045883341243796"><ele>190.0</ele><time>2026-04-29T11:16:06Z</time></trkpt><trkpt lat="43.6498870814974" lon="13.045810349411418"><ele>190.0</ele><time>2026-04-29T11:16:07Z</time></trkpt><trkpt lat="43.649809755987256" lon="13.045722980676763"><ele>190.0</ele><time>2026-04-29T11:16:08Z</time></trkpt><trkpt lat="43.64973108307875" lon="13.045631264538933"><ele>190.0</ele><time>2026-04-29T11:16:09Z</time></trkpt><trkpt lat="43.64965072959449" lon="13.045546687444684"><ele>190.0</ele><time>2026-04-29T11:16:10Z</time></trkpt><trkpt lat="43.649559984944375" lon="13.045453185997408"><ele>188.8</ele><time>2026-04-29T11:16:11Z</time></trkpt><trkpt lat="43.64947214181229" lon="13.045358528117672"><ele>187.6</ele><time>2026-04-29T11:16:12Z</time></trkpt><trkpt lat="43.649387728454094" lon="13.045276922413208"><ele>186.39999999999998</ele><time>2026-04-29T11:16:13Z</time></trkpt><trkpt lat="43.649318195378" lon="13.045216667107082"><ele>185.2</ele><time>2026-04-29T11:16:14Z</time></trkpt><trkpt lat="43.649195921613185" lon="13.045187160069842"><ele>184.0</ele><time>2026-04-29T11:16:16Z</time></trkpt><trkpt lat="43.649149846094296" lon="13.045274804159103"><ele>184.0</ele><time>2026-04-29T11:16:17Z</time></trkpt><trkpt lat="43.649098576760466" lon="13.045368771696245"><ele>184.0</ele><time>2026-04-29T11:16:18Z</time></trkpt><trkpt lat="43.64906538473509" lon="13.045449032200935"><ele>184.0</ele><time>2026-04-29T11:16:19Z</time></trkpt><trkpt lat="43.64902108234263" lon="13.045523489815679"><ele>184.0</ele><time>2026-04-29T11:16:20Z</time></trkpt><trkpt lat="43.64897696887176" lon="13.04560992165996"><ele>184.0</ele><time>2026-04-29T11:16:21Z</time></trkpt><trkpt lat="43.64890190886911" lon="13.045776972727467"><ele>184.0</ele><time>2026-04-29T11:16:23Z</time></trkpt><trkpt lat="43.648869453992724" lon="13.045918226740106"><ele>186.2</ele><time>2026-04-29T11:16:24Z</time></trkpt><trkpt lat="43.648829151131096" lon="13.046029975009262"><ele>188.39999999999998</ele><time>2026-04-29T11:16:25Z</time></trkpt><trkpt lat="43.648811699757424" lon="13.04615343792194"><ele>190.6</ele><time>2026-04-29T11:16:26Z</time></trkpt><trkpt lat="43.648776208675834" lon="13.046314731923713"><ele>192.8</ele><time>2026-04-29T11:16:27Z</time></trkpt><trkpt lat="43.64874628377182" lon="13.046440907376173"><ele>195.0</ele><time>2026-04-29T11:16:28Z</time></trkpt><trkpt lat="43.648711054429334" lon="13.04660480704991"><ele>196.0</ele><time>2026-04-29T11:16:29Z</time></trkpt><trkpt lat="43.64867527123227" lon="13.046759935673638"><ele>197.0</ele><time>2026-04-29T11:16:30Z</time></trkpt><trkpt lat="43.64863519172667" lon="13.046915598252559"><ele>198.0</ele><time>2026-04-29T11:16:31Z</time></trkpt><trkpt lat="43.64859315057643" lon="13.047060045037147"><ele>199.0</ele><time>2026-04-29T11:16:32Z</time></trkpt><trkpt lat="43.64855936114395" lon="13.047193324080505"><ele>194.39999999999998</ele><time>2026-04-29T11:16:33Z</time></trkpt><trkpt lat="43.64852010325566" lon="13.047339650147315"><ele>189.8</ele><time>2026-04-29T11:16:34Z</time></trkpt><trkpt lat="43.64848941384885" lon="13.047468612743623"><ele>185.2</ele><time>2026-04-29T11:16:35Z</time></trkpt><trkpt lat="43.64845234140958" lon="13.047593737683476"><ele>180.60000000000002</ele><time>2026-04-29T11:16:36Z</time></trkpt><trkpt lat="43.648418858621206" lon="13.047704133643204"><ele>176.0</ele><time>2026-04-29T11:16:37Z</time></trkpt><trkpt lat="43.64838862663635" lon="13.047794793705295"><ele>175.8</ele><time>2026-04-29T11:16:38Z</time></trkpt><trkpt lat="43.64837046750621" lon="13.047901531273787"><ele>175.60000000000002</ele><time>2026-04-29T11:16:39Z</time></trkpt><trkpt lat="43.648388399761345" lon="13.048025718176724"><ele>175.4</ele><time>2026-04-29T11:16:40Z</time></trkpt><trkpt lat="43.64841477443417" lon="13.048161367053867"><ele>175.2</ele><time>2026-04-29T11:16:41Z</time></trkpt><trkpt lat="43.64844924617324" lon="13.048309478186294"><ele>175.0</ele><time>2026-04-29T11:16:42Z</time></trkpt><trkpt lat="43.64848986989894" lon="13.04848819610943"><ele>174.33333333333334</ele><time>2026-04-29T11:16:43Z</time></trkpt><trkpt lat="43.64850658532959" lon="13.048578347630084"><ele>173.66666666666669</ele><time>2026-04-29T11:16:44Z</time></trkpt><trkpt lat="43.6485267584439" lon="13.048686479046532"><ele>173.0</ele><time>2026-04-29T11:16:45Z</time></trkpt><trkpt lat="43.648550904157936" lon="13.0488119866285"><ele>172.33333333333334</ele><time>2026-04-29T11:16:46Z</time></trkpt><trkpt lat="43.6485711459418" lon="13.04891131881516"><ele>171.66666666666666</ele><time>2026-04-29T11:16:47Z</time></trkpt><trkpt lat="43.64859293174547" lon="13.048995606083588"><ele>171.0</ele><time>2026-04-29T11:16:48Z</time></trkpt><trkpt lat="43.64862847976926" lon="13.049137775668271"><ele>170.8</ele><time>2026-04-29T11:16:50Z</time></trkpt><trkpt lat="43.64865622981828" lon="13.049293324348374"><ele>170.60000000000002</ele><time>2026-04-29T11:16:52Z</time></trkpt><trkpt lat="43.64859292015606" lon="13.049441190037584"><ele>170.4</ele><time>2026-04-29T11:16:54Z</time></trkpt><trkpt lat="43.64853944715253" lon="13.049509744633182"><ele>170.2</ele><time>2026-04-29T11:16:55Z</time></trkpt><trkpt lat="43.648497976783915" lon="13.049586166308929"><ele>170.0</ele><time>2026-04-29T11:16:56Z</time></trkpt><trkpt lat="43.648417982856586" lon="13.049610291395984"><ele>168.8</ele><time>2026-04-29T11:16:57Z</time></trkpt><trkpt lat="43.64835567394956" lon="13.049706024370874"><ele>167.6</ele><time>2026-04-29T11:16:59Z</time></trkpt><trkpt lat="43.64826985440142" lon="13.049791297023162"><ele>166.39999999999998</ele><time>2026-04-29T11:17:02Z</time></trkpt><trkpt lat="43.64820464640973" lon="13.04989109810919"><ele>165.2</ele><time>2026-04-29T11:17:04Z</time></trkpt><trkpt lat="43.64813083286463" lon="13.049939271275704"><ele>164.0</ele><time>2026-04-29T11:17:06Z</time></trkpt><trkpt lat="43.648041256624545" lon="13.049947208097429"><ele>164.0</ele><time>2026-04-29T11:17:08Z</time></trkpt><trkpt lat="43.647969551453" lon="13.049887619847022"><ele>164.0</ele><time>2026-04-29T11:17:10Z</time></trkpt><trkpt lat="43.64795658905729" lon="13.049762633374238"><ele>164.0</ele><time>2026-04-29T11:17:12Z</time></trkpt><trkpt lat="43.64796934868537" lon="13.049674304694687"><ele>164.0</ele><time>2026-04-29T11:17:15Z</time></trkpt><trkpt lat="43.647827215535685" lon="13.049540229811194"><ele>164.0</ele><time>2026-04-29T11:17:17Z</time></trkpt><trkpt lat="43.64779048073548" lon="13.04946602551754"><ele>162.0</ele><time>2026-04-29T11:17:18Z</time></trkpt><trkpt lat="43.64773516360478" lon="13.049362487286999"><ele>160.0</ele><time>2026-04-29T11:17:19Z</time></trkpt><trkpt lat="43.64767199850999" lon="13.04925720949059"><ele>158.0</ele><time>2026-04-29T11:17:20Z</time></trkpt><trkpt lat="43.64760945208241" lon="13.049155485657604"><ele>156.0</ele><time>2026-04-29T11:17:21Z</time></trkpt><trkpt lat="43.647543287730734" lon="13.049046546486615"><ele>154.0</ele><time>2026-04-29T11:17:22Z</time></trkpt><trkpt lat="43.64747349040114" lon="13.048939034312474"><ele>153.5</ele><time>2026-04-29T11:17:23Z</time></trkpt><trkpt lat="43.647385927037945" lon="13.048846471711773"><ele>153.0</ele><time>2026-04-29T11:17:24Z</time></trkpt><trkpt lat="43.647298126839424" lon="13.048741185782518"><ele>152.5</ele><time>2026-04-29T11:17:25Z</time></trkpt><trkpt lat="43.64720107337865" lon="13.04860848557717"><ele>152.0</ele><time>2026-04-29T11:17:26Z</time></trkpt><trkpt lat="43.64710244403259" lon="13.048484485702476"><ele>152.0</ele><time>2026-04-29T11:17:27Z</time></trkpt><trkpt lat="43.64699601352613" lon="13.048398295309138"><ele>152.0</ele><time>2026-04-29T11:17:28Z</time></trkpt><trkpt lat="43.64690561919319" lon="13.048281487987307"><ele>152.0</ele><time>2026-04-29T11:17:29Z</time></trkpt><trkpt lat="43.64682011542456" lon="13.048169106478893"><ele>152.0</ele><time>2026-04-29T11:17:30Z</time></trkpt><trkpt lat="43.64673469384434" lon="13.048058971027912"><ele>147.5</ele><time>2026-04-29T11:17:31Z</time></trkpt><trkpt lat="43.64665511222382" lon="13.047962684658936"><ele>143.0</ele><time>2026-04-29T11:17:32Z</time></trkpt><trkpt lat="43.646549534719774" lon="13.047870087600394"><ele>138.5</ele><time>2026-04-29T11:17:33Z</time></trkpt><trkpt lat="43.64642936160063" lon="13.047765348342706"><ele>134.0</ele><time>2026-04-29T11:17:34Z</time></trkpt><trkpt lat="43.646285965552856" lon="13.047633708330705"><ele>134.0</ele><time>2026-04-29T11:17:35Z</time></trkpt><trkpt lat="43.646155832715664" lon="13.047507349733003"><ele>134.0</ele><time>2026-04-29T11:17:36Z</time></trkpt><trkpt lat="43.64606328126421" lon="13.047371830780978"><ele>134.0</ele><time>2026-04-29T11:17:37Z</time></trkpt><trkpt lat="43.645995599769115" lon="13.047214141503252"><ele>134.0</ele><time>2026-04-29T11:17:38Z</time></trkpt><trkpt lat="43.645925190233044" lon="13.047069719897399"><ele>129.75</ele><time>2026-04-29T11:17:39Z</time></trkpt><trkpt lat="43.6458495512133" lon="13.046924351253953"><ele>125.5</ele><time>2026-04-29T11:17:40Z</time></trkpt><trkpt lat="43.64577954146844" lon="13.04679275204708"><ele>121.25</ele><time>2026-04-29T11:17:41Z</time></trkpt><trkpt lat="43.64569829894807" lon="13.04664194063911"><ele>117.0</ele><time>2026-04-29T11:17:42Z</time></trkpt><trkpt lat="43.64560842044356" lon="13.046483508738591"><ele>116.33333333333334</ele><time>2026-04-29T11:17:43Z</time></trkpt><trkpt lat="43.64550291691143" lon="13.046329538221771"><ele>115.66666666666667</ele><time>2026-04-29T11:17:44Z</time></trkpt><trkpt lat="43.64538618518541" lon="13.04617005781502"><ele>115.0</ele><time>2026-04-29T11:17:45Z</time></trkpt><trkpt lat="43.64526134075318" lon="13.046004338062799"><ele>112.0</ele><time>2026-04-29T11:17:46Z</time></trkpt><trkpt lat="43.64512222932626" lon="13.045895078840617"><ele>109.0</ele><time>2026-04-29T11:17:47Z</time></trkpt><trkpt lat="43.64496438708526" lon="13.045780183901867"><ele>106.0</ele><time>2026-04-29T11:17:48Z</time></trkpt><trkpt lat="43.644805126108366" lon="13.045684572096516"><ele>106.0</ele><time>2026-04-29T11:17:49Z</time></trkpt><trkpt lat="43.644636812799426" lon="13.045605013721817"><ele>106.0</ele><time>2026-04-29T11:17:50Z</time></trkpt><trkpt lat="43.64447115171775" lon="13.045519828951761"><ele>106.0</ele><time>2026-04-29T11:17:51Z</time></trkpt><trkpt lat="43.64432501753576" lon="13.045435971049644"><ele>107.66666666666667</ele><time>2026-04-29T11:17:52Z</time></trkpt><trkpt lat="43.64418099784826" lon="13.045345394490283"><ele>109.33333333333334</ele><time>2026-04-29T11:17:53Z</time></trkpt><trkpt lat="43.64404470444166" lon="13.045224536676793"><ele>111.0</ele><time>2026-04-29T11:17:54Z</time></trkpt><trkpt lat="43.643888040584606" lon="13.045134620854235"><ele>111.0</ele><time>2026-04-29T11:17:55Z</time></trkpt><trkpt lat="43.64375015646694" lon="13.04501892284761"><ele>111.0</ele><time>2026-04-29T11:17:56Z</time></trkpt><trkpt lat="43.64361433349298" lon="13.044901880986865"><ele>111.0</ele><time>2026-04-29T11:17:57Z</time></trkpt><trkpt lat="43.64351554135027" lon="13.04476762102999"><ele>113.25</ele><time>2026-04-29T11:17:58Z</time></trkpt><trkpt lat="43.643414301189495" lon="13.04465776771231"><ele>115.5</ele><time>2026-04-29T11:17:59Z</time></trkpt><trkpt lat="43.64330981123608" lon="13.04451231023436"><ele>117.75</ele><time>2026-04-29T11:18:00Z</time></trkpt><trkpt lat="43.64320539861864" lon="13.044372017420931"><ele>120.0</ele><time>2026-04-29T11:18:01Z</time></trkpt><trkpt lat="43.64312032972053" lon="13.044243351639876"><ele>120.0</ele><time>2026-04-29T11:18:02Z</time></trkpt><trkpt lat="43.64302741740966" lon="13.044145586911025"><ele>120.0</ele><time>2026-04-29T11:18:03Z</time></trkpt><trkpt lat="43.64293140723872" lon="13.044045022008373"><ele>120.0</ele><time>2026-04-29T11:18:04Z</time></trkpt><trkpt lat="43.64283847340128" lon="13.04396165561"><ele>120.0</ele><time>2026-04-29T11:18:05Z</time></trkpt><trkpt lat="43.64274746429956" lon="13.04387894601722"><ele>121.25</ele><time>2026-04-29T11:18:06Z</time></trkpt><trkpt lat="43.64264794410547" lon="13.043800544271914"><ele>122.5</ele><time>2026-04-29T11:18:07Z</time></trkpt><trkpt lat="43.64254508512805" lon="13.043714363351784"><ele>123.75</ele><time>2026-04-29T11:18:08Z</time></trkpt><trkpt lat="43.64243235481733" lon="13.043638796595726"><ele>125.0</ele><time>2026-04-29T11:18:09Z</time></trkpt><trkpt lat="43.6423209876816" lon="13.04356168933722"><ele>125.0</ele><time>2026-04-29T11:18:10Z</time></trkpt><trkpt lat="43.64219996312759" lon="13.043479962212347"><ele>125.0</ele><time>2026-04-29T11:18:11Z</time></trkpt><trkpt lat="43.642070042780325" lon="13.04339102575636"><ele>125.0</ele><time>2026-04-29T11:18:12Z</time></trkpt><trkpt lat="43.641936227385756" lon="13.043300371371428"><ele>125.0</ele><time>2026-04-29T11:18:13Z</time></trkpt><trkpt lat="43.64179414374686" lon="13.043208508409501"><ele>127.0</ele><time>2026-04-29T11:18:14Z</time></trkpt><trkpt lat="43.64165203248507" lon="13.043128756909736"><ele>129.0</ele><time>2026-04-29T11:18:15Z</time></trkpt><trkpt lat="43.641502810004106" lon="13.04306763745628"><ele>131.0</ele><time>2026-04-29T11:18:16Z</time></trkpt><trkpt lat="43.6413699286689" lon="13.043028988433507"><ele>133.0</ele><time>2026-04-29T11:18:17Z</time></trkpt><trkpt lat="43.64125187773833" lon="13.043038816123607"><ele>133.0</ele><time>2026-04-29T11:18:18Z</time></trkpt><trkpt lat="43.64113267941056" lon="13.04307140604649"><ele>133.0</ele><time>2026-04-29T11:18:19Z</time></trkpt><trkpt lat="43.64100472863514" lon="13.043075801620498"><ele>133.0</ele><time>2026-04-29T11:18:20Z</time></trkpt><trkpt lat="43.64088466611539" lon="13.0430467565112"><ele>133.0</ele><time>2026-04-29T11:18:21Z</time></trkpt><trkpt lat="43.640771493576764" lon="13.042982833056133"><ele>136.5</ele><time>2026-04-29T11:18:22Z</time></trkpt><trkpt lat="43.640664577524554" lon="13.042876399526596"><ele>140.0</ele><time>2026-04-29T11:18:23Z</time></trkpt><trkpt lat="43.640550290474856" lon="13.042791794483426"><ele>143.5</ele><time>2026-04-29T11:18:24Z</time></trkpt><trkpt lat="43.640445946484775" lon="13.042680891526553"><ele>147.0</ele><time>2026-04-29T11:18:25Z</time></trkpt><trkpt lat="43.640335914892674" lon="13.042568921626154"><ele>149.75</ele><time>2026-04-29T11:18:26Z</time></trkpt><trkpt lat="43.64022613338983" lon="13.04246325262306"><ele>152.5</ele><time>2026-04-29T11:18:27Z</time></trkpt><trkpt lat="43.64013449441368" lon="13.042372508732562"><ele>155.25</ele><time>2026-04-29T11:18:28Z</time></trkpt><trkpt lat="43.64000730387721" lon="13.042263051140697"><ele>158.0</ele><time>2026-04-29T11:18:29Z</time></trkpt><trkpt lat="43.63987432346033" lon="13.042138937545305"><ele>158.0</ele><time>2026-04-29T11:18:30Z</time></trkpt><trkpt lat="43.63975967085043" lon="13.042064859869141"><ele>158.0</ele><time>2026-04-29T11:18:31Z</time></trkpt><trkpt lat="43.63965697833432" lon="13.041975383635698"><ele>158.0</ele><time>2026-04-29T11:18:32Z</time></trkpt><trkpt lat="43.63955345641781" lon="13.041869871107817"><ele>158.0</ele><time>2026-04-29T11:18:33Z</time></trkpt><trkpt lat="43.639469198664266" lon="13.04176956627835"><ele>158.66666666666666</ele><time>2026-04-29T11:18:34Z</time></trkpt><trkpt lat="43.63941222157814" lon="13.04166935590502"><ele>159.33333333333331</ele><time>2026-04-29T11:18:35Z</time></trkpt><trkpt lat="43.63939011493725" lon="13.041561713965045"><ele>160.0</ele><time>2026-04-29T11:18:36Z</time></trkpt><trkpt lat="43.639399765308966" lon="13.041454865874183"><ele>160.66666666666666</ele><time>2026-04-29T11:18:37Z</time></trkpt><trkpt lat="43.63943007782446" lon="13.041329548580187"><ele>161.33333333333334</ele><time>2026-04-29T11:18:38Z</time></trkpt><trkpt lat="43.63946135638542" lon="13.041209275381837"><ele>162.0</ele><time>2026-04-29T11:18:39Z</time></trkpt><trkpt lat="43.639482255393254" lon="13.041086018052514"><ele>163.6</ele><time>2026-04-29T11:18:40Z</time></trkpt><trkpt lat="43.639462795678924" lon="13.040903032188435"><ele>165.2</ele><time>2026-04-29T11:18:42Z</time></trkpt><trkpt lat="43.63943446340545" lon="13.040800413028487"><ele>166.8</ele><time>2026-04-29T11:18:43Z</time></trkpt><trkpt lat="43.639356027517145" lon="13.04073535278185"><ele>168.4</ele><time>2026-04-29T11:18:44Z</time></trkpt><trkpt lat="43.639283015329426" lon="13.040652646581965"><ele>170.0</ele><time>2026-04-29T11:18:45Z</time></trkpt><trkpt lat="43.63918917481942" lon="13.040548989638697"><ele>170.6</ele><time>2026-04-29T11:18:46Z</time></trkpt><trkpt lat="43.6390779676785" lon="13.040424181699935"><ele>171.2</ele><time>2026-04-29T11:18:47Z</time></trkpt><trkpt lat="43.63900523364756" lon="13.040335266626604"><ele>171.8</ele><time>2026-04-29T11:18:48Z</time></trkpt><trkpt lat="43.63891902031228" lon="13.040230760086482"><ele>172.4</ele><time>2026-04-29T11:18:49Z</time></trkpt><trkpt lat="43.63886044561636" lon="13.040151243512458"><ele>173.0</ele><time>2026-04-29T11:18:50Z</time></trkpt><trkpt lat="43.63879929493681" lon="13.04009020011479"><ele>173.0</ele><time>2026-04-29T11:18:52Z</time></trkpt><trkpt lat="43.63872095741339" lon="13.040073674936679"><ele>173.0</ele><time>2026-04-29T11:19:09Z</time></trkpt><trkpt lat="43.638592913986" lon="13.04009434575861"><ele>173.0</ele><time>2026-04-29T11:19:11Z</time></trkpt><trkpt lat="43.63853230870209" lon="13.040047032758446"><ele>173.0</ele><time>2026-04-29T11:19:12Z</time></trkpt><trkpt lat="43.63846282285365" lon="13.040014951730099"><ele>173.0</ele><time>2026-04-29T11:19:13Z</time></trkpt><trkpt lat="43.63838941111222" lon="13.039975921028212"><ele>173.0</ele><time>2026-04-29T11:19:14Z</time></trkpt><trkpt lat="43.63830762128352" lon="13.039951634998381"><ele>173.2</ele><time>2026-04-29T11:19:15Z</time></trkpt><trkpt lat="43.63822955906806" lon="13.03988892437299"><ele>173.4</ele><time>2026-04-29T11:19:16Z</time></trkpt><trkpt lat="43.63814313256951" lon="13.039817163965212"><ele>173.6</ele><time>2026-04-29T11:19:17Z</time></trkpt><trkpt lat="43.638044520063985" lon="13.039728652016827"><ele>173.79999999999998</ele><time>2026-04-29T11:19:18Z</time></trkpt><trkpt lat="43.637961171505054" lon="13.039665369580327"><ele>174.0</ele><time>2026-04-29T11:19:19Z</time></trkpt><trkpt lat="43.637873196677795" lon="13.039590767073358"><ele>174.0</ele><time>2026-04-29T11:19:20Z</time></trkpt><trkpt lat="43.637803235412214" lon="13.039490067602545"><ele>174.0</ele><time>2026-04-29T11:19:21Z</time></trkpt><trkpt lat="43.63773068175426" lon="13.039393461199236"><ele>174.0</ele><time>2026-04-29T11:19:22Z</time></trkpt><trkpt lat="43.637691270765" lon="13.039272223726403"><ele>174.0</ele><time>2026-04-29T11:19:23Z</time></trkpt><trkpt lat="43.63767345980051" lon="13.039168007127438"><ele>174.0</ele><time>2026-04-29T11:19:24Z</time></trkpt><trkpt lat="43.637634183079165" lon="13.03906776916663"><ele>171.2</ele><time>2026-04-29T11:19:25Z</time></trkpt><trkpt lat="43.63762756817664" lon="13.038975530785118"><ele>168.39999999999998</ele><time>2026-04-29T11:19:26Z</time></trkpt><trkpt lat="43.637563315701605" lon="13.03884705150361"><ele>165.6</ele><time>2026-04-29T11:19:27Z</time></trkpt><trkpt lat="43.63750378444706" lon="13.038746258104469"><ele>162.8</ele><time>2026-04-29T11:19:28Z</time></trkpt><trkpt lat="43.63743752376925" lon="13.038651375552895"><ele>160.0</ele><time>2026-04-29T11:19:29Z</time></trkpt><trkpt lat="43.63736756378811" lon="13.038553254775072"><ele>160.0</ele><time>2026-04-29T11:19:30Z</time></trkpt><trkpt lat="43.637298022339685" lon="13.038454101896043"><ele>160.0</ele><time>2026-04-29T11:19:31Z</time></trkpt><trkpt lat="43.63722131546542" lon="13.038363547480232"><ele>160.0</ele><time>2026-04-29T11:19:32Z</time></trkpt><trkpt lat="43.637140077844144" lon="13.038266741312158"><ele>160.0</ele><time>2026-04-29T11:19:33Z</time></trkpt><trkpt lat="43.63705912745758" lon="13.038164664074543"><ele>160.0</ele><time>2026-04-29T11:19:34Z</time></trkpt><trkpt lat="43.63697936970509" lon="13.038060143698823"><ele>155.75</ele><time>2026-04-29T11:19:35Z</time></trkpt><trkpt lat="43.6369160326603" lon="13.037930078272947"><ele>151.5</ele><time>2026-04-29T11:19:36Z</time></trkpt><trkpt lat="43.63684327023664" lon="13.037804526083299"><ele>147.25</ele><time>2026-04-29T11:19:37Z</time></trkpt><trkpt lat="43.63676811367131" lon="13.037662644712537"><ele>143.0</ele><time>2026-04-29T11:19:38Z</time></trkpt><trkpt lat="43.63668344700579" lon="13.037519731847347"><ele>143.0</ele><time>2026-04-29T11:19:39Z</time></trkpt><trkpt lat="43.636604940670516" lon="13.037350668998188"><ele>143.0</ele><time>2026-04-29T11:19:40Z</time></trkpt><trkpt lat="43.6365193572347" lon="13.037184211773585"><ele>143.0</ele><time>2026-04-29T11:19:41Z</time></trkpt><trkpt lat="43.636439181542" lon="13.03702325583867"><ele>143.0</ele><time>2026-04-29T11:19:42Z</time></trkpt><trkpt lat="43.63633826023213" lon="13.036884433915692"><ele>143.0</ele><time>2026-04-29T11:19:43Z</time></trkpt><trkpt lat="43.636237192349334" lon="13.036751324683584"><ele>143.0</ele><time>2026-04-29T11:19:44Z</time></trkpt><trkpt lat="43.63613740264243" lon="13.036617994708658"><ele>143.0</ele><time>2026-04-29T11:19:45Z</time></trkpt><trkpt lat="43.63603599931656" lon="13.036482084936669"><ele>143.0</ele><time>2026-04-29T11:19:46Z</time></trkpt><trkpt lat="43.635940885179664" lon="13.036348726725045"><ele>141.5</ele><time>2026-04-29T11:19:47Z</time></trkpt><trkpt lat="43.63584743267342" lon="13.036214951160256"><ele>140.0</ele><time>2026-04-29T11:19:48Z</time></trkpt><trkpt lat="43.635758686230695" lon="13.03609864524226"><ele>138.5</ele><time>2026-04-29T11:19:49Z</time></trkpt><trkpt lat="43.63568049916072" lon="13.035991772405868"><ele>137.0</ele><time>2026-04-29T11:19:50Z</time></trkpt><trkpt lat="43.63561396470569" lon="13.035899663941708"><ele>137.0</ele><time>2026-04-29T11:19:51Z</time></trkpt><trkpt lat="43.63555110158859" lon="13.035812668249884"><ele>137.0</ele><time>2026-04-29T11:19:52Z</time></trkpt><trkpt lat="43.63551370944509" lon="13.035702688953226"><ele>137.0</ele><time>2026-04-29T11:19:53Z</time></trkpt><trkpt lat="43.63547125267749" lon="13.03561245412014"><ele>137.0</ele><time>2026-04-29T11:19:54Z</time></trkpt><trkpt lat="43.63542459066848" lon="13.035526055170699"><ele>137.0</ele><time>2026-04-29T11:19:55Z</time></trkpt><trkpt lat="43.635365190040424" lon="13.035438839750192"><ele>137.0</ele><time>2026-04-29T11:19:56Z</time></trkpt><trkpt lat="43.635288760340615" lon="13.035358139526455"><ele>136.4</ele><time>2026-04-29T11:19:57Z</time></trkpt><trkpt lat="43.63519860226636" lon="13.03529823258465"><ele>135.79999999999998</ele><time>2026-04-29T11:19:58Z</time></trkpt><trkpt lat="43.63509810510411" lon="13.035271310736576"><ele>135.2</ele><time>2026-04-29T11:19:59Z</time></trkpt><trkpt lat="43.635010651652216" lon="13.035212741145978"><ele>134.6</ele><time>2026-04-29T11:20:00Z</time></trkpt><trkpt lat="43.63491908313108" lon="13.035177933239284"><ele>134.0</ele><time>2026-04-29T11:20:01Z</time></trkpt><trkpt lat="43.634824207743215" lon="13.03514036963314"><ele>134.0</ele><time>2026-04-29T11:20:02Z</time></trkpt><trkpt lat="43.63472044373189" lon="13.035115778549391"><ele>134.0</ele><time>2026-04-29T11:20:03Z</time></trkpt><trkpt lat="43.6346200682443" lon="13.035068422354122"><ele>134.0</ele><time>2026-04-29T11:20:04Z</time></trkpt><trkpt lat="43.63450707213759" lon="13.035027028050761"><ele>134.0</ele><time>2026-04-29T11:20:05Z</time></trkpt><trkpt lat="43.634384461981135" lon="13.034985928669398"><ele>134.0</ele><time>2026-04-29T11:20:06Z</time></trkpt><trkpt lat="43.63425836826068" lon="13.034943464350839"><ele>134.0</ele><time>2026-04-29T11:20:07Z</time></trkpt><trkpt lat="43.63411749866688" lon="13.034897911416353"><ele>134.0</ele><time>2026-04-29T11:20:08Z</time></trkpt><trkpt lat="43.633974445500584" lon="13.034850046885605"><ele>134.0</ele><time>2026-04-29T11:20:09Z</time></trkpt><trkpt lat="43.63384499810168" lon="13.034803502398544"><ele>134.0</ele><time>2026-04-29T11:20:10Z</time></trkpt><trkpt lat="43.6337178424277" lon="13.034760962607447"><ele>134.0</ele><time>2026-04-29T11:20:11Z</time></trkpt><trkpt lat="43.63359406432065" lon="13.034722745459545"><ele>134.0</ele><time>2026-04-29T11:20:12Z</time></trkpt><trkpt lat="43.633465208273606" lon="13.034699785037866"><ele>134.0</ele><time>2026-04-29T11:20:13Z</time></trkpt><trkpt lat="43.633330871782384" lon="13.034681232417354"><ele>131.0</ele><time>2026-04-29T11:20:14Z</time></trkpt><trkpt lat="43.633204776934285" lon="13.034658966790465"><ele>128.0</ele><time>2026-04-29T11:20:15Z</time></trkpt><trkpt lat="43.63308454495856" lon="13.034619872606513"><ele>125.0</ele><time>2026-04-29T11:20:16Z</time></trkpt><trkpt lat="43.63296597394946" lon="13.03455390454648"><ele>122.0</ele><time>2026-04-29T11:20:17Z</time></trkpt><trkpt lat="43.632848543314665" lon="13.0344777149959"><ele>119.75</ele><time>2026-04-29T11:20:18Z</time></trkpt><trkpt lat="43.6327443750967" lon="13.03440547340736"><ele>117.5</ele><time>2026-04-29T11:20:19Z</time></trkpt><trkpt lat="43.63263431177791" lon="13.034334933109244"><ele>115.25</ele><time>2026-04-29T11:20:20Z</time></trkpt><trkpt lat="43.6325165445244" lon="13.03426496748397"><ele>113.0</ele><time>2026-04-29T11:20:21Z</time></trkpt><trkpt lat="43.63239799963138" lon="13.034185889499039"><ele>112.5</ele><time>2026-04-29T11:20:22Z</time></trkpt><trkpt lat="43.632277429408184" lon="13.034087877212746"><ele>112.0</ele><time>2026-04-29T11:20:23Z</time></trkpt><trkpt lat="43.632158663816" lon="13.033973404339587"><ele>111.5</ele><time>2026-04-29T11:20:24Z</time></trkpt><trkpt lat="43.632050465697354" lon="13.033830523607323"><ele>111.0</ele><time>2026-04-29T11:20:25Z</time></trkpt><trkpt lat="43.631921714621235" lon="13.033718091762116"><ele>111.0</ele><time>2026-04-29T11:20:26Z</time></trkpt><trkpt lat="43.631803504274345" lon="13.033594574111577"><ele>111.0</ele><time>2026-04-29T11:20:27Z</time></trkpt><trkpt lat="43.631681429056336" lon="13.033475303683174"><ele>111.0</ele><time>2026-04-29T11:20:28Z</time></trkpt><trkpt lat="43.63155752201954" lon="13.033351782823056"><ele>113.0</ele><time>2026-04-29T11:20:29Z</time></trkpt><trkpt lat="43.63143428067949" lon="13.033222304207483"><ele>115.0</ele><time>2026-04-29T11:20:30Z</time></trkpt><trkpt lat="43.63133122575086" lon="13.033095979412217"><ele>117.0</ele><time>2026-04-29T11:20:31Z</time></trkpt><trkpt lat="43.631234750765294" lon="13.032983411870593"><ele>119.0</ele><time>2026-04-29T11:20:32Z</time></trkpt><trkpt lat="43.63114575713049" lon="13.032863630148823"><ele>115.75</ele><time>2026-04-29T11:20:33Z</time></trkpt><trkpt lat="43.63104662581297" lon="13.03277004966325"><ele>112.5</ele><time>2026-04-29T11:20:34Z</time></trkpt><trkpt lat="43.630935271240496" lon="13.032715294114116"><ele>109.25</ele><time>2026-04-29T11:20:35Z</time></trkpt><trkpt lat="43.630833159851065" lon="13.0326397877027"><ele>106.0</ele><time>2026-04-29T11:20:36Z</time></trkpt><trkpt lat="43.63074300089318" lon="13.032565932252604"><ele>106.0</ele><time>2026-04-29T11:20:37Z</time></trkpt><trkpt lat="43.63066499477191" lon="13.032474875263238"><ele>106.0</ele><time>2026-04-29T11:20:38Z</time></trkpt><trkpt lat="43.63060452333372" lon="13.032355730883031"><ele>106.0</ele><time>2026-04-29T11:20:39Z</time></trkpt><trkpt lat="43.63054472722389" lon="13.032221455909442"><ele>106.0</ele><time>2026-04-29T11:20:40Z</time></trkpt><trkpt lat="43.630482842121545" lon="13.032093359667845"><ele>106.0</ele><time>2026-04-29T11:20:41Z</time></trkpt><trkpt lat="43.63041031334253" lon="13.031971545823174"><ele>107.5</ele><time>2026-04-29T11:20:42Z</time></trkpt><trkpt lat="43.63032794488995" lon="13.031852848379186"><ele>109.0</ele><time>2026-04-29T11:20:43Z</time></trkpt><trkpt lat="43.630255227667384" lon="13.031717542827087"><ele>110.5</ele><time>2026-04-29T11:20:44Z</time></trkpt><trkpt lat="43.63016996860069" lon="13.031600724401509"><ele>112.0</ele><time>2026-04-29T11:20:45Z</time></trkpt><trkpt lat="43.63007107950153" lon="13.03150355854735"><ele>108.5</ele><time>2026-04-29T11:20:46Z</time></trkpt><trkpt lat="43.62997334099255" lon="13.03139355295385"><ele>105.0</ele><time>2026-04-29T11:20:47Z</time></trkpt><trkpt lat="43.629873712053616" lon="13.031291523384418"><ele>101.5</ele><time>2026-04-29T11:20:48Z</time></trkpt><trkpt lat="43.62977585096535" lon="13.03118907009989"><ele>98.0</ele><time>2026-04-29T11:20:49Z</time></trkpt><trkpt lat="43.62967792649465" lon="13.031087590227795"><ele>98.0</ele><time>2026-04-29T11:20:50Z</time></trkpt><trkpt lat="43.62958228676744" lon="13.030994162795997"><ele>98.0</ele><time>2026-04-29T11:20:51Z</time></trkpt><trkpt lat="43.62948668120753" lon="13.030904334937008"><ele>98.0</ele><time>2026-04-29T11:20:52Z</time></trkpt><trkpt lat="43.62940081624388" lon="13.030816330372597"><ele>98.0</ele><time>2026-04-29T11:20:53Z</time></trkpt><trkpt lat="43.62931983529836" lon="13.030728553464776"><ele>98.0</ele><time>2026-04-29T11:20:54Z</time></trkpt><trkpt lat="43.629212571972445" lon="13.030621517073143"><ele>98.4</ele><time>2026-04-29T11:20:55Z</time></trkpt><trkpt lat="43.62914213323494" lon="13.030510572205468"><ele>98.80000000000001</ele><time>2026-04-29T11:20:56Z</time></trkpt><trkpt lat="43.629070498714455" lon="13.030401271695924"><ele>99.2</ele><time>2026-04-29T11:20:57Z</time></trkpt><trkpt lat="43.62899973615105" lon="13.030297810624823"><ele>99.6</ele><time>2026-04-29T11:20:58Z</time></trkpt><trkpt lat="43.628911191230515" lon="13.030196945088857"><ele>100.0</ele><time>2026-04-29T11:20:59Z</time></trkpt><trkpt lat="43.628842256701894" lon="13.03005672656133"><ele>100.0</ele><time>2026-04-29T11:21:00Z</time></trkpt><trkpt lat="43.62877055125141" lon="13.029934844187226"><ele>100.0</ele><time>2026-04-29T11:21:01Z</time></trkpt><trkpt lat="43.628707103352966" lon="13.02981848431578"><ele>100.0</ele><time>2026-04-29T11:21:02Z</time></trkpt><trkpt lat="43.62865055686919" lon="13.029697390348467"><ele>100.0</ele><time>2026-04-29T11:21:03Z</time></trkpt><trkpt lat="43.62860236529932" lon="13.02957496932127"><ele>100.0</ele><time>2026-04-29T11:21:04Z</time></trkpt><trkpt lat="43.628557243000095" lon="13.029432397969243"><ele>101.25</ele><time>2026-04-29T11:21:05Z</time></trkpt><trkpt lat="43.628518620273105" lon="13.029277008648808"><ele>102.5</ele><time>2026-04-29T11:21:06Z</time></trkpt><trkpt lat="43.62847990934935" lon="13.029118669295558"><ele>103.75</ele><time>2026-04-29T11:21:07Z</time></trkpt><trkpt lat="43.62847091876472" lon="13.02895494722967"><ele>105.0</ele><time>2026-04-29T11:21:08Z</time></trkpt><trkpt lat="43.628432006358175" lon="13.028802390766064"><ele>105.0</ele><time>2026-04-29T11:21:09Z</time></trkpt><trkpt lat="43.62840279729733" lon="13.028680573900195"><ele>105.0</ele><time>2026-04-29T11:21:10Z</time></trkpt><trkpt lat="43.62835574131826" lon="13.028582354846938"><ele>105.0</ele><time>2026-04-29T11:21:11Z</time></trkpt><trkpt lat="43.62829429889037" lon="13.028459909033572"><ele>105.0</ele><time>2026-04-29T11:21:12Z</time></trkpt><trkpt lat="43.628216455630806" lon="13.028328567373201"><ele>105.0</ele><time>2026-04-29T11:21:13Z</time></trkpt><trkpt lat="43.62813112624563" lon="13.028193154599077"><ele>105.2</ele><time>2026-04-29T11:21:14Z</time></trkpt><trkpt lat="43.62803691646452" lon="13.028062425073793"><ele>105.4</ele><time>2026-04-29T11:21:15Z</time></trkpt><trkpt lat="43.62794148479089" lon="13.027943839132593"><ele>105.6</ele><time>2026-04-29T11:21:16Z</time></trkpt><trkpt lat="43.62786784984421" lon="13.027857062731476"><ele>105.8</ele><time>2026-04-29T11:21:17Z</time></trkpt><trkpt lat="43.62783168626493" lon="13.027772050374477"><ele>106.0</ele><time>2026-04-29T11:21:18Z</time></trkpt><trkpt lat="43.627792574500624" lon="13.027698620462294"><ele>106.0</ele><time>2026-04-29T11:21:19Z</time></trkpt><trkpt lat="43.627827450633475" lon="13.027609976936237"><ele>106.0</ele><time>2026-04-29T11:21:20Z</time></trkpt><trkpt lat="43.62790685613458" lon="13.027468221517953"><ele>106.0</ele><time>2026-04-29T11:21:22Z</time></trkpt><trkpt lat="43.62799974865478" lon="13.027409635829095"><ele>106.0</ele><time>2026-04-29T11:21:23Z</time></trkpt><trkpt lat="43.628105843624496" lon="13.027356256617182"><ele>106.0</ele><time>2026-04-29T11:21:24Z</time></trkpt><trkpt lat="43.628223688567644" lon="13.0272940985186"><ele>108.4</ele><time>2026-04-29T11:21:25Z</time></trkpt><trkpt lat="43.628327190246104" lon="13.02721972010846"><ele>110.8</ele><time>2026-04-29T11:21:26Z</time></trkpt><trkpt lat="43.62842167829613" lon="13.027138199731754"><ele>113.20000000000002</ele><time>2026-04-29T11:21:27Z</time></trkpt><trkpt lat="43.62850693456221" lon="13.02704726632628"><ele>115.60000000000001</ele><time>2026-04-29T11:21:28Z</time></trkpt><trkpt lat="43.62857534514329" lon="13.02694805967309"><ele>118.0</ele><time>2026-04-29T11:21:29Z</time></trkpt><trkpt lat="43.628625920920086" lon="13.026834099930966"><ele>116.80000000000001</ele><time>2026-04-29T11:21:30Z</time></trkpt><trkpt lat="43.62866257791413" lon="13.026697932284403"><ele>115.60000000000001</ele><time>2026-04-29T11:21:31Z</time></trkpt><trkpt lat="43.62868624652675" lon="13.026566886276521"><ele>114.39999999999999</ele><time>2026-04-29T11:21:32Z</time></trkpt><trkpt lat="43.628700975057434" lon="13.026430290926974"><ele>113.19999999999999</ele><time>2026-04-29T11:21:33Z</time></trkpt><trkpt lat="43.62870388055441" lon="13.026297472231203"><ele>112.0</ele><time>2026-04-29T11:21:34Z</time></trkpt><trkpt lat="43.628698760155935" lon="13.026152809326174"><ele>112.0</ele><time>2026-04-29T11:21:35Z</time></trkpt><trkpt lat="43.628688936861295" lon="13.02603000751471"><ele>111.99999999999999</ele><time>2026-04-29T11:21:36Z</time></trkpt><trkpt lat="43.62869549631971" lon="13.025896940209304"><ele>111.99999999999999</ele><time>2026-04-29T11:21:37Z</time></trkpt><trkpt lat="43.628692810386575" lon="13.025771323547678"><ele>112.0</ele><time>2026-04-29T11:21:38Z</time></trkpt><trkpt lat="43.628700995527524" lon="13.02566314376663"><ele>112.0</ele><time>2026-04-29T11:21:39Z</time></trkpt><trkpt lat="43.62869996986439" lon="13.025531495641793"><ele>112.8</ele><time>2026-04-29T11:21:40Z</time></trkpt><trkpt lat="43.6287504590044" lon="13.025400240576694"><ele>113.6</ele><time>2026-04-29T11:21:41Z</time></trkpt><trkpt lat="43.628794575358505" lon="13.025278759046811"><ele>114.39999999999999</ele><time>2026-04-29T11:21:42Z</time></trkpt><trkpt lat="43.628833956066465" lon="13.025145180447225"><ele>115.19999999999999</ele><time>2026-04-29T11:21:43Z</time></trkpt><trkpt lat="43.62886117680162" lon="13.025000190317412"><ele>116.0</ele><time>2026-04-29T11:21:44Z</time></trkpt><trkpt lat="43.62890139714934" lon="13.024867202813502"><ele>116.8</ele><time>2026-04-29T11:21:45Z</time></trkpt><trkpt lat="43.62892916964876" lon="13.024727625570954"><ele>117.6</ele><time>2026-04-29T11:21:46Z</time></trkpt><trkpt lat="43.62896086756718" lon="13.024593893191327"><ele>118.4</ele><time>2026-04-29T11:21:47Z</time></trkpt><trkpt lat="43.62899502004092" lon="13.024455379669057"><ele>119.2</ele><time>2026-04-29T11:21:48Z</time></trkpt><trkpt lat="43.62902907003605" lon="13.024312554623451"><ele>120.0</ele><time>2026-04-29T11:21:49Z</time></trkpt><trkpt lat="43.62906123571571" lon="13.024167219388378"><ele>120.75</ele><time>2026-04-29T11:21:50Z</time></trkpt><trkpt lat="43.62909253487783" lon="13.024019276033979"><ele>121.5</ele><time>2026-04-29T11:21:51Z</time></trkpt><trkpt lat="43.62910551200387" lon="13.023864198310743"><ele>122.25</ele><time>2026-04-29T11:21:52Z</time></trkpt><trkpt lat="43.62914503904911" lon="13.02371213547336"><ele>123.0</ele><time>2026-04-29T11:21:53Z</time></trkpt><trkpt lat="43.629164274052435" lon="13.023539314267186"><ele>123.0</ele><time>2026-04-29T11:21:54Z</time></trkpt><trkpt lat="43.62917528582955" lon="13.023351750522231"><ele>123.0</ele><time>2026-04-29T11:21:55Z</time></trkpt><trkpt lat="43.62917319005682" lon="13.023164278777653"><ele>123.0</ele><time>2026-04-29T11:21:56Z</time></trkpt><trkpt lat="43.62916409940615" lon="13.022988166347835"><ele>123.0</ele><time>2026-04-29T11:21:57Z</time></trkpt><trkpt lat="43.62913567543417" lon="13.022816459743376"><ele>124.0</ele><time>2026-04-29T11:21:58Z</time></trkpt><trkpt lat="43.62913271065513" lon="13.022643237695588"><ele>125.0</ele><time>2026-04-29T11:21:59Z</time></trkpt><trkpt lat="43.629111894863875" lon="13.022463366086516"><ele>126.0</ele><time>2026-04-29T11:22:00Z</time></trkpt><trkpt lat="43.62908578698209" lon="13.02228048586269"><ele>127.0</ele><time>2026-04-29T11:22:01Z</time></trkpt><trkpt lat="43.62905782025718" lon="13.02210942647694"><ele>128.0</ele><time>2026-04-29T11:22:02Z</time></trkpt><trkpt lat="43.62902157710511" lon="13.021931303513293"><ele>129.0</ele><time>2026-04-29T11:22:03Z</time></trkpt><trkpt lat="43.62897994629017" lon="13.021761238948525"><ele>130.0</ele><time>2026-04-29T11:22:04Z</time></trkpt><trkpt lat="43.62891494250703" lon="13.02161961376593"><ele>131.0</ele><time>2026-04-29T11:22:05Z</time></trkpt><trkpt lat="43.62887161088999" lon="13.02148210422219"><ele>131.6</ele><time>2026-04-29T11:22:06Z</time></trkpt><trkpt lat="43.628805066476616" lon="13.021358616451506"><ele>132.2</ele><time>2026-04-29T11:22:07Z</time></trkpt><trkpt lat="43.62873354785635" lon="13.021247871557895"><ele>132.8</ele><time>2026-04-29T11:22:08Z</time></trkpt><trkpt lat="43.62865927043209" lon="13.021140829172142"><ele>133.4</ele><time>2026-04-29T11:22:09Z</time></trkpt><trkpt lat="43.62857892744659" lon="13.021035861089342"><ele>134.0</ele><time>2026-04-29T11:22:10Z</time></trkpt><trkpt lat="43.6284892092297" lon="13.020938307339913"><ele>136.0</ele><time>2026-04-29T11:22:11Z</time></trkpt><trkpt lat="43.62840124969995" lon="13.020854391536618"><ele>138.0</ele><time>2026-04-29T11:22:12Z</time></trkpt><trkpt lat="43.62828725599092" lon="13.020758224719389"><ele>140.0</ele><time>2026-04-29T11:22:13Z</time></trkpt><trkpt lat="43.628211885154556" lon="13.020721120484948"><ele>142.0</ele><time>2026-04-29T11:22:14Z</time></trkpt><trkpt lat="43.62813377138859" lon="13.020651475888592"><ele>144.0</ele><time>2026-04-29T11:22:15Z</time></trkpt><trkpt lat="43.62803636181396" lon="13.020572502652945"><ele>144.6</ele><time>2026-04-29T11:22:16Z</time></trkpt><trkpt lat="43.62795629613272" lon="13.020479404857296"><ele>145.2</ele><time>2026-04-29T11:22:17Z</time></trkpt><trkpt lat="43.62787723611813" lon="13.02040426620362"><ele>145.79999999999998</ele><time>2026-04-29T11:22:18Z</time></trkpt><trkpt lat="43.627778216646355" lon="13.020307276263011"><ele>146.4</ele><time>2026-04-29T11:22:19Z</time></trkpt><trkpt lat="43.62769001714123" lon="13.020242858456458"><ele>147.0</ele><time>2026-04-29T11:22:20Z</time></trkpt><trkpt lat="43.62760876248067" lon="13.020164230682326"><ele>149.2</ele><time>2026-04-29T11:22:21Z</time></trkpt><trkpt lat="43.62753770125077" lon="13.020089209188736"><ele>151.39999999999998</ele><time>2026-04-29T11:22:22Z</time></trkpt><trkpt lat="43.62745701606695" lon="13.020007508866836"><ele>153.60000000000002</ele><time>2026-04-29T11:22:23Z</time></trkpt><trkpt lat="43.62738909468334" lon="13.01993362628369"><ele>155.8</ele><time>2026-04-29T11:22:24Z</time></trkpt><trkpt lat="43.62731623860869" lon="13.01985636565226"><ele>158.0</ele><time>2026-04-29T11:22:25Z</time></trkpt><trkpt lat="43.627249018749296" lon="13.019778993206192"><ele>159.0</ele><time>2026-04-29T11:22:26Z</time></trkpt><trkpt lat="43.62717502272086" lon="13.019708396905187"><ele>160.0</ele><time>2026-04-29T11:22:27Z</time></trkpt><trkpt lat="43.62711083035512" lon="13.019612868351079"><ele>161.0</ele><time>2026-04-29T11:22:28Z</time></trkpt><trkpt lat="43.62703176038646" lon="13.019528390685903"><ele>162.0</ele><time>2026-04-29T11:22:29Z</time></trkpt><trkpt lat="43.62694173702474" lon="13.019461050245043"><ele>163.0</ele><time>2026-04-29T11:22:30Z</time></trkpt><trkpt lat="43.62686455399033" lon="13.019364601842318"><ele>165.0</ele><time>2026-04-29T11:22:31Z</time></trkpt><trkpt lat="43.62677918300825" lon="13.019275227804927"><ele>167.0</ele><time>2026-04-29T11:22:32Z</time></trkpt><trkpt lat="43.62669048412341" lon="13.019172780792248"><ele>169.0</ele><time>2026-04-29T11:22:33Z</time></trkpt><trkpt lat="43.62659764020502" lon="13.019064992897293"><ele>171.0</ele><time>2026-04-29T11:22:34Z</time></trkpt><trkpt lat="43.62650624177388" lon="13.018956745743408"><ele>171.0</ele><time>2026-04-29T11:22:35Z</time></trkpt><trkpt lat="43.62641333155296" lon="13.018843550464254"><ele>171.0</ele><time>2026-04-29T11:22:36Z</time></trkpt><trkpt lat="43.6263310645344" lon="13.018715498170689"><ele>171.0</ele><time>2026-04-29T11:22:37Z</time></trkpt><trkpt lat="43.626257331256525" lon="13.01857218209489"><ele>171.0</ele><time>2026-04-29T11:22:38Z</time></trkpt><trkpt lat="43.626189181657836" lon="13.018422931730477"><ele>174.5</ele><time>2026-04-29T11:22:39Z</time></trkpt><trkpt lat="43.62612216739647" lon="13.01827404033529"><ele>178.0</ele><time>2026-04-29T11:22:40Z</time></trkpt><trkpt lat="43.62605642975174" lon="13.018131293393974"><ele>181.5</ele><time>2026-04-29T11:22:41Z</time></trkpt><trkpt lat="43.62599054058122" lon="13.01798736671696"><ele>185.0</ele><time>2026-04-29T11:22:42Z</time></trkpt><trkpt lat="43.62592175456748" lon="13.017841494783717"><ele>185.0</ele><time>2026-04-29T11:22:43Z</time></trkpt><trkpt lat="43.62585313425132" lon="13.017696898003395"><ele>185.0</ele><time>2026-04-29T11:22:44Z</time></trkpt><trkpt lat="43.625779682776226" lon="13.017554569360087"><ele>185.0</ele><time>2026-04-29T11:22:45Z</time></trkpt><trkpt lat="43.625709168891404" lon="13.017401272461566"><ele>185.0</ele><time>2026-04-29T11:22:46Z</time></trkpt><trkpt lat="43.62563089227885" lon="13.01725432077917"><ele>185.75</ele><time>2026-04-29T11:22:47Z</time></trkpt><trkpt lat="43.625560593247236" lon="13.017101140309713"><ele>186.5</ele><time>2026-04-29T11:22:48Z</time></trkpt><trkpt lat="43.62548749534903" lon="13.01695205967396"><ele>187.25</ele><time>2026-04-29T11:22:49Z</time></trkpt><trkpt lat="43.625414169721275" lon="13.016806795747266"><ele>188.0</ele><time>2026-04-29T11:22:50Z</time></trkpt><trkpt lat="43.625341593953124" lon="13.016666178357587"><ele>190.75</ele><time>2026-04-29T11:22:51Z</time></trkpt><trkpt lat="43.62526828673249" lon="13.016527233991228"><ele>193.5</ele><time>2026-04-29T11:22:52Z</time></trkpt><trkpt lat="43.62519664564706" lon="13.016386322117024"><ele>196.25</ele><time>2026-04-29T11:22:53Z</time></trkpt><trkpt lat="43.62512309792538" lon="13.016246333683906"><ele>199.0</ele><time>2026-04-29T11:22:54Z</time></trkpt><trkpt lat="43.62504863674547" lon="13.016105269277993"><ele>199.0</ele><time>2026-04-29T11:22:55Z</time></trkpt><trkpt lat="43.62497991614404" lon="13.015970555576706"><ele>199.0</ele><time>2026-04-29T11:22:56Z</time></trkpt><trkpt lat="43.62490943873838" lon="13.015842129812906"><ele>199.0</ele><time>2026-04-29T11:22:57Z</time></trkpt><trkpt lat="43.62484434579946" lon="13.01571211049001"><ele>199.0</ele><time>2026-04-29T11:22:58Z</time></trkpt><trkpt lat="43.62477899833247" lon="13.015588807195062"><ele>199.75</ele><time>2026-04-29T11:22:59Z</time></trkpt><trkpt lat="43.62471309142879" lon="13.015462460621277"><ele>200.5</ele><time>2026-04-29T11:23:00Z</time></trkpt><trkpt lat="43.62464318918598" lon="13.015325207267022"><ele>201.25</ele><time>2026-04-29T11:23:01Z</time></trkpt><trkpt lat="43.62457646689029" lon="13.01519404239777"><ele>202.0</ele><time>2026-04-29T11:23:02Z</time></trkpt><trkpt lat="43.62451634283066" lon="13.015077002237474"><ele>202.99999999999997</ele><time>2026-04-29T11:23:03Z</time></trkpt><trkpt lat="43.624467765755035" lon="13.014980320210126"><ele>204.0</ele><time>2026-04-29T11:23:04Z</time></trkpt><trkpt lat="43.624423254259106" lon="13.014898951095997"><ele>205.0</ele><time>2026-04-29T11:23:05Z</time></trkpt><trkpt lat="43.62436394483907" lon="13.0148132954737"><ele>206.0</ele><time>2026-04-29T11:23:07Z</time></trkpt><trkpt lat="43.624329079398144" lon="13.01470853712264"><ele>206.99999999999997</ele><time>2026-04-29T11:36:19Z</time></trkpt><trkpt lat="43.624360965193" lon="13.01458252095834"><ele>208.0</ele><time>2026-04-29T11:36:21Z</time></trkpt><trkpt lat="43.62440878473778" lon="13.0144159799305"><ele>208.0</ele><time>2026-04-29T11:36:23Z</time></trkpt><trkpt lat="43.6244263883347" lon="13.014305339131113"><ele>208.0</ele><time>2026-04-29T11:36:24Z</time></trkpt><trkpt lat="43.62443822430349" lon="13.014182670057718"><ele>208.0</ele><time>2026-04-29T11:36:25Z</time></trkpt><trkpt lat="43.624455392562446" lon="13.01402456391366"><ele>208.0</ele><time>2026-04-29T11:36:26Z</time></trkpt><trkpt lat="43.624479261354765" lon="13.013904076750078"><ele>208.0</ele><time>2026-04-29T11:36:27Z</time></trkpt><trkpt lat="43.624497577355775" lon="13.013756387714755"><ele>207.2</ele><time>2026-04-29T11:36:28Z</time></trkpt><trkpt lat="43.62450364371757" lon="13.013624898179192"><ele>206.4</ele><time>2026-04-29T11:36:29Z</time></trkpt><trkpt lat="43.62449978870765" lon="13.013457313491292"><ele>205.6</ele><time>2026-04-29T11:36:30Z</time></trkpt><trkpt lat="43.62449062008409" lon="13.013306573786243"><ele>204.79999999999998</ele><time>2026-04-29T11:36:31Z</time></trkpt><trkpt lat="43.62447076693098" lon="13.01316037891929"><ele>204.0</ele><time>2026-04-29T11:36:32Z</time></trkpt><trkpt lat="43.62443560570052" lon="13.013017250559802"><ele>206.25</ele><time>2026-04-29T11:36:33Z</time></trkpt><trkpt lat="43.62441372415242" lon="13.012840321040313"><ele>208.5</ele><time>2026-04-29T11:36:34Z</time></trkpt><trkpt lat="43.62436390437083" lon="13.01266836522731"><ele>210.75</ele><time>2026-04-29T11:36:35Z</time></trkpt><trkpt lat="43.62434671046721" lon="13.012478742496514"><ele>213.0</ele><time>2026-04-29T11:36:36Z</time></trkpt><trkpt lat="43.624307411768044" lon="13.012293247899555"><ele>213.66666666666669</ele><time>2026-04-29T11:36:37Z</time></trkpt><trkpt lat="43.62427207326781" lon="13.01209562537253"><ele>214.33333333333334</ele><time>2026-04-29T11:36:38Z</time></trkpt><trkpt lat="43.624242176464314" lon="13.011883822794012"><ele>215.0</ele><time>2026-04-29T11:36:39Z</time></trkpt><trkpt lat="43.62421253196663" lon="13.011664718198906"><ele>215.66666666666669</ele><time>2026-04-29T11:36:40Z</time></trkpt><trkpt lat="43.62417997084344" lon="13.011434203455272"><ele>216.33333333333331</ele><time>2026-04-29T11:36:41Z</time></trkpt><trkpt lat="43.624147905267044" lon="13.011202469656865"><ele>217.0</ele><time>2026-04-29T11:36:42Z</time></trkpt><trkpt lat="43.62411522270837" lon="13.010963635273033"><ele>217.0</ele><time>2026-04-29T11:36:43Z</time></trkpt><trkpt lat="43.624097097352255" lon="13.010721877001997"><ele>217.0</ele><time>2026-04-29T11:36:44Z</time></trkpt><trkpt lat="43.624050554408925" lon="13.010487840229276"><ele>217.0</ele><time>2026-04-29T11:36:45Z</time></trkpt><trkpt lat="43.62401819896019" lon="13.010246595489335"><ele>217.0</ele><time>2026-04-29T11:36:46Z</time></trkpt><trkpt lat="43.62398642457892" lon="13.01001196144086"><ele>217.0</ele><time>2026-04-29T11:36:47Z</time></trkpt><trkpt lat="43.62396404079185" lon="13.009789743613997"><ele>217.0</ele><time>2026-04-29T11:36:48Z</time></trkpt><trkpt lat="43.62392018525998" lon="13.009585705569346"><ele>217.33333333333331</ele><time>2026-04-29T11:36:49Z</time></trkpt><trkpt lat="43.62386695627355" lon="13.009377750885793"><ele>217.66666666666669</ele><time>2026-04-29T11:36:50Z</time></trkpt><trkpt lat="43.62379651904456" lon="13.00916571055221"><ele>218.0</ele><time>2026-04-29T11:36:51Z</time></trkpt><trkpt lat="43.62373408835294" lon="13.008950896996557"><ele>218.0</ele><time>2026-04-29T11:36:52Z</time></trkpt><trkpt lat="43.62368109176989" lon="13.008732332407446"><ele>218.0</ele><time>2026-04-29T11:36:53Z</time></trkpt><trkpt lat="43.623635453355895" lon="13.008505740764743"><ele>218.0</ele><time>2026-04-29T11:36:54Z</time></trkpt><trkpt lat="43.6236028376582" lon="13.008278239329032"><ele>224.0</ele><time>2026-04-29T11:36:55Z</time></trkpt><trkpt lat="43.62358276163244" lon="13.008038938481263"><ele>230.0</ele><time>2026-04-29T11:36:56Z</time></trkpt><trkpt lat="43.62358133354753" lon="13.007801570506656"><ele>236.0</ele><time>2026-04-29T11:36:57Z</time></trkpt><trkpt lat="43.623580160097006" lon="13.007541128427608"><ele>236.66666666666669</ele><time>2026-04-29T11:36:58Z</time></trkpt><trkpt lat="43.623565405235354" lon="13.007318015888384"><ele>237.33333333333331</ele><time>2026-04-29T11:36:59Z</time></trkpt><trkpt lat="43.62354785253924" lon="13.007092117524564"><ele>238.0</ele><time>2026-04-29T11:37:00Z</time></trkpt><trkpt lat="43.62352798559566" lon="13.006872411023197"><ele>238.0</ele><time>2026-04-29T11:37:01Z</time></trkpt><trkpt lat="43.62351216257697" lon="13.00666295452731"><ele>238.0</ele><time>2026-04-29T11:37:02Z</time></trkpt><trkpt lat="43.62352955032198" lon="13.006446848022605"><ele>238.0</ele><time>2026-04-29T11:37:03Z</time></trkpt><trkpt lat="43.62355203223223" lon="13.006274173050894"><ele>238.0</ele><time>2026-04-29T11:37:04Z</time></trkpt><trkpt lat="43.623562661412834" lon="13.00614163802111"><ele>238.8</ele><time>2026-04-29T11:37:05Z</time></trkpt><trkpt lat="43.62358803113069" lon="13.006035996760065"><ele>239.60000000000002</ele><time>2026-04-29T11:37:06Z</time></trkpt><trkpt lat="43.623627769656615" lon="13.005897993486066"><ele>240.39999999999998</ele><time>2026-04-29T11:37:08Z</time></trkpt><trkpt lat="43.62348874297238" lon="13.005801763897804"><ele>241.2</ele><time>2026-04-29T11:37:14Z</time></trkpt><trkpt lat="43.623406990766846" lon="13.005847953284551"><ele>242.0</ele><time>2026-04-29T11:37:16Z</time></trkpt><trkpt lat="43.6232848389828" lon="13.005898619186906"><ele>242.0</ele><time>2026-04-29T11:37:18Z</time></trkpt><trkpt lat="43.62320409335199" lon="13.005942488018277"><ele>242.0</ele><time>2026-04-29T11:37:19Z</time></trkpt><trkpt lat="43.62310477435833" lon="13.005994975729939"><ele>242.0</ele><time>2026-04-29T11:37:20Z</time></trkpt><trkpt lat="43.62300295337606" lon="13.006056015198363"><ele>242.0</ele><time>2026-04-29T11:37:21Z</time></trkpt><trkpt lat="43.62290077812429" lon="13.006098662953711"><ele>242.0</ele><time>2026-04-29T11:37:22Z</time></trkpt><trkpt lat="43.622806081550664" lon="13.00615642137721"><ele>241.39999999999998</ele><time>2026-04-29T11:37:23Z</time></trkpt><trkpt lat="43.6227198975612" lon="13.006234760790374"><ele>240.79999999999998</ele><time>2026-04-29T11:37:24Z</time></trkpt><trkpt lat="43.622624027715155" lon="13.0062964356829"><ele>240.2</ele><time>2026-04-29T11:37:25Z</time></trkpt><trkpt lat="43.62253520595015" lon="13.006358398054227"><ele>239.6</ele><time>2026-04-29T11:37:26Z</time></trkpt><trkpt lat="43.62245091774339" lon="13.006426859458832"><ele>239.0</ele><time>2026-04-29T11:37:27Z</time></trkpt><trkpt lat="43.622366310182066" lon="13.00649027428947"><ele>239.0</ele><time>2026-04-29T11:37:28Z</time></trkpt><trkpt lat="43.62228712884854" lon="13.006555655415648"><ele>238.99999999999997</ele><time>2026-04-29T11:37:29Z</time></trkpt><trkpt lat="43.622205348670015" lon="13.006626029060907"><ele>238.99999999999997</ele><time>2026-04-29T11:37:30Z</time></trkpt><trkpt lat="43.62212220076958" lon="13.00670382412254"><ele>239.0</ele><time>2026-04-29T11:37:31Z</time></trkpt><trkpt lat="43.6220367340771" lon="13.006785820294677"><ele>239.0</ele><time>2026-04-29T11:37:32Z</time></trkpt><trkpt lat="43.62195831021045" lon="13.00685865984952"><ele>237.66666666666669</ele><time>2026-04-29T11:37:33Z</time></trkpt><trkpt lat="43.621891064684725" lon="13.006914272305657"><ele>236.33333333333334</ele><time>2026-04-29T11:37:34Z</time></trkpt><trkpt lat="43.621811590621284" lon="13.006953234556777"><ele>235.0</ele><time>2026-04-29T11:37:35Z</time></trkpt><trkpt lat="43.6217343998906" lon="13.006993311147065"><ele>233.66666666666669</ele><time>2026-04-29T11:37:36Z</time></trkpt><trkpt lat="43.62163645959689" lon="13.006962750476486"><ele>232.33333333333334</ele><time>2026-04-29T11:37:37Z</time></trkpt><trkpt lat="43.62153766778056" lon="13.006934954311243"><ele>231.0</ele><time>2026-04-29T11:37:38Z</time></trkpt><trkpt lat="43.62142439265194" lon="13.006893613675011"><ele>231.0</ele><time>2026-04-29T11:37:39Z</time></trkpt><trkpt lat="43.62130620010707" lon="13.006846960749275"><ele>231.0</ele><time>2026-04-29T11:37:40Z</time></trkpt><trkpt lat="43.62118779152632" lon="13.006798607869166"><ele>231.0</ele><time>2026-04-29T11:37:41Z</time></trkpt><trkpt lat="43.62107327544476" lon="13.006746866493508"><ele>231.0</ele><time>2026-04-29T11:37:42Z</time></trkpt><trkpt lat="43.62095843607878" lon="13.006698201491291"><ele>228.75</ele><time>2026-04-29T11:37:43Z</time></trkpt><trkpt lat="43.62084140466314" lon="13.006650778907261"><ele>226.5</ele><time>2026-04-29T11:37:44Z</time></trkpt><trkpt lat="43.6207242064092" lon="13.006607733780948"><ele>224.25</ele><time>2026-04-29T11:37:45Z</time></trkpt><trkpt lat="43.62060857478622" lon="13.00656870941291"><ele>222.0</ele><time>2026-04-29T11:37:46Z</time></trkpt><trkpt lat="43.620491786192325" lon="13.006531708436777"><ele>222.0</ele><time>2026-04-29T11:37:47Z</time></trkpt><trkpt lat="43.62037125695821" lon="13.00651073161875"><ele>222.0</ele><time>2026-04-29T11:37:48Z</time></trkpt><trkpt lat="43.6202535996056" lon="13.006495388977548"><ele>222.0</ele><time>2026-04-29T11:37:49Z</time></trkpt><trkpt lat="43.62015008213885" lon="13.006487844906516"><ele>222.0</ele><time>2026-04-29T11:37:50Z</time></trkpt><trkpt lat="43.62005166375845" lon="13.006485137981475"><ele>222.0</ele><time>2026-04-29T11:37:51Z</time></trkpt><trkpt lat="43.6199525660533" lon="13.00647568705142"><ele>222.6</ele><time>2026-04-29T11:37:52Z</time></trkpt><trkpt lat="43.61985451046686" lon="13.006479850463416"><ele>223.2</ele><time>2026-04-29T11:37:53Z</time></trkpt><trkpt lat="43.619759504218386" lon="13.006484725576879"><ele>223.8</ele><time>2026-04-29T11:37:54Z</time></trkpt><trkpt lat="43.61966514759263" lon="13.006489934360598"><ele>224.4</ele><time>2026-04-29T11:37:55Z</time></trkpt><trkpt lat="43.619574898830585" lon="13.006494703934154"><ele>225.0</ele><time>2026-04-29T11:37:56Z</time></trkpt><trkpt lat="43.619496908882134" lon="13.006495735876985"><ele>225.0</ele><time>2026-04-29T11:37:57Z</time></trkpt><trkpt lat="43.61943107040602" lon="13.0065023469138"><ele>225.0</ele><time>2026-04-29T11:37:58Z</time></trkpt><trkpt lat="43.61933092491938" lon="13.006516174973447"><ele>225.0</ele><time>2026-04-29T11:38:00Z</time></trkpt><trkpt lat="43.61926591005903" lon="13.006500401322565"><ele>225.0</ele><time>2026-04-29T11:38:02Z</time></trkpt><trkpt lat="43.619200137641016" lon="13.006512555726665"><ele>225.0</ele><time>2026-04-29T11:39:14.999Z</time></trkpt><trkpt lat="43.61910040374391" lon="13.006487391354218"><ele>225.0</ele><time>2026-04-29T11:39:17Z</time></trkpt><trkpt lat="43.61904037416598" lon="13.006456849575153"><ele>225.0</ele><time>2026-04-29T11:39:18Z</time></trkpt><trkpt lat="43.61898902258937" lon="13.006380904162475"><ele>225.0</ele><time>2026-04-29T11:39:19Z</time></trkpt><trkpt lat="43.618943130895424" lon="13.006307117502393"><ele>225.0</ele><time>2026-04-29T11:39:20Z</time></trkpt><trkpt lat="43.6188935059956" lon="13.006224388909137"><ele>225.0</ele><time>2026-04-29T11:39:21Z</time></trkpt><trkpt lat="43.61884080613278" lon="13.006139535319907"><ele>225.0</ele><time>2026-04-29T11:39:22Z</time></trkpt><trkpt lat="43.61876898995433" lon="13.006042393617314"><ele>225.0</ele><time>2026-04-29T11:39:23Z</time></trkpt><trkpt lat="43.61868142768931" lon="13.005960208680102"><ele>225.6</ele><time>2026-04-29T11:39:24Z</time></trkpt><trkpt lat="43.618584504429755" lon="13.005897881301541"><ele>226.2</ele><time>2026-04-29T11:39:25Z</time></trkpt><trkpt lat="43.618499446573004" lon="13.005815689803441"><ele>226.8</ele><time>2026-04-29T11:39:26Z</time></trkpt><trkpt lat="43.618425631559866" lon="13.005714114620574"><ele>227.4</ele><time>2026-04-29T11:39:27Z</time></trkpt><trkpt lat="43.61833954672842" lon="13.005620634991482"><ele>228.0</ele><time>2026-04-29T11:39:28Z</time></trkpt><trkpt lat="43.61825206394403" lon="13.005526665451887"><ele>226.60000000000002</ele><time>2026-04-29T11:39:29Z</time></trkpt><trkpt lat="43.618166693235025" lon="13.005441632416094"><ele>225.20000000000002</ele><time>2026-04-29T11:39:30Z</time></trkpt><trkpt lat="43.618087703162246" lon="13.005369957841044"><ele>223.8</ele><time>2026-04-29T11:39:31Z</time></trkpt><trkpt lat="43.618010796674504" lon="13.005303375254638"><ele>222.4</ele><time>2026-04-29T11:39:32Z</time></trkpt><trkpt lat="43.61793340214679" lon="13.005248476637817"><ele>221.0</ele><time>2026-04-29T11:39:33Z</time></trkpt><trkpt lat="43.617846464597555" lon="13.005201406821099"><ele>220.0</ele><time>2026-04-29T11:39:34Z</time></trkpt><trkpt lat="43.617748992471796" lon="13.00516394571488"><ele>219.00000000000003</ele><time>2026-04-29T11:39:35Z</time></trkpt><trkpt lat="43.61764706369863" lon="13.005139710201995"><ele>218.00000000000003</ele><time>2026-04-29T11:39:36Z</time></trkpt><trkpt lat="43.61754021853966" lon="13.005119758464813"><ele>217.0</ele><time>2026-04-29T11:39:37Z</time></trkpt><trkpt lat="43.61743039397486" lon="13.005101470634198"><ele>216.0</ele><time>2026-04-29T11:39:38Z</time></trkpt><trkpt lat="43.61731153210253" lon="13.005084634312034"><ele>216.0</ele><time>2026-04-29T11:39:39Z</time></trkpt><trkpt lat="43.617187935321056" lon="13.005073354007939"><ele>216.0</ele><time>2026-04-29T11:39:40Z</time></trkpt><trkpt lat="43.61706197077934" lon="13.005070761562493"><ele>216.0</ele><time>2026-04-29T11:39:41Z</time></trkpt><trkpt lat="43.61695272143483" lon="13.005043493579132"><ele>216.0</ele><time>2026-04-29T11:39:42Z</time></trkpt><trkpt lat="43.61682830238787" lon="13.005000505200101"><ele>213.0</ele><time>2026-04-29T11:39:43Z</time></trkpt><trkpt lat="43.616686451649315" lon="13.004958891835697"><ele>210.0</ele><time>2026-04-29T11:39:44Z</time></trkpt><trkpt lat="43.61655705643688" lon="13.004898483723053"><ele>207.0</ele><time>2026-04-29T11:39:45Z</time></trkpt><trkpt lat="43.61643245437044" lon="13.004839587269045"><ele>204.0</ele><time>2026-04-29T11:39:46Z</time></trkpt><trkpt lat="43.616320867274496" lon="13.004756825962442"><ele>204.0</ele><time>2026-04-29T11:39:47Z</time></trkpt><trkpt lat="43.61620949862007" lon="13.004687540050092"><ele>204.0</ele><time>2026-04-29T11:39:48Z</time></trkpt><trkpt lat="43.61610064803276" lon="13.004616737684588"><ele>204.0</ele><time>2026-04-29T11:39:49Z</time></trkpt><trkpt lat="43.61598977471381" lon="13.004542122397291"><ele>204.0</ele><time>2026-04-29T11:39:50Z</time></trkpt><trkpt lat="43.61587378162923" lon="13.004462344803471"><ele>204.25</ele><time>2026-04-29T11:39:51Z</time></trkpt><trkpt lat="43.61575619497894" lon="13.004379617121415"><ele>204.5</ele><time>2026-04-29T11:39:52Z</time></trkpt><trkpt lat="43.61562518584444" lon="13.004287446096392"><ele>204.75</ele><time>2026-04-29T11:39:53Z</time></trkpt><trkpt lat="43.61549465574604" lon="13.00419561205591"><ele>205.0</ele><time>2026-04-29T11:39:54Z</time></trkpt><trkpt lat="43.61535691440694" lon="13.004120077336227"><ele>203.33333333333331</ele><time>2026-04-29T11:39:55Z</time></trkpt><trkpt lat="43.6152253675126" lon="13.004019846009838"><ele>201.66666666666669</ele><time>2026-04-29T11:39:56Z</time></trkpt><trkpt lat="43.61508675199576" lon="13.003918537314766"><ele>200.0</ele><time>2026-04-29T11:39:57Z</time></trkpt><trkpt lat="43.61494536604581" lon="13.00381531775495"><ele>200.0</ele><time>2026-04-29T11:39:58Z</time></trkpt><trkpt lat="43.614805254943256" lon="13.003712914801485"><ele>200.0</ele><time>2026-04-29T11:39:59Z</time></trkpt><trkpt lat="43.61466496269352" lon="13.003615455772584"><ele>200.0</ele><time>2026-04-29T11:40:00Z</time></trkpt><trkpt lat="43.61452737732701" lon="13.003521093102009"><ele>200.0</ele><time>2026-04-29T11:40:01Z</time></trkpt><trkpt lat="43.61439090599106" lon="13.0034255010674"><ele>200.0</ele><time>2026-04-29T11:40:02Z</time></trkpt><trkpt lat="43.61425699864967" lon="13.003330353282351"><ele>200.0</ele><time>2026-04-29T11:40:03Z</time></trkpt><trkpt lat="43.61414071372697" lon="13.003250636733314"><ele>200.0</ele><time>2026-04-29T11:40:04Z</time></trkpt><trkpt lat="43.61403654594019" lon="13.003181895751355"><ele>199.75</ele><time>2026-04-29T11:40:05Z</time></trkpt><trkpt lat="43.61393974536701" lon="13.003087985481908"><ele>199.5</ele><time>2026-04-29T11:40:06Z</time></trkpt><trkpt lat="43.613826473133564" lon="13.003002234591479"><ele>199.25</ele><time>2026-04-29T11:40:07Z</time></trkpt><trkpt lat="43.61369950149405" lon="13.002906112816444"><ele>199.0</ele><time>2026-04-29T11:40:08Z</time></trkpt><trkpt lat="43.61356875741264" lon="13.002806684957296"><ele>198.0</ele><time>2026-04-29T11:40:09Z</time></trkpt><trkpt lat="43.6134362543766" lon="13.002728966672054"><ele>197.0</ele><time>2026-04-29T11:40:10Z</time></trkpt><trkpt lat="43.61331593274422" lon="13.002630430535588"><ele>196.0</ele><time>2026-04-29T11:40:11Z</time></trkpt><trkpt lat="43.61320176312147" lon="13.002537269874102"><ele>195.0</ele><time>2026-04-29T11:40:12Z</time></trkpt><trkpt lat="43.613099636963476" lon="13.002422653329786"><ele>193.75</ele><time>2026-04-29T11:40:13Z</time></trkpt><trkpt lat="43.612994915674165" lon="13.00233373740668"><ele>192.5</ele><time>2026-04-29T11:40:14Z</time></trkpt><trkpt lat="43.612891517341815" lon="13.002252652836154"><ele>191.25</ele><time>2026-04-29T11:40:15Z</time></trkpt><trkpt lat="43.61278734438422" lon="13.002178097548716"><ele>190.0</ele><time>2026-04-29T11:40:16Z</time></trkpt><trkpt lat="43.61268301424192" lon="13.002124381388143"><ele>189.6</ele><time>2026-04-29T11:40:17Z</time></trkpt><trkpt lat="43.612592270478494" lon="13.002059634573572"><ele>189.2</ele><time>2026-04-29T11:40:18Z</time></trkpt><trkpt lat="43.61250552376216" lon="13.002000553857249"><ele>188.8</ele><time>2026-04-29T11:40:19Z</time></trkpt><trkpt lat="43.6124267668118" lon="13.00194211363212"><ele>188.4</ele><time>2026-04-29T11:40:20Z</time></trkpt><trkpt lat="43.612356501158" lon="13.001885402269991"><ele>188.0</ele><time>2026-04-29T11:40:21Z</time></trkpt><trkpt lat="43.61228683264076" lon="13.001814270456684"><ele>188.0</ele><time>2026-04-29T11:40:22Z</time></trkpt><trkpt lat="43.61225107675734" lon="13.001721685813354"><ele>188.0</ele><time>2026-04-29T11:40:23Z</time></trkpt><trkpt lat="43.61225365580435" lon="13.001628443493335"><ele>188.0</ele><time>2026-04-29T11:40:24Z</time></trkpt><trkpt lat="43.61229530407826" lon="13.001549473301349"><ele>188.0</ele><time>2026-04-29T11:40:25Z</time></trkpt><trkpt lat="43.612323490604574" lon="13.001435092279412"><ele>188.0</ele><time>2026-04-29T11:40:26Z</time></trkpt><trkpt lat="43.61234194948437" lon="13.001283409190242"><ele>188.0</ele><time>2026-04-29T11:40:27Z</time></trkpt><trkpt lat="43.61232257594542" lon="13.001114091035475"><ele>186.25</ele><time>2026-04-29T11:40:28Z</time></trkpt><trkpt lat="43.61226507168269" lon="13.000948834297226"><ele>184.5</ele><time>2026-04-29T11:40:29Z</time></trkpt><trkpt lat="43.612208545625194" lon="13.000778879394268"><ele>182.75</ele><time>2026-04-29T11:40:30Z</time></trkpt><trkpt lat="43.61214205783166" lon="13.00060791731041"><ele>181.0</ele><time>2026-04-29T11:40:31Z</time></trkpt><trkpt lat="43.61207555277073" lon="13.000439824942067"><ele>180.0</ele><time>2026-04-29T11:40:32Z</time></trkpt><trkpt lat="43.61200990909738" lon="13.00027348153251"><ele>179.0</ele><time>2026-04-29T11:40:33Z</time></trkpt><trkpt lat="43.61194715936867" lon="13.000109448547379"><ele>178.0</ele><time>2026-04-29T11:40:34Z</time></trkpt><trkpt lat="43.611883436186325" lon="12.999945366294805"><ele>177.0</ele><time>2026-04-29T11:40:35Z</time></trkpt><trkpt lat="43.611846918258756" lon="12.999780125031837"><ele>175.5</ele><time>2026-04-29T11:40:36Z</time></trkpt><trkpt lat="43.61179983158089" lon="12.999636763445814"><ele>174.0</ele><time>2026-04-29T11:40:37Z</time></trkpt><trkpt lat="43.61175572684338" lon="12.999505920624234"><ele>172.5</ele><time>2026-04-29T11:40:38Z</time></trkpt><trkpt lat="43.61170534110396" lon="12.999356443942379"><ele>171.0</ele><time>2026-04-29T11:40:39Z</time></trkpt><trkpt lat="43.611654667284114" lon="12.999207884766154"><ele>168.75</ele><time>2026-04-29T11:40:40Z</time></trkpt><trkpt lat="43.611604310274366" lon="12.999070391662567"><ele>166.5</ele><time>2026-04-29T11:40:41Z</time></trkpt><trkpt lat="43.61155108924241" lon="12.998936642349225"><ele>164.25</ele><time>2026-04-29T11:40:42Z</time></trkpt><trkpt lat="43.61149408869169" lon="12.99880821431775"><ele>162.0</ele><time>2026-04-29T11:40:43Z</time></trkpt><trkpt lat="43.61142316249823" lon="12.998664524266758"><ele>162.0</ele><time>2026-04-29T11:40:44Z</time></trkpt><trkpt lat="43.611342606789435" lon="12.998517523693076"><ele>162.0</ele><time>2026-04-29T11:40:45Z</time></trkpt><trkpt lat="43.61125457310108" lon="12.998371967702758"><ele>162.0</ele><time>2026-04-29T11:40:46Z</time></trkpt><trkpt lat="43.61117319891916" lon="12.99823483355898"><ele>162.0</ele><time>2026-04-29T11:40:47Z</time></trkpt><trkpt lat="43.611102486972534" lon="12.998100751590432"><ele>158.75</ele><time>2026-04-29T11:40:48Z</time></trkpt><trkpt lat="43.61104294419065" lon="12.99795665240236"><ele>155.5</ele><time>2026-04-29T11:40:49Z</time></trkpt><trkpt lat="43.61100144274397" lon="12.997813079283375"><ele>152.25</ele><time>2026-04-29T11:40:50Z</time></trkpt><trkpt lat="43.61097678702239" lon="12.997663258603376"><ele>149.0</ele><time>2026-04-29T11:40:51Z</time></trkpt><trkpt lat="43.610968500650664" lon="12.997493505334932"><ele>147.25</ele><time>2026-04-29T11:40:52Z</time></trkpt><trkpt lat="43.61094434711361" lon="12.997299192456572"><ele>145.5</ele><time>2026-04-29T11:40:53Z</time></trkpt><trkpt lat="43.61093423120124" lon="12.99710534020217"><ele>143.75</ele><time>2026-04-29T11:40:54Z</time></trkpt><trkpt lat="43.610909531067406" lon="12.996941818774575"><ele>142.0</ele><time>2026-04-29T11:40:55Z</time></trkpt><trkpt lat="43.61087464720742" lon="12.99680947712147"><ele>142.0</ele><time>2026-04-29T11:40:56Z</time></trkpt><trkpt lat="43.61082317298276" lon="12.996718202906962"><ele>142.0</ele><time>2026-04-29T11:40:57Z</time></trkpt><trkpt lat="43.61075542270338" lon="12.996652839323493"><ele>142.0</ele><time>2026-04-29T11:40:58Z</time></trkpt><trkpt lat="43.610675248889194" lon="12.996569615513655"><ele>142.0</ele><time>2026-04-29T11:40:59Z</time></trkpt><trkpt lat="43.610576261154655" lon="12.996510538376544"><ele>142.0</ele><time>2026-04-29T11:41:00Z</time></trkpt><trkpt lat="43.61047526378857" lon="12.996458150279418"><ele>144.0</ele><time>2026-04-29T11:41:01Z</time></trkpt><trkpt lat="43.61036638076866" lon="12.996402209253445"><ele>146.0</ele><time>2026-04-29T11:41:02Z</time></trkpt><trkpt lat="43.61024924922576" lon="12.99633842987041"><ele>148.0</ele><time>2026-04-29T11:41:03Z</time></trkpt><trkpt lat="43.61014128519747" lon="12.996270100560132"><ele>150.0</ele><time>2026-04-29T11:41:04Z</time></trkpt><trkpt lat="43.61003494830173" lon="12.996198518596636"><ele>150.5</ele><time>2026-04-29T11:41:05Z</time></trkpt><trkpt lat="43.60992398171225" lon="12.99611919848397"><ele>151.0</ele><time>2026-04-29T11:41:06Z</time></trkpt><trkpt lat="43.60980573652689" lon="12.996039231172407"><ele>151.5</ele><time>2026-04-29T11:41:07Z</time></trkpt><trkpt lat="43.60969018865539" lon="12.995930625234"><ele>152.0</ele><time>2026-04-29T11:41:08Z</time></trkpt><trkpt lat="43.609584055146335" lon="12.995835783179425"><ele>154.39999999999998</ele><time>2026-04-29T11:41:09Z</time></trkpt><trkpt lat="43.60950591797673" lon="12.995755461972736"><ele>156.79999999999998</ele><time>2026-04-29T11:41:10Z</time></trkpt><trkpt lat="43.609450583953546" lon="12.995664497513205"><ele>159.2</ele><time>2026-04-29T11:41:11Z</time></trkpt><trkpt lat="43.60940033767808" lon="12.995528578080238"><ele>161.6</ele><time>2026-04-29T11:41:12Z</time></trkpt><trkpt lat="43.60935106385436" lon="12.995388653148611"><ele>164.0</ele><time>2026-04-29T11:41:13Z</time></trkpt><trkpt lat="43.60930345729732" lon="12.995285753475535"><ele>164.0</ele><time>2026-04-29T11:41:14Z</time></trkpt><trkpt lat="43.60927857230023" lon="12.99515018184201"><ele>164.0</ele><time>2026-04-29T11:41:15Z</time></trkpt><trkpt lat="43.609270136711444" lon="12.995005323180967"><ele>164.0</ele><time>2026-04-29T11:41:16Z</time></trkpt><trkpt lat="43.60926662683085" lon="12.994841303750903"><ele>164.0</ele><time>2026-04-29T11:41:17Z</time></trkpt><trkpt lat="43.60925524468086" lon="12.994670762140688"><ele>164.0</ele><time>2026-04-29T11:41:18Z</time></trkpt><trkpt lat="43.60926886218455" lon="12.994503295566606"><ele>164.75</ele><time>2026-04-29T11:41:19Z</time></trkpt><trkpt lat="43.60926994679739" lon="12.994334981975486"><ele>165.5</ele><time>2026-04-29T11:41:20Z</time></trkpt><trkpt lat="43.60927022556539" lon="12.994160072965654"><ele>166.25</ele><time>2026-04-29T11:41:21Z</time></trkpt><trkpt lat="43.609270713764865" lon="12.993993126654402"><ele>167.0</ele><time>2026-04-29T11:41:22Z</time></trkpt><trkpt lat="43.60927236298303" lon="12.993830650661444"><ele>167.0</ele><time>2026-04-29T11:41:23Z</time></trkpt><trkpt lat="43.60927351357824" lon="12.99367353843248"><ele>167.0</ele><time>2026-04-29T11:41:24Z</time></trkpt><trkpt lat="43.609258880007005" lon="12.993502823748292"><ele>167.0</ele><time>2026-04-29T11:41:25Z</time></trkpt><trkpt lat="43.60926542296932" lon="12.993335798731355"><ele>167.0</ele><time>2026-04-29T11:41:26Z</time></trkpt><trkpt lat="43.609263410209294" lon="12.99318346601412"><ele>165.8</ele><time>2026-04-29T11:41:27Z</time></trkpt><trkpt lat="43.60926939899414" lon="12.993035463488603"><ele>164.6</ele><time>2026-04-29T11:41:28Z</time></trkpt><trkpt lat="43.609257206264466" lon="12.992897681237164"><ele>163.4</ele><time>2026-04-29T11:41:29Z</time></trkpt><trkpt lat="43.60923167413036" lon="12.992768025761363"><ele>162.20000000000002</ele><time>2026-04-29T11:41:30Z</time></trkpt><trkpt lat="43.60920209739435" lon="12.992662411152686"><ele>161.0</ele><time>2026-04-29T11:41:31Z</time></trkpt><trkpt lat="43.609176492854395" lon="12.992578807309691"><ele>160.8</ele><time>2026-04-29T11:41:32Z</time></trkpt><trkpt lat="43.60914450122364" lon="12.992473487322822"><ele>160.60000000000002</ele><time>2026-04-29T11:41:34Z</time></trkpt><trkpt lat="43.609205990591995" lon="12.992358955099142"><ele>160.4</ele><time>2026-04-29T11:41:37Z</time></trkpt><trkpt lat="43.60933634307937" lon="12.992336348480837"><ele>160.2</ele><time>2026-04-29T11:41:39Z</time></trkpt><trkpt lat="43.60942117812444" lon="12.99236286333745"><ele>160.0</ele><time>2026-04-29T11:41:40Z</time></trkpt><trkpt lat="43.60951526386104" lon="12.99241223410598"><ele>163.25</ele><time>2026-04-29T11:41:41Z</time></trkpt><trkpt lat="43.609623209401995" lon="12.992472367323096"><ele>166.5</ele><time>2026-04-29T11:41:42Z</time></trkpt><trkpt lat="43.60971507533907" lon="12.992543169950011"><ele>169.75</ele><time>2026-04-29T11:41:43Z</time></trkpt><trkpt lat="43.60981411386283" lon="12.992618807759353"><ele>173.0</ele><time>2026-04-29T11:41:44Z</time></trkpt><trkpt lat="43.60992481239845" lon="12.992697796854813"><ele>173.25</ele><time>2026-04-29T11:41:45Z</time></trkpt><trkpt lat="43.610035147260874" lon="12.992772007081944"><ele>173.5</ele><time>2026-04-29T11:41:46Z</time></trkpt><trkpt lat="43.61014470069768" lon="12.992846602879307"><ele>173.75</ele><time>2026-04-29T11:41:47Z</time></trkpt><trkpt lat="43.610249553163136" lon="12.992924455335219"><ele>174.0</ele><time>2026-04-29T11:41:48Z</time></trkpt><trkpt lat="43.61034504879178" lon="12.993003373923308"><ele>177.0</ele><time>2026-04-29T11:41:49Z</time></trkpt><trkpt lat="43.610436469077136" lon="12.993091391657865"><ele>180.0</ele><time>2026-04-29T11:41:50Z</time></trkpt><trkpt lat="43.610534029574765" lon="12.993191070522052"><ele>183.0</ele><time>2026-04-29T11:41:51Z</time></trkpt><trkpt lat="43.61063334456335" lon="12.99329384182685"><ele>186.0</ele><time>2026-04-29T11:41:52Z</time></trkpt><trkpt lat="43.610724899118665" lon="12.993400115718126"><ele>187.0</ele><time>2026-04-29T11:41:53Z</time></trkpt><trkpt lat="43.61081918927124" lon="12.993517996211642"><ele>188.0</ele><time>2026-04-29T11:41:54Z</time></trkpt><trkpt lat="43.61091191617609" lon="12.99363757493687"><ele>189.0</ele><time>2026-04-29T11:41:55Z</time></trkpt><trkpt lat="43.6110002538416" lon="12.993754126675956"><ele>190.0</ele><time>2026-04-29T11:41:56Z</time></trkpt><trkpt lat="43.6110823641252" lon="12.99387016987861"><ele>189.75</ele><time>2026-04-29T11:41:57Z</time></trkpt><trkpt lat="43.611163720520786" lon="12.993995237803679"><ele>189.5</ele><time>2026-04-29T11:41:58Z</time></trkpt><trkpt lat="43.61124346654948" lon="12.994120308860975"><ele>189.25</ele><time>2026-04-29T11:41:59Z</time></trkpt><trkpt lat="43.61130822746494" lon="12.994238787059528"><ele>189.0</ele><time>2026-04-29T11:42:00Z</time></trkpt><trkpt lat="43.61136796889444" lon="12.994352445516135"><ele>189.0</ele><time>2026-04-29T11:42:01Z</time></trkpt><trkpt lat="43.611426981255576" lon="12.994457693563358"><ele>189.0</ele><time>2026-04-29T11:42:02Z</time></trkpt><trkpt lat="43.61148035083227" lon="12.994537440211143"><ele>189.0</ele><time>2026-04-29T11:42:03Z</time></trkpt><trkpt lat="43.61154186766212" lon="12.994598857312502"><ele>189.0</ele><time>2026-04-29T11:42:04Z</time></trkpt><trkpt lat="43.61157041166672" lon="12.994678606358251"><ele>189.0</ele><time>2026-04-29T11:42:05Z</time></trkpt><trkpt lat="43.61166911064259" lon="12.994705617284177"><ele>189.0</ele><time>2026-04-29T11:42:06Z</time></trkpt><trkpt lat="43.61174260581609" lon="12.994681424592807"><ele>189.0</ele><time>2026-04-29T11:42:07Z</time></trkpt><trkpt lat="43.61186727080354" lon="12.994641721044129"><ele>189.0</ele><time>2026-04-29T11:42:09Z</time></trkpt><trkpt lat="43.61194582327087" lon="12.99460123626135"><ele>189.0</ele><time>2026-04-29T11:42:10Z</time></trkpt><trkpt lat="43.61202839541588" lon="12.994561343470101"><ele>189.0</ele><time>2026-04-29T11:42:11Z</time></trkpt><trkpt lat="43.61209649235507" lon="12.994522566273384"><ele>189.0</ele><time>2026-04-29T11:42:12Z</time></trkpt><trkpt lat="43.61217671642741" lon="12.994495514924303"><ele>189.79999999999998</ele><time>2026-04-29T11:42:13Z</time></trkpt><trkpt lat="43.61228224746949" lon="12.99444717518425"><ele>190.6</ele><time>2026-04-29T11:42:14Z</time></trkpt><trkpt lat="43.612369140637" lon="12.994465550598147"><ele>191.4</ele><time>2026-04-29T11:42:15Z</time></trkpt><trkpt lat="43.61246486220915" lon="12.994475476318122"><ele>192.2</ele><time>2026-04-29T11:42:16Z</time></trkpt><trkpt lat="43.61255675754472" lon="12.994494553258319"><ele>193.0</ele><time>2026-04-29T11:42:17Z</time></trkpt><trkpt lat="43.61264609522728" lon="12.99451286349317"><ele>193.0</ele><time>2026-04-29T11:42:18Z</time></trkpt><trkpt lat="43.61273471093056" lon="12.99454059495756"><ele>193.0</ele><time>2026-04-29T11:42:19Z</time></trkpt><trkpt lat="43.612828288128874" lon="12.994578305860697"><ele>193.0</ele><time>2026-04-29T11:42:20Z</time></trkpt><trkpt lat="43.61293598403392" lon="12.99460735016142"><ele>193.0</ele><time>2026-04-29T11:42:21Z</time></trkpt><trkpt lat="43.61303233408082" lon="12.994674384934939"><ele>193.0</ele><time>2026-04-29T11:42:22Z</time></trkpt><trkpt lat="43.61312103212139" lon="12.994731632956118"><ele>192.0</ele><time>2026-04-29T11:42:23Z</time></trkpt><trkpt lat="43.613205234819226" lon="12.994785118391032"><ele>191.0</ele><time>2026-04-29T11:42:24Z</time></trkpt><trkpt lat="43.613282222026456" lon="12.994854594253818"><ele>190.0</ele><time>2026-04-29T11:42:25Z</time></trkpt><trkpt lat="43.61335903064121" lon="12.99493238735658"><ele>189.0</ele><time>2026-04-29T11:42:26Z</time></trkpt><trkpt lat="43.61343008675266" lon="12.99500800680718"><ele>188.0</ele><time>2026-04-29T11:42:27Z</time></trkpt><trkpt lat="43.61350604397251" lon="12.99508292650828"><ele>188.0</ele><time>2026-04-29T11:42:28Z</time></trkpt><trkpt lat="43.613586859873216" lon="12.995139454471776"><ele>188.0</ele><time>2026-04-29T11:42:29Z</time></trkpt><trkpt lat="43.61367042880773" lon="12.995184282283368"><ele>188.0</ele><time>2026-04-29T11:42:30Z</time></trkpt><trkpt lat="43.61375520129852" lon="12.995217125171907"><ele>188.0</ele><time>2026-04-29T11:42:31Z</time></trkpt><trkpt lat="43.61384478657714" lon="12.995235869922018"><ele>188.0</ele><time>2026-04-29T11:42:32Z</time></trkpt><trkpt lat="43.61392965035506" lon="12.99523613786475"><ele>188.0</ele><time>2026-04-29T11:42:33Z</time></trkpt><trkpt lat="43.614021828133666" lon="12.995207360717153"><ele>189.66666666666666</ele><time>2026-04-29T11:42:34Z</time></trkpt><trkpt lat="43.61410210234854" lon="12.995189257025551"><ele>191.33333333333331</ele><time>2026-04-29T11:42:35Z</time></trkpt><trkpt lat="43.614183644115066" lon="12.995169623298809"><ele>193.0</ele><time>2026-04-29T11:42:36Z</time></trkpt><trkpt lat="43.61426753283969" lon="12.995146008082811"><ele>194.66666666666666</ele><time>2026-04-29T11:42:37Z</time></trkpt><trkpt lat="43.61436310264594" lon="12.995128750710956"><ele>196.33333333333334</ele><time>2026-04-29T11:42:38Z</time></trkpt><trkpt lat="43.61445469753282" lon="12.99510949332158"><ele>198.0</ele><time>2026-04-29T11:42:39Z</time></trkpt><trkpt lat="43.614550529688316" lon="12.995100386682891"><ele>199.25</ele><time>2026-04-29T11:42:40Z</time></trkpt><trkpt lat="43.614655217335475" lon="12.99510392622768"><ele>200.5</ele><time>2026-04-29T11:42:41Z</time></trkpt><trkpt lat="43.61476880928094" lon="12.995114449197425"><ele>201.75</ele><time>2026-04-29T11:42:42Z</time></trkpt><trkpt lat="43.614884806038944" lon="12.995127486046902"><ele>203.0</ele><time>2026-04-29T11:42:43Z</time></trkpt><trkpt lat="43.61500885536342" lon="12.99514086121805"><ele>203.0</ele><time>2026-04-29T11:42:44Z</time></trkpt><trkpt lat="43.61512233880694" lon="12.99514807604984"><ele>203.0</ele><time>2026-04-29T11:42:45Z</time></trkpt><trkpt lat="43.61524622460403" lon="12.995172310038226"><ele>203.0</ele><time>2026-04-29T11:42:46Z</time></trkpt><trkpt lat="43.615374405161724" lon="12.99520015842455"><ele>203.0</ele><time>2026-04-29T11:42:47Z</time></trkpt><trkpt lat="43.615499247360916" lon="12.995231535335485"><ele>204.5</ele><time>2026-04-29T11:42:48Z</time></trkpt><trkpt lat="43.61562320925853" lon="12.995258691402157"><ele>206.0</ele><time>2026-04-29T11:42:49Z</time></trkpt><trkpt lat="43.615742087574716" lon="12.995289644109013"><ele>207.5</ele><time>2026-04-29T11:42:50Z</time></trkpt><trkpt lat="43.61585407588788" lon="12.995331704181298"><ele>209.0</ele><time>2026-04-29T11:42:51Z</time></trkpt><trkpt lat="43.61595632291285" lon="12.995376324004658"><ele>209.0</ele><time>2026-04-29T11:42:52Z</time></trkpt><trkpt lat="43.616064002833255" lon="12.99542734251437"><ele>209.0</ele><time>2026-04-29T11:42:53Z</time></trkpt><trkpt lat="43.61616660386474" lon="12.995489061403457"><ele>209.0</ele><time>2026-04-29T11:42:54Z</time></trkpt><trkpt lat="43.61627091590325" lon="12.995561794667589"><ele>209.0</ele><time>2026-04-29T11:42:55Z</time></trkpt><trkpt lat="43.61634084965801" lon="12.995628904320032"><ele>209.0</ele><time>2026-04-29T11:42:56Z</time></trkpt><trkpt lat="43.61639594593669" lon="12.995672110203442"><ele>208.25</ele><time>2026-04-29T11:42:57Z</time></trkpt><trkpt lat="43.616561385024326" lon="12.995806724826233"><ele>207.5</ele><time>2026-04-29T11:42:59Z</time></trkpt><trkpt lat="43.61660827584064" lon="12.995907550431568"><ele>206.75</ele><time>2026-04-29T11:43:00Z</time></trkpt><trkpt lat="43.61666942991085" lon="12.996030443859272"><ele>206.0</ele><time>2026-04-29T11:43:01Z</time></trkpt><trkpt lat="43.616730667976206" lon="12.996139322295095"><ele>206.00000000000003</ele><time>2026-04-29T11:43:02Z</time></trkpt><trkpt lat="43.616793341560815" lon="12.996241302826922"><ele>206.0</ele><time>2026-04-29T11:43:03Z</time></trkpt><trkpt lat="43.61684858742078" lon="12.996319291463934"><ele>206.0</ele><time>2026-04-29T11:43:04Z</time></trkpt><trkpt lat="43.61690664490988" lon="12.996391702167909"><ele>206.0</ele><time>2026-04-29T11:43:05Z</time></trkpt><trkpt lat="43.61697350814343" lon="12.996474541894457"><ele>206.00000000000003</ele><time>2026-04-29T11:43:06Z</time></trkpt><trkpt lat="43.61704884513746" lon="12.996572448792437"><ele>206.0</ele><time>2026-04-29T11:43:07Z</time></trkpt><trkpt lat="43.61713123558924" lon="12.99667362407587"><ele>205.75</ele><time>2026-04-29T11:43:08Z</time></trkpt><trkpt lat="43.61722416103166" lon="12.996762566224918"><ele>205.5</ele><time>2026-04-29T11:43:09Z</time></trkpt><trkpt lat="43.61731705677945" lon="12.996851647864814"><ele>205.25</ele><time>2026-04-29T11:43:10Z</time></trkpt><trkpt lat="43.61741806877489" lon="12.996917953899205"><ele>205.0</ele><time>2026-04-29T11:43:11Z</time></trkpt><trkpt lat="43.61752533309193" lon="12.996989691979653"><ele>205.0</ele><time>2026-04-29T11:43:12Z</time></trkpt><trkpt lat="43.617630652335535" lon="12.997057256409203"><ele>205.0</ele><time>2026-04-29T11:43:13Z</time></trkpt><trkpt lat="43.617740300337346" lon="12.997122378801135"><ele>205.0</ele><time>2026-04-29T11:43:14Z</time></trkpt><trkpt lat="43.61784961338403" lon="12.997174257223477"><ele>205.0</ele><time>2026-04-29T11:43:15Z</time></trkpt><trkpt lat="43.617962365590806" lon="12.997206784860877"><ele>206.75</ele><time>2026-04-29T11:43:16Z</time></trkpt><trkpt lat="43.61807709607457" lon="12.997231234958921"><ele>208.5</ele><time>2026-04-29T11:43:17Z</time></trkpt><trkpt lat="43.61819021486446" lon="12.997254264120086"><ele>210.25</ele><time>2026-04-29T11:43:18Z</time></trkpt><trkpt lat="43.61829949670228" lon="12.997307573398123"><ele>212.0</ele><time>2026-04-29T11:43:19Z</time></trkpt><trkpt lat="43.61841010070793" lon="12.997343535259683"><ele>212.0</ele><time>2026-04-29T11:43:20Z</time></trkpt><trkpt lat="43.618506641457635" lon="12.997403061930513"><ele>212.0</ele><time>2026-04-29T11:43:21Z</time></trkpt><trkpt lat="43.61860124669509" lon="12.99745570526798"><ele>212.0</ele><time>2026-04-29T11:43:22Z</time></trkpt><trkpt lat="43.618703565499985" lon="12.997517421334164"><ele>212.0</ele><time>2026-04-29T11:43:23Z</time></trkpt><trkpt lat="43.618819495132485" lon="12.99757538505709"><ele>212.0</ele><time>2026-04-29T11:43:24Z</time></trkpt><trkpt lat="43.618936188445076" lon="12.99763780104886"><ele>212.25</ele><time>2026-04-29T11:43:25Z</time></trkpt><trkpt lat="43.619056246396504" lon="12.997700931901035"><ele>212.5</ele><time>2026-04-29T11:43:26Z</time></trkpt><trkpt lat="43.619169296589476" lon="12.9977844668737"><ele>212.75</ele><time>2026-04-29T11:43:27Z</time></trkpt><trkpt lat="43.61928645392643" lon="12.99789807575354"><ele>213.0</ele><time>2026-04-29T11:43:28Z</time></trkpt><trkpt lat="43.61938510637595" lon="12.997982821934368"><ele>213.0</ele><time>2026-04-29T11:43:29Z</time></trkpt><trkpt lat="43.61946735893089" lon="12.998108390136105"><ele>213.0</ele><time>2026-04-29T11:43:30Z</time></trkpt><trkpt lat="43.61955110737108" lon="12.998238903756"><ele>213.0</ele><time>2026-04-29T11:43:31Z</time></trkpt><trkpt lat="43.61962687308123" lon="12.99837216169357"><ele>213.0</ele><time>2026-04-29T11:43:32Z</time></trkpt><trkpt lat="43.61969654662505" lon="12.99851373015771"><ele>215.0</ele><time>2026-04-29T11:43:33Z</time></trkpt><trkpt lat="43.61976668381864" lon="12.998658966686094"><ele>217.0</ele><time>2026-04-29T11:43:34Z</time></trkpt><trkpt lat="43.61983648864978" lon="12.998806152145054"><ele>219.0</ele><time>2026-04-29T11:43:35Z</time></trkpt><trkpt lat="43.6199018449675" lon="12.998955174694995"><ele>221.0</ele><time>2026-04-29T11:43:36Z</time></trkpt><trkpt lat="43.6199674847978" lon="12.999103522058366"><ele>221.0</ele><time>2026-04-29T11:43:37Z</time></trkpt><trkpt lat="43.62003704999914" lon="12.999243320804414"><ele>221.00000000000003</ele><time>2026-04-29T11:43:38Z</time></trkpt><trkpt lat="43.62009407307525" lon="12.999368431802335"><ele>221.00000000000003</ele><time>2026-04-29T11:43:39Z</time></trkpt><trkpt lat="43.62015075005983" lon="12.999460596780061"><ele>221.0</ele><time>2026-04-29T11:43:40Z</time></trkpt><trkpt lat="43.620216136611845" lon="12.999532316900885"><ele>221.0</ele><time>2026-04-29T11:43:41Z</time></trkpt><trkpt lat="43.62030277888794" lon="12.999590241755264"><ele>223.4</ele><time>2026-04-29T11:43:42Z</time></trkpt><trkpt lat="43.62039913927245" lon="12.999633553363395"><ele>225.8</ele><time>2026-04-29T11:43:43Z</time></trkpt><trkpt lat="43.620506251189724" lon="12.999661016102873"><ele>228.20000000000002</ele><time>2026-04-29T11:43:44Z</time></trkpt><trkpt lat="43.62061959084201" lon="12.999681094315699"><ele>230.60000000000002</ele><time>2026-04-29T11:43:45Z</time></trkpt><trkpt lat="43.62073036874867" lon="12.99971471274131"><ele>233.0</ele><time>2026-04-29T11:43:46Z</time></trkpt><trkpt lat="43.620835883270075" lon="12.999754763216504"><ele>233.0</ele><time>2026-04-29T11:43:47Z</time></trkpt><trkpt lat="43.62094429831707" lon="12.999806195642703"><ele>233.0</ele><time>2026-04-29T11:43:48Z</time></trkpt><trkpt lat="43.62104792037253" lon="12.999868519613925"><ele>233.0</ele><time>2026-04-29T11:43:49Z</time></trkpt><trkpt lat="43.62114195584624" lon="12.999941384012985"><ele>233.0</ele><time>2026-04-29T11:43:50Z</time></trkpt><trkpt lat="43.62122969374325" lon="13.000023561302925"><ele>233.0</ele><time>2026-04-29T11:43:51Z</time></trkpt><trkpt lat="43.62131920928792" lon="13.000128856242448"><ele>234.25</ele><time>2026-04-29T11:43:52Z</time></trkpt><trkpt lat="43.62140623113184" lon="13.000233831599362"><ele>235.5</ele><time>2026-04-29T11:43:53Z</time></trkpt><trkpt lat="43.62148743877557" lon="13.000346102704523"><ele>236.75</ele><time>2026-04-29T11:43:54Z</time></trkpt><trkpt lat="43.62156132260607" lon="13.000462133973857"><ele>238.0</ele><time>2026-04-29T11:43:55Z</time></trkpt><trkpt lat="43.62162479997004" lon="13.00058713463308"><ele>238.0</ele><time>2026-04-29T11:43:56Z</time></trkpt><trkpt lat="43.62168771796311" lon="13.000716165342814"><ele>238.0</ele><time>2026-04-29T11:43:57Z</time></trkpt><trkpt lat="43.6217413618847" lon="13.000850807275329"><ele>238.0</ele><time>2026-04-29T11:43:58Z</time></trkpt><trkpt lat="43.62179291874636" lon="13.000992688828042"><ele>238.0</ele><time>2026-04-29T11:43:59Z</time></trkpt><trkpt lat="43.621849927312766" lon="13.001145635418103"><ele>238.5</ele><time>2026-04-29T11:44:00Z</time></trkpt><trkpt lat="43.621905155147644" lon="13.001304255932943"><ele>239.0</ele><time>2026-04-29T11:44:01Z</time></trkpt><trkpt lat="43.62196006305239" lon="13.001468639634732"><ele>239.5</ele><time>2026-04-29T11:44:02Z</time></trkpt><trkpt lat="43.622009217073845" lon="13.001639071031835"><ele>240.0</ele><time>2026-04-29T11:44:03Z</time></trkpt><trkpt lat="43.62206904572042" lon="13.001810908465474"><ele>240.0</ele><time>2026-04-29T11:44:04Z</time></trkpt><trkpt lat="43.622135539252696" lon="13.001982779913014"><ele>240.0</ele><time>2026-04-29T11:44:05Z</time></trkpt><trkpt lat="43.622199380227684" lon="13.00215801041805"><ele>240.0</ele><time>2026-04-29T11:44:06Z</time></trkpt><trkpt lat="43.62225941105258" lon="13.002335300218496"><ele>240.0</ele><time>2026-04-29T11:44:07Z</time></trkpt><trkpt lat="43.62233360317372" lon="13.002491304280856"><ele>241.75</ele><time>2026-04-29T11:44:08Z</time></trkpt><trkpt lat="43.62241105366176" lon="13.002632058231661"><ele>243.5</ele><time>2026-04-29T11:44:09Z</time></trkpt><trkpt lat="43.622490897534774" lon="13.002782612155015"><ele>245.25</ele><time>2026-04-29T11:44:10Z</time></trkpt><trkpt lat="43.62257756174191" lon="13.002929236718739"><ele>247.0</ele><time>2026-04-29T11:44:11Z</time></trkpt><trkpt lat="43.62266901193743" lon="13.003079834679019"><ele>247.0</ele><time>2026-04-29T11:44:12Z</time></trkpt><trkpt lat="43.62275785413749" lon="13.003235109510873"><ele>247.0</ele><time>2026-04-29T11:44:13Z</time></trkpt><trkpt lat="43.62284079824067" lon="13.003387036355202"><ele>247.0</ele><time>2026-04-29T11:44:14Z</time></trkpt><trkpt lat="43.622912995427505" lon="13.00353669701504"><ele>247.0</ele><time>2026-04-29T11:44:15Z</time></trkpt><trkpt lat="43.62297506354338" lon="13.003679222297878"><ele>247.2</ele><time>2026-04-29T11:44:16Z</time></trkpt><trkpt lat="43.62303147223628" lon="13.003823490302745"><ele>247.39999999999998</ele><time>2026-04-29T11:44:17Z</time></trkpt><trkpt lat="43.623075981304765" lon="13.00395796062678"><ele>247.60000000000002</ele><time>2026-04-29T11:44:18Z</time></trkpt><trkpt lat="43.62311862397361" lon="13.004085333498313"><ele>247.8</ele><time>2026-04-29T11:44:19Z</time></trkpt><trkpt lat="43.62315385333052" lon="13.004194142626751"><ele>248.0</ele><time>2026-04-29T11:44:20Z</time></trkpt><trkpt lat="43.623182376145536" lon="13.004282471155337"><ele>248.66666666666669</ele><time>2026-04-29T11:44:21Z</time></trkpt><trkpt lat="43.623217440384444" lon="13.004403723411778"><ele>249.33333333333334</ele><time>2026-04-29T11:44:23Z</time></trkpt><trkpt lat="43.623258543147095" lon="13.00449740263121"><ele>250.0</ele><time>2026-04-29T11:44:26Z</time></trkpt><trkpt lat="43.62329088611305" lon="13.004593636586645"><ele>250.66666666666669</ele><time>2026-04-29T11:46:06Z</time></trkpt><trkpt lat="43.62332178707036" lon="13.004703787858706"><ele>251.33333333333334</ele><time>2026-04-29T11:46:08Z</time></trkpt><trkpt lat="43.623358922570674" lon="13.004819005568708"><ele>252.0</ele><time>2026-04-29T11:46:10Z</time></trkpt><trkpt lat="43.6233978581756" lon="13.004938223475458"><ele>251.2</ele><time>2026-04-29T11:46:12Z</time></trkpt><trkpt lat="43.62344308033632" lon="13.005081561485271"><ele>250.39999999999998</ele><time>2026-04-29T11:46:14Z</time></trkpt><trkpt lat="43.62347537700342" lon="13.005243940189185"><ele>249.60000000000002</ele><time>2026-04-29T11:46:16Z</time></trkpt><trkpt lat="43.62348549615406" lon="13.00533961638404"><ele>248.8</ele><time>2026-04-29T11:46:17Z</time></trkpt><trkpt lat="43.62348805078103" lon="13.005430547513386"><ele>248.0</ele><time>2026-04-29T11:46:18Z</time></trkpt><trkpt lat="43.623467054651705" lon="13.00559954202561"><ele>248.0</ele><time>2026-04-29T11:46:20Z</time></trkpt><trkpt lat="43.623429607164596" lon="13.00570930727662"><ele>248.0</ele><time>2026-04-29T11:46:22Z</time></trkpt><trkpt lat="43.62350477358327" lon="13.005832577388192"><ele>248.0</ele><time>2026-04-29T11:46:27Z</time></trkpt><trkpt lat="43.62357430163179" lon="13.005797459859382"><ele>248.0</ele><time>2026-04-29T11:46:29Z</time></trkpt><trkpt lat="43.623565429333006" lon="13.00601054112437"><ele>248.0</ele><time>2026-04-29T11:46:34Z</time></trkpt><trkpt lat="43.62354534498827" lon="13.0061080700541"><ele>246.8</ele><time>2026-04-29T11:46:35Z</time></trkpt><trkpt lat="43.62353720756323" lon="13.006239962848928"><ele>245.60000000000002</ele><time>2026-04-29T11:46:36Z</time></trkpt><trkpt lat="43.62351624110926" lon="13.00636353776097"><ele>244.39999999999998</ele><time>2026-04-29T11:46:37Z</time></trkpt><trkpt lat="43.6235000958574" lon="13.006510677771033"><ele>243.2</ele><time>2026-04-29T11:46:38Z</time></trkpt><trkpt lat="43.62349722097168" lon="13.006654849765672"><ele>242.0</ele><time>2026-04-29T11:46:39Z</time></trkpt><trkpt lat="43.62350570288483" lon="13.00681489207792"><ele>241.0</ele><time>2026-04-29T11:46:40Z</time></trkpt><trkpt lat="43.623520384174384" lon="13.006986962769664"><ele>240.0</ele><time>2026-04-29T11:46:41Z</time></trkpt><trkpt lat="43.6235357694962" lon="13.007167429458784"><ele>239.0</ele><time>2026-04-29T11:46:42Z</time></trkpt><trkpt lat="43.6235483369639" lon="13.007354117741873"><ele>238.0</ele><time>2026-04-29T11:46:43Z</time></trkpt><trkpt lat="43.62355770567984" lon="13.007560627505343"><ele>237.33333333333331</ele><time>2026-04-29T11:46:44Z</time></trkpt><trkpt lat="43.623558292632936" lon="13.007770326273125"><ele>236.66666666666669</ele><time>2026-04-29T11:46:45Z</time></trkpt><trkpt lat="43.62356284763536" lon="13.007986444090067"><ele>236.0</ele><time>2026-04-29T11:46:46Z</time></trkpt><trkpt lat="43.62357764373934" lon="13.008206831525065"><ele>233.66666666666669</ele><time>2026-04-29T11:46:47Z</time></trkpt><trkpt lat="43.62360661598159" lon="13.008430490093426"><ele>231.33333333333331</ele><time>2026-04-29T11:46:48Z</time></trkpt><trkpt lat="43.62364888093519" lon="13.008651376485224"><ele>229.0</ele><time>2026-04-29T11:46:49Z</time></trkpt><trkpt lat="43.62369653257646" lon="13.00887638732492"><ele>225.33333333333331</ele><time>2026-04-29T11:46:50Z</time></trkpt><trkpt lat="43.62375387819942" lon="13.009103899330427"><ele>221.66666666666669</ele><time>2026-04-29T11:46:51Z</time></trkpt><trkpt lat="43.62381365717082" lon="13.009324208050048"><ele>218.0</ele><time>2026-04-29T11:46:52Z</time></trkpt><trkpt lat="43.62387818890258" lon="13.009527231068096"><ele>218.0</ele><time>2026-04-29T11:46:53Z</time></trkpt><trkpt lat="43.62392477251002" lon="13.009711586329827"><ele>218.0</ele><time>2026-04-29T11:46:54Z</time></trkpt><trkpt lat="43.623958711228006" lon="13.00990459760085"><ele>218.0</ele><time>2026-04-29T11:46:55Z</time></trkpt><trkpt lat="43.62398643742161" lon="13.010099289380712"><ele>218.0</ele><time>2026-04-29T11:46:56Z</time></trkpt><trkpt lat="43.62401318313708" lon="13.010300389296154"><ele>217.75</ele><time>2026-04-29T11:46:57Z</time></trkpt><trkpt lat="43.62403581311773" lon="13.010487436780135"><ele>217.5</ele><time>2026-04-29T11:46:58Z</time></trkpt><trkpt lat="43.624062762483106" lon="13.010678100308334"><ele>217.25</ele><time>2026-04-29T11:46:59Z</time></trkpt><trkpt lat="43.624085473486474" lon="13.0108612874518"><ele>217.0</ele><time>2026-04-29T11:47:00Z</time></trkpt><trkpt lat="43.62411180365975" lon="13.011034975160232"><ele>217.0</ele><time>2026-04-29T11:47:01Z</time></trkpt><trkpt lat="43.62413189237994" lon="13.011213989846626"><ele>217.0</ele><time>2026-04-29T11:47:02Z</time></trkpt><trkpt lat="43.624157998802815" lon="13.01140049948016"><ele>217.0</ele><time>2026-04-29T11:47:03Z</time></trkpt><trkpt lat="43.62418056583326" lon="13.01159015155198"><ele>217.0</ele><time>2026-04-29T11:47:04Z</time></trkpt><trkpt lat="43.62420630828374" lon="13.011780779495176"><ele>216.5</ele><time>2026-04-29T11:47:05Z</time></trkpt><trkpt lat="43.6242316957684" lon="13.011971576221487"><ele>216.0</ele><time>2026-04-29T11:47:06Z</time></trkpt><trkpt lat="43.624261479690595" lon="13.01217014090618"><ele>215.5</ele><time>2026-04-29T11:47:07Z</time></trkpt><trkpt lat="43.624292519763685" lon="13.012367900129883"><ele>215.0</ele><time>2026-04-29T11:47:08Z</time></trkpt><trkpt lat="43.62432743856301" lon="13.012554710294552"><ele>214.5</ele><time>2026-04-29T11:47:09Z</time></trkpt><trkpt lat="43.6243627166472" lon="13.012738305255816"><ele>214.0</ele><time>2026-04-29T11:47:10Z</time></trkpt><trkpt lat="43.62439618352213" lon="13.012914858542304"><ele>213.5</ele><time>2026-04-29T11:47:11Z</time></trkpt><trkpt lat="43.62442973138515" lon="13.013080086038224"><ele>213.0</ele><time>2026-04-29T11:47:12Z</time></trkpt><trkpt lat="43.62446259582432" lon="13.013245217068526"><ele>213.0</ele><time>2026-04-29T11:47:13Z</time></trkpt><trkpt lat="43.62448019609751" lon="13.01341432052806"><ele>213.0</ele><time>2026-04-29T11:47:14Z</time></trkpt><trkpt lat="43.62448208089977" lon="13.01357546902077"><ele>213.0</ele><time>2026-04-29T11:47:15Z</time></trkpt><trkpt lat="43.62447190638346" lon="13.013726564979569"><ele>213.0</ele><time>2026-04-29T11:47:15.999Z</time></trkpt><trkpt lat="43.624458084794675" lon="13.013883741796574"><ele>213.0</ele><time>2026-04-29T11:47:16.999Z</time></trkpt><trkpt lat="43.624436914361" lon="13.01404838484035"><ele>213.0</ele><time>2026-04-29T11:47:17.999Z</time></trkpt><trkpt lat="43.624410996452454" lon="13.014208321356618"><ele>213.0</ele><time>2026-04-29T11:47:18.999Z</time></trkpt><trkpt lat="43.62438993210645" lon="13.014345598234229"><ele>213.0</ele><time>2026-04-29T11:47:19.999Z</time></trkpt><trkpt lat="43.6243725102543" lon="13.014457245981324"><ele>213.0</ele><time>2026-04-29T11:47:20.999Z</time></trkpt><trkpt lat="43.624352443114645" lon="13.014542893296186"><ele>212.0</ele><time>2026-04-29T11:47:21.999Z</time></trkpt><trkpt lat="43.624318081711166" lon="13.014649851461334"><ele>211.0</ele><time>2026-04-29T11:47:23.999Z</time></trkpt><trkpt lat="43.62426543406995" lon="13.014735978939598"><ele>210.0</ele><time>2026-04-29T11:47:26.999Z</time></trkpt><trkpt lat="43.62438243362599" lon="13.0148603551592"><ele>209.0</ele><time>2026-04-29T11:51:40Z</time></trkpt><trkpt lat="43.62444129497222" lon="13.014982059847062"><ele>208.0</ele><time>2026-04-29T11:51:42Z</time></trkpt><trkpt lat="43.62449951488433" lon="13.015097497622763"><ele>206.99999999999997</ele><time>2026-04-29T11:51:44Z</time></trkpt><trkpt lat="43.62457716704251" lon="13.015229197107763"><ele>206.0</ele><time>2026-04-29T11:51:46Z</time></trkpt><trkpt lat="43.62464138355683" lon="13.015348514772834"><ele>205.0</ele><time>2026-04-29T11:51:48Z</time></trkpt><trkpt lat="43.624680420107175" lon="13.015422404367634"><ele>204.0</ele><time>2026-04-29T11:51:49Z</time></trkpt><trkpt lat="43.624721448923125" lon="13.015501355156214"><ele>202.99999999999997</ele><time>2026-04-29T11:51:50Z</time></trkpt><trkpt lat="43.62476306855165" lon="13.015583672437284"><ele>202.0</ele><time>2026-04-29T11:51:51Z</time></trkpt><trkpt lat="43.624806510609886" lon="13.01566706793784"><ele>201.99999999999997</ele><time>2026-04-29T11:51:52Z</time></trkpt><trkpt lat="43.62484922978713" lon="13.015750163116008"><ele>202.0</ele><time>2026-04-29T11:51:53Z</time></trkpt><trkpt lat="43.62489347739236" lon="13.015838269432804"><ele>202.0</ele><time>2026-04-29T11:51:54Z</time></trkpt><trkpt lat="43.624939494415806" lon="13.015927510160372"><ele>202.0</ele><time>2026-04-29T11:51:55Z</time></trkpt><trkpt lat="43.624986693735366" lon="13.016016459630526"><ele>201.99999999999997</ele><time>2026-04-29T11:51:56Z</time></trkpt><trkpt lat="43.62504108883283" lon="13.016114343193014"><ele>202.0</ele><time>2026-04-29T11:51:57Z</time></trkpt><trkpt lat="43.62509796654946" lon="13.016220547920128"><ele>201.39999999999998</ele><time>2026-04-29T11:51:58Z</time></trkpt><trkpt lat="43.62515590671264" lon="13.016330000647237"><ele>200.79999999999998</ele><time>2026-04-29T11:51:59Z</time></trkpt><trkpt lat="43.62521546533287" lon="13.016438759232141"><ele>200.2</ele><time>2026-04-29T11:52:00Z</time></trkpt><trkpt lat="43.62526195652084" lon="13.016566803915879"><ele>199.6</ele><time>2026-04-29T11:52:01Z</time></trkpt><trkpt lat="43.625317821711484" lon="13.016675976042725"><ele>199.0</ele><time>2026-04-29T11:52:02Z</time></trkpt><trkpt lat="43.625372492067335" lon="13.016784160863422"><ele>196.79999999999998</ele><time>2026-04-29T11:52:03Z</time></trkpt><trkpt lat="43.62542629705351" lon="13.016890633336573"><ele>194.6</ele><time>2026-04-29T11:52:04Z</time></trkpt><trkpt lat="43.62547906324613" lon="13.016995050060359"><ele>192.4</ele><time>2026-04-29T11:52:05Z</time></trkpt><trkpt lat="43.62553314279415" lon="13.017102387638882"><ele>190.2</ele><time>2026-04-29T11:52:06Z</time></trkpt><trkpt lat="43.62559949879975" lon="13.017196659007201"><ele>188.0</ele><time>2026-04-29T11:52:07Z</time></trkpt><trkpt lat="43.62565084684176" lon="13.017303687376428"><ele>188.0</ele><time>2026-04-29T11:52:08Z</time></trkpt><trkpt lat="43.62570104771041" lon="13.017406132002229"><ele>188.0</ele><time>2026-04-29T11:52:09Z</time></trkpt><trkpt lat="43.625752410716686" lon="13.017513260907002"><ele>188.0</ele><time>2026-04-29T11:52:10Z</time></trkpt><trkpt lat="43.62580636348652" lon="13.017622202762544"><ele>188.0</ele><time>2026-04-29T11:52:11Z</time></trkpt><trkpt lat="43.625859078126325" lon="13.017732265173356"><ele>188.0</ele><time>2026-04-29T11:52:12Z</time></trkpt><trkpt lat="43.625895167780286" lon="13.017844422830654"><ele>187.4</ele><time>2026-04-29T11:52:13Z</time></trkpt><trkpt lat="43.62595954727449" lon="13.017943214789405"><ele>186.8</ele><time>2026-04-29T11:52:14Z</time></trkpt><trkpt lat="43.62601006875044" lon="13.01805989983376"><ele>186.2</ele><time>2026-04-29T11:52:15Z</time></trkpt><trkpt lat="43.62606231623867" lon="13.018170449201614"><ele>185.6</ele><time>2026-04-29T11:52:16Z</time></trkpt><trkpt lat="43.626111030777146" lon="13.01828628497408"><ele>185.0</ele><time>2026-04-29T11:52:17Z</time></trkpt><trkpt lat="43.62616740425583" lon="13.018394954874585"><ele>182.2</ele><time>2026-04-29T11:52:18Z</time></trkpt><trkpt lat="43.62621806099279" lon="13.018513548926263"><ele>179.4</ele><time>2026-04-29T11:52:19Z</time></trkpt><trkpt lat="43.62627231577738" lon="13.018629501050933"><ele>176.60000000000002</ele><time>2026-04-29T11:52:20Z</time></trkpt><trkpt lat="43.62633876182554" lon="13.01874310472671"><ele>173.8</ele><time>2026-04-29T11:52:21Z</time></trkpt><trkpt lat="43.62640262968953" lon="13.018852404213657"><ele>171.0</ele><time>2026-04-29T11:52:22Z</time></trkpt><trkpt lat="43.62647680365135" lon="13.018952433475933"><ele>171.0</ele><time>2026-04-29T11:52:23Z</time></trkpt><trkpt lat="43.62655872707347" lon="13.019044531388278"><ele>171.0</ele><time>2026-04-29T11:52:24Z</time></trkpt><trkpt lat="43.62664064616955" lon="13.019137127517956"><ele>171.0</ele><time>2026-04-29T11:52:25Z</time></trkpt><trkpt lat="43.62672427280799" lon="13.019231862844887"><ele>171.0</ele><time>2026-04-29T11:52:26Z</time></trkpt><trkpt lat="43.626807397782294" lon="13.019328403879356"><ele>171.0</ele><time>2026-04-29T11:52:27Z</time></trkpt><trkpt lat="43.626892087678385" lon="13.019425411120594"><ele>169.0</ele><time>2026-04-29T11:52:28Z</time></trkpt><trkpt lat="43.626981110404216" lon="13.01952097614113"><ele>167.0</ele><time>2026-04-29T11:52:29Z</time></trkpt><trkpt lat="43.62706991553597" lon="13.019613881816387"><ele>165.0</ele><time>2026-04-29T11:52:30Z</time></trkpt><trkpt lat="43.627163668521725" lon="13.019712273048285"><ele>163.0</ele><time>2026-04-29T11:52:31Z</time></trkpt><trkpt lat="43.627257095084246" lon="13.01981167848389"><ele>163.0</ele><time>2026-04-29T11:52:32Z</time></trkpt><trkpt lat="43.62734876759175" lon="13.019905174452962"><ele>163.0</ele><time>2026-04-29T11:52:33Z</time></trkpt><trkpt lat="43.62744072207762" lon="13.020002728538222"><ele>163.0</ele><time>2026-04-29T11:52:34Z</time></trkpt><trkpt lat="43.62753249997504" lon="13.020096487718304"><ele>163.0</ele><time>2026-04-29T11:52:35Z</time></trkpt><trkpt lat="43.62762474953457" lon="13.02018855462826"><ele>162.0</ele><time>2026-04-29T11:52:36Z</time></trkpt><trkpt lat="43.62771330800399" lon="13.020283643290856"><ele>161.0</ele><time>2026-04-29T11:52:37Z</time></trkpt><trkpt lat="43.62780767864356" lon="13.020370448614342"><ele>160.0</ele><time>2026-04-29T11:52:38Z</time></trkpt><trkpt lat="43.62790045385938" lon="13.020458875400958"><ele>159.0</ele><time>2026-04-29T11:52:39Z</time></trkpt><trkpt lat="43.62799251518582" lon="13.020542343772371"><ele>158.0</ele><time>2026-04-29T11:52:40Z</time></trkpt><trkpt lat="43.62807798960414" lon="13.020617352817293"><ele>155.8</ele><time>2026-04-29T11:52:41Z</time></trkpt><trkpt lat="43.628160761788074" lon="13.020692860290252"><ele>153.60000000000002</ele><time>2026-04-29T11:52:42Z</time></trkpt><trkpt lat="43.62824545451199" lon="13.020759620468297"><ele>151.39999999999998</ele><time>2026-04-29T11:52:43Z</time></trkpt><trkpt lat="43.628337560474804" lon="13.020837169062819"><ele>149.2</ele><time>2026-04-29T11:52:44Z</time></trkpt><trkpt lat="43.62842689547809" lon="13.020915524450455"><ele>147.0</ele><time>2026-04-29T11:52:45Z</time></trkpt><trkpt lat="43.628509656945674" lon="13.020999811128362"><ele>146.25</ele><time>2026-04-29T11:52:46Z</time></trkpt><trkpt lat="43.62859575939782" lon="13.02109968362797"><ele>145.5</ele><time>2026-04-29T11:52:47Z</time></trkpt><trkpt lat="43.62867562021478" lon="13.02121137618938"><ele>144.75</ele><time>2026-04-29T11:52:48Z</time></trkpt><trkpt lat="43.628751133837085" lon="13.021325797756385"><ele>144.0</ele><time>2026-04-29T11:52:49Z</time></trkpt><trkpt lat="43.62882426125174" lon="13.021445905639725"><ele>142.0</ele><time>2026-04-29T11:52:50Z</time></trkpt><trkpt lat="43.62888608672656" lon="13.021562242214797"><ele>140.0</ele><time>2026-04-29T11:52:51Z</time></trkpt><trkpt lat="43.628935520760336" lon="13.021679857143694"><ele>138.0</ele><time>2026-04-29T11:52:52Z</time></trkpt><trkpt lat="43.62897494898267" lon="13.021810186876815"><ele>136.0</ele><time>2026-04-29T11:52:53Z</time></trkpt><trkpt lat="43.62900152055297" lon="13.021941179764715"><ele>134.0</ele><time>2026-04-29T11:52:54Z</time></trkpt><trkpt lat="43.62902571708116" lon="13.022067227944163"><ele>133.4</ele><time>2026-04-29T11:52:55Z</time></trkpt><trkpt lat="43.62904772889454" lon="13.02219126442906"><ele>132.8</ele><time>2026-04-29T11:52:56Z</time></trkpt><trkpt lat="43.62906663125463" lon="13.022319353730786"><ele>132.2</ele><time>2026-04-29T11:52:57Z</time></trkpt><trkpt lat="43.62908330132893" lon="13.022452389693587"><ele>131.6</ele><time>2026-04-29T11:52:58Z</time></trkpt><trkpt lat="43.62910100907235" lon="13.022589325523173"><ele>131.0</ele><time>2026-04-29T11:52:59Z</time></trkpt><trkpt lat="43.629117762146954" lon="13.022733972105405"><ele>130.0</ele><time>2026-04-29T11:53:00Z</time></trkpt><trkpt lat="43.629132761909" lon="13.022888947899355"><ele>129.0</ele><time>2026-04-29T11:53:01Z</time></trkpt><trkpt lat="43.62914640691225" lon="13.023046823470297"><ele>128.0</ele><time>2026-04-29T11:53:02Z</time></trkpt><trkpt lat="43.629150362796835" lon="13.023209205423761"><ele>127.0</ele><time>2026-04-29T11:53:03Z</time></trkpt><trkpt lat="43.629144433009174" lon="13.023372314557943"><ele>126.0</ele><time>2026-04-29T11:53:04Z</time></trkpt><trkpt lat="43.629135382289356" lon="13.023547829580577"><ele>125.0</ele><time>2026-04-29T11:53:05Z</time></trkpt><trkpt lat="43.62912071924442" lon="13.023713041878336"><ele>124.0</ele><time>2026-04-29T11:53:06Z</time></trkpt><trkpt lat="43.629097628658734" lon="13.023878514244572"><ele>123.0</ele><time>2026-04-29T11:53:07Z</time></trkpt><trkpt lat="43.629066335855846" lon="13.024034547368869"><ele>122.25</ele><time>2026-04-29T11:53:08Z</time></trkpt><trkpt lat="43.6290333682136" lon="13.024185710623872"><ele>121.5</ele><time>2026-04-29T11:53:09Z</time></trkpt><trkpt lat="43.62899136922617" lon="13.024348070386417"><ele>120.75</ele><time>2026-04-29T11:53:10Z</time></trkpt><trkpt lat="43.62895037930274" lon="13.0245158337711"><ele>120.0</ele><time>2026-04-29T11:53:11Z</time></trkpt><trkpt lat="43.62891203169773" lon="13.024680005271392"><ele>120.0</ele><time>2026-04-29T11:53:12Z</time></trkpt><trkpt lat="43.62887509821004" lon="13.024842246254586"><ele>120.0</ele><time>2026-04-29T11:53:13Z</time></trkpt><trkpt lat="43.628841791058164" lon="13.024998504984728"><ele>120.0</ele><time>2026-04-29T11:53:14Z</time></trkpt><trkpt lat="43.62882074378335" lon="13.025141858212168"><ele>120.0</ele><time>2026-04-29T11:53:15Z</time></trkpt><trkpt lat="43.628795366189834" lon="13.025262287799189"><ele>120.0</ele><time>2026-04-29T11:53:16Z</time></trkpt><trkpt lat="43.62875567348519" lon="13.02539048715145"><ele>119.33333333333333</ele><time>2026-04-29T11:53:17Z</time></trkpt><trkpt lat="43.628702228829084" lon="13.025529462714625"><ele>118.66666666666666</ele><time>2026-04-29T11:53:18Z</time></trkpt><trkpt lat="43.62866287195146" lon="13.02564685790112"><ele>118.0</ele><time>2026-04-29T11:53:19Z</time></trkpt><trkpt lat="43.62864463218976" lon="13.025758625828638"><ele>117.33333333333333</ele><time>2026-04-29T11:53:20Z</time></trkpt><trkpt lat="43.628652473578924" lon="13.025861210609415"><ele>116.66666666666666</ele><time>2026-04-29T11:53:21Z</time></trkpt><trkpt lat="43.62866970026515" lon="13.025973063177512"><ele>116.0</ele><time>2026-04-29T11:53:22Z</time></trkpt><trkpt lat="43.62868721126567" lon="13.026103783311122"><ele>116.4</ele><time>2026-04-29T11:53:23Z</time></trkpt><trkpt lat="43.62868476678284" lon="13.026247829947287"><ele>116.8</ele><time>2026-04-29T11:53:24Z</time></trkpt><trkpt lat="43.62869724793922" lon="13.026383014736131"><ele>117.20000000000002</ele><time>2026-04-29T11:53:25Z</time></trkpt><trkpt lat="43.6286830761701" lon="13.026517414859395"><ele>117.60000000000001</ele><time>2026-04-29T11:53:26Z</time></trkpt><trkpt lat="43.62866049240073" lon="13.026652061900643"><ele>118.0</ele><time>2026-04-29T11:53:27Z</time></trkpt><trkpt lat="43.628616590945725" lon="13.026761799769735"><ele>118.0</ele><time>2026-04-29T11:53:28Z</time></trkpt><trkpt lat="43.628593710290446" lon="13.026874166996317"><ele>118.00000000000001</ele><time>2026-04-29T11:53:29Z</time></trkpt><trkpt lat="43.62854098116215" lon="13.026969935206674"><ele>118.00000000000001</ele><time>2026-04-29T11:53:30Z</time></trkpt><trkpt lat="43.62846134291818" lon="13.027046279450309"><ele>118.0</ele><time>2026-04-29T11:53:31Z</time></trkpt><trkpt lat="43.62838325177224" lon="13.027145334709921"><ele>118.0</ele><time>2026-04-29T11:53:32Z</time></trkpt><trkpt lat="43.62828913846057" lon="13.027223385162154"><ele>118.0</ele><time>2026-04-29T11:53:33Z</time></trkpt><trkpt lat="43.6281840136087" lon="13.02729055424924"><ele>118.00000000000001</ele><time>2026-04-29T11:53:34Z</time></trkpt><trkpt lat="43.62808171717831" lon="13.0273545340346"><ele>118.00000000000001</ele><time>2026-04-29T11:53:35Z</time></trkpt><trkpt lat="43.62798857805285" lon="13.027406787986056"><ele>118.0</ele><time>2026-04-29T11:53:36Z</time></trkpt><trkpt lat="43.627910533563345" lon="13.027451150598557"><ele>118.0</ele><time>2026-04-29T11:53:37Z</time></trkpt><trkpt lat="43.62781319709325" lon="13.027566982306297"><ele>116.50000000000001</ele><time>2026-04-29T11:53:39Z</time></trkpt><trkpt lat="43.627793751637235" lon="13.02766133297667"><ele>115.0</ele><time>2026-04-29T11:53:40Z</time></trkpt><trkpt lat="43.62779414935582" lon="13.027754586666962"><ele>113.5</ele><time>2026-04-29T11:53:41Z</time></trkpt><trkpt lat="43.62783692161362" lon="13.027858749361128"><ele>112.0</ele><time>2026-04-29T11:53:42Z</time></trkpt><trkpt lat="43.62790953954246" lon="13.027923140711813"><ele>110.50000000000001</ele><time>2026-04-29T11:53:43Z</time></trkpt><trkpt lat="43.62796989601918" lon="13.02803300296825"><ele>109.0</ele><time>2026-04-29T11:53:44Z</time></trkpt><trkpt lat="43.62806143966422" lon="13.028161319544942"><ele>108.25</ele><time>2026-04-29T11:53:45Z</time></trkpt><trkpt lat="43.62814876330656" lon="13.028293013642138"><ele>107.5</ele><time>2026-04-29T11:53:46Z</time></trkpt><trkpt lat="43.62824941473888" lon="13.028420721568096"><ele>106.75</ele><time>2026-04-29T11:53:47Z</time></trkpt><trkpt lat="43.62832371073286" lon="13.028570599503336"><ele>106.0</ele><time>2026-04-29T11:53:48Z</time></trkpt><trkpt lat="43.62838254399541" lon="13.028695318485608"><ele>105.8</ele><time>2026-04-29T11:53:49Z</time></trkpt><trkpt lat="43.62842455147147" lon="13.028809645748725"><ele>105.6</ele><time>2026-04-29T11:53:50Z</time></trkpt><trkpt lat="43.62845141762807" lon="13.028942996238877"><ele>105.4</ele><time>2026-04-29T11:53:51Z</time></trkpt><trkpt lat="43.62845500208975" lon="13.029092926442896"><ele>105.2</ele><time>2026-04-29T11:53:52Z</time></trkpt><trkpt lat="43.62847923813864" lon="13.029239808919613"><ele>105.0</ele><time>2026-04-29T11:53:53Z</time></trkpt><trkpt lat="43.62851043053164" lon="13.029395481249631"><ele>105.4</ele><time>2026-04-29T11:53:54Z</time></trkpt><trkpt lat="43.6285651965491" lon="13.029525622180417"><ele>105.8</ele><time>2026-04-29T11:53:55Z</time></trkpt><trkpt lat="43.62861100938967" lon="13.029652896653594"><ele>106.19999999999999</ele><time>2026-04-29T11:53:56Z</time></trkpt><trkpt lat="43.62866897569518" lon="13.029785199700076"><ele>106.6</ele><time>2026-04-29T11:53:57Z</time></trkpt><trkpt lat="43.628736660608595" lon="13.029918188022313"><ele>107.0</ele><time>2026-04-29T11:53:58Z</time></trkpt><trkpt lat="43.62880858174937" lon="13.030046927796645"><ele>105.25</ele><time>2026-04-29T11:53:59Z</time></trkpt><trkpt lat="43.628884635296565" lon="13.030173434392932"><ele>103.5</ele><time>2026-04-29T11:54:00Z</time></trkpt><trkpt lat="43.62896624456534" lon="13.030298509457706"><ele>101.75</ele><time>2026-04-29T11:54:01Z</time></trkpt><trkpt lat="43.62904661933247" lon="13.030420813362019"><ele>100.0</ele><time>2026-04-29T11:54:02Z</time></trkpt><trkpt lat="43.629128003570486" lon="13.030546738049507"><ele>100.0</ele><time>2026-04-29T11:54:03Z</time></trkpt><trkpt lat="43.62920481805092" lon="13.030667282627117"><ele>100.0</ele><time>2026-04-29T11:54:04Z</time></trkpt><trkpt lat="43.62927746536276" lon="13.030757055567356"><ele>100.0</ele><time>2026-04-29T11:54:05Z</time></trkpt><trkpt lat="43.629358525430156" lon="13.030836872913282"><ele>100.0</ele><time>2026-04-29T11:54:06Z</time></trkpt><trkpt lat="43.62945858713428" lon="13.03091613696555"><ele>100.0</ele><time>2026-04-29T11:54:07Z</time></trkpt><trkpt lat="43.629561738340904" lon="13.030997414565975"><ele>99.5</ele><time>2026-04-29T11:54:08Z</time></trkpt><trkpt lat="43.6296493868317" lon="13.031106247867152"><ele>99.0</ele><time>2026-04-29T11:54:09Z</time></trkpt><trkpt lat="43.629749051712466" lon="13.031204340484376"><ele>98.5</ele><time>2026-04-29T11:54:10Z</time></trkpt><trkpt lat="43.62986338527776" lon="13.031290593716747"><ele>98.0</ele><time>2026-04-29T11:54:11Z</time></trkpt><trkpt lat="43.62996720335305" lon="13.031404600923333"><ele>98.0</ele><time>2026-04-29T11:54:12Z</time></trkpt><trkpt lat="43.630065640546974" lon="13.031515144630163"><ele>98.0</ele><time>2026-04-29T11:54:13Z</time></trkpt><trkpt lat="43.63015947595954" lon="13.031632590405462"><ele>98.0</ele><time>2026-04-29T11:54:14Z</time></trkpt><trkpt lat="43.63024923899808" lon="13.031762670317878"><ele>98.0</ele><time>2026-04-29T11:54:15.001Z</time></trkpt><trkpt lat="43.630338764594526" lon="13.031886552026227"><ele>100.80000000000001</ele><time>2026-04-29T11:54:16.001Z</time></trkpt><trkpt lat="43.63041375663838" lon="13.031997816726417"><ele>103.6</ele><time>2026-04-29T11:54:17.001Z</time></trkpt><trkpt lat="43.63048136086298" lon="13.032109808991994"><ele>106.39999999999999</ele><time>2026-04-29T11:54:18.001Z</time></trkpt><trkpt lat="43.63053829935259" lon="13.03221839301154"><ele>109.19999999999999</ele><time>2026-04-29T11:54:19.001Z</time></trkpt><trkpt lat="43.630578643997545" lon="13.032313458496395"><ele>112.0</ele><time>2026-04-29T11:54:20.001Z</time></trkpt><trkpt lat="43.63060325071791" lon="13.032413395939786"><ele>111.00000000000001</ele><time>2026-04-29T11:54:21.001Z</time></trkpt><trkpt lat="43.63065041770088" lon="13.032504226261944"><ele>110.0</ele><time>2026-04-29T11:54:22.001Z</time></trkpt><trkpt lat="43.63071296574255" lon="13.032584415061505"><ele>109.0</ele><time>2026-04-29T11:54:23.001Z</time></trkpt><trkpt lat="43.63078752184436" lon="13.03264659521373"><ele>108.0</ele><time>2026-04-29T11:54:24.001Z</time></trkpt><trkpt lat="43.630872642695145" lon="13.03268962311214"><ele>107.00000000000001</ele><time>2026-04-29T11:54:25.001Z</time></trkpt><trkpt lat="43.630960061385196" lon="13.032752423157442"><ele>106.0</ele><time>2026-04-29T11:54:26.001Z</time></trkpt><trkpt lat="43.63105117291079" lon="13.032818387967263"><ele>109.25</ele><time>2026-04-29T11:54:27.001Z</time></trkpt><trkpt lat="43.63114303987084" lon="13.032898897296985"><ele>112.5</ele><time>2026-04-29T11:54:28.001Z</time></trkpt><trkpt lat="43.63121983146046" lon="13.03300681355354"><ele>115.75</ele><time>2026-04-29T11:54:29.001Z</time></trkpt><trkpt lat="43.63131154454186" lon="13.03311338141061"><ele>119.0</ele><time>2026-04-29T11:54:30.001Z</time></trkpt><trkpt lat="43.631406003959206" lon="13.03322147254935"><ele>117.0</ele><time>2026-04-29T11:54:31.001Z</time></trkpt><trkpt lat="43.631502399066534" lon="13.033330276384387"><ele>115.0</ele><time>2026-04-29T11:54:32.001Z</time></trkpt><trkpt lat="43.63161249834843" lon="13.033419817762868"><ele>113.0</ele><time>2026-04-29T11:54:33.001Z</time></trkpt><trkpt lat="43.63171803295497" lon="13.033528467781473"><ele>111.0</ele><time>2026-04-29T11:54:34.001Z</time></trkpt><trkpt lat="43.63181502120548" lon="13.033649137163724"><ele>111.0</ele><time>2026-04-29T11:54:35.001Z</time></trkpt><trkpt lat="43.63192950795472" lon="13.033741073401897"><ele>111.0</ele><time>2026-04-29T11:54:36.001Z</time></trkpt><trkpt lat="43.63203906230477" lon="13.033849467359921"><ele>111.0</ele><time>2026-04-29T11:54:37.001Z</time></trkpt><trkpt lat="43.63214345364352" lon="13.033963557282126"><ele>111.0</ele><time>2026-04-29T11:54:38.001Z</time></trkpt><trkpt lat="43.632245709983046" lon="13.03407430581828"><ele>111.5</ele><time>2026-04-29T11:54:39.001Z</time></trkpt><trkpt lat="43.63235649852963" lon="13.034165401447767"><ele>112.0</ele><time>2026-04-29T11:54:40.001Z</time></trkpt><trkpt lat="43.63245259940486" lon="13.034261728819011"><ele>112.5</ele><time>2026-04-29T11:54:41.001Z</time></trkpt><trkpt lat="43.63255463468776" lon="13.034302348734153"><ele>113.0</ele><time>2026-04-29T11:54:42.001Z</time></trkpt><trkpt lat="43.63264667426526" lon="13.03435756400756"><ele>113.0</ele><time>2026-04-29T11:54:43.001Z</time></trkpt><trkpt lat="43.63274233951435" lon="13.034416825109908"><ele>113.00000000000001</ele><time>2026-04-29T11:54:44.001Z</time></trkpt><trkpt lat="43.632834573615234" lon="13.034497854591823"><ele>113.00000000000001</ele><time>2026-04-29T11:54:45.001Z</time></trkpt><trkpt lat="43.6329349838541" lon="13.034565318747005"><ele>113.0</ele><time>2026-04-29T11:54:46.001Z</time></trkpt><trkpt lat="43.63304068056771" lon="13.034629934134635"><ele>113.0</ele><time>2026-04-29T11:54:47.001Z</time></trkpt><trkpt lat="43.633156591098164" lon="13.034654676646301"><ele>115.25</ele><time>2026-04-29T11:54:48.001Z</time></trkpt><trkpt lat="43.63327044217525" lon="13.03468912252679"><ele>117.5</ele><time>2026-04-29T11:54:49.001Z</time></trkpt><trkpt lat="43.63338876893435" lon="13.034713094374405"><ele>119.75</ele><time>2026-04-29T11:54:50.001Z</time></trkpt><trkpt lat="43.633510776795724" lon="13.03472896116534"><ele>122.0</ele><time>2026-04-29T11:54:51.001Z</time></trkpt><trkpt lat="43.63363512160462" lon="13.034748999143567"><ele>125.0</ele><time>2026-04-29T11:54:52.001Z</time></trkpt><trkpt lat="43.63375335084034" lon="13.03480577244724"><ele>128.0</ele><time>2026-04-29T11:54:53.001Z</time></trkpt><trkpt lat="43.6338747507063" lon="13.034849375163885"><ele>131.0</ele><time>2026-04-29T11:54:54.001Z</time></trkpt><trkpt lat="43.63399487336769" lon="13.034892519093633"><ele>134.0</ele><time>2026-04-29T11:54:55.001Z</time></trkpt><trkpt lat="43.63411828692482" lon="13.03491562855562"><ele>134.0</ele><time>2026-04-29T11:54:56.001Z</time></trkpt><trkpt lat="43.634240600628864" lon="13.034952172604225"><ele>134.0</ele><time>2026-04-29T11:54:57.001Z</time></trkpt><trkpt lat="43.634355160246656" lon="13.034991622349999"><ele>134.0</ele><time>2026-04-29T11:54:58.001Z</time></trkpt><trkpt lat="43.6344682872209" lon="13.03505164081724"><ele>134.0</ele><time>2026-04-29T11:54:59.001Z</time></trkpt><trkpt lat="43.63458863356697" lon="13.035072786961932"><ele>134.0</ele><time>2026-04-29T11:55:00.001Z</time></trkpt><trkpt lat="43.63470387874831" lon="13.035121049529758"><ele>134.0</ele><time>2026-04-29T11:55:01.001Z</time></trkpt><trkpt lat="43.63482187067206" lon="13.035171455158451"><ele>134.0</ele><time>2026-04-29T11:55:02Z</time></trkpt><trkpt lat="43.634942047635974" lon="13.035218190760144"><ele>134.0</ele><time>2026-04-29T11:55:03Z</time></trkpt><trkpt lat="43.63506061723056" lon="13.035262996057616"><ele>134.0</ele><time>2026-04-29T11:55:04Z</time></trkpt><trkpt lat="43.635178957918896" lon="13.035315496084843"><ele>134.0</ele><time>2026-04-29T11:55:05Z</time></trkpt><trkpt lat="43.63528999618512" lon="13.035390609874073"><ele>134.0</ele><time>2026-04-29T11:55:06Z</time></trkpt><trkpt lat="43.63537089639198" lon="13.035499198455632"><ele>134.0</ele><time>2026-04-29T11:55:07Z</time></trkpt><trkpt lat="43.63543221084324" lon="13.035612167348123"><ele>134.6</ele><time>2026-04-29T11:55:08Z</time></trkpt><trkpt lat="43.635490623856946" lon="13.03573775262707"><ele>135.2</ele><time>2026-04-29T11:55:09Z</time></trkpt><trkpt lat="43.63555534842649" lon="13.035856058785566"><ele>135.79999999999998</ele><time>2026-04-29T11:55:10Z</time></trkpt><trkpt lat="43.635635252944255" lon="13.03594353091318"><ele>136.4</ele><time>2026-04-29T11:55:11Z</time></trkpt><trkpt lat="43.63570719551259" lon="13.036046909500762"><ele>137.0</ele><time>2026-04-29T11:55:12Z</time></trkpt><trkpt lat="43.635783253628084" lon="13.036155890611841"><ele>137.0</ele><time>2026-04-29T11:55:13Z</time></trkpt><trkpt lat="43.63586360715026" lon="13.036257665398061"><ele>137.0</ele><time>2026-04-29T11:55:14Z</time></trkpt><trkpt lat="43.63594193141543" lon="13.036367891429142"><ele>137.0</ele><time>2026-04-29T11:55:15Z</time></trkpt><trkpt lat="43.63602621922777" lon="13.03648332828564"><ele>137.0</ele><time>2026-04-29T11:55:16Z</time></trkpt><trkpt lat="43.6361149846248" lon="13.036599455217257"><ele>138.5</ele><time>2026-04-29T11:55:17Z</time></trkpt><trkpt lat="43.636203809320975" lon="13.036723125721059"><ele>140.0</ele><time>2026-04-29T11:55:18Z</time></trkpt><trkpt lat="43.63629726463752" lon="13.036847179924345"><ele>141.5</ele><time>2026-04-29T11:55:19Z</time></trkpt><trkpt lat="43.63638199328911" lon="13.036972798254904"><ele>143.0</ele><time>2026-04-29T11:55:20Z</time></trkpt><trkpt lat="43.6364518856635" lon="13.037116878286332"><ele>143.0</ele><time>2026-04-29T11:55:21Z</time></trkpt><trkpt lat="43.636528191211504" lon="13.037257670968737"><ele>143.0</ele><time>2026-04-29T11:55:22Z</time></trkpt><trkpt lat="43.63660163728336" lon="13.037400829447952"><ele>143.0</ele><time>2026-04-29T11:55:23Z</time></trkpt><trkpt lat="43.636681477329816" lon="13.03753887118226"><ele>143.0</ele><time>2026-04-29T11:55:24Z</time></trkpt><trkpt lat="43.636746974591425" lon="13.037686684787824"><ele>143.0</ele><time>2026-04-29T11:55:25Z</time></trkpt><trkpt lat="43.636818728213996" lon="13.037823607203386"><ele>143.0</ele><time>2026-04-29T11:55:26Z</time></trkpt><trkpt lat="43.63689611525992" lon="13.037960572585115"><ele>143.0</ele><time>2026-04-29T11:55:27Z</time></trkpt><trkpt lat="43.63697419821319" lon="13.038080702193906"><ele>143.0</ele><time>2026-04-29T11:55:28Z</time></trkpt><trkpt lat="43.63706486042888" lon="13.038186319449533"><ele>145.8</ele><time>2026-04-29T11:55:29Z</time></trkpt><trkpt lat="43.63714790107234" lon="13.03829250626284"><ele>148.60000000000002</ele><time>2026-04-29T11:55:30Z</time></trkpt><trkpt lat="43.63723193846345" lon="13.038393157679257"><ele>151.39999999999998</ele><time>2026-04-29T11:55:31Z</time></trkpt><trkpt lat="43.637313919114675" lon="13.03849543579774"><ele>154.2</ele><time>2026-04-29T11:55:32Z</time></trkpt><trkpt lat="43.6373948386373" lon="13.03860208438389"><ele>157.0</ele><time>2026-04-29T11:55:33Z</time></trkpt><trkpt lat="43.637469042562984" lon="13.038705507690324"><ele>157.6</ele><time>2026-04-29T11:55:34Z</time></trkpt><trkpt lat="43.63753514376152" lon="13.038809584902333"><ele>158.2</ele><time>2026-04-29T11:55:35Z</time></trkpt><trkpt lat="43.63758837684049" lon="13.038916770266898"><ele>158.8</ele><time>2026-04-29T11:55:36Z</time></trkpt><trkpt lat="43.63761091147715" lon="13.039054846522905"><ele>159.4</ele><time>2026-04-29T11:55:37Z</time></trkpt><trkpt lat="43.63765642102737" lon="13.039176791917642"><ele>160.0</ele><time>2026-04-29T11:55:38Z</time></trkpt><trkpt lat="43.63768067003953" lon="13.039310654060024"><ele>161.2</ele><time>2026-04-29T11:55:39Z</time></trkpt><trkpt lat="43.63771576287647" lon="13.039411581609013"><ele>162.4</ele><time>2026-04-29T11:55:40Z</time></trkpt><trkpt lat="43.63777114406426" lon="13.039512520098995"><ele>163.60000000000002</ele><time>2026-04-29T11:55:41Z</time></trkpt><trkpt lat="43.63784530687196" lon="13.039594797629606"><ele>164.8</ele><time>2026-04-29T11:55:42Z</time></trkpt><trkpt lat="43.63793462928157" lon="13.039662582352621"><ele>166.0</ele><time>2026-04-29T11:55:43Z</time></trkpt><trkpt lat="43.63802777846476" lon="13.039733696556699"><ele>167.60000000000002</ele><time>2026-04-29T11:55:44Z</time></trkpt><trkpt lat="43.638123393129675" lon="13.039806005781964"><ele>169.2</ele><time>2026-04-29T11:55:45Z</time></trkpt><trkpt lat="43.638214456239325" lon="13.039883181984592"><ele>170.8</ele><time>2026-04-29T11:55:46Z</time></trkpt><trkpt lat="43.63830569115129" lon="13.039956662503444"><ele>172.39999999999998</ele><time>2026-04-29T11:55:47Z</time></trkpt><trkpt lat="43.63839758561478" lon="13.04001808300745"><ele>174.0</ele><time>2026-04-29T11:55:48Z</time></trkpt><trkpt lat="43.63849313081054" lon="13.040065486722224"><ele>174.16666666666666</ele><time>2026-04-29T11:55:49Z</time></trkpt><trkpt lat="43.638580429920694" lon="13.04010506552381"><ele>174.33333333333334</ele><time>2026-04-29T11:55:50Z</time></trkpt><trkpt lat="43.63866796563137" lon="13.040125373768534"><ele>174.5</ele><time>2026-04-29T11:55:52Z</time></trkpt><trkpt lat="43.63873173369532" lon="13.040147092420403"><ele>174.66666666666669</ele><time>2026-04-29T11:56:40Z</time></trkpt><trkpt lat="43.63882705019941" lon="13.040114109430036"><ele>174.83333333333334</ele><time>2026-04-29T11:56:42Z</time></trkpt><trkpt lat="43.63885789089092" lon="13.040191768428615"><ele>175.0</ele><time>2026-04-29T11:56:43Z</time></trkpt><trkpt lat="43.63893286410013" lon="13.040284468969432"><ele>174.5</ele><time>2026-04-29T11:56:45Z</time></trkpt><trkpt lat="43.63903946207668" lon="13.040414827977763"><ele>174.0</ele><time>2026-04-29T11:56:47Z</time></trkpt><trkpt lat="43.639107867970885" lon="13.040498481734623"><ele>173.5</ele><time>2026-04-29T11:56:48Z</time></trkpt><trkpt lat="43.639188154439864" lon="13.040590558157557"><ele>173.0</ele><time>2026-04-29T11:56:49Z</time></trkpt><trkpt lat="43.63927554024352" lon="13.040690728675179"><ele>173.0</ele><time>2026-04-29T11:56:50Z</time></trkpt><trkpt lat="43.639367786009664" lon="13.040771577132007"><ele>173.0</ele><time>2026-04-29T11:56:51Z</time></trkpt><trkpt lat="43.639423990861076" lon="13.040859500819298"><ele>173.0</ele><time>2026-04-29T11:56:52Z</time></trkpt><trkpt lat="43.63945957258659" lon="13.040949599980186"><ele>173.0</ele><time>2026-04-29T11:56:53Z</time></trkpt><trkpt lat="43.63948007177976" lon="13.041047005422378"><ele>173.0</ele><time>2026-04-29T11:56:54Z</time></trkpt><trkpt lat="43.63944559575632" lon="13.041148386819756"><ele>173.0</ele><time>2026-04-29T11:56:55Z</time></trkpt><trkpt lat="43.639425510521484" lon="13.041269470276866"><ele>172.4</ele><time>2026-04-29T11:56:56Z</time></trkpt><trkpt lat="43.63940821966009" lon="13.041411007626536"><ele>171.8</ele><time>2026-04-29T11:56:57Z</time></trkpt><trkpt lat="43.63937641915357" lon="13.041539365428552"><ele>171.2</ele><time>2026-04-29T11:56:58Z</time></trkpt><trkpt lat="43.63937819731441" lon="13.041658927353035"><ele>170.6</ele><time>2026-04-29T11:56:59Z</time></trkpt><trkpt lat="43.63942339172225" lon="13.041775504917613"><ele>170.0</ele><time>2026-04-29T11:57:00Z</time></trkpt><trkpt lat="43.63951236211142" lon="13.041854423305747"><ele>167.0</ele><time>2026-04-29T11:57:01Z</time></trkpt><trkpt lat="43.639608809238986" lon="13.041941357594588"><ele>164.0</ele><time>2026-04-29T11:57:02Z</time></trkpt><trkpt lat="43.63970027097796" lon="13.042053913261576"><ele>161.0</ele><time>2026-04-29T11:57:03Z</time></trkpt><trkpt lat="43.63980524380684" lon="13.042148036965557"><ele>158.0</ele><time>2026-04-29T11:57:04Z</time></trkpt><trkpt lat="43.63990624662734" lon="13.04223254771501"><ele>158.0</ele><time>2026-04-29T11:57:05Z</time></trkpt><trkpt lat="43.64000808209824" lon="13.04231604932103"><ele>158.0</ele><time>2026-04-29T11:57:06Z</time></trkpt><trkpt lat="43.64011497201275" lon="13.042404310155025"><ele>158.0</ele><time>2026-04-29T11:57:07Z</time></trkpt><trkpt lat="43.640223324858205" lon="13.042499589070138"><ele>158.0</ele><time>2026-04-29T11:57:08Z</time></trkpt><trkpt lat="43.64031557803981" lon="13.0426004136845"><ele>155.25</ele><time>2026-04-29T11:57:09Z</time></trkpt><trkpt lat="43.640407250176395" lon="13.042695090750069"><ele>152.5</ele><time>2026-04-29T11:57:10Z</time></trkpt><trkpt lat="43.64049975838341" lon="13.042785009291546"><ele>149.75</ele><time>2026-04-29T11:57:11Z</time></trkpt><trkpt lat="43.64060710636403" lon="13.042855949868354"><ele>147.0</ele><time>2026-04-29T11:57:12Z</time></trkpt><trkpt lat="43.640707730724145" lon="13.042940968350752"><ele>147.0</ele><time>2026-04-29T11:57:13Z</time></trkpt><trkpt lat="43.64080509893161" lon="13.043011212399934"><ele>147.0</ele><time>2026-04-29T11:57:14Z</time></trkpt><trkpt lat="43.64088945822746" lon="13.043084742905164"><ele>147.0</ele><time>2026-04-29T11:57:15Z</time></trkpt><trkpt lat="43.641003609043324" lon="13.043116172418214"><ele>147.0</ele><time>2026-04-29T11:57:16Z</time></trkpt><trkpt lat="43.64111648884756" lon="13.043114334265542"><ele>147.0</ele><time>2026-04-29T11:57:17Z</time></trkpt><trkpt lat="43.64124358555065" lon="13.043096212878748"><ele>143.5</ele><time>2026-04-29T11:57:18Z</time></trkpt><trkpt lat="43.64135927162989" lon="13.043060471269323"><ele>140.0</ele><time>2026-04-29T11:57:19Z</time></trkpt><trkpt lat="43.6414791041932" lon="13.043077023477169"><ele>136.5</ele><time>2026-04-29T11:57:20Z</time></trkpt><trkpt lat="43.64159744310981" lon="13.043117991444275"><ele>133.0</ele><time>2026-04-29T11:57:21Z</time></trkpt><trkpt lat="43.64171205144317" lon="13.043202951687624"><ele>133.0</ele><time>2026-04-29T11:57:22Z</time></trkpt><trkpt lat="43.641837579555535" lon="13.043280753282101"><ele>133.0</ele><time>2026-04-29T11:57:23Z</time></trkpt><trkpt lat="43.64196533721042" lon="13.043362276218877"><ele>133.0</ele><time>2026-04-29T11:57:24Z</time></trkpt><trkpt lat="43.64209918422891" lon="13.043435361729047"><ele>133.0</ele><time>2026-04-29T11:57:25Z</time></trkpt><trkpt lat="43.64223403429052" lon="13.043515225899773"><ele>131.0</ele><time>2026-04-29T11:57:26Z</time></trkpt><trkpt lat="43.64236040465076" lon="13.043602722920149"><ele>129.0</ele><time>2026-04-29T11:57:27Z</time></trkpt><trkpt lat="43.64248260319594" lon="13.043684847150626"><ele>127.0</ele><time>2026-04-29T11:57:28Z</time></trkpt><trkpt lat="43.64260108277528" lon="13.04377076957531"><ele>125.0</ele><time>2026-04-29T11:57:29Z</time></trkpt><trkpt lat="43.642713965218924" lon="13.04386356870475"><ele>123.75</ele><time>2026-04-29T11:57:30Z</time></trkpt><trkpt lat="43.64281796780269" lon="13.043960347527134"><ele>122.5</ele><time>2026-04-29T11:57:31Z</time></trkpt><trkpt lat="43.642914069255454" lon="13.044049793455583"><ele>121.25</ele><time>2026-04-29T11:57:32Z</time></trkpt><trkpt lat="43.64301053556431" lon="13.04414798391481"><ele>120.0</ele><time>2026-04-29T11:57:33Z</time></trkpt><trkpt lat="43.64310091487081" lon="13.044251510808065"><ele>120.0</ele><time>2026-04-29T11:57:34Z</time></trkpt><trkpt lat="43.64319118987358" lon="13.044369309454982"><ele>120.0</ele><time>2026-04-29T11:57:35Z</time></trkpt><trkpt lat="43.64328172620312" lon="13.044492904629426"><ele>120.0</ele><time>2026-04-29T11:57:36Z</time></trkpt><trkpt lat="43.6433680304696" lon="13.044609100965431"><ele>120.0</ele><time>2026-04-29T11:57:37Z</time></trkpt><trkpt lat="43.643447180060356" lon="13.044713498639812"><ele>120.0</ele><time>2026-04-29T11:57:38Z</time></trkpt><trkpt lat="43.643518400306576" lon="13.044834401094503"><ele>120.0</ele><time>2026-04-29T11:57:39Z</time></trkpt><trkpt lat="43.64360508266452" lon="13.044932537487647"><ele>120.0</ele><time>2026-04-29T11:57:40Z</time></trkpt><trkpt lat="43.643703351510005" lon="13.045016438869613"><ele>120.0</ele><time>2026-04-29T11:57:41Z</time></trkpt><trkpt lat="43.64380452326163" lon="13.045097296274525"><ele>117.75</ele><time>2026-04-29T11:57:42Z</time></trkpt><trkpt lat="43.64391577444716" lon="13.045182332874852"><ele>115.5</ele><time>2026-04-29T11:57:43Z</time></trkpt><trkpt lat="43.64403485800885" lon="13.045269297419317"><ele>113.25</ele><time>2026-04-29T11:57:44Z</time></trkpt><trkpt lat="43.6441628502134" lon="13.04536255229738"><ele>111.0</ele><time>2026-04-29T11:57:45Z</time></trkpt><trkpt lat="43.64429313933511" lon="13.04544928230343"><ele>111.0</ele><time>2026-04-29T11:57:46Z</time></trkpt><trkpt lat="43.644422989187916" lon="13.045527730685654"><ele>111.0</ele><time>2026-04-29T11:57:47Z</time></trkpt><trkpt lat="43.64455382316929" lon="13.045580369373207"><ele>111.0</ele><time>2026-04-29T11:57:48Z</time></trkpt><trkpt lat="43.64467846318603" lon="13.04564928560887"><ele>111.0</ele><time>2026-04-29T11:57:49Z</time></trkpt><trkpt lat="43.64480738608918" lon="13.0457178200099"><ele>112.0</ele><time>2026-04-29T11:57:50Z</time></trkpt><trkpt lat="43.64493870659405" lon="13.045792070663426"><ele>113.0</ele><time>2026-04-29T11:57:51Z</time></trkpt><trkpt lat="43.64507025947151" lon="13.045879309789216"><ele>114.0</ele><time>2026-04-29T11:57:52Z</time></trkpt><trkpt lat="43.6451987689806" lon="13.04598144446876"><ele>115.0</ele><time>2026-04-29T11:57:53Z</time></trkpt><trkpt lat="43.64531560312985" lon="13.04609710444769"><ele>115.0</ele><time>2026-04-29T11:57:54Z</time></trkpt><trkpt lat="43.64542199482096" lon="13.046231819473794"><ele>115.0</ele><time>2026-04-29T11:57:55Z</time></trkpt><trkpt lat="43.64551621341399" lon="13.046371525918827"><ele>115.0</ele><time>2026-04-29T11:57:56Z</time></trkpt><trkpt lat="43.6456061387752" lon="13.046515114125327"><ele>115.0</ele><time>2026-04-29T11:57:57Z</time></trkpt><trkpt lat="43.645696145660644" lon="13.046664604202247"><ele>115.5</ele><time>2026-04-29T11:57:58Z</time></trkpt><trkpt lat="43.645778115795665" lon="13.046818142363705"><ele>116.0</ele><time>2026-04-29T11:57:59Z</time></trkpt><trkpt lat="43.64585216978065" lon="13.046973894358505"><ele>116.5</ele><time>2026-04-29T11:58:00Z</time></trkpt><trkpt lat="43.64592157627437" lon="13.047125121012527"><ele>117.0</ele><time>2026-04-29T11:58:01Z</time></trkpt><trkpt lat="43.64599375026172" lon="13.047273083243846"><ele>117.0</ele><time>2026-04-29T11:58:02Z</time></trkpt><trkpt lat="43.646077924142226" lon="13.047417282239083"><ele>117.0</ele><time>2026-04-29T11:58:03Z</time></trkpt><trkpt lat="43.646171671876836" lon="13.047546316275017"><ele>117.0</ele><time>2026-04-29T11:58:04Z</time></trkpt><trkpt lat="43.64627497479673" lon="13.047659254130078"><ele>117.0</ele><time>2026-04-29T11:58:05Z</time></trkpt><trkpt lat="43.64636992261237" lon="13.047735823160695"><ele>121.25</ele><time>2026-04-29T11:58:06Z</time></trkpt><trkpt lat="43.646458566002096" lon="13.047831543007272"><ele>125.5</ele><time>2026-04-29T11:58:07Z</time></trkpt><trkpt lat="43.646562104579786" lon="13.047921736463252"><ele>129.75</ele><time>2026-04-29T11:58:08Z</time></trkpt><trkpt lat="43.64666165672805" lon="13.04801688893893"><ele>134.0</ele><time>2026-04-29T11:58:09Z</time></trkpt><trkpt lat="43.6467429587379" lon="13.048117804566257"><ele>134.0</ele><time>2026-04-29T11:58:10Z</time></trkpt><trkpt lat="43.64683495842927" lon="13.0482165913356"><ele>134.0</ele><time>2026-04-29T11:58:11Z</time></trkpt><trkpt lat="43.64691622731105" lon="13.048326251072895"><ele>134.0</ele><time>2026-04-29T11:58:12Z</time></trkpt><trkpt lat="43.64701137219424" lon="13.048429956116431"><ele>134.0</ele><time>2026-04-29T11:58:13Z</time></trkpt><trkpt lat="43.64709585484045" lon="13.048523326928944"><ele>137.6</ele><time>2026-04-29T11:58:14Z</time></trkpt><trkpt lat="43.64717029133559" lon="13.048607209287029"><ele>141.2</ele><time>2026-04-29T11:58:15Z</time></trkpt><trkpt lat="43.64723157765365" lon="13.048686708925638"><ele>144.79999999999998</ele><time>2026-04-29T11:58:16Z</time></trkpt><trkpt lat="43.64728438641201" lon="13.04874349390786"><ele>148.4</ele><time>2026-04-29T11:58:17Z</time></trkpt><trkpt lat="43.64735413280511" lon="13.04882910856212"><ele>152.0</ele><time>2026-04-29T11:58:19Z</time></trkpt><trkpt lat="43.64744366227148" lon="13.048945904304357"><ele>152.0</ele><time>2026-04-29T11:58:21Z</time></trkpt><trkpt lat="43.64750198440474" lon="13.049028740870519"><ele>152.0</ele><time>2026-04-29T11:58:22Z</time></trkpt><trkpt lat="43.647563752555854" lon="13.049108345661432"><ele>152.0</ele><time>2026-04-29T11:58:23Z</time></trkpt><trkpt lat="43.647619894449114" lon="13.049194280127596"><ele>152.0</ele><time>2026-04-29T11:58:24Z</time></trkpt><trkpt lat="43.64766125319432" lon="13.049294798466619"><ele>152.0</ele><time>2026-04-29T11:58:25Z</time></trkpt><trkpt lat="43.64771380227986" lon="13.04935068180829"><ele>152.0</ele><time>2026-04-29T11:58:26Z</time></trkpt><trkpt lat="43.64775005287789" lon="13.049422297567565"><ele>153.33333333333331</ele><time>2026-04-29T11:58:27Z</time></trkpt><trkpt lat="43.64781483094508" lon="13.049531180380406"><ele>154.66666666666666</ele><time>2026-04-29T11:58:29Z</time></trkpt><trkpt lat="43.64786209364004" lon="13.049631825972522"><ele>156.0</ele><time>2026-04-29T11:58:31Z</time></trkpt><trkpt lat="43.647894372049564" lon="13.049707726857712"><ele>157.33333333333334</ele><time>2026-04-29T11:58:33Z</time></trkpt><trkpt lat="43.647939298593094" lon="13.04980151835659"><ele>158.66666666666669</ele><time>2026-04-29T11:58:37Z</time></trkpt><trkpt lat="43.6479217413241" lon="13.049904757414605"><ele>160.0</ele><time>2026-04-29T11:58:40Z</time></trkpt><trkpt lat="43.64787739750686" lon="13.050007697306599"><ele>160.0</ele><time>2026-04-29T11:58:42Z</time></trkpt><trkpt lat="43.64787457605599" lon="13.050098911724918"><ele>160.0</ele><time>2026-04-29T11:58:48Z</time></trkpt><trkpt lat="43.647842585889634" lon="13.050203586925205"><ele>160.0</ele><time>2026-04-29T11:58:50Z</time></trkpt><trkpt lat="43.6477996036661" lon="13.05026765814657"><ele>160.0</ele><time>2026-04-29T11:58:51Z</time></trkpt><trkpt lat="43.64774178786883" lon="13.050344931138117"><ele>160.0</ele><time>2026-04-29T11:58:52Z</time></trkpt><trkpt lat="43.64767637579175" lon="13.050427888803592"><ele>160.0</ele><time>2026-04-29T11:58:53Z</time></trkpt><trkpt lat="43.64760423727435" lon="13.050521184833785"><ele>159.6</ele><time>2026-04-29T11:58:54Z</time></trkpt><trkpt lat="43.647529904996894" lon="13.050617446663916"><ele>159.2</ele><time>2026-04-29T11:58:55Z</time></trkpt><trkpt lat="43.64745712892009" lon="13.050713713589767"><ele>158.8</ele><time>2026-04-29T11:58:56Z</time></trkpt><trkpt lat="43.64738739692639" lon="13.050809917164274"><ele>158.4</ele><time>2026-04-29T11:58:57Z</time></trkpt><trkpt lat="43.64732866452471" lon="13.050896716190966"><ele>158.0</ele><time>2026-04-29T11:58:58Z</time></trkpt><trkpt lat="43.647276650002105" lon="13.050978957310804"><ele>158.0</ele><time>2026-04-29T11:58:59Z</time></trkpt><trkpt lat="43.64722996418317" lon="13.05105644871711"><ele>158.0</ele><time>2026-04-29T11:59:00Z</time></trkpt><trkpt lat="43.64718748672028" lon="13.051124547518903"><ele>158.0</ele><time>2026-04-29T11:59:01Z</time></trkpt><trkpt lat="43.647141355959164" lon="13.051199940914675"><ele>158.0</ele><time>2026-04-29T11:59:02Z</time></trkpt><trkpt lat="43.64709151763773" lon="13.051286321150206"><ele>158.0</ele><time>2026-04-29T11:59:03Z</time></trkpt><trkpt lat="43.64703512823842" lon="13.051387830090102"><ele>158.0</ele><time>2026-04-29T11:59:04Z</time></trkpt><trkpt lat="43.646963254709405" lon="13.05149921338818"><ele>157.75</ele><time>2026-04-29T11:59:05Z</time></trkpt><trkpt lat="43.64688707665002" lon="13.051614926924813"><ele>157.5</ele><time>2026-04-29T11:59:06Z</time></trkpt><trkpt lat="43.64680304684035" lon="13.051739539496358"><ele>157.25</ele><time>2026-04-29T11:59:07Z</time></trkpt><trkpt lat="43.646717664402644" lon="13.051871550590565"><ele>157.0</ele><time>2026-04-29T11:59:08Z</time></trkpt><trkpt lat="43.64663005409623" lon="13.052004918622163"><ele>156.25</ele><time>2026-04-29T11:59:09Z</time></trkpt><trkpt lat="43.646545765078" lon="13.052131590998124"><ele>155.5</ele><time>2026-04-29T11:59:10Z</time></trkpt><trkpt lat="43.64646245028775" lon="13.052256555922172"><ele>154.75</ele><time>2026-04-29T11:59:11Z</time></trkpt><trkpt lat="43.64637893046761" lon="13.052381471954682"><ele>154.0</ele><time>2026-04-29T11:59:12Z</time></trkpt><trkpt lat="43.646292852605065" lon="13.052504668589549"><ele>152.8</ele><time>2026-04-29T11:59:13Z</time></trkpt><trkpt lat="43.64621274177275" lon="13.052619671887236"><ele>151.60000000000002</ele><time>2026-04-29T11:59:14Z</time></trkpt><trkpt lat="43.64613677825226" lon="13.052728153545326"><ele>150.4</ele><time>2026-04-29T11:59:15Z</time></trkpt><trkpt lat="43.646066594719635" lon="13.052830838117709"><ele>149.20000000000002</ele><time>2026-04-29T11:59:16Z</time></trkpt><trkpt lat="43.64599361497457" lon="13.052930749417387"><ele>148.0</ele><time>2026-04-29T11:59:17Z</time></trkpt><trkpt lat="43.645905750420646" lon="13.053036675930421"><ele>147.5</ele><time>2026-04-29T11:59:18Z</time></trkpt><trkpt lat="43.64580943340789" lon="13.053136351366984"><ele>147.0</ele><time>2026-04-29T11:59:19Z</time></trkpt><trkpt lat="43.64570803078425" lon="13.053230418461208"><ele>146.5</ele><time>2026-04-29T11:59:20Z</time></trkpt><trkpt lat="43.64560889861283" lon="13.053308436535938"><ele>146.0</ele><time>2026-04-29T11:59:21Z</time></trkpt><trkpt lat="43.64551441440335" lon="13.053381195967843"><ele>146.0</ele><time>2026-04-29T11:59:22Z</time></trkpt><trkpt lat="43.64542279583778" lon="13.053451338274616"><ele>146.0</ele><time>2026-04-29T11:59:23Z</time></trkpt><trkpt lat="43.645334637280804" lon="13.053515720043608"><ele>146.0</ele><time>2026-04-29T11:59:24Z</time></trkpt><trkpt lat="43.645249092637634" lon="13.05358022563127"><ele>146.0</ele><time>2026-04-29T11:59:25Z</time></trkpt><trkpt lat="43.64515426147002" lon="13.05364490326722"><ele>146.0</ele><time>2026-04-29T11:59:26Z</time></trkpt><trkpt lat="43.64505047003629" lon="13.053717665979805"><ele>145.5</ele><time>2026-04-29T11:59:27Z</time></trkpt><trkpt lat="43.6449339650562" lon="13.053799960711434"><ele>145.0</ele><time>2026-04-29T11:59:28Z</time></trkpt><trkpt lat="43.64481085435363" lon="13.053889668343162"><ele>144.5</ele><time>2026-04-29T11:59:29Z</time></trkpt><trkpt lat="43.64468991543321" lon="13.053980748226826"><ele>144.0</ele><time>2026-04-29T11:59:30Z</time></trkpt><trkpt lat="43.64457021370402" lon="13.054079627097922"><ele>143.75</ele><time>2026-04-29T11:59:31Z</time></trkpt><trkpt lat="43.644455259363575" lon="13.054177879624634"><ele>143.5</ele><time>2026-04-29T11:59:32Z</time></trkpt><trkpt lat="43.64433765846463" lon="13.054287584493736"><ele>143.25</ele><time>2026-04-29T11:59:33Z</time></trkpt><trkpt lat="43.644219422558734" lon="13.054410295138176"><ele>143.0</ele><time>2026-04-29T11:59:34Z</time></trkpt><trkpt lat="43.644104505070636" lon="13.054544221081377"><ele>143.0</ele><time>2026-04-29T11:59:35Z</time></trkpt><trkpt lat="43.64399665542214" lon="13.05468706425694"><ele>143.0</ele><time>2026-04-29T11:59:36Z</time></trkpt><trkpt lat="43.64389787726889" lon="13.054824116918013"><ele>143.0</ele><time>2026-04-29T11:59:37Z</time></trkpt><trkpt lat="43.6438055357104" lon="13.054956873830578"><ele>143.0</ele><time>2026-04-29T11:59:38Z</time></trkpt><trkpt lat="43.64371034144291" lon="13.055096186277249"><ele>141.5</ele><time>2026-04-29T11:59:39Z</time></trkpt><trkpt lat="43.64361534879455" lon="13.055240388920563"><ele>140.0</ele><time>2026-04-29T11:59:40Z</time></trkpt><trkpt lat="43.64352161013296" lon="13.055386051517818"><ele>138.5</ele><time>2026-04-29T11:59:41Z</time></trkpt><trkpt lat="43.643433041849825" lon="13.055532903666963"><ele>137.0</ele><time>2026-04-29T11:59:42Z</time></trkpt><trkpt lat="43.6433445375261" lon="13.055683498521386"><ele>135.75</ele><time>2026-04-29T11:59:43Z</time></trkpt><trkpt lat="43.643254810362954" lon="13.055832486842396"><ele>134.5</ele><time>2026-04-29T11:59:44Z</time></trkpt><trkpt lat="43.64316287258167" lon="13.055981004313635"><ele>133.25</ele><time>2026-04-29T11:59:45Z</time></trkpt><trkpt lat="43.64307437094711" lon="13.056130485395823"><ele>132.0</ele><time>2026-04-29T11:59:46Z</time></trkpt><trkpt lat="43.642984688796474" lon="13.05629432174684"><ele>132.0</ele><time>2026-04-29T11:59:47Z</time></trkpt><trkpt lat="43.64289452186245" lon="13.05645321836578"><ele>132.0</ele><time>2026-04-29T11:59:48Z</time></trkpt><trkpt lat="43.642814671472095" lon="13.056601864901488"><ele>132.0</ele><time>2026-04-29T11:59:49Z</time></trkpt><trkpt lat="43.642739929094446" lon="13.05674192686058"><ele>132.0</ele><time>2026-04-29T11:59:50Z</time></trkpt><trkpt lat="43.64266510008894" lon="13.056880098680685"><ele>131.0</ele><time>2026-04-29T11:59:51Z</time></trkpt><trkpt lat="43.64259083567071" lon="13.057026154972535"><ele>130.0</ele><time>2026-04-29T11:59:52Z</time></trkpt><trkpt lat="43.64251577704076" lon="13.057172093960679"><ele>129.0</ele><time>2026-04-29T11:59:53Z</time></trkpt><trkpt lat="43.6424440058025" lon="13.057309000984334"><ele>128.0</ele><time>2026-04-29T11:59:54Z</time></trkpt><trkpt lat="43.64237454740748" lon="13.057441952329555"><ele>127.25</ele><time>2026-04-29T11:59:55Z</time></trkpt><trkpt lat="43.64230365056922" lon="13.057575623690088"><ele>126.5</ele><time>2026-04-29T11:59:56Z</time></trkpt><trkpt lat="43.64223239304738" lon="13.057710199218393"><ele>125.75</ele><time>2026-04-29T11:59:57Z</time></trkpt><trkpt lat="43.64216420094322" lon="13.05784038874108"><ele>125.0</ele><time>2026-04-29T11:59:58Z</time></trkpt><trkpt lat="43.642095029523475" lon="13.05797194150491"><ele>125.0</ele><time>2026-04-29T11:59:59Z</time></trkpt><trkpt lat="43.64203158991124" lon="13.058093842241787"><ele>125.0</ele><time>2026-04-29T12:00:00Z</time></trkpt><trkpt lat="43.641960785108154" lon="13.058214633523237"><ele>125.0</ele><time>2026-04-29T12:00:01Z</time></trkpt><trkpt lat="43.641886324172035" lon="13.058321543238717"><ele>125.0</ele><time>2026-04-29T12:00:02Z</time></trkpt><trkpt lat="43.6418030438606" lon="13.058405922682386"><ele>125.0</ele><time>2026-04-29T12:00:03Z</time></trkpt><trkpt lat="43.64170483852558" lon="13.058451325524642"><ele>125.0</ele><time>2026-04-29T12:00:04Z</time></trkpt><trkpt lat="43.641599629226434" lon="13.058459154959367"><ele>125.0</ele><time>2026-04-29T12:00:05Z</time></trkpt><trkpt lat="43.64148747072912" lon="13.058440395236842"><ele>125.0</ele><time>2026-04-29T12:00:06Z</time></trkpt><trkpt lat="43.64137454444981" lon="13.058404508877965"><ele>125.0</ele><time>2026-04-29T12:00:07Z</time></trkpt><trkpt lat="43.6412631303182" lon="13.05835898393652"><ele>125.0</ele><time>2026-04-29T12:00:08Z</time></trkpt><trkpt lat="43.64114874852792" lon="13.058308440307258"><ele>125.0</ele><time>2026-04-29T12:00:09Z</time></trkpt><trkpt lat="43.64103009273651" lon="13.058260271452305"><ele>125.0</ele><time>2026-04-29T12:00:10Z</time></trkpt><trkpt lat="43.64090999761978" lon="13.058228222807138"><ele>125.0</ele><time>2026-04-29T12:00:11Z</time></trkpt><trkpt lat="43.640790211019024" lon="13.058220398316658"><ele>124.0</ele><time>2026-04-29T12:00:12Z</time></trkpt><trkpt lat="43.640666421186516" lon="13.058239880920196"><ele>123.0</ele><time>2026-04-29T12:00:13Z</time></trkpt><trkpt lat="43.64054209891449" lon="13.058281459986146"><ele>122.0</ele><time>2026-04-29T12:00:14Z</time></trkpt><trkpt lat="43.6404167132783" lon="13.058337484214784"><ele>121.0</ele><time>2026-04-29T12:00:15Z</time></trkpt><trkpt lat="43.64028876796425" lon="13.058401232960662"><ele>119.5</ele><time>2026-04-29T12:00:16Z</time></trkpt><trkpt lat="43.640161157185" lon="13.058480148072901"><ele>118.0</ele><time>2026-04-29T12:00:17Z</time></trkpt><trkpt lat="43.6400389326286" lon="13.05857849822793"><ele>116.5</ele><time>2026-04-29T12:00:18Z</time></trkpt><trkpt lat="43.63992698440497" lon="13.05870117604054"><ele>115.0</ele><time>2026-04-29T12:00:19Z</time></trkpt><trkpt lat="43.63981987520232" lon="13.058836738309783"><ele>115.0</ele><time>2026-04-29T12:00:20Z</time></trkpt><trkpt lat="43.63972255414574" lon="13.05898060378902"><ele>115.0</ele><time>2026-04-29T12:00:21Z</time></trkpt><trkpt lat="43.63962853609751" lon="13.059109518751635"><ele>115.0</ele><time>2026-04-29T12:00:22Z</time></trkpt><trkpt lat="43.63953596881389" lon="13.059226882049444"><ele>115.0</ele><time>2026-04-29T12:00:23Z</time></trkpt><trkpt lat="43.63943423306835" lon="13.05931971677022"><ele>113.0</ele><time>2026-04-29T12:00:24Z</time></trkpt><trkpt lat="43.63932264526804" lon="13.059378743601535"><ele>111.0</ele><time>2026-04-29T12:00:25Z</time></trkpt><trkpt lat="43.63920565955425" lon="13.059404377616932"><ele>109.0</ele><time>2026-04-29T12:00:26Z</time></trkpt><trkpt lat="43.63908712982095" lon="13.059423305844007"><ele>107.0</ele><time>2026-04-29T12:00:27Z</time></trkpt><trkpt lat="43.63897593163862" lon="13.059462118046769"><ele>107.0</ele><time>2026-04-29T12:00:28Z</time></trkpt><trkpt lat="43.638877453352414" lon="13.059523597655748"><ele>107.0</ele><time>2026-04-29T12:00:29Z</time></trkpt><trkpt lat="43.638793697660645" lon="13.059608071237026"><ele>107.0</ele><time>2026-04-29T12:00:30Z</time></trkpt><trkpt lat="43.6386820954616" lon="13.059649508017305"><ele>107.0</ele><time>2026-04-29T12:00:31Z</time></trkpt><trkpt lat="43.63869480604433" lon="13.059866744578521"><ele>107.75</ele><time>2026-04-29T12:00:32Z</time></trkpt><trkpt lat="43.638695466193" lon="13.060034469481824"><ele>108.5</ele><time>2026-04-29T12:00:33Z</time></trkpt><trkpt lat="43.63871236848711" lon="13.060223150821418"><ele>109.25</ele><time>2026-04-29T12:00:34Z</time></trkpt><trkpt lat="43.63873892892783" lon="13.060414518599439"><ele>110.0</ele><time>2026-04-29T12:00:35Z</time></trkpt><trkpt lat="43.63877294128244" lon="13.06061605606367"><ele>109.33333333333333</ele><time>2026-04-29T12:00:36Z</time></trkpt><trkpt lat="43.6388062860822" lon="13.06082035902296"><ele>108.66666666666666</ele><time>2026-04-29T12:00:37Z</time></trkpt><trkpt lat="43.63883797402206" lon="13.061027404595821"><ele>108.0</ele><time>2026-04-29T12:00:38Z</time></trkpt><trkpt lat="43.638871356932185" lon="13.061237782075999"><ele>108.0</ele><time>2026-04-29T12:00:39Z</time></trkpt><trkpt lat="43.63890431266752" lon="13.06144721641444"><ele>108.0</ele><time>2026-04-29T12:00:40Z</time></trkpt><trkpt lat="43.63893610918183" lon="13.061651414739618"><ele>108.0</ele><time>2026-04-29T12:00:41Z</time></trkpt><trkpt lat="43.63896615754065" lon="13.061849782573466"><ele>106.25</ele><time>2026-04-29T12:00:42Z</time></trkpt><trkpt lat="43.63899642477746" lon="13.06203767305248"><ele>104.5</ele><time>2026-04-29T12:00:43Z</time></trkpt><trkpt lat="43.6390270786902" lon="13.062220733139691"><ele>102.75</ele><time>2026-04-29T12:00:44Z</time></trkpt><trkpt lat="43.63905578152853" lon="13.062397121031445"><ele>101.0</ele><time>2026-04-29T12:00:45Z</time></trkpt><trkpt lat="43.63908521557501" lon="13.062575891918804"><ele>99.75</ele><time>2026-04-29T12:00:46Z</time></trkpt><trkpt lat="43.63911636394655" lon="13.062756375828458"><ele>98.5</ele><time>2026-04-29T12:00:47Z</time></trkpt><trkpt lat="43.639146702375626" lon="13.062942517854578"><ele>97.25</ele><time>2026-04-29T12:00:48Z</time></trkpt><trkpt lat="43.63917913097391" lon="13.063132283639547"><ele>96.0</ele><time>2026-04-29T12:00:49Z</time></trkpt><trkpt lat="43.639211575497406" lon="13.06332016401762"><ele>94.5</ele><time>2026-04-29T12:00:50Z</time></trkpt><trkpt lat="43.63924464654607" lon="13.06350655912205"><ele>93.0</ele><time>2026-04-29T12:00:51Z</time></trkpt><trkpt lat="43.639275711880906" lon="13.063686292246492"><ele>91.5</ele><time>2026-04-29T12:00:52Z</time></trkpt><trkpt lat="43.63930685456848" lon="13.06386843934651"><ele>90.0</ele><time>2026-04-29T12:00:53Z</time></trkpt><trkpt lat="43.639338792340304" lon="13.064051124975935"><ele>88.0</ele><time>2026-04-29T12:00:54Z</time></trkpt><trkpt lat="43.639373194225605" lon="13.064237739304678"><ele>86.0</ele><time>2026-04-29T12:00:55Z</time></trkpt><trkpt lat="43.63940102986614" lon="13.064430205654311"><ele>84.0</ele><time>2026-04-29T12:00:56Z</time></trkpt><trkpt lat="43.63942016861125" lon="13.064626116534702"><ele>82.0</ele><time>2026-04-29T12:00:57Z</time></trkpt><trkpt lat="43.63942679674422" lon="13.06480880219177"><ele>81.0</ele><time>2026-04-29T12:00:58Z</time></trkpt><trkpt lat="43.63941349209941" lon="13.064984740674078"><ele>80.0</ele><time>2026-04-29T12:00:59Z</time></trkpt><trkpt lat="43.63938964326378" lon="13.065160790435804"><ele>79.0</ele><time>2026-04-29T12:01:00Z</time></trkpt><trkpt lat="43.639364257715336" lon="13.065330098276588"><ele>78.0</ele><time>2026-04-29T12:01:01Z</time></trkpt><trkpt lat="43.63934272620677" lon="13.065492395217372"><ele>78.0</ele><time>2026-04-29T12:01:02Z</time></trkpt><trkpt lat="43.63932676593483" lon="13.065642072281932"><ele>78.0</ele><time>2026-04-29T12:01:03Z</time></trkpt><trkpt lat="43.639318668030015" lon="13.065780238941619"><ele>78.0</ele><time>2026-04-29T12:01:04Z</time></trkpt><trkpt lat="43.63930395908278" lon="13.065910760699978"><ele>78.0</ele><time>2026-04-29T12:01:05Z</time></trkpt><trkpt lat="43.63931836909122" lon="13.066041914166458"><ele>78.0</ele><time>2026-04-29T12:01:06Z</time></trkpt><trkpt lat="43.63933944879722" lon="13.066149210247739"><ele>77.8</ele><time>2026-04-29T12:01:07Z</time></trkpt><trkpt lat="43.63936598369514" lon="13.066245643714883"><ele>77.6</ele><time>2026-04-29T12:01:08Z</time></trkpt><trkpt lat="43.63940933427248" lon="13.066320586620929"><ele>77.4</ele><time>2026-04-29T12:01:09Z</time></trkpt><trkpt lat="43.63945996061878" lon="13.06646738221849"><ele>77.2</ele><time>2026-04-29T12:01:11Z</time></trkpt><trkpt lat="43.63947828688075" lon="13.066613329539264"><ele>77.0</ele><time>2026-04-29T12:01:13Z</time></trkpt><trkpt lat="43.63942776569922" lon="13.066743851915112"><ele>76.8</ele><time>2026-04-29T12:01:15Z</time></trkpt><trkpt lat="43.63936108848947" lon="13.06685435207929"><ele>76.6</ele><time>2026-04-29T12:01:17Z</time></trkpt><trkpt lat="43.63937950571734" lon="13.066999212498466"><ele>76.39999999999999</ele><time>2026-04-29T12:01:18Z</time></trkpt><trkpt lat="43.63940128987978" lon="13.067100942046693"><ele>76.2</ele><time>2026-04-29T12:01:19Z</time></trkpt><trkpt lat="43.63945917990152" lon="13.067195709178952"><ele>76.0</ele><time>2026-04-29T12:01:20Z</time></trkpt><trkpt lat="43.6395413056926" lon="13.067256088502594"><ele>76.0</ele><time>2026-04-29T12:01:21Z</time></trkpt><trkpt lat="43.63962815780861" lon="13.067290275183018"><ele>76.0</ele><time>2026-04-29T12:01:22Z</time></trkpt><trkpt lat="43.639701920608694" lon="13.067357765229819"><ele>76.0</ele><time>2026-04-29T12:01:23Z</time></trkpt><trkpt lat="43.63975998502635" lon="13.067441458592"><ele>76.0</ele><time>2026-04-29T12:01:24Z</time></trkpt><trkpt lat="43.63980817012662" lon="13.067544262872016"><ele>76.0</ele><time>2026-04-29T12:01:25Z</time></trkpt><trkpt lat="43.63984717647021" lon="13.06765485511978"><ele>76.0</ele><time>2026-04-29T12:01:26Z</time></trkpt><trkpt lat="43.639890207570545" lon="13.067776249183568"><ele>75.83333333333333</ele><time>2026-04-29T12:01:27Z</time></trkpt><trkpt lat="43.639938252080626" lon="13.067888297061467"><ele>75.66666666666666</ele><time>2026-04-29T12:01:28Z</time></trkpt><trkpt lat="43.63998448067187" lon="13.067975570881702"><ele>75.5</ele><time>2026-04-29T12:01:29Z</time></trkpt><trkpt lat="43.640029814997085" lon="13.068052706396315"><ele>75.33333333333333</ele><time>2026-04-29T12:01:30Z</time></trkpt><trkpt lat="43.640107545822715" lon="13.068169522905498"><ele>75.16666666666667</ele><time>2026-04-29T12:01:32Z</time></trkpt><trkpt lat="43.640157390149724" lon="13.068235995985216"><ele>75.0</ele><time>2026-04-29T12:01:34Z</time></trkpt><trkpt lat="43.64020563425705" lon="13.068307505531433"><ele>74.8</ele><time>2026-04-29T12:01:37Z</time></trkpt><trkpt lat="43.64026403783139" lon="13.068394858663622"><ele>74.6</ele><time>2026-04-29T12:01:40Z</time></trkpt><trkpt lat="43.640306922811725" lon="13.06846075345049"><ele>74.4</ele><time>2026-04-29T12:01:43Z</time></trkpt><trkpt lat="43.64040075647567" lon="13.068209732642066"><ele>74.2</ele><time>2026-04-29T12:03:17Z</time></trkpt><trkpt lat="43.6403908953235" lon="13.068117666048002"><ele>74.0</ele><time>2026-04-29T12:03:23Z</time></trkpt><trkpt lat="43.64038946667096" lon="13.068021614200592"><ele>74.0</ele><time>2026-04-29T12:03:35Z</time></trkpt><trkpt lat="43.64036366416254" lon="13.067922306506032"><ele>74.0</ele><time>2026-04-29T12:03:55Z</time></trkpt><trkpt lat="43.64042282162262" lon="13.067858682598215"><ele>74.0</ele><time>2026-04-29T12:10:45.001Z</time></trkpt><trkpt lat="43.64057292863073" lon="13.067828577962768"><ele>74.0</ele><time>2026-04-29T12:11:28Z</time></trkpt><trkpt lat="43.640670011300266" lon="13.067751021917497"><ele>74.0</ele><time>2026-04-29T12:11:33Z</time></trkpt><trkpt lat="43.640504241689506" lon="13.067862611510552"><ele>74.0</ele><time>2026-04-29T12:11:42Z</time></trkpt><trkpt lat="43.640273303842015" lon="13.06785835857919"><ele>74.0</ele><time>2026-04-29T12:12:17Z</time></trkpt><trkpt lat="43.64033315422338" lon="13.067914000237455"><ele>74.0</ele><time>2026-04-29T12:12:19Z</time></trkpt><trkpt lat="43.6403447326628" lon="13.068004577321247"><ele>74.0</ele><time>2026-04-29T12:55:00Z</time></trkpt><trkpt lat="43.64036946539482" lon="13.068089683033396"><ele>74.0</ele><time>2026-04-29T12:55:06.999Z</time></trkpt><trkpt lat="43.64037656501267" lon="13.06818724882316"><ele>74.0</ele><time>2026-04-29T12:55:12.999Z</time></trkpt><trkpt lat="43.6404174353792" lon="13.06825844034161"><ele>74.0</ele><time>2026-04-29T12:55:19.999Z</time></trkpt><trkpt lat="43.6404660267003" lon="13.068334355997646"><ele>74.0</ele><time>2026-04-29T12:55:26.999Z</time></trkpt><trkpt lat="43.64043276709283" lon="13.06843625935774"><ele>74.0</ele><time>2026-04-29T12:59:07.999Z</time></trkpt><trkpt lat="43.64040199043297" lon="13.068523771365037"><ele>74.0</ele><time>2026-04-29T12:59:21.999Z</time></trkpt><trkpt lat="43.64040074584832" lon="13.06862273639415"><ele>74.0</ele><time>2026-04-29T12:59:23.999Z</time></trkpt><trkpt lat="43.64046904433305" lon="13.06877682838967"><ele>74.0</ele><time>2026-04-29T12:59:25.999Z</time></trkpt><trkpt lat="43.64051367103609" lon="13.068844836371312"><ele>74.0</ele><time>2026-04-29T12:59:26.999Z</time></trkpt><trkpt lat="43.6405610682481" lon="13.068934197653888"><ele>74.0</ele><time>2026-04-29T12:59:27.999Z</time></trkpt><trkpt lat="43.64060039288946" lon="13.069028581782902"><ele>74.0</ele><time>2026-04-29T12:59:28.999Z</time></trkpt><trkpt lat="43.640642143705556" lon="13.069126498016544"><ele>74.0</ele><time>2026-04-29T12:59:29.999Z</time></trkpt><trkpt lat="43.64068620995697" lon="13.069225298476134"><ele>74.0</ele><time>2026-04-29T12:59:30.999Z</time></trkpt><trkpt lat="43.640733046217676" lon="13.069333720159273"><ele>73.8</ele><time>2026-04-29T12:59:31.999Z</time></trkpt><trkpt lat="43.64077961490553" lon="13.069448647630235"><ele>73.60000000000001</ele><time>2026-04-29T12:59:32.999Z</time></trkpt><trkpt lat="43.640823784162755" lon="13.069570462715467"><ele>73.4</ele><time>2026-04-29T12:59:33.999Z</time></trkpt><trkpt lat="43.64086644764368" lon="13.069691653230503"><ele>73.2</ele><time>2026-04-29T12:59:34.999Z</time></trkpt><trkpt lat="43.64090807498135" lon="13.069817586846016"><ele>73.0</ele><time>2026-04-29T12:59:35.999Z</time></trkpt><trkpt lat="43.6409566278305" lon="13.069956425032402"><ele>73.0</ele><time>2026-04-29T12:59:36.999Z</time></trkpt><trkpt lat="43.64100144068036" lon="13.070093997282253"><ele>73.0</ele><time>2026-04-29T12:59:37.999Z</time></trkpt><trkpt lat="43.641044477607664" lon="13.070226493799606"><ele>73.0</ele><time>2026-04-29T12:59:38.999Z</time></trkpt><trkpt lat="43.64108964147419" lon="13.070354420296592"><ele>73.0</ele><time>2026-04-29T12:59:39.999Z</time></trkpt><trkpt lat="43.64113354496035" lon="13.070483754594475"><ele>73.0</ele><time>2026-04-29T12:59:40.999Z</time></trkpt><trkpt lat="43.64117413844344" lon="13.070603918151551"><ele>73.66666666666666</ele><time>2026-04-29T12:59:41.999Z</time></trkpt><trkpt lat="43.64121115701938" lon="13.070719395943637"><ele>74.33333333333333</ele><time>2026-04-29T12:59:42.999Z</time></trkpt><trkpt lat="43.64124870821292" lon="13.070837941448957"><ele>75.0</ele><time>2026-04-29T12:59:43.999Z</time></trkpt><trkpt lat="43.641289909133405" lon="13.070947982233617"><ele>75.66666666666667</ele><time>2026-04-29T12:59:44.999Z</time></trkpt><trkpt lat="43.64131354321303" lon="13.071035305103871"><ele>76.33333333333334</ele><time>2026-04-29T12:59:45.999Z</time></trkpt><trkpt lat="43.6413274215798" lon="13.071179513634668"><ele>77.0</ele><time>2026-04-29T12:59:47.999Z</time></trkpt><trkpt lat="43.641229149416354" lon="13.071317621467973"><ele>77.0</ele><time>2026-04-29T12:59:49.999Z</time></trkpt><trkpt lat="43.64117445012958" lon="13.071393009002445"><ele>77.0</ele><time>2026-04-29T12:59:50.999Z</time></trkpt><trkpt lat="43.64112728735295" lon="13.071491556949768"><ele>77.0</ele><time>2026-04-29T12:59:51.999Z</time></trkpt><trkpt lat="43.641062997092014" lon="13.071585865183597"><ele>77.0</ele><time>2026-04-29T12:59:53Z</time></trkpt><trkpt lat="43.64099469521904" lon="13.071704576297176"><ele>77.0</ele><time>2026-04-29T12:59:54Z</time></trkpt><trkpt lat="43.64092272163404" lon="13.071828466801623"><ele>75.75</ele><time>2026-04-29T12:59:55Z</time></trkpt><trkpt lat="43.64084248467822" lon="13.071965350279127"><ele>74.5</ele><time>2026-04-29T12:59:56Z</time></trkpt><trkpt lat="43.64076302730182" lon="13.07210860707192"><ele>73.25</ele><time>2026-04-29T12:59:57Z</time></trkpt><trkpt lat="43.64067553797574" lon="13.072253075313949"><ele>72.0</ele><time>2026-04-29T12:59:58Z</time></trkpt><trkpt lat="43.64058862579264" lon="13.072408523868212"><ele>71.25</ele><time>2026-04-29T12:59:59Z</time></trkpt><trkpt lat="43.64050551575868" lon="13.072564607110223"><ele>70.5</ele><time>2026-04-29T13:00:00Z</time></trkpt><trkpt lat="43.640413742582034" lon="13.072724875000322"><ele>69.75</ele><time>2026-04-29T13:00:01Z</time></trkpt><trkpt lat="43.64031975447687" lon="13.07288559365856"><ele>69.0</ele><time>2026-04-29T13:00:02Z</time></trkpt><trkpt lat="43.640224692605166" lon="13.073045781996992"><ele>69.0</ele><time>2026-04-29T13:00:03Z</time></trkpt><trkpt lat="43.64013004056272" lon="13.073210549988044"><ele>69.0</ele><time>2026-04-29T13:00:04Z</time></trkpt><trkpt lat="43.640034947931944" lon="13.073376528431393"><ele>69.0</ele><time>2026-04-29T13:00:05Z</time></trkpt><trkpt lat="43.63993952454352" lon="13.07354344795174"><ele>68.66666666666667</ele><time>2026-04-29T13:00:06Z</time></trkpt><trkpt lat="43.639844353585985" lon="13.073714178476031"><ele>68.33333333333334</ele><time>2026-04-29T13:00:07Z</time></trkpt><trkpt lat="43.63974497245306" lon="13.073886702602673"><ele>68.0</ele><time>2026-04-29T13:00:08Z</time></trkpt><trkpt lat="43.6396464286544" lon="13.074057983519868"><ele>67.0</ele><time>2026-04-29T13:00:09Z</time></trkpt><trkpt lat="43.639547218766026" lon="13.074232887440957"><ele>66.0</ele><time>2026-04-29T13:00:10Z</time></trkpt><trkpt lat="43.639444949141684" lon="13.074413943607311"><ele>65.0</ele><time>2026-04-29T13:00:11Z</time></trkpt><trkpt lat="43.639339159680524" lon="13.074590457351718"><ele>64.66666666666667</ele><time>2026-04-29T13:00:12Z</time></trkpt><trkpt lat="43.63923715428549" lon="13.0747692374896"><ele>64.33333333333333</ele><time>2026-04-29T13:00:13Z</time></trkpt><trkpt lat="43.63913493482363" lon="13.074948253562301"><ele>64.0</ele><time>2026-04-29T13:00:14Z</time></trkpt><trkpt lat="43.6390472706083" lon="13.075110793761153"><ele>63.75</ele><time>2026-04-29T13:00:15Z</time></trkpt><trkpt lat="43.638963179031386" lon="13.075269609597488"><ele>63.5</ele><time>2026-04-29T13:00:16Z</time></trkpt><trkpt lat="43.63888877314763" lon="13.075413211747101"><ele>63.25</ele><time>2026-04-29T13:00:17Z</time></trkpt><trkpt lat="43.63883034115045" lon="13.075577191446843"><ele>63.0</ele><time>2026-04-29T13:00:18Z</time></trkpt><trkpt lat="43.63877596432582" lon="13.07573851811323"><ele>62.75</ele><time>2026-04-29T13:00:19Z</time></trkpt><trkpt lat="43.638730546544096" lon="13.075894841593074"><ele>62.5</ele><time>2026-04-29T13:00:20Z</time></trkpt><trkpt lat="43.63869123736321" lon="13.076051370268384"><ele>62.25</ele><time>2026-04-29T13:00:21Z</time></trkpt><trkpt lat="43.638655299823775" lon="13.076214044216153"><ele>62.0</ele><time>2026-04-29T13:00:22Z</time></trkpt><trkpt lat="43.63862037923564" lon="13.076382179107808"><ele>62.0</ele><time>2026-04-29T13:00:23Z</time></trkpt><trkpt lat="43.638569563173476" lon="13.076551008114363"><ele>62.0</ele><time>2026-04-29T13:00:24Z</time></trkpt><trkpt lat="43.638534735872334" lon="13.076730577175612"><ele>62.0</ele><time>2026-04-29T13:00:25Z</time></trkpt><trkpt lat="43.6384999315259" lon="13.076910726640172"><ele>62.0</ele><time>2026-04-29T13:00:26Z</time></trkpt><trkpt lat="43.63848050285009" lon="13.077100463529273"><ele>62.0</ele><time>2026-04-29T13:00:27Z</time></trkpt><trkpt lat="43.6384403475831" lon="13.077289453450767"><ele>62.0</ele><time>2026-04-29T13:00:28Z</time></trkpt><trkpt lat="43.63839943497132" lon="13.077486836666413"><ele>62.0</ele><time>2026-04-29T13:00:29Z</time></trkpt><trkpt lat="43.63836132356336" lon="13.077674393177404"><ele>62.0</ele><time>2026-04-29T13:00:30Z</time></trkpt><trkpt lat="43.638328157249816" lon="13.077856994233398"><ele>62.25</ele><time>2026-04-29T13:00:31Z</time></trkpt><trkpt lat="43.6382958890048" lon="13.07803971267698"><ele>62.5</ele><time>2026-04-29T13:00:32Z</time></trkpt><trkpt lat="43.63826411129588" lon="13.07821981468424"><ele>62.75</ele><time>2026-04-29T13:00:33Z</time></trkpt><trkpt lat="43.638230062186736" lon="13.07840270244408"><ele>63.0</ele><time>2026-04-29T13:00:34Z</time></trkpt><trkpt lat="43.63819474902058" lon="13.078583832879948"><ele>63.25</ele><time>2026-04-29T13:00:35Z</time></trkpt><trkpt lat="43.63815968129737" lon="13.078764924659266"><ele>63.5</ele><time>2026-04-29T13:00:36Z</time></trkpt><trkpt lat="43.63812575050188" lon="13.07894178202007"><ele>63.75</ele><time>2026-04-29T13:00:37Z</time></trkpt><trkpt lat="43.63809127062076" lon="13.079125336965436"><ele>64.0</ele><time>2026-04-29T13:00:38Z</time></trkpt><trkpt lat="43.638057743674636" lon="13.079311564382603"><ele>64.25</ele><time>2026-04-29T13:00:39Z</time></trkpt><trkpt lat="43.638024104983316" lon="13.079500391079868"><ele>64.5</ele><time>2026-04-29T13:00:40Z</time></trkpt><trkpt lat="43.637989073588614" lon="13.07969086286981"><ele>64.75</ele><time>2026-04-29T13:00:41Z</time></trkpt><trkpt lat="43.637953339073476" lon="13.079874761027922"><ele>65.0</ele><time>2026-04-29T13:00:42Z</time></trkpt><trkpt lat="43.637917746411134" lon="13.080050372384981"><ele>65.0</ele><time>2026-04-29T13:00:43Z</time></trkpt><trkpt lat="43.637884844509784" lon="13.080211701679946"><ele>65.0</ele><time>2026-04-29T13:00:44Z</time></trkpt><trkpt lat="43.63785715447719" lon="13.080357809396572"><ele>65.0</ele><time>2026-04-29T13:00:45Z</time></trkpt><trkpt lat="43.6378326635998" lon="13.080488613143542"><ele>65.0</ele><time>2026-04-29T13:00:46Z</time></trkpt><trkpt lat="43.637810450992376" lon="13.080612708910369"><ele>65.0</ele><time>2026-04-29T13:00:47Z</time></trkpt><trkpt lat="43.63778877749833" lon="13.080729438951899"><ele>66.0</ele><time>2026-04-29T13:00:48Z</time></trkpt><trkpt lat="43.637766194487014" lon="13.080852535082919"><ele>67.0</ele><time>2026-04-29T13:00:49Z</time></trkpt><trkpt lat="43.637742140502795" lon="13.080975540189232"><ele>68.0</ele><time>2026-04-29T13:00:50Z</time></trkpt><trkpt lat="43.637717107067324" lon="13.081103540521156"><ele>69.0</ele><time>2026-04-29T13:00:51Z</time></trkpt><trkpt lat="43.637693169517874" lon="13.081232126804787"><ele>70.0</ele><time>2026-04-29T13:00:52Z</time></trkpt><trkpt lat="43.637673096008555" lon="13.081353697946573"><ele>70.0</ele><time>2026-04-29T13:00:53Z</time></trkpt><trkpt lat="43.637646950190536" lon="13.081450937375765"><ele>70.0</ele><time>2026-04-29T13:00:54Z</time></trkpt><trkpt lat="43.63761696765401" lon="13.081607889238516"><ele>70.0</ele><time>2026-04-29T13:00:56Z</time></trkpt><trkpt lat="43.637751166287686" lon="13.081715756584824"><ele>70.0</ele><time>2026-04-29T13:00:57Z</time></trkpt><trkpt lat="43.63781452896237" lon="13.081794988104392"><ele>70.0</ele><time>2026-04-29T13:00:58Z</time></trkpt><trkpt lat="43.63788663796136" lon="13.08186775513541"><ele>69.8</ele><time>2026-04-29T13:00:59Z</time></trkpt><trkpt lat="43.63796795794428" lon="13.081942349541388"><ele>69.6</ele><time>2026-04-29T13:01:00Z</time></trkpt><trkpt lat="43.63804735219302" lon="13.082037588553366"><ele>69.4</ele><time>2026-04-29T13:01:01Z</time></trkpt><trkpt lat="43.63813741751239" lon="13.082124456322168"><ele>69.2</ele><time>2026-04-29T13:01:02Z</time></trkpt><trkpt lat="43.638239742118735" lon="13.082217312761344"><ele>69.0</ele><time>2026-04-29T13:01:03Z</time></trkpt><trkpt lat="43.63834467073116" lon="13.082311402092074"><ele>69.0</ele><time>2026-04-29T13:01:04Z</time></trkpt><trkpt lat="43.638462150352765" lon="13.082390204390405"><ele>69.0</ele><time>2026-04-29T13:01:05Z</time></trkpt><trkpt lat="43.63856806933129" lon="13.082494874670418"><ele>69.0</ele><time>2026-04-29T13:01:06Z</time></trkpt><trkpt lat="43.63867906679301" lon="13.082589999926684"><ele>69.0</ele><time>2026-04-29T13:01:07Z</time></trkpt><trkpt lat="43.638789017072256" lon="13.082692214802028"><ele>67.75</ele><time>2026-04-29T13:01:08Z</time></trkpt><trkpt lat="43.638889364846264" lon="13.082802569654586"><ele>66.5</ele><time>2026-04-29T13:01:09Z</time></trkpt><trkpt lat="43.63897240421308" lon="13.082943092719168"><ele>65.25</ele><time>2026-04-29T13:01:10Z</time></trkpt><trkpt lat="43.63905103631452" lon="13.083074826965488"><ele>64.0</ele><time>2026-04-29T13:01:11Z</time></trkpt><trkpt lat="43.63911495199635" lon="13.083218069534249"><ele>64.75</ele><time>2026-04-29T13:01:12Z</time></trkpt><trkpt lat="43.63917141080146" lon="13.083372569105517"><ele>65.5</ele><time>2026-04-29T13:01:13Z</time></trkpt><trkpt lat="43.639231926517326" lon="13.08353678399673"><ele>66.25</ele><time>2026-04-29T13:01:14Z</time></trkpt><trkpt lat="43.639293330677184" lon="13.08369833561427"><ele>67.0</ele><time>2026-04-29T13:01:15Z</time></trkpt><trkpt lat="43.639367311042086" lon="13.083853840312125"><ele>67.0</ele><time>2026-04-29T13:01:16Z</time></trkpt><trkpt lat="43.63942696244832" lon="13.084019317088051"><ele>67.0</ele><time>2026-04-29T13:01:17Z</time></trkpt><trkpt lat="43.639492349311936" lon="13.084179512306797"><ele>67.0</ele><time>2026-04-29T13:01:18Z</time></trkpt><trkpt lat="43.639555988579524" lon="13.084336688488166"><ele>67.0</ele><time>2026-04-29T13:01:19Z</time></trkpt><trkpt lat="43.639611355908265" lon="13.084481566460274"><ele>67.0</ele><time>2026-04-29T13:01:20Z</time></trkpt><trkpt lat="43.63963885909406" lon="13.08462300159341"><ele>67.0</ele><time>2026-04-29T13:01:21Z</time></trkpt><trkpt lat="43.639670796008325" lon="13.084754677332462"><ele>67.0</ele><time>2026-04-29T13:01:22Z</time></trkpt><trkpt lat="43.63970725487066" lon="13.084895639947897"><ele>67.0</ele><time>2026-04-29T13:01:23Z</time></trkpt><trkpt lat="43.6397604487777" lon="13.085035433379002"><ele>67.0</ele><time>2026-04-29T13:01:24Z</time></trkpt><trkpt lat="43.63979952956345" lon="13.08518942803727"><ele>67.0</ele><time>2026-04-29T13:01:25Z</time></trkpt><trkpt lat="43.63983831612442" lon="13.085339210911808"><ele>67.0</ele><time>2026-04-29T13:01:26Z</time></trkpt><trkpt lat="43.63987625416406" lon="13.085488084797863"><ele>67.0</ele><time>2026-04-29T13:01:27Z</time></trkpt><trkpt lat="43.639908270188855" lon="13.085641959179878"><ele>67.0</ele><time>2026-04-29T13:01:28Z</time></trkpt><trkpt lat="43.639943016092005" lon="13.085792050588674"><ele>68.4</ele><time>2026-04-29T13:01:29Z</time></trkpt><trkpt lat="43.639978895596784" lon="13.08593759691333"><ele>69.80000000000001</ele><time>2026-04-29T13:01:30Z</time></trkpt><trkpt lat="43.640013904579156" lon="13.086076725130084"><ele>71.2</ele><time>2026-04-29T13:01:31Z</time></trkpt><trkpt lat="43.64005063194765" lon="13.086212870041434"><ele>72.60000000000001</ele><time>2026-04-29T13:01:32Z</time></trkpt><trkpt lat="43.6400873287942" lon="13.086351830068452"><ele>74.0</ele><time>2026-04-29T13:01:33Z</time></trkpt><trkpt lat="43.64012490049983" lon="13.08649228024429"><ele>75.80000000000001</ele><time>2026-04-29T13:01:34Z</time></trkpt><trkpt lat="43.64016271982441" lon="13.086626271390102"><ele>77.60000000000001</ele><time>2026-04-29T13:01:35Z</time></trkpt><trkpt lat="43.64020396957895" lon="13.086755123214129"><ele>79.4</ele><time>2026-04-29T13:01:36Z</time></trkpt><trkpt lat="43.640233358222666" lon="13.08688930984729"><ele>81.2</ele><time>2026-04-29T13:01:37Z</time></trkpt><trkpt lat="43.64027583685497" lon="13.087001907121687"><ele>83.0</ele><time>2026-04-29T13:01:38Z</time></trkpt><trkpt lat="43.64031788091842" lon="13.087079315686498"><ele>83.66666666666667</ele><time>2026-04-29T13:01:39Z</time></trkpt><trkpt lat="43.640378378286286" lon="13.087211011036167"><ele>84.33333333333334</ele><time>2026-04-29T13:01:41Z</time></trkpt><trkpt lat="43.640405162669936" lon="13.087295083319447"><ele>85.0</ele><time>2026-04-29T13:01:42Z</time></trkpt><trkpt lat="43.64043242742142" lon="13.087391806140767"><ele>85.66666666666667</ele><time>2026-04-29T13:01:43Z</time></trkpt><trkpt lat="43.640462827051756" lon="13.087498215841245"><ele>86.33333333333333</ele><time>2026-04-29T13:01:44Z</time></trkpt><trkpt lat="43.640475433880724" lon="13.087610696853906"><ele>87.0</ele><time>2026-04-29T13:01:45Z</time></trkpt><trkpt lat="43.64051021750566" lon="13.087727582084955"><ele>87.83333333333333</ele><time>2026-04-29T13:01:46Z</time></trkpt><trkpt lat="43.64054813598886" lon="13.08784195282635"><ele>88.66666666666667</ele><time>2026-04-29T13:01:47Z</time></trkpt><trkpt lat="43.64060179856974" lon="13.087935938187675"><ele>89.5</ele><time>2026-04-29T13:01:48Z</time></trkpt><trkpt lat="43.64064426142305" lon="13.088038726947662"><ele>90.33333333333334</ele><time>2026-04-29T13:01:49Z</time></trkpt><trkpt lat="43.64068810810268" lon="13.088138814820192"><ele>91.16666666666667</ele><time>2026-04-29T13:01:50Z</time></trkpt><trkpt lat="43.640708762253425" lon="13.088238663586573"><ele>92.0</ele><time>2026-04-29T13:01:51Z</time></trkpt><trkpt lat="43.640749755124475" lon="13.088375873503129"><ele>93.19999999999999</ele><time>2026-04-29T13:01:53Z</time></trkpt><trkpt lat="43.64078349389289" lon="13.08849902097752"><ele>94.4</ele><time>2026-04-29T13:01:55Z</time></trkpt><trkpt lat="43.64083222624691" lon="13.088644970263244"><ele>95.6</ele><time>2026-04-29T13:01:57Z</time></trkpt><trkpt lat="43.64085398640838" lon="13.088780860250631"><ele>96.80000000000001</ele><time>2026-04-29T13:01:59Z</time></trkpt><trkpt lat="43.64086949251832" lon="13.088893561722893"><ele>98.0</ele><time>2026-04-29T13:02:01Z</time></trkpt><trkpt lat="43.640889504916956" lon="13.08904732763034"><ele>98.33333333333333</ele><time>2026-04-29T13:02:03Z</time></trkpt><trkpt lat="43.64090311448875" lon="13.089145000043496"><ele>98.66666666666666</ele><time>2026-04-29T13:02:04Z</time></trkpt><trkpt lat="43.64091748691871" lon="13.089262907843288"><ele>99.0</ele><time>2026-04-29T13:02:05Z</time></trkpt><trkpt lat="43.64093294536171" lon="13.08938741305644"><ele>99.33333333333334</ele><time>2026-04-29T13:02:06Z</time></trkpt><trkpt lat="43.64095011057772" lon="13.089514019911233"><ele>99.66666666666667</ele><time>2026-04-29T13:02:07Z</time></trkpt><trkpt lat="43.64096718225955" lon="13.089638968562275"><ele>100.0</ele><time>2026-04-29T13:02:08Z</time></trkpt><trkpt lat="43.64098414006538" lon="13.089769304145424"><ele>100.0</ele><time>2026-04-29T13:02:09Z</time></trkpt><trkpt lat="43.64100343176414" lon="13.089897784110635"><ele>100.0</ele><time>2026-04-29T13:02:10Z</time></trkpt><trkpt lat="43.64102719245059" lon="13.090035763917518"><ele>100.0</ele><time>2026-04-29T13:02:11Z</time></trkpt><trkpt lat="43.64105522790187" lon="13.090182135543673"><ele>100.0</ele><time>2026-04-29T13:02:12Z</time></trkpt><trkpt lat="43.641086281001726" lon="13.090321369881705"><ele>100.0</ele><time>2026-04-29T13:02:13Z</time></trkpt><trkpt lat="43.641117613661685" lon="13.090447881589903"><ele>102.4</ele><time>2026-04-29T13:02:14Z</time></trkpt><trkpt lat="43.641152322697174" lon="13.090563044699191"><ele>104.8</ele><time>2026-04-29T13:02:15Z</time></trkpt><trkpt lat="43.6411784316322" lon="13.09068160006186"><ele>107.19999999999999</ele><time>2026-04-29T13:02:16Z</time></trkpt><trkpt lat="43.641241164361965" lon="13.090775441037438"><ele>109.6</ele><time>2026-04-29T13:02:17Z</time></trkpt><trkpt lat="43.641298631373985" lon="13.090875602958864"><ele>112.0</ele><time>2026-04-29T13:02:18Z</time></trkpt><trkpt lat="43.64136468645279" lon="13.090980455260116"><ele>112.16666666666667</ele><time>2026-04-29T13:02:19Z</time></trkpt><trkpt lat="43.64143165160367" lon="13.091074482801206"><ele>112.33333333333334</ele><time>2026-04-29T13:02:20Z</time></trkpt><trkpt lat="43.6414854236098" lon="13.091156199053785"><ele>112.5</ele><time>2026-04-29T13:02:21Z</time></trkpt><trkpt lat="43.64151307809141" lon="13.09125461936645"><ele>112.66666666666666</ele><time>2026-04-29T13:02:22Z</time></trkpt><trkpt lat="43.64155067798727" lon="13.091345311130588"><ele>112.83333333333333</ele><time>2026-04-29T13:02:23Z</time></trkpt><trkpt lat="43.64158947725913" lon="13.09143765581076"><ele>113.0</ele><time>2026-04-29T13:02:24Z</time></trkpt><trkpt lat="43.641643763755944" lon="13.091522284558957"><ele>112.66666666666666</ele><time>2026-04-29T13:02:25Z</time></trkpt><trkpt lat="43.64168119425921" lon="13.091615444954906"><ele>112.33333333333333</ele><time>2026-04-29T13:02:26Z</time></trkpt><trkpt lat="43.64171800414338" lon="13.091702624252077"><ele>112.0</ele><time>2026-04-29T13:02:27Z</time></trkpt><trkpt lat="43.6417658450355" lon="13.09180231470198"><ele>111.66666666666666</ele><time>2026-04-29T13:02:28Z</time></trkpt><trkpt lat="43.641814510799726" lon="13.091897346265766"><ele>111.33333333333333</ele><time>2026-04-29T13:02:29Z</time></trkpt><trkpt lat="43.64185746102799" lon="13.091995995180877"><ele>111.0</ele><time>2026-04-29T13:02:30Z</time></trkpt><trkpt lat="43.641899296863286" lon="13.09208760179679"><ele>111.0</ele><time>2026-04-29T13:02:31Z</time></trkpt><trkpt lat="43.64193842720142" lon="13.092168166458563"><ele>111.0</ele><time>2026-04-29T13:02:32Z</time></trkpt><trkpt lat="43.64197550101495" lon="13.092239641798487"><ele>111.0</ele><time>2026-04-29T13:02:33Z</time></trkpt><trkpt lat="43.64203699458338" lon="13.092361361148768"><ele>111.0</ele><time>2026-04-29T13:02:35Z</time></trkpt><trkpt lat="43.64210133350176" lon="13.092478283857023"><ele>111.0</ele><time>2026-04-29T13:02:37Z</time></trkpt><trkpt lat="43.642161310277" lon="13.09261692671722"><ele>114.4</ele><time>2026-04-29T13:02:39Z</time></trkpt><trkpt lat="43.64223481021886" lon="13.092715330981266"><ele>117.8</ele><time>2026-04-29T13:02:41Z</time></trkpt><trkpt lat="43.642320411399226" lon="13.092756237632685"><ele>121.20000000000002</ele><time>2026-04-29T13:02:42Z</time></trkpt><trkpt lat="43.6424256720953" lon="13.09286438278092"><ele>124.60000000000001</ele><time>2026-04-29T13:02:44Z</time></trkpt><trkpt lat="43.6424854852658" lon="13.092912561906981"><ele>128.0</ele><time>2026-04-29T13:02:45Z</time></trkpt><trkpt lat="43.6425820486089" lon="13.093019596415875"><ele>128.0</ele><time>2026-04-29T13:02:47Z</time></trkpt><trkpt lat="43.64264228262499" lon="13.093053227630794"><ele>127.99999999999999</ele><time>2026-04-29T13:02:48Z</time></trkpt><trkpt lat="43.642690677091714" lon="13.09312881188731"><ele>128.0</ele><time>2026-04-29T13:02:49Z</time></trkpt><trkpt lat="43.64274212343893" lon="13.093193454021678"><ele>128.0</ele><time>2026-04-29T13:02:50Z</time></trkpt><trkpt lat="43.64278135987307" lon="13.093266814498982"><ele>127.99999999999999</ele><time>2026-04-29T13:02:51Z</time></trkpt><trkpt lat="43.64281833205152" lon="13.093347212719138"><ele>128.0</ele><time>2026-04-29T13:02:52Z</time></trkpt><trkpt lat="43.64285089992982" lon="13.093430466460056"><ele>128.0</ele><time>2026-04-29T13:02:53Z</time></trkpt><trkpt lat="43.64288161382219" lon="13.093516976246702"><ele>129.33333333333331</ele><time>2026-04-29T13:02:54Z</time></trkpt><trkpt lat="43.64290926818708" lon="13.093600995388925"><ele>130.66666666666666</ele><time>2026-04-29T13:02:55Z</time></trkpt><trkpt lat="43.642935856364176" lon="13.093696921030144"><ele>132.0</ele><time>2026-04-29T13:02:56Z</time></trkpt><trkpt lat="43.64297539825771" lon="13.09387093622694"><ele>133.33333333333334</ele><time>2026-04-29T13:02:58Z</time></trkpt><trkpt lat="43.64299521888891" lon="13.093967954011346"><ele>134.66666666666669</ele><time>2026-04-29T13:02:59Z</time></trkpt><trkpt lat="43.64301541780723" lon="13.094071592155212"><ele>136.0</ele><time>2026-04-29T13:03:00Z</time></trkpt><trkpt lat="43.64303588158046" lon="13.094179110780361"><ele>135.99999999999997</ele><time>2026-04-29T13:03:01Z</time></trkpt><trkpt lat="43.64305349742151" lon="13.094274457408948"><ele>136.0</ele><time>2026-04-29T13:03:02Z</time></trkpt><trkpt lat="43.64307140942916" lon="13.094371407019993"><ele>136.0</ele><time>2026-04-29T13:03:03Z</time></trkpt><trkpt lat="43.643089868566655" lon="13.094474388231161"><ele>136.0</ele><time>2026-04-29T13:03:04Z</time></trkpt><trkpt lat="43.64310708807792" lon="13.094572382559514"><ele>136.0</ele><time>2026-04-29T13:03:05Z</time></trkpt><trkpt lat="43.64312639204948" lon="13.09468224002927"><ele>135.99999999999997</ele><time>2026-04-29T13:03:06Z</time></trkpt><trkpt lat="43.643143138326224" lon="13.094779917305711"><ele>136.0</ele><time>2026-04-29T13:03:07Z</time></trkpt><trkpt lat="43.64316106702607" lon="13.094889151543969"><ele>136.83333333333334</ele><time>2026-04-29T13:03:08Z</time></trkpt><trkpt lat="43.64319235190795" lon="13.094998583727802"><ele>137.66666666666669</ele><time>2026-04-29T13:03:09Z</time></trkpt><trkpt lat="43.64319719607342" lon="13.095104627664014"><ele>138.5</ele><time>2026-04-29T13:03:10Z</time></trkpt><trkpt lat="43.64320583786678" lon="13.095215541328"><ele>139.33333333333334</ele><time>2026-04-29T13:03:11Z</time></trkpt><trkpt lat="43.643230635494234" lon="13.095323736282886"><ele>140.16666666666666</ele><time>2026-04-29T13:03:12Z</time></trkpt><trkpt lat="43.64324215959268" lon="13.095442272079188"><ele>141.0</ele><time>2026-04-29T13:03:13Z</time></trkpt><trkpt lat="43.64325340521456" lon="13.095561759862962"><ele>141.0</ele><time>2026-04-29T13:03:14Z</time></trkpt><trkpt lat="43.64326847856558" lon="13.095672699409176"><ele>141.0</ele><time>2026-04-29T13:03:15Z</time></trkpt><trkpt lat="43.643283791544064" lon="13.095810485404481"><ele>141.0</ele><time>2026-04-29T13:03:17Z</time></trkpt><trkpt lat="43.643295180205385" lon="13.095916049180527"><ele>141.0</ele><time>2026-04-29T13:03:19Z</time></trkpt><trkpt lat="43.64331131653967" lon="13.096028679790098"><ele>141.0</ele><time>2026-04-29T13:03:57Z</time></trkpt><trkpt lat="43.643322008942704" lon="13.096173599478703"><ele>141.0</ele><time>2026-04-29T13:03:59Z</time></trkpt><trkpt lat="43.64334982648802" lon="13.096309197759886"><ele>141.8</ele><time>2026-04-29T13:04:01Z</time></trkpt><trkpt lat="43.64336389907244" lon="13.09645731828993"><ele>142.6</ele><time>2026-04-29T13:04:03Z</time></trkpt><trkpt lat="43.64339010357698" lon="13.096610184013626"><ele>143.4</ele><time>2026-04-29T13:04:05Z</time></trkpt><trkpt lat="43.643412506148415" lon="13.096696122791247"><ele>144.2</ele><time>2026-04-29T13:04:06Z</time></trkpt><trkpt lat="43.643434741195016" lon="13.096838681703595"><ele>145.0</ele><time>2026-04-29T13:04:08Z</time></trkpt><trkpt lat="43.643452080490334" lon="13.096955855565696"><ele>145.83333333333334</ele><time>2026-04-29T13:04:10Z</time></trkpt><trkpt lat="43.64344639585908" lon="13.097046900345864"><ele>146.66666666666669</ele><time>2026-04-29T13:04:12Z</time></trkpt><trkpt lat="43.6433854623641" lon="13.09712010141265"><ele>147.5</ele><time>2026-04-29T13:04:15Z</time></trkpt><trkpt lat="43.643337996924465" lon="13.097198694440571"><ele>148.33333333333334</ele><time>2026-04-29T13:04:17Z</time></trkpt><trkpt lat="43.643239947036925" lon="13.097256056722305"><ele>149.16666666666666</ele><time>2026-04-29T13:04:19Z</time></trkpt><trkpt lat="43.643181302793806" lon="13.097306905594616"><ele>150.0</ele><time>2026-04-29T13:04:20Z</time></trkpt><trkpt lat="43.643127770831015" lon="13.097353321771948"><ele>150.0</ele><time>2026-04-29T13:04:21Z</time></trkpt><trkpt lat="43.643066594128804" lon="13.09740702439482"><ele>150.0</ele><time>2026-04-29T13:04:22Z</time></trkpt><trkpt lat="43.64300687344604" lon="13.097460197538002"><ele>150.0</ele><time>2026-04-29T13:04:23Z</time></trkpt><trkpt lat="43.64295110521534" lon="13.097541228079052"><ele>150.0</ele><time>2026-04-29T13:04:24Z</time></trkpt><trkpt lat="43.64293798302143" lon="13.09765843609933"><ele>150.0</ele><time>2026-04-29T13:04:26Z</time></trkpt><trkpt lat="43.64298188664122" lon="13.097810008666908"><ele>150.0</ele><time>2026-04-29T13:04:28Z</time></trkpt><trkpt lat="43.6429943509877" lon="13.09790943088933"><ele>150.0</ele><time>2026-04-29T13:04:29Z</time></trkpt><trkpt lat="43.64302715559879" lon="13.098019097406285"><ele>150.0</ele><time>2026-04-29T13:04:30Z</time></trkpt><trkpt lat="43.64306255289227" lon="13.098132184448982"><ele>150.0</ele><time>2026-04-29T13:04:31Z</time></trkpt><trkpt lat="43.643098478574345" lon="13.09824610738866"><ele>150.0</ele><time>2026-04-29T13:04:32Z</time></trkpt><trkpt lat="43.64313294894962" lon="13.098352051086307"><ele>150.0</ele><time>2026-04-29T13:04:33Z</time></trkpt><trkpt lat="43.64316836261441" lon="13.098460893622182"><ele>150.0</ele><time>2026-04-29T13:04:34Z</time></trkpt><trkpt lat="43.64320352921331" lon="13.098566158869344"><ele>150.0</ele><time>2026-04-29T13:04:35Z</time></trkpt><trkpt lat="43.64325472869897" lon="13.098665284814798"><ele>150.0</ele><time>2026-04-29T13:04:36Z</time></trkpt><trkpt lat="43.64329442394929" lon="13.098778344271652"><ele>150.0</ele><time>2026-04-29T13:04:37Z</time></trkpt><trkpt lat="43.64333027082261" lon="13.098889475054698"><ele>150.0</ele><time>2026-04-29T13:04:38Z</time></trkpt><trkpt lat="43.64337625362137" lon="13.098996594560155"><ele>150.0</ele><time>2026-04-29T13:04:39Z</time></trkpt><trkpt lat="43.64341817853039" lon="13.099112872639353"><ele>150.6</ele><time>2026-04-29T13:04:40Z</time></trkpt><trkpt lat="43.64346722118653" lon="13.099237421637694"><ele>151.2</ele><time>2026-04-29T13:04:41Z</time></trkpt><trkpt lat="43.64351412062613" lon="13.099343991501138"><ele>151.8</ele><time>2026-04-29T13:04:42Z</time></trkpt><trkpt lat="43.64355431246033" lon="13.099459075840182"><ele>152.4</ele><time>2026-04-29T13:04:43Z</time></trkpt><trkpt lat="43.64356693637915" lon="13.099576666239154"><ele>153.0</ele><time>2026-04-29T13:04:44Z</time></trkpt><trkpt lat="43.64359071089808" lon="13.099692727954984"><ele>153.0</ele><time>2026-04-29T13:04:45Z</time></trkpt><trkpt lat="43.643625210720344" lon="13.099817920677824"><ele>153.0</ele><time>2026-04-29T13:04:46Z</time></trkpt><trkpt lat="43.64364479390024" lon="13.099953384961413"><ele>153.0</ele><time>2026-04-29T13:04:47Z</time></trkpt><trkpt lat="43.64364037063348" lon="13.100077470584463"><ele>153.0</ele><time>2026-04-29T13:04:48Z</time></trkpt><trkpt lat="43.64366276637245" lon="13.100193960587875"><ele>153.0</ele><time>2026-04-29T13:04:49Z</time></trkpt><trkpt lat="43.64366404207912" lon="13.100327601739638"><ele>153.20000000000002</ele><time>2026-04-29T13:04:50Z</time></trkpt><trkpt lat="43.643645757257374" lon="13.10047168228286"><ele>153.4</ele><time>2026-04-29T13:04:51Z</time></trkpt><trkpt lat="43.64363686931248" lon="13.100610463598485"><ele>153.60000000000002</ele><time>2026-04-29T13:04:52Z</time></trkpt><trkpt lat="43.64361722846944" lon="13.100744051854928"><ele>153.8</ele><time>2026-04-29T13:04:53Z</time></trkpt><trkpt lat="43.64358876042652" lon="13.100861916689883"><ele>154.0</ele><time>2026-04-29T13:04:54Z</time></trkpt><trkpt lat="43.643569856314805" lon="13.100946039017417"><ele>154.0</ele><time>2026-04-29T13:04:55Z</time></trkpt><trkpt lat="43.643501380411685" lon="13.100977763691217"><ele>154.0</ele><time>2026-04-29T13:04:56Z</time></trkpt><trkpt lat="43.64344072543617" lon="13.101023391092964"><ele>154.0</ele><time>2026-04-29T13:04:57Z</time></trkpt><trkpt lat="43.64336049755523" lon="13.101078194924467"><ele>154.0</ele><time>2026-04-29T13:04:58Z</time></trkpt><trkpt lat="43.64328617214939" lon="13.101148335887094"><ele>154.0</ele><time>2026-04-29T13:04:59Z</time></trkpt><trkpt lat="43.643217060687334" lon="13.1011953647932"><ele>154.0</ele><time>2026-04-29T13:05:00Z</time></trkpt><trkpt lat="43.64314785569056" lon="13.10121661117661"><ele>154.0</ele><time>2026-04-29T13:05:01Z</time></trkpt><trkpt lat="43.643095879092385" lon="13.101268253600514"><ele>154.0</ele><time>2026-04-29T13:05:02Z</time></trkpt><trkpt lat="43.64301205361364" lon="13.10131798153004"><ele>154.0</ele><time>2026-04-29T13:05:04Z</time></trkpt><trkpt lat="43.64294065653965" lon="13.101367850302157"><ele>154.0</ele><time>2026-04-29T13:05:14Z</time></trkpt><trkpt lat="43.64304538413115" lon="13.101544764362439"><ele>154.0</ele><time>2026-04-29T13:05:16Z</time></trkpt><trkpt lat="43.64309440001249" lon="13.101612023030002"><ele>154.2</ele><time>2026-04-29T13:05:17Z</time></trkpt><trkpt lat="43.643150831689" lon="13.101707379818718"><ele>154.4</ele><time>2026-04-29T13:05:18Z</time></trkpt><trkpt lat="43.64321627483797" lon="13.101809888303485"><ele>154.6</ele><time>2026-04-29T13:05:19Z</time></trkpt><trkpt lat="43.64328868573702" lon="13.101929913852928"><ele>154.8</ele><time>2026-04-29T13:05:20Z</time></trkpt><trkpt lat="43.643362553647414" lon="13.102059227897618"><ele>155.0</ele><time>2026-04-29T13:05:21Z</time></trkpt><trkpt lat="43.64343516997245" lon="13.102180256121665"><ele>155.0</ele><time>2026-04-29T13:05:22Z</time></trkpt><trkpt lat="43.643528592859795" lon="13.10229188214969"><ele>155.0</ele><time>2026-04-29T13:05:23Z</time></trkpt><trkpt lat="43.643622566050425" lon="13.10240425690938"><ele>155.0</ele><time>2026-04-29T13:05:24Z</time></trkpt><trkpt lat="43.64371631159966" lon="13.102512933265105"><ele>155.0</ele><time>2026-04-29T13:05:25Z</time></trkpt><trkpt lat="43.64381449804619" lon="13.102615824406923"><ele>153.6</ele><time>2026-04-29T13:05:26Z</time></trkpt><trkpt lat="43.643898561345665" lon="13.102731777877889"><ele>152.2</ele><time>2026-04-29T13:05:27Z</time></trkpt><trkpt lat="43.643999717697625" lon="13.102807345139"><ele>150.8</ele><time>2026-04-29T13:05:28Z</time></trkpt><trkpt lat="43.64408553077334" lon="13.102892254752474"><ele>149.4</ele><time>2026-04-29T13:05:29Z</time></trkpt><trkpt lat="43.64416037543148" lon="13.10296979542088"><ele>148.0</ele><time>2026-04-29T13:05:30Z</time></trkpt><trkpt lat="43.64423242575802" lon="13.103041718596163"><ele>148.0</ele><time>2026-04-29T13:05:31Z</time></trkpt><trkpt lat="43.64430410029578" lon="13.103105547159295"><ele>148.0</ele><time>2026-04-29T13:05:32Z</time></trkpt><trkpt lat="43.644373591154576" lon="13.103171349582789"><ele>148.0</ele><time>2026-04-29T13:05:33Z</time></trkpt><trkpt lat="43.644452302501" lon="13.10324906906357"><ele>148.0</ele><time>2026-04-29T13:05:34Z</time></trkpt><trkpt lat="43.64453213788669" lon="13.103328236300007"><ele>148.0</ele><time>2026-04-29T13:05:35Z</time></trkpt><trkpt lat="43.644605065352" lon="13.103401303624475"><ele>146.6</ele><time>2026-04-29T13:05:36Z</time></trkpt><trkpt lat="43.644678817009876" lon="13.10347593678588"><ele>145.20000000000002</ele><time>2026-04-29T13:05:37Z</time></trkpt><trkpt lat="43.644748402100085" lon="13.103548916884451"><ele>143.8</ele><time>2026-04-29T13:05:38Z</time></trkpt><trkpt lat="43.64482479142894" lon="13.103626734253858"><ele>142.4</ele><time>2026-04-29T13:05:39Z</time></trkpt><trkpt lat="43.644893504060484" lon="13.103708502852102"><ele>141.0</ele><time>2026-04-29T13:05:40Z</time></trkpt><trkpt lat="43.64495937453331" lon="13.103797243382632"><ele>141.0</ele><time>2026-04-29T13:05:41Z</time></trkpt><trkpt lat="43.6449963931175" lon="13.10389485438832"><ele>141.0</ele><time>2026-04-29T13:05:42Z</time></trkpt><trkpt lat="43.64504107660419" lon="13.103996197474073"><ele>141.0</ele><time>2026-04-29T13:05:43Z</time></trkpt><trkpt lat="43.645091181947585" lon="13.10411315368037"><ele>141.0</ele><time>2026-04-29T13:05:44Z</time></trkpt><trkpt lat="43.64515158862366" lon="13.104223652668884"><ele>141.0</ele><time>2026-04-29T13:05:45Z</time></trkpt><trkpt lat="43.645196536525674" lon="13.104344311889452"><ele>142.0</ele><time>2026-04-29T13:05:46Z</time></trkpt><trkpt lat="43.6452431045186" lon="13.104468095180037"><ele>143.0</ele><time>2026-04-29T13:05:47Z</time></trkpt><trkpt lat="43.64528887839624" lon="13.1045835885166"><ele>144.0</ele><time>2026-04-29T13:05:48Z</time></trkpt><trkpt lat="43.645333285206824" lon="13.104698364839928"><ele>145.0</ele><time>2026-04-29T13:05:49Z</time></trkpt><trkpt lat="43.64537537803045" lon="13.104813645134511"><ele>146.0</ele><time>2026-04-29T13:05:50Z</time></trkpt><trkpt lat="43.64541982549663" lon="13.104925699022365"><ele>143.5</ele><time>2026-04-29T13:05:51Z</time></trkpt><trkpt lat="43.64546237367778" lon="13.105041374686659"><ele>141.0</ele><time>2026-04-29T13:05:52Z</time></trkpt><trkpt lat="43.64550089843659" lon="13.105151622640973"><ele>138.5</ele><time>2026-04-29T13:05:53Z</time></trkpt><trkpt lat="43.64553766859942" lon="13.105260287123244"><ele>136.0</ele><time>2026-04-29T13:05:54Z</time></trkpt><trkpt lat="43.64557613951437" lon="13.105368368780013"><ele>133.5</ele><time>2026-04-29T13:05:55Z</time></trkpt><trkpt lat="43.64561377035785" lon="13.105485927356362"><ele>131.0</ele><time>2026-04-29T13:05:56Z</time></trkpt><trkpt lat="43.64564832193517" lon="13.105607535936318"><ele>131.0</ele><time>2026-04-29T13:05:57Z</time></trkpt><trkpt lat="43.645684534561475" lon="13.105729700048343"><ele>131.0</ele><time>2026-04-29T13:05:58Z</time></trkpt><trkpt lat="43.64571120684778" lon="13.105851865548804"><ele>131.0</ele><time>2026-04-29T13:05:59Z</time></trkpt><trkpt lat="43.64573470126157" lon="13.105972977600546"><ele>131.0</ele><time>2026-04-29T13:06:00Z</time></trkpt><trkpt lat="43.645758472126424" lon="13.106099141461414"><ele>131.0</ele><time>2026-04-29T13:06:01Z</time></trkpt><trkpt lat="43.645777154055" lon="13.10622307963882"><ele>131.2</ele><time>2026-04-29T13:06:02Z</time></trkpt><trkpt lat="43.645799143229" lon="13.106353668085694"><ele>131.39999999999998</ele><time>2026-04-29T13:06:03Z</time></trkpt><trkpt lat="43.64581814008029" lon="13.106476277667197"><ele>131.6</ele><time>2026-04-29T13:06:04Z</time></trkpt><trkpt lat="43.64583198750604" lon="13.106609006113631"><ele>131.79999999999998</ele><time>2026-04-29T13:06:05Z</time></trkpt><trkpt lat="43.64584892305446" lon="13.106743155567504"><ele>132.0</ele><time>2026-04-29T13:06:06Z</time></trkpt><trkpt lat="43.64586049298825" lon="13.106879552641534"><ele>132.0</ele><time>2026-04-29T13:06:07Z</time></trkpt><trkpt lat="43.64587252338808" lon="13.107020018457984"><ele>132.0</ele><time>2026-04-29T13:06:08Z</time></trkpt><trkpt lat="43.64587892554643" lon="13.107159989714896"><ele>132.0</ele><time>2026-04-29T13:06:09Z</time></trkpt><trkpt lat="43.64588329590235" lon="13.107309192324026"><ele>132.0</ele><time>2026-04-29T13:06:10Z</time></trkpt><trkpt lat="43.64588594947101" lon="13.107456130173698"><ele>132.0</ele><time>2026-04-29T13:06:11Z</time></trkpt><trkpt lat="43.645874181800444" lon="13.107609392615286"><ele>131.6</ele><time>2026-04-29T13:06:12Z</time></trkpt><trkpt lat="43.64585999573557" lon="13.10776172525653"><ele>131.2</ele><time>2026-04-29T13:06:13Z</time></trkpt><trkpt lat="43.64583654849551" lon="13.10790808566852"><ele>130.8</ele><time>2026-04-29T13:06:14Z</time></trkpt><trkpt lat="43.64581148560227" lon="13.108052668050808"><ele>130.4</ele><time>2026-04-29T13:06:15Z</time></trkpt><trkpt lat="43.64577718100888" lon="13.108200175051609"><ele>130.0</ele><time>2026-04-29T13:06:16Z</time></trkpt><trkpt lat="43.645741903376006" lon="13.10835811176221"><ele>130.0</ele><time>2026-04-29T13:06:17Z</time></trkpt><trkpt lat="43.64571596752448" lon="13.108516954767996"><ele>130.0</ele><time>2026-04-29T13:06:18Z</time></trkpt><trkpt lat="43.64571217553143" lon="13.108636144003697"><ele>130.0</ele><time>2026-04-29T13:06:19Z</time></trkpt><trkpt lat="43.6457240261111" lon="13.10875528817614"><ele>130.0</ele><time>2026-04-29T13:06:20Z</time></trkpt><trkpt lat="43.64574680272019" lon="13.108894336482992"><ele>130.0</ele><time>2026-04-29T13:06:21Z</time></trkpt><trkpt lat="43.64576147767692" lon="13.109044284722659"><ele>129.5</ele><time>2026-04-29T13:06:22Z</time></trkpt><trkpt lat="43.64579060748524" lon="13.109190299811374"><ele>129.0</ele><time>2026-04-29T13:06:23Z</time></trkpt><trkpt lat="43.64581088886342" lon="13.10934426347508"><ele>128.5</ele><time>2026-04-29T13:06:24Z</time></trkpt><trkpt lat="43.645820236058476" lon="13.109497137873634"><ele>128.0</ele><time>2026-04-29T13:06:25Z</time></trkpt><trkpt lat="43.6458484412464" lon="13.1096580333562"><ele>128.0</ele><time>2026-04-29T13:06:26Z</time></trkpt><trkpt lat="43.64590359258148" lon="13.1098059718586"><ele>128.0</ele><time>2026-04-29T13:06:27Z</time></trkpt><trkpt lat="43.645944761256025" lon="13.109969577585476"><ele>128.0</ele><time>2026-04-29T13:06:28Z</time></trkpt><trkpt lat="43.64599388483612" lon="13.110135437475364"><ele>128.0</ele><time>2026-04-29T13:06:29Z</time></trkpt><trkpt lat="43.64603671801794" lon="13.11029607075724"><ele>127.2</ele><time>2026-04-29T13:06:30Z</time></trkpt><trkpt lat="43.646070513209665" lon="13.11044861626237"><ele>126.4</ele><time>2026-04-29T13:06:31Z</time></trkpt><trkpt lat="43.64608100822383" lon="13.110599149092693"><ele>125.60000000000001</ele><time>2026-04-29T13:06:32Z</time></trkpt><trkpt lat="43.64608306962938" lon="13.110753481909754"><ele>124.80000000000001</ele><time>2026-04-29T13:06:33Z</time></trkpt><trkpt lat="43.64607806199547" lon="13.110909140859315"><ele>124.0</ele><time>2026-04-29T13:06:34Z</time></trkpt><trkpt lat="43.64607623493133" lon="13.11106158665318"><ele>123.80000000000001</ele><time>2026-04-29T13:06:35Z</time></trkpt><trkpt lat="43.646071665970545" lon="13.11121966961565"><ele>123.60000000000001</ele><time>2026-04-29T13:06:36Z</time></trkpt><trkpt lat="43.64606531871108" lon="13.11137177633133"><ele>123.4</ele><time>2026-04-29T13:06:37Z</time></trkpt><trkpt lat="43.646057619271076" lon="13.111517748190515"><ele>123.2</ele><time>2026-04-29T13:06:38Z</time></trkpt><trkpt lat="43.64605464676992" lon="13.111668717125719"><ele>123.0</ele><time>2026-04-29T13:06:39Z</time></trkpt><trkpt lat="43.6460541184792" lon="13.1118128241294"><ele>123.0</ele><time>2026-04-29T13:06:40Z</time></trkpt><trkpt lat="43.64605856896224" lon="13.111948370965404"><ele>123.00000000000001</ele><time>2026-04-29T13:06:41Z</time></trkpt><trkpt lat="43.646074158274146" lon="13.112081999264097"><ele>123.00000000000001</ele><time>2026-04-29T13:06:42Z</time></trkpt><trkpt lat="43.64610466885727" lon="13.112204779546007"><ele>123.0</ele><time>2026-04-29T13:06:43Z</time></trkpt><trkpt lat="43.646136501598235" lon="13.112341855311143"><ele>123.0</ele><time>2026-04-29T13:06:44Z</time></trkpt><trkpt lat="43.64616767895384" lon="13.112463044594802"><ele>121.5</ele><time>2026-04-29T13:06:45Z</time></trkpt><trkpt lat="43.646193195602294" lon="13.112582535729523"><ele>120.0</ele><time>2026-04-29T13:06:46Z</time></trkpt><trkpt lat="43.64621397281805" lon="13.112707988434945"><ele>118.5</ele><time>2026-04-29T13:06:47Z</time></trkpt><trkpt lat="43.646233038588356" lon="13.112824886820592"><ele>117.0</ele><time>2026-04-29T13:06:48Z</time></trkpt><trkpt lat="43.64624204095865" lon="13.112942087677238"><ele>115.5</ele><time>2026-04-29T13:06:49Z</time></trkpt><trkpt lat="43.64625187556192" lon="13.113069167844385"><ele>114.0</ele><time>2026-04-29T13:06:50Z</time></trkpt><trkpt lat="43.64624731122973" lon="13.113201945577082"><ele>113.80000000000001</ele><time>2026-04-29T13:06:51Z</time></trkpt><trkpt lat="43.64622769567868" lon="13.113330022849974"><ele>113.60000000000001</ele><time>2026-04-29T13:06:52Z</time></trkpt><trkpt lat="43.6462079670101" lon="13.113475062993317"><ele>113.4</ele><time>2026-04-29T13:06:53Z</time></trkpt><trkpt lat="43.64618901186128" lon="13.113605474808573"><ele>113.2</ele><time>2026-04-29T13:06:54Z</time></trkpt><trkpt lat="43.64617388957679" lon="13.113727845320922"><ele>113.0</ele><time>2026-04-29T13:06:55Z</time></trkpt><trkpt lat="43.64615966351694" lon="13.113854913351846"><ele>112.99999999999999</ele><time>2026-04-29T13:06:56Z</time></trkpt><trkpt lat="43.64614907521484" lon="13.11397686063244"><ele>113.0</ele><time>2026-04-29T13:06:57Z</time></trkpt><trkpt lat="43.6461384738748" lon="13.114092633567374"><ele>113.0</ele><time>2026-04-29T13:06:58Z</time></trkpt><trkpt lat="43.646129745514145" lon="13.114200865868163"><ele>113.0</ele><time>2026-04-29T13:06:59Z</time></trkpt><trkpt lat="43.646122825272634" lon="13.11430388650881"><ele>112.99999999999999</ele><time>2026-04-29T13:07:00Z</time></trkpt><trkpt lat="43.646120296809976" lon="13.114393858594735"><ele>113.0</ele><time>2026-04-29T13:07:01Z</time></trkpt><trkpt lat="43.64611217298017" lon="13.114511113451103"><ele>112.60000000000001</ele><time>2026-04-29T13:07:03Z</time></trkpt><trkpt lat="43.64621588134583" lon="13.114620183850887"><ele>112.20000000000002</ele><time>2026-04-29T13:07:06Z</time></trkpt><trkpt lat="43.646295861057354" lon="13.114652468372105"><ele>111.8</ele><time>2026-04-29T13:07:08Z</time></trkpt><trkpt lat="43.64639764913313" lon="13.114715363341213"><ele>111.4</ele><time>2026-04-29T13:07:10Z</time></trkpt><trkpt lat="43.64646503236124" lon="13.114761192574326"><ele>111.0</ele><time>2026-04-29T13:07:11Z</time></trkpt><trkpt lat="43.64652075472032" lon="13.114843218700871"><ele>110.4</ele><time>2026-04-29T13:07:12Z</time></trkpt><trkpt lat="43.646572200342185" lon="13.114961549642592"><ele>109.8</ele><time>2026-04-29T13:07:13Z</time></trkpt><trkpt lat="43.64663228217842" lon="13.11507576298715"><ele>109.20000000000002</ele><time>2026-04-29T13:07:14Z</time></trkpt><trkpt lat="43.646705753024364" lon="13.115182195037184"><ele>108.60000000000001</ele><time>2026-04-29T13:07:15Z</time></trkpt><trkpt lat="43.64676098896791" lon="13.115293097882285"><ele>108.0</ele><time>2026-04-29T13:07:16Z</time></trkpt><trkpt lat="43.646825945542844" lon="13.115421975350168"><ele>108.0</ele><time>2026-04-29T13:07:17Z</time></trkpt><trkpt lat="43.64689655998939" lon="13.11555560890845"><ele>108.0</ele><time>2026-04-29T13:07:18Z</time></trkpt><trkpt lat="43.64697186443332" lon="13.115688424586773"><ele>108.0</ele><time>2026-04-29T13:07:19Z</time></trkpt><trkpt lat="43.64705114975227" lon="13.11583380614478"><ele>108.0</ele><time>2026-04-29T13:07:20Z</time></trkpt><trkpt lat="43.64712717994806" lon="13.115980475512808"><ele>104.5</ele><time>2026-04-29T13:07:21Z</time></trkpt><trkpt lat="43.647201374156005" lon="13.116123239801496"><ele>101.0</ele><time>2026-04-29T13:07:22Z</time></trkpt><trkpt lat="43.647278357883266" lon="13.116271372378772"><ele>97.5</ele><time>2026-04-29T13:07:23Z</time></trkpt><trkpt lat="43.64735443651375" lon="13.1164165014835"><ele>94.0</ele><time>2026-04-29T13:07:24Z</time></trkpt><trkpt lat="43.647433325687565" lon="13.116562061448006"><ele>94.0</ele><time>2026-04-29T13:07:25Z</time></trkpt><trkpt lat="43.6475054614471" lon="13.1167044118683"><ele>94.0</ele><time>2026-04-29T13:07:26Z</time></trkpt><trkpt lat="43.64757599287181" lon="13.116838864965164"><ele>94.0</ele><time>2026-04-29T13:07:27Z</time></trkpt><trkpt lat="43.647648626401875" lon="13.116962907677706"><ele>94.0</ele><time>2026-04-29T13:07:28Z</time></trkpt><trkpt lat="43.64772045046913" lon="13.117085174949027"><ele>94.0</ele><time>2026-04-29T13:07:29Z</time></trkpt><trkpt lat="43.647792092237" lon="13.117197620553002"><ele>94.0</ele><time>2026-04-29T13:07:30Z</time></trkpt><trkpt lat="43.647857097409016" lon="13.117313011035655"><ele>94.0</ele><time>2026-04-29T13:07:31Z</time></trkpt><trkpt lat="43.64790781334149" lon="13.117442974158921"><ele>94.0</ele><time>2026-04-29T13:07:32Z</time></trkpt><trkpt lat="43.647964318545746" lon="13.11754418364694"><ele>94.0</ele><time>2026-04-29T13:07:33Z</time></trkpt><trkpt lat="43.647967418312106" lon="13.117679907358777"><ele>91.2</ele><time>2026-04-29T13:07:34Z</time></trkpt><trkpt lat="43.647982002018146" lon="13.11781391350307"><ele>88.4</ele><time>2026-04-29T13:07:35Z</time></trkpt><trkpt lat="43.648007266320114" lon="13.11795378717645"><ele>85.6</ele><time>2026-04-29T13:07:36Z</time></trkpt><trkpt lat="43.64801502925524" lon="13.118099426835203"><ele>82.8</ele><time>2026-04-29T13:07:37Z</time></trkpt><trkpt lat="43.64802979155854" lon="13.118243743212467"><ele>80.0</ele><time>2026-04-29T13:07:38Z</time></trkpt><trkpt lat="43.648048037383525" lon="13.118384927464097"><ele>79.75</ele><time>2026-04-29T13:07:39Z</time></trkpt><trkpt lat="43.648063159199076" lon="13.118539533497826"><ele>79.5</ele><time>2026-04-29T13:07:40Z</time></trkpt><trkpt lat="43.64807855969802" lon="13.118696579419439"><ele>79.25</ele><time>2026-04-29T13:07:41Z</time></trkpt><trkpt lat="43.64810166912342" lon="13.118858071392635"><ele>79.0</ele><time>2026-04-29T13:07:42Z</time></trkpt><trkpt lat="43.64811440794031" lon="13.119005251079297"><ele>78.60000000000001</ele><time>2026-04-29T13:07:43Z</time></trkpt><trkpt lat="43.648124397245105" lon="13.119163713578802"><ele>78.2</ele><time>2026-04-29T13:07:44Z</time></trkpt><trkpt lat="43.648138837945936" lon="13.119271103934654"><ele>77.80000000000001</ele><time>2026-04-29T13:07:45Z</time></trkpt><trkpt lat="43.6481558630871" lon="13.119396462965772"><ele>77.4</ele><time>2026-04-29T13:07:46Z</time></trkpt><trkpt lat="43.64817750404793" lon="13.119521317430522"><ele>77.0</ele><time>2026-04-29T13:07:47Z</time></trkpt><trkpt lat="43.648200128548325" lon="13.119665386769205"><ele>77.0</ele><time>2026-04-29T13:07:48Z</time></trkpt><trkpt lat="43.64821506146153" lon="13.119807533987965"><ele>77.0</ele><time>2026-04-29T13:07:49Z</time></trkpt><trkpt lat="43.648220303767374" lon="13.119952702482337"><ele>77.0</ele><time>2026-04-29T13:07:50Z</time></trkpt><trkpt lat="43.64821550994751" lon="13.120094195880753"><ele>77.0</ele><time>2026-04-29T13:07:51Z</time></trkpt><trkpt lat="43.648207199176895" lon="13.120239721191902"><ele>77.0</ele><time>2026-04-29T13:07:52Z</time></trkpt><trkpt lat="43.64820081655136" lon="13.120376043048767"><ele>76.6</ele><time>2026-04-29T13:07:53Z</time></trkpt><trkpt lat="43.6482036157701" lon="13.120497829565654"><ele>76.2</ele><time>2026-04-29T13:07:54Z</time></trkpt><trkpt lat="43.64823083209434" lon="13.12059929214299"><ele>75.8</ele><time>2026-04-29T13:07:55Z</time></trkpt><trkpt lat="43.64827959617232" lon="13.120721313541882"><ele>75.4</ele><time>2026-04-29T13:07:56Z</time></trkpt><trkpt lat="43.64834510416192" lon="13.120836751963415"><ele>75.0</ele><time>2026-04-29T13:07:57Z</time></trkpt><trkpt lat="43.64842869375625" lon="13.12094793290452"><ele>74.25</ele><time>2026-04-29T13:07:58Z</time></trkpt><trkpt lat="43.64852730731909" lon="13.121045539603204"><ele>73.5</ele><time>2026-04-29T13:07:59Z</time></trkpt><trkpt lat="43.648631838572825" lon="13.121135272282343"><ele>72.75</ele><time>2026-04-29T13:08:00Z</time></trkpt><trkpt lat="43.64875049880841" lon="13.121219225529275"><ele>72.0</ele><time>2026-04-29T13:08:01Z</time></trkpt><trkpt lat="43.64886809530951" lon="13.121299321547731"><ele>69.4</ele><time>2026-04-29T13:08:02Z</time></trkpt><trkpt lat="43.64897188023488" lon="13.121386217452134"><ele>66.80000000000001</ele><time>2026-04-29T13:08:03Z</time></trkpt><trkpt lat="43.64905910772227" lon="13.121481212885476"><ele>64.2</ele><time>2026-04-29T13:08:04Z</time></trkpt><trkpt lat="43.649117925337094" lon="13.12159806861789"><ele>61.6</ele><time>2026-04-29T13:08:05Z</time></trkpt><trkpt lat="43.64916329406328" lon="13.12169778066128"><ele>59.0</ele><time>2026-04-29T13:08:06Z</time></trkpt><trkpt lat="43.64920884160974" lon="13.121814398382561"><ele>58.400000000000006</ele><time>2026-04-29T13:08:07Z</time></trkpt><trkpt lat="43.64924900469991" lon="13.121919005528996"><ele>57.800000000000004</ele><time>2026-04-29T13:08:08Z</time></trkpt><trkpt lat="43.64929744446779" lon="13.122016631712617"><ele>57.199999999999996</ele><time>2026-04-29T13:08:09Z</time></trkpt><trkpt lat="43.64935205304972" lon="13.122129335574726"><ele>56.599999999999994</ele><time>2026-04-29T13:08:10Z</time></trkpt><trkpt lat="43.6494371886155" lon="13.12223911819507"><ele>56.0</ele><time>2026-04-29T13:08:11Z</time></trkpt><trkpt lat="43.64953335510227" lon="13.122347643723595"><ele>53.5</ele><time>2026-04-29T13:08:12Z</time></trkpt><trkpt lat="43.649635998297924" lon="13.12246507638706"><ele>51.0</ele><time>2026-04-29T13:08:13Z</time></trkpt><trkpt lat="43.649720613163396" lon="13.122603914071957"><ele>48.5</ele><time>2026-04-29T13:08:14Z</time></trkpt><trkpt lat="43.649807352279325" lon="13.122705319757776"><ele>46.0</ele><time>2026-04-29T13:08:15Z</time></trkpt><trkpt lat="43.64987923924348" lon="13.122807191258774"><ele>46.0</ele><time>2026-04-29T13:08:16Z</time></trkpt><trkpt lat="43.649952354605915" lon="13.12289499998963"><ele>46.0</ele><time>2026-04-29T13:08:17Z</time></trkpt><trkpt lat="43.6500313484973" lon="13.122973542138084"><ele>46.0</ele><time>2026-04-29T13:08:18Z</time></trkpt><trkpt lat="43.65011112863742" lon="13.123043090138054"><ele>46.0</ele><time>2026-04-29T13:08:19Z</time></trkpt><trkpt lat="43.650196714613145" lon="13.123107442297737"><ele>46.0</ele><time>2026-04-29T13:08:20Z</time></trkpt><trkpt lat="43.650290627154" lon="13.123169746289896"><ele>45.199999999999996</ele><time>2026-04-29T13:08:21Z</time></trkpt><trkpt lat="43.650383685995486" lon="13.123238372831908"><ele>44.4</ele><time>2026-04-29T13:08:22Z</time></trkpt><trkpt lat="43.65046123591243" lon="13.123293056925988"><ele>43.6</ele><time>2026-04-29T13:08:23Z</time></trkpt><trkpt lat="43.65052084514109" lon="13.123336892580618"><ele>42.8</ele><time>2026-04-29T13:08:24Z</time></trkpt><trkpt lat="43.65061437813592" lon="13.123443238658545"><ele>42.0</ele><time>2026-04-29T13:08:26Z</time></trkpt><trkpt lat="43.6506882512173" lon="13.123457062367953"><ele>42.0</ele><time>2026-04-29T13:08:27Z</time></trkpt><trkpt lat="43.65077071365622" lon="13.123491787887652"><ele>42.0</ele><time>2026-04-29T13:08:28Z</time></trkpt><trkpt lat="43.65086638842823" lon="13.123518945015514"><ele>42.0</ele><time>2026-04-29T13:08:29Z</time></trkpt><trkpt lat="43.65097688170869" lon="13.12354717549047"><ele>42.0</ele><time>2026-04-29T13:08:30Z</time></trkpt><trkpt lat="43.651086011755176" lon="13.123573485916664"><ele>42.0</ele><time>2026-04-29T13:08:31Z</time></trkpt><trkpt lat="43.65119133735627" lon="13.123603202621334"><ele>41.4</ele><time>2026-04-29T13:08:32Z</time></trkpt><trkpt lat="43.65129719741922" lon="13.123637744912399"><ele>40.800000000000004</ele><time>2026-04-29T13:08:33Z</time></trkpt><trkpt lat="43.651394376856125" lon="13.123678031520136"><ele>40.2</ele><time>2026-04-29T13:08:34Z</time></trkpt><trkpt lat="43.651488949970734" lon="13.12374458540621"><ele>39.6</ele><time>2026-04-29T13:08:35Z</time></trkpt><trkpt lat="43.65156443356349" lon="13.123824202908475"><ele>39.0</ele><time>2026-04-29T13:08:36Z</time></trkpt><trkpt lat="43.65162435596075" lon="13.123921035421409"><ele>39.0</ele><time>2026-04-29T13:08:37Z</time></trkpt><trkpt lat="43.651676370870575" lon="13.124047288780952"><ele>39.0</ele><time>2026-04-29T13:08:38Z</time></trkpt><trkpt lat="43.65172288858269" lon="13.124199637116966"><ele>39.0</ele><time>2026-04-29T13:08:39Z</time></trkpt><trkpt lat="43.65175763379274" lon="13.12436310298879"><ele>39.0</ele><time>2026-04-29T13:08:40Z</time></trkpt><trkpt lat="43.65177326764084" lon="13.124535400926893"><ele>39.25</ele><time>2026-04-29T13:08:41Z</time></trkpt><trkpt lat="43.6517710237996" lon="13.124716712407176"><ele>39.5</ele><time>2026-04-29T13:08:42Z</time></trkpt><trkpt lat="43.651761164592436" lon="13.124908370282448"><ele>39.75</ele><time>2026-04-29T13:08:43Z</time></trkpt><trkpt lat="43.65174909845525" lon="13.125100689294923"><ele>40.0</ele><time>2026-04-29T13:08:44Z</time></trkpt><trkpt lat="43.65175787647609" lon="13.125292688535446"><ele>40.0</ele><time>2026-04-29T13:08:45Z</time></trkpt><trkpt lat="43.651724012285136" lon="13.125499337646684"><ele>40.0</ele><time>2026-04-29T13:08:46Z</time></trkpt><trkpt lat="43.651712127826244" lon="13.125709109102615"><ele>40.0</ele><time>2026-04-29T13:08:47Z</time></trkpt><trkpt lat="43.65170104226002" lon="13.125928584211039"><ele>40.0</ele><time>2026-04-29T13:08:48Z</time></trkpt><trkpt lat="43.651690906186396" lon="13.126163763305888"><ele>40.0</ele><time>2026-04-29T13:08:49Z</time></trkpt><trkpt lat="43.65167948301221" lon="13.126400064696396"><ele>40.0</ele><time>2026-04-29T13:08:50Z</time></trkpt><trkpt lat="43.651670140254126" lon="13.126631022646187"><ele>39.66666666666667</ele><time>2026-04-29T13:08:51Z</time></trkpt><trkpt lat="43.651674723989736" lon="13.126868670880775"><ele>39.333333333333336</ele><time>2026-04-29T13:08:52Z</time></trkpt><trkpt lat="43.65170057942203" lon="13.127117021529777"><ele>39.0</ele><time>2026-04-29T13:08:53Z</time></trkpt><trkpt lat="43.65173707709415" lon="13.127368326865168"><ele>39.0</ele><time>2026-04-29T13:08:54Z</time></trkpt><trkpt lat="43.65179521346303" lon="13.127628975535176"><ele>39.0</ele><time>2026-04-29T13:08:55Z</time></trkpt><trkpt lat="43.65186762922451" lon="13.12790005828742"><ele>39.0</ele><time>2026-04-29T13:08:56Z</time></trkpt><trkpt lat="43.65195697630385" lon="13.128177859645147"><ele>39.0</ele><time>2026-04-29T13:08:57Z</time></trkpt><trkpt lat="43.65205436537875" lon="13.128458149972982"><ele>39.0</ele><time>2026-04-29T13:08:58Z</time></trkpt><trkpt lat="43.65213544338921" lon="13.128575765621894"><ele>39.0</ele><time>2026-04-29T13:08:59Z</time></trkpt><trkpt lat="43.65224672140749" lon="13.128810277035635"><ele>39.0</ele><time>2026-04-29T13:09:00Z</time></trkpt><trkpt lat="43.65235358304332" lon="13.12905537023281"><ele>39.0</ele><time>2026-04-29T13:09:01Z</time></trkpt><trkpt lat="43.652461854379546" lon="13.129302087226778"><ele>39.0</ele><time>2026-04-29T13:09:02Z</time></trkpt><trkpt lat="43.6525660800114" lon="13.129543756188719"><ele>39.0</ele><time>2026-04-29T13:09:03Z</time></trkpt><trkpt lat="43.652672725755664" lon="13.129792419227183"><ele>39.0</ele><time>2026-04-29T13:09:04Z</time></trkpt><trkpt lat="43.652781527941265" lon="13.130035737173145"><ele>39.0</ele><time>2026-04-29T13:09:05Z</time></trkpt><trkpt lat="43.652885300276466" lon="13.130265879779662"><ele>39.333333333333336</ele><time>2026-04-29T13:09:06Z</time></trkpt><trkpt lat="43.65298268228635" lon="13.13048163097022"><ele>39.66666666666667</ele><time>2026-04-29T13:09:07Z</time></trkpt><trkpt lat="43.65307932146421" lon="13.130693524589702"><ele>40.0</ele><time>2026-04-29T13:09:08Z</time></trkpt><trkpt lat="43.6531751797106" lon="13.1309115159478"><ele>39.333333333333336</ele><time>2026-04-29T13:09:09Z</time></trkpt><trkpt lat="43.65326769485829" lon="13.131134524494474"><ele>38.666666666666664</ele><time>2026-04-29T13:09:10Z</time></trkpt><trkpt lat="43.65334582324782" lon="13.131371343044801"><ele>38.0</ele><time>2026-04-29T13:09:11Z</time></trkpt><trkpt lat="43.65340866915374" lon="13.13162037077993"><ele>38.0</ele><time>2026-04-29T13:09:12Z</time></trkpt><trkpt lat="43.65346350630527" lon="13.131882067655255"><ele>38.0</ele><time>2026-04-29T13:09:13Z</time></trkpt><trkpt lat="43.653503852902546" lon="13.132147978462717"><ele>38.0</ele><time>2026-04-29T13:09:14Z</time></trkpt><trkpt lat="43.65353333483161" lon="13.132420967305348"><ele>38.0</ele><time>2026-04-29T13:09:15Z</time></trkpt><trkpt lat="43.653543502183695" lon="13.132679896227954"><ele>38.0</ele><time>2026-04-29T13:09:16Z</time></trkpt><trkpt lat="43.65354379161996" lon="13.13292382744041"><ele>38.0</ele><time>2026-04-29T13:09:17Z</time></trkpt><trkpt lat="43.653548190514606" lon="13.133159670599902"><ele>38.33333333333333</ele><time>2026-04-29T13:09:18Z</time></trkpt><trkpt lat="43.65355297566777" lon="13.133390935050587"><ele>38.666666666666664</ele><time>2026-04-29T13:09:19Z</time></trkpt><trkpt lat="43.65355618925929" lon="13.13363786382972"><ele>39.0</ele><time>2026-04-29T13:09:20Z</time></trkpt><trkpt lat="43.65355786358378" lon="13.133879499021052"><ele>38.666666666666664</ele><time>2026-04-29T13:09:21Z</time></trkpt><trkpt lat="43.65356643662707" lon="13.134133960240893"><ele>38.33333333333333</ele><time>2026-04-29T13:09:22Z</time></trkpt><trkpt lat="43.65357355643591" lon="13.134385873540783"><ele>38.0</ele><time>2026-04-29T13:09:23Z</time></trkpt><trkpt lat="43.65358123520042" lon="13.134644521122121"><ele>37.33333333333333</ele><time>2026-04-29T13:09:24Z</time></trkpt><trkpt lat="43.653590531454746" lon="13.13490434289578"><ele>36.666666666666664</ele><time>2026-04-29T13:09:25Z</time></trkpt><trkpt lat="43.65359409684879" lon="13.135173980981644"><ele>36.0</ele><time>2026-04-29T13:09:26Z</time></trkpt><trkpt lat="43.65360451310498" lon="13.135430284729901"><ele>36.0</ele><time>2026-04-29T13:09:27Z</time></trkpt><trkpt lat="43.65361169628311" lon="13.135677038978427"><ele>36.0</ele><time>2026-04-29T13:09:28Z</time></trkpt><trkpt lat="43.65361821828104" lon="13.135922399715971"><ele>36.0</ele><time>2026-04-29T13:09:29Z</time></trkpt><trkpt lat="43.65362717043992" lon="13.136161930912026"><ele>36.25</ele><time>2026-04-29T13:09:30Z</time></trkpt><trkpt lat="43.653632466618724" lon="13.136376945316783"><ele>36.5</ele><time>2026-04-29T13:09:31Z</time></trkpt><trkpt lat="43.65363859395359" lon="13.136559836884594"><ele>36.75</ele><time>2026-04-29T13:09:32Z</time></trkpt><trkpt lat="43.653645088874626" lon="13.136735179040185"><ele>37.0</ele><time>2026-04-29T13:09:33Z</time></trkpt><trkpt lat="43.65365143444686" lon="13.136905189238853"><ele>39.25</ele><time>2026-04-29T13:09:34Z</time></trkpt><trkpt lat="43.65365641966461" lon="13.137070941768838"><ele>41.5</ele><time>2026-04-29T13:09:35Z</time></trkpt><trkpt lat="43.65366286990544" lon="13.137254333223877"><ele>43.75</ele><time>2026-04-29T13:09:36Z</time></trkpt><trkpt lat="43.653678698021075" lon="13.13745611124209"><ele>46.0</ele><time>2026-04-29T13:09:37Z</time></trkpt><trkpt lat="43.65368387039331" lon="13.137684825742387"><ele>47.333333333333336</ele><time>2026-04-29T13:09:38Z</time></trkpt><trkpt lat="43.65369118022659" lon="13.137919221699145"><ele>48.66666666666667</ele><time>2026-04-29T13:09:39Z</time></trkpt><trkpt lat="43.6536990834601" lon="13.138172645599004"><ele>50.0</ele><time>2026-04-29T13:09:40Z</time></trkpt><trkpt lat="43.65370721222565" lon="13.138432041829438"><ele>51.0</ele><time>2026-04-29T13:09:41Z</time></trkpt><trkpt lat="43.65373054568322" lon="13.13869088501203"><ele>52.0</ele><time>2026-04-29T13:09:42Z</time></trkpt><trkpt lat="43.65373243714094" lon="13.138951696250722"><ele>53.0</ele><time>2026-04-29T13:09:43Z</time></trkpt><trkpt lat="43.65373705129437" lon="13.139209365810785"><ele>53.0</ele><time>2026-04-29T13:09:44Z</time></trkpt><trkpt lat="43.653745892744524" lon="13.13945887620466"><ele>53.0</ele><time>2026-04-29T13:09:45Z</time></trkpt><trkpt lat="43.65375154492124" lon="13.139704669581993"><ele>53.0</ele><time>2026-04-29T13:09:46Z</time></trkpt><trkpt lat="43.65375416672234" lon="13.1399518365383"><ele>51.66666666666667</ele><time>2026-04-29T13:09:47Z</time></trkpt><trkpt lat="43.653745137127686" lon="13.140200241503386"><ele>50.33333333333333</ele><time>2026-04-29T13:09:48Z</time></trkpt><trkpt lat="43.653719608284014" lon="13.140448698626082"><ele>49.0</ele><time>2026-04-29T13:09:49Z</time></trkpt><trkpt lat="43.6536799302642" lon="13.140679444784078"><ele>45.0</ele><time>2026-04-29T13:09:50Z</time></trkpt><trkpt lat="43.65361752433646" lon="13.140885134872118"><ele>41.0</ele><time>2026-04-29T13:09:51Z</time></trkpt><trkpt lat="43.653538845256456" lon="13.141074616174452"><ele>37.0</ele><time>2026-04-29T13:09:52Z</time></trkpt><trkpt lat="43.65345943987442" lon="13.14124729065556"><ele>37.0</ele><time>2026-04-29T13:09:53Z</time></trkpt><trkpt lat="43.65336909650956" lon="13.14143259798942"><ele>37.0</ele><time>2026-04-29T13:09:54Z</time></trkpt><trkpt lat="43.65327853974326" lon="13.141624259776904"><ele>37.0</ele><time>2026-04-29T13:09:55Z</time></trkpt><trkpt lat="43.65318592587378" lon="13.141816360225674"><ele>38.0</ele><time>2026-04-29T13:09:56Z</time></trkpt><trkpt lat="43.65309607403845" lon="13.142016168297475"><ele>39.0</ele><time>2026-04-29T13:09:57Z</time></trkpt><trkpt lat="43.65301301214427" lon="13.14221385156291"><ele>40.0</ele><time>2026-04-29T13:09:58Z</time></trkpt><trkpt lat="43.65292472909265" lon="13.142433717821852"><ele>39.0</ele><time>2026-04-29T13:09:59Z</time></trkpt><trkpt lat="43.65285324122239" lon="13.142651328165487"><ele>38.0</ele><time>2026-04-29T13:10:00Z</time></trkpt><trkpt lat="43.652792457770005" lon="13.142878077174505"><ele>37.0</ele><time>2026-04-29T13:10:01Z</time></trkpt><trkpt lat="43.65273903793669" lon="13.14311386707689"><ele>36.333333333333336</ele><time>2026-04-29T13:10:02Z</time></trkpt><trkpt lat="43.65269653915528" lon="13.143353427477468"><ele>35.666666666666664</ele><time>2026-04-29T13:10:03Z</time></trkpt><trkpt lat="43.65266054684286" lon="13.143601308374885"><ele>35.0</ele><time>2026-04-29T13:10:04Z</time></trkpt><trkpt lat="43.65262497622993" lon="13.143854452654914"><ele>35.33333333333333</ele><time>2026-04-29T13:10:05Z</time></trkpt><trkpt lat="43.65259105503324" lon="13.144107885282951"><ele>35.666666666666664</ele><time>2026-04-29T13:10:06Z</time></trkpt><trkpt lat="43.65255560292453" lon="13.144356501707536"><ele>36.0</ele><time>2026-04-29T13:10:07Z</time></trkpt><trkpt lat="43.652514990087454" lon="13.144615319936337"><ele>36.0</ele><time>2026-04-29T13:10:08Z</time></trkpt><trkpt lat="43.65247634158651" lon="13.144877720425997"><ele>36.0</ele><time>2026-04-29T13:10:09Z</time></trkpt><trkpt lat="43.652436334527216" lon="13.145142702672517"><ele>36.0</ele><time>2026-04-29T13:10:10Z</time></trkpt><trkpt lat="43.65239247879977" lon="13.145414940758235"><ele>36.666666666666664</ele><time>2026-04-29T13:10:11Z</time></trkpt><trkpt lat="43.65234225568094" lon="13.145689070244062"><ele>37.33333333333333</ele><time>2026-04-29T13:10:12Z</time></trkpt><trkpt lat="43.65228184659258" lon="13.145960060497748"><ele>38.0</ele><time>2026-04-29T13:10:13Z</time></trkpt><trkpt lat="43.65221638036736" lon="13.146221643066447"><ele>38.0</ele><time>2026-04-29T13:10:14Z</time></trkpt><trkpt lat="43.652153334525735" lon="13.146475266014244"><ele>38.0</ele><time>2026-04-29T13:10:15Z</time></trkpt><trkpt lat="43.652094626227225" lon="13.14671268841948"><ele>38.0</ele><time>2026-04-29T13:10:16Z</time></trkpt><trkpt lat="43.65203270155476" lon="13.146954735138676"><ele>37.33333333333333</ele><time>2026-04-29T13:10:17Z</time></trkpt><trkpt lat="43.6519728297283" lon="13.147188818091774"><ele>36.666666666666664</ele><time>2026-04-29T13:10:18Z</time></trkpt><trkpt lat="43.651920563569846" lon="13.14741450072141"><ele>36.0</ele><time>2026-04-29T13:10:19Z</time></trkpt><trkpt lat="43.651871201140764" lon="13.147610034785083"><ele>36.0</ele><time>2026-04-29T13:10:20Z</time></trkpt><trkpt lat="43.65183876456967" lon="13.147799751675304"><ele>36.0</ele><time>2026-04-29T13:10:21Z</time></trkpt><trkpt lat="43.65180886507086" lon="13.147972383197043"><ele>36.0</ele><time>2026-04-29T13:10:22Z</time></trkpt><trkpt lat="43.6517933363396" lon="13.148134194761054"><ele>36.0</ele><time>2026-04-29T13:10:23Z</time></trkpt><trkpt lat="43.65179112024837" lon="13.148291237659661"><ele>36.2</ele><time>2026-04-29T13:10:24Z</time></trkpt><trkpt lat="43.651776430609196" lon="13.148454169581305"><ele>36.400000000000006</ele><time>2026-04-29T13:10:25Z</time></trkpt><trkpt lat="43.65179704141045" lon="13.148586161146412"><ele>36.6</ele><time>2026-04-29T13:10:26Z</time></trkpt><trkpt lat="43.651788498659116" lon="13.14871078861814"><ele>36.800000000000004</ele><time>2026-04-29T13:10:27Z</time></trkpt><trkpt lat="43.65175418678246" lon="13.148815284709023"><ele>37.0</ele><time>2026-04-29T13:10:28Z</time></trkpt><trkpt lat="43.6516961479343" lon="13.148904506733606"><ele>37.0</ele><time>2026-04-29T13:10:29Z</time></trkpt><trkpt lat="43.65162111115483" lon="13.148984065883548"><ele>37.0</ele><time>2026-04-29T13:10:30Z</time></trkpt><trkpt lat="43.65155862204536" lon="13.149075333741404"><ele>37.0</ele><time>2026-04-29T13:10:31Z</time></trkpt><trkpt lat="43.65152660769593" lon="13.14918768145787"><ele>37.0</ele><time>2026-04-29T13:10:32Z</time></trkpt><trkpt lat="43.65151213602824" lon="13.149314102288965"><ele>37.0</ele><time>2026-04-29T13:10:33Z</time></trkpt><trkpt lat="43.651551256748924" lon="13.149438826192958"><ele>36.2</ele><time>2026-04-29T13:10:34Z</time></trkpt><trkpt lat="43.65163154779646" lon="13.149530824929732"><ele>35.400000000000006</ele><time>2026-04-29T13:10:35Z</time></trkpt><trkpt lat="43.65171463907394" lon="13.149572321495777"><ele>34.599999999999994</ele><time>2026-04-29T13:10:36Z</time></trkpt><trkpt lat="43.65182129296714" lon="13.149552198248319"><ele>33.8</ele><time>2026-04-29T13:10:37Z</time></trkpt><trkpt lat="43.65194014961793" lon="13.149540307882896"><ele>33.0</ele><time>2026-04-29T13:10:38Z</time></trkpt><trkpt lat="43.65206534587111" lon="13.149556848280675"><ele>33.0</ele><time>2026-04-29T13:10:39Z</time></trkpt><trkpt lat="43.65218233201095" lon="13.149539832458462"><ele>33.0</ele><time>2026-04-29T13:10:40Z</time></trkpt><trkpt lat="43.65230428505007" lon="13.149740066067126"><ele>33.0</ele><time>2026-04-29T13:10:41Z</time></trkpt><trkpt lat="43.65243274357119" lon="13.149817531403352"><ele>33.0</ele><time>2026-04-29T13:10:42Z</time></trkpt><trkpt lat="43.65254449285846" lon="13.149918657975249"><ele>33.0</ele><time>2026-04-29T13:10:43Z</time></trkpt><trkpt lat="43.652653265879906" lon="13.150025802387612"><ele>33.0</ele><time>2026-04-29T13:10:44Z</time></trkpt><trkpt lat="43.65278362916162" lon="13.15011470203653"><ele>33.0</ele><time>2026-04-29T13:10:45Z</time></trkpt><trkpt lat="43.65291347212857" lon="13.150214921786647"><ele>33.0</ele><time>2026-04-29T13:10:46Z</time></trkpt><trkpt lat="43.65304690597848" lon="13.15032598499674"><ele>33.0</ele><time>2026-04-29T13:10:47Z</time></trkpt><trkpt lat="43.653180630777705" lon="13.15043823338754"><ele>33.0</ele><time>2026-04-29T13:10:48Z</time></trkpt><trkpt lat="43.65331943759646" lon="13.150551139077065"><ele>33.0</ele><time>2026-04-29T13:10:49Z</time></trkpt><trkpt lat="43.653459694155565" lon="13.150665406570607"><ele>32.333333333333336</ele><time>2026-04-29T13:10:50Z</time></trkpt><trkpt lat="43.65359804819178" lon="13.15077522827462"><ele>31.666666666666668</ele><time>2026-04-29T13:10:51Z</time></trkpt><trkpt lat="43.65373480245551" lon="13.150881031892157"><ele>31.0</ele><time>2026-04-29T13:10:52Z</time></trkpt><trkpt lat="43.65386664578536" lon="13.150987115930095"><ele>31.0</ele><time>2026-04-29T13:10:53Z</time></trkpt><trkpt lat="43.65399481995019" lon="13.151104866101893"><ele>31.0</ele><time>2026-04-29T13:10:54Z</time></trkpt><trkpt lat="43.65411993818036" lon="13.151241507631173"><ele>31.0</ele><time>2026-04-29T13:10:55Z</time></trkpt><trkpt lat="43.654241302181944" lon="13.151399584387613"><ele>30.0</ele><time>2026-04-29T13:10:56Z</time></trkpt><trkpt lat="43.65435927141404" lon="13.151577682242568"><ele>29.0</ele><time>2026-04-29T13:10:57Z</time></trkpt><trkpt lat="43.654477020791354" lon="13.151780166381124"><ele>28.0</ele><time>2026-04-29T13:10:58Z</time></trkpt><trkpt lat="43.65459122109825" lon="13.15198660457073"><ele>30.0</ele><time>2026-04-29T13:10:59Z</time></trkpt><trkpt lat="43.65470538020028" lon="13.152189206735148"><ele>32.0</ele><time>2026-04-29T13:11:00Z</time></trkpt><trkpt lat="43.65482511439807" lon="13.152401771361967"><ele>34.0</ele><time>2026-04-29T13:11:01Z</time></trkpt><trkpt lat="43.65493875419456" lon="13.152602481999653"><ele>34.0</ele><time>2026-04-29T13:11:02Z</time></trkpt><trkpt lat="43.65505424211148" lon="13.152804431137314"><ele>34.0</ele><time>2026-04-29T13:11:03Z</time></trkpt><trkpt lat="43.65517132533215" lon="13.153015412727353"><ele>34.0</ele><time>2026-04-29T13:11:04Z</time></trkpt><trkpt lat="43.655283265569466" lon="13.153217633600457"><ele>34.0</ele><time>2026-04-29T13:11:05Z</time></trkpt><trkpt lat="43.655394721595144" lon="13.153414103706428"><ele>34.0</ele><time>2026-04-29T13:11:06Z</time></trkpt><trkpt lat="43.65549940565886" lon="13.153592427775704"><ele>34.0</ele><time>2026-04-29T13:11:07Z</time></trkpt><trkpt lat="43.65561473604343" lon="13.153764587373404"><ele>34.0</ele><time>2026-04-29T13:11:08Z</time></trkpt><trkpt lat="43.65573543495177" lon="13.153924770100044"><ele>34.0</ele><time>2026-04-29T13:11:09Z</time></trkpt><trkpt lat="43.65586517053052" lon="13.154076262575183"><ele>34.0</ele><time>2026-04-29T13:11:10Z</time></trkpt><trkpt lat="43.65600651544563" lon="13.154211787425426"><ele>31.666666666666668</ele><time>2026-04-29T13:11:11Z</time></trkpt><trkpt lat="43.656155300237636" lon="13.15433792879789"><ele>29.333333333333336</ele><time>2026-04-29T13:11:12Z</time></trkpt><trkpt lat="43.656312934511305" lon="13.15446509660905"><ele>27.0</ele><time>2026-04-29T13:11:13Z</time></trkpt><trkpt lat="43.65647329200829" lon="13.154597748268186"><ele>27.0</ele><time>2026-04-29T13:11:14Z</time></trkpt><trkpt lat="43.65663375242645" lon="13.154729871507492"><ele>27.0</ele><time>2026-04-29T13:11:15Z</time></trkpt><trkpt lat="43.65679552601934" lon="13.154866342778288"><ele>27.0</ele><time>2026-04-29T13:11:16Z</time></trkpt><trkpt lat="43.65695638691693" lon="13.15500180082106"><ele>26.333333333333336</ele><time>2026-04-29T13:11:17Z</time></trkpt><trkpt lat="43.6571139102785" lon="13.155135291068678"><ele>25.666666666666668</ele><time>2026-04-29T13:11:18Z</time></trkpt><trkpt lat="43.65727180427354" lon="13.155266217662431"><ele>25.0</ele><time>2026-04-29T13:11:19Z</time></trkpt><trkpt lat="43.65742983623206" lon="13.155398966793184"><ele>25.0</ele><time>2026-04-29T13:11:20Z</time></trkpt><trkpt lat="43.65758003493943" lon="13.15552723081836"><ele>25.0</ele><time>2026-04-29T13:11:21Z</time></trkpt><trkpt lat="43.65772761062589" lon="13.155654789069224"><ele>25.0</ele><time>2026-04-29T13:11:22Z</time></trkpt><trkpt lat="43.657870788980055" lon="13.155772224250732"><ele>25.333333333333336</ele><time>2026-04-29T13:11:23Z</time></trkpt><trkpt lat="43.65801081025621" lon="13.155889245168183"><ele>25.666666666666664</ele><time>2026-04-29T13:11:24Z</time></trkpt><trkpt lat="43.65814705759155" lon="13.156002317664267"><ele>26.0</ele><time>2026-04-29T13:11:25Z</time></trkpt><trkpt lat="43.658283286283094" lon="13.156117857372507"><ele>26.0</ele><time>2026-04-29T13:11:26Z</time></trkpt><trkpt lat="43.65841857075911" lon="13.15623194727752"><ele>26.0</ele><time>2026-04-29T13:11:27Z</time></trkpt><trkpt lat="43.65855931439602" lon="13.15634957862093"><ele>26.0</ele><time>2026-04-29T13:11:28Z</time></trkpt><trkpt lat="43.65869977562861" lon="13.156470686763962"><ele>25.666666666666664</ele><time>2026-04-29T13:11:29Z</time></trkpt><trkpt lat="43.65884348910813" lon="13.15659629232327"><ele>25.333333333333336</ele><time>2026-04-29T13:11:30Z</time></trkpt><trkpt lat="43.65898782168632" lon="13.156716281685991"><ele>25.0</ele><time>2026-04-29T13:11:31Z</time></trkpt><trkpt lat="43.65912502126399" lon="13.156825299222803"><ele>25.0</ele><time>2026-04-29T13:11:32Z</time></trkpt><trkpt lat="43.659278378237346" lon="13.156911072823572"><ele>25.0</ele><time>2026-04-29T13:11:33Z</time></trkpt><trkpt lat="43.65942966931956" lon="13.156968186972719"><ele>25.0</ele><time>2026-04-29T13:11:34Z</time></trkpt><trkpt lat="43.659588659061605" lon="13.157013247104755"><ele>25.333333333333336</ele><time>2026-04-29T13:11:35Z</time></trkpt><trkpt lat="43.65974557502919" lon="13.157042846189709"><ele>25.666666666666664</ele><time>2026-04-29T13:11:36Z</time></trkpt><trkpt lat="43.659904421230806" lon="13.157052694890112"><ele>26.0</ele><time>2026-04-29T13:11:37Z</time></trkpt><trkpt lat="43.660070114888015" lon="13.157038266579944"><ele>26.0</ele><time>2026-04-29T13:11:38Z</time></trkpt><trkpt lat="43.66022836017367" lon="13.156996835461248"><ele>26.0</ele><time>2026-04-29T13:11:39Z</time></trkpt><trkpt lat="43.66038308779438" lon="13.156929262975622"><ele>26.0</ele><time>2026-04-29T13:11:40Z</time></trkpt><trkpt lat="43.66054018093851" lon="13.156846323324128"><ele>26.0</ele><time>2026-04-29T13:11:41Z</time></trkpt><trkpt lat="43.660697375659716" lon="13.156760697273326"><ele>26.0</ele><time>2026-04-29T13:11:42Z</time></trkpt><trkpt lat="43.66085566298991" lon="13.156668905403231"><ele>26.0</ele><time>2026-04-29T13:11:43Z</time></trkpt><trkpt lat="43.661010494465536" lon="13.156573583283762"><ele>27.0</ele><time>2026-04-29T13:11:44Z</time></trkpt><trkpt lat="43.661160666715766" lon="13.15648239681777"><ele>28.0</ele><time>2026-04-29T13:11:45Z</time></trkpt><trkpt lat="43.66130816848836" lon="13.156388998698779"><ele>29.0</ele><time>2026-04-29T13:11:46Z</time></trkpt><trkpt lat="43.66145002253887" lon="13.156304647378606"><ele>29.0</ele><time>2026-04-29T13:11:47Z</time></trkpt><trkpt lat="43.66158628707897" lon="13.156224867607692"><ele>29.0</ele><time>2026-04-29T13:11:48Z</time></trkpt><trkpt lat="43.66171423638885" lon="13.156149550564662"><ele>29.0</ele><time>2026-04-29T13:11:49Z</time></trkpt><trkpt lat="43.66184136851291" lon="13.156071475630387"><ele>29.0</ele><time>2026-04-29T13:11:50Z</time></trkpt><trkpt lat="43.661973688528406" lon="13.155987282528034"><ele>29.0</ele><time>2026-04-29T13:11:51Z</time></trkpt><trkpt lat="43.66210673222283" lon="13.15590366828061"><ele>29.0</ele><time>2026-04-29T13:11:52Z</time></trkpt><trkpt lat="43.66224013506073" lon="13.155826980553748"><ele>29.0</ele><time>2026-04-29T13:11:53Z</time></trkpt><trkpt lat="43.66236733454897" lon="13.15574531588997"><ele>29.0</ele><time>2026-04-29T13:11:54Z</time></trkpt><trkpt lat="43.66249200347937" lon="13.155664871022296"><ele>29.0</ele><time>2026-04-29T13:11:55Z</time></trkpt><trkpt lat="43.662616609918885" lon="13.155588646443938"><ele>29.0</ele><time>2026-04-29T13:11:56Z</time></trkpt><trkpt lat="43.66274060174729" lon="13.155514039822721"><ele>29.0</ele><time>2026-04-29T13:11:57Z</time></trkpt><trkpt lat="43.66285449453917" lon="13.155445764987057"><ele>29.0</ele><time>2026-04-29T13:11:58Z</time></trkpt><trkpt lat="43.66296865867494" lon="13.155379790417363"><ele>29.5</ele><time>2026-04-29T13:11:59Z</time></trkpt><trkpt lat="43.66308403601829" lon="13.155318236134162"><ele>30.0</ele><time>2026-04-29T13:12:00Z</time></trkpt><trkpt lat="43.663205735264114" lon="13.155265613610274"><ele>30.5</ele><time>2026-04-29T13:12:01Z</time></trkpt><trkpt lat="43.66331986980617" lon="13.155230197834564"><ele>31.0</ele><time>2026-04-29T13:12:02Z</time></trkpt><trkpt lat="43.66343979900755" lon="13.155194677467552"><ele>31.0</ele><time>2026-04-29T13:12:03Z</time></trkpt><trkpt lat="43.663559088748734" lon="13.155202266302915"><ele>31.0</ele><time>2026-04-29T13:12:04Z</time></trkpt><trkpt lat="43.663688041814694" lon="13.155182616389967"><ele>31.0</ele><time>2026-04-29T13:12:05Z</time></trkpt><trkpt lat="43.66381643536427" lon="13.155197392706134"><ele>31.0</ele><time>2026-04-29T13:12:06Z</time></trkpt><trkpt lat="43.663937535598" lon="13.155226417064585"><ele>31.75</ele><time>2026-04-29T13:12:07Z</time></trkpt><trkpt lat="43.66405036792474" lon="13.155267404850575"><ele>32.5</ele><time>2026-04-29T13:12:08Z</time></trkpt><trkpt lat="43.66416615195694" lon="13.155312444849146"><ele>33.25</ele><time>2026-04-29T13:12:09Z</time></trkpt><trkpt lat="43.66427730830309" lon="13.15536719729936"><ele>34.0</ele><time>2026-04-29T13:12:10Z</time></trkpt><trkpt lat="43.66439445181128" lon="13.155423697390825"><ele>34.25</ele><time>2026-04-29T13:12:11Z</time></trkpt><trkpt lat="43.66450677214137" lon="13.15549679941753"><ele>34.5</ele><time>2026-04-29T13:12:12Z</time></trkpt><trkpt lat="43.66462076871456" lon="13.155581351268816"><ele>34.75</ele><time>2026-04-29T13:12:13Z</time></trkpt><trkpt lat="43.66473378342935" lon="13.155663568499548"><ele>35.0</ele><time>2026-04-29T13:12:14Z</time></trkpt><trkpt lat="43.66486231543649" lon="13.1557438199758"><ele>34.0</ele><time>2026-04-29T13:12:15Z</time></trkpt><trkpt lat="43.664985094192694" lon="13.155833524770756"><ele>33.0</ele><time>2026-04-29T13:12:16Z</time></trkpt><trkpt lat="43.66510820997615" lon="13.155921174176457"><ele>32.0</ele><time>2026-04-29T13:12:17Z</time></trkpt><trkpt lat="43.66522648190128" lon="13.155990274085399"><ele>31.0</ele><time>2026-04-29T13:12:18Z</time></trkpt><trkpt lat="43.66533745716029" lon="13.156049983800246"><ele>30.25</ele><time>2026-04-29T13:12:19Z</time></trkpt><trkpt lat="43.665446708984696" lon="13.156108092842183"><ele>29.5</ele><time>2026-04-29T13:12:20Z</time></trkpt><trkpt lat="43.6655848728694" lon="13.156156677805132"><ele>28.75</ele><time>2026-04-29T13:12:21Z</time></trkpt><trkpt lat="43.6657028433657" lon="13.15619810746091"><ele>28.0</ele><time>2026-04-29T13:12:22Z</time></trkpt><trkpt lat="43.66582772942962" lon="13.156222235053365"><ele>28.0</ele><time>2026-04-29T13:12:23Z</time></trkpt><trkpt lat="43.66596053864913" lon="13.156239526325711"><ele>28.0</ele><time>2026-04-29T13:12:24Z</time></trkpt><trkpt lat="43.66608966503318" lon="13.156244709904547"><ele>28.0</ele><time>2026-04-29T13:12:25Z</time></trkpt><trkpt lat="43.66621101352655" lon="13.15623829809602"><ele>28.0</ele><time>2026-04-29T13:12:26Z</time></trkpt><trkpt lat="43.66632888245307" lon="13.156230069622318"><ele>28.5</ele><time>2026-04-29T13:12:27Z</time></trkpt><trkpt lat="43.66644766234119" lon="13.156220658510465"><ele>29.0</ele><time>2026-04-29T13:12:28Z</time></trkpt><trkpt lat="43.66656930883353" lon="13.1562082605283"><ele>29.5</ele><time>2026-04-29T13:12:29Z</time></trkpt><trkpt lat="43.66669579462951" lon="13.156194252917741"><ele>30.0</ele><time>2026-04-29T13:12:30Z</time></trkpt><trkpt lat="43.6668252594444" lon="13.156178047320278"><ele>29.75</ele><time>2026-04-29T13:12:31Z</time></trkpt><trkpt lat="43.666954984332946" lon="13.15615654927467"><ele>29.5</ele><time>2026-04-29T13:12:32Z</time></trkpt><trkpt lat="43.667084384045715" lon="13.156136284644395"><ele>29.25</ele><time>2026-04-29T13:12:33Z</time></trkpt><trkpt lat="43.66722501960959" lon="13.156115607640372"><ele>29.0</ele><time>2026-04-29T13:12:34Z</time></trkpt><trkpt lat="43.66737620619187" lon="13.156091282644446"><ele>29.0</ele><time>2026-04-29T13:12:35Z</time></trkpt><trkpt lat="43.66753023864411" lon="13.156079621233035"><ele>29.0</ele><time>2026-04-29T13:12:36Z</time></trkpt><trkpt lat="43.66768423906582" lon="13.156065444400841"><ele>29.0</ele><time>2026-04-29T13:12:37Z</time></trkpt><trkpt lat="43.66783885077312" lon="13.156068324265322"><ele>30.0</ele><time>2026-04-29T13:12:38Z</time></trkpt><trkpt lat="43.667997109273905" lon="13.156095729030742"><ele>31.0</ele><time>2026-04-29T13:12:39Z</time></trkpt><trkpt lat="43.668160572900554" lon="13.156142193838852"><ele>32.0</ele><time>2026-04-29T13:12:40Z</time></trkpt><trkpt lat="43.66832117720514" lon="13.156208912560306"><ele>32.0</ele><time>2026-04-29T13:12:41Z</time></trkpt><trkpt lat="43.66847553451345" lon="13.156303065035091"><ele>32.0</ele><time>2026-04-29T13:12:42Z</time></trkpt><trkpt lat="43.66862547320749" lon="13.15640681183238"><ele>32.0</ele><time>2026-04-29T13:12:43Z</time></trkpt><trkpt lat="43.66874701668848" lon="13.156522282026494"><ele>31.0</ele><time>2026-04-29T13:12:44Z</time></trkpt><trkpt lat="43.66887187056512" lon="13.156655608646915"><ele>30.0</ele><time>2026-04-29T13:12:45Z</time></trkpt><trkpt lat="43.668984756946394" lon="13.15680035343941"><ele>29.0</ele><time>2026-04-29T13:12:46Z</time></trkpt><trkpt lat="43.66908696018111" lon="13.156957358068468"><ele>29.0</ele><time>2026-04-29T13:12:47Z</time></trkpt><trkpt lat="43.669178915443766" lon="13.157110566850484"><ele>29.0</ele><time>2026-04-29T13:12:48Z</time></trkpt><trkpt lat="43.669276867410254" lon="13.157269070745112"><ele>29.0</ele><time>2026-04-29T13:12:49Z</time></trkpt><trkpt lat="43.66938050791065" lon="13.157424820921129"><ele>29.0</ele><time>2026-04-29T13:12:50Z</time></trkpt><trkpt lat="43.66946066181415" lon="13.157580237239012"><ele>30.333333333333332</ele><time>2026-04-29T13:12:51Z</time></trkpt><trkpt lat="43.66955891559273" lon="13.157740631703494"><ele>31.666666666666664</ele><time>2026-04-29T13:12:52Z</time></trkpt><trkpt lat="43.66965406258329" lon="13.157900869338338"><ele>33.0</ele><time>2026-04-29T13:12:53Z</time></trkpt><trkpt lat="43.669753995895185" lon="13.158062445718532"><ele>32.666666666666664</ele><time>2026-04-29T13:12:54Z</time></trkpt><trkpt lat="43.66984921995317" lon="13.15822168787755"><ele>32.33333333333333</ele><time>2026-04-29T13:12:55Z</time></trkpt><trkpt lat="43.66994641542561" lon="13.15838120278351"><ele>32.0</ele><time>2026-04-29T13:12:56Z</time></trkpt><trkpt lat="43.67004965394111" lon="13.158548071876012"><ele>32.0</ele><time>2026-04-29T13:12:57Z</time></trkpt><trkpt lat="43.67013882060614" lon="13.158705045509905"><ele>32.0</ele><time>2026-04-29T13:12:58Z</time></trkpt><trkpt lat="43.67023146051526" lon="13.158853195055121"><ele>32.0</ele><time>2026-04-29T13:12:59Z</time></trkpt><trkpt lat="43.67032234029579" lon="13.158996975481381"><ele>32.0</ele><time>2026-04-29T13:13:00Z</time></trkpt><trkpt lat="43.670416471822804" lon="13.15914853542682"><ele>31.5</ele><time>2026-04-29T13:13:01Z</time></trkpt><trkpt lat="43.67051016991695" lon="13.159302443219545"><ele>31.0</ele><time>2026-04-29T13:13:02Z</time></trkpt><trkpt lat="43.670606976803114" lon="13.15946262918142"><ele>30.5</ele><time>2026-04-29T13:13:03Z</time></trkpt><trkpt lat="43.67070804610889" lon="13.159621293052176"><ele>30.0</ele><time>2026-04-29T13:13:04Z</time></trkpt><trkpt lat="43.670814380701884" lon="13.159774521667837"><ele>30.25</ele><time>2026-04-29T13:13:05Z</time></trkpt><trkpt lat="43.67092176132383" lon="13.159910283907301"><ele>30.5</ele><time>2026-04-29T13:13:06Z</time></trkpt><trkpt lat="43.67102736625447" lon="13.160040085014067"><ele>30.75</ele><time>2026-04-29T13:13:07Z</time></trkpt><trkpt lat="43.67113135606956" lon="13.160158259249851"><ele>31.0</ele><time>2026-04-29T13:13:08Z</time></trkpt><trkpt lat="43.6712478159395" lon="13.160264364913756"><ele>31.0</ele><time>2026-04-29T13:13:09Z</time></trkpt><trkpt lat="43.67135730257131" lon="13.16037524642931"><ele>31.0</ele><time>2026-04-29T13:13:10Z</time></trkpt><trkpt lat="43.671482459655294" lon="13.160481040612511"><ele>31.0</ele><time>2026-04-29T13:13:11Z</time></trkpt><trkpt lat="43.67160872414346" lon="13.160577425575639"><ele>31.0</ele><time>2026-04-29T13:13:12Z</time></trkpt><trkpt lat="43.671725795395645" lon="13.160673464270944"><ele>29.75</ele><time>2026-04-29T13:13:13Z</time></trkpt><trkpt lat="43.6718436748725" lon="13.160773125390188"><ele>28.5</ele><time>2026-04-29T13:13:14Z</time></trkpt><trkpt lat="43.671953410570694" lon="13.160862870082477"><ele>27.25</ele><time>2026-04-29T13:13:15Z</time></trkpt><trkpt lat="43.67207551496811" lon="13.160948444789504"><ele>26.0</ele><time>2026-04-29T13:13:16Z</time></trkpt><trkpt lat="43.67219058005491" lon="13.161043519948132"><ele>26.0</ele><time>2026-04-29T13:13:17Z</time></trkpt><trkpt lat="43.67231295359809" lon="13.161143059887177"><ele>26.0</ele><time>2026-04-29T13:13:18Z</time></trkpt><trkpt lat="43.67244053312498" lon="13.161242023165839"><ele>26.0</ele><time>2026-04-29T13:13:19Z</time></trkpt><trkpt lat="43.67257039699014" lon="13.161345071374573"><ele>26.0</ele><time>2026-04-29T13:13:20Z</time></trkpt><trkpt lat="43.67270528553043" lon="13.161451496045277"><ele>25.333333333333332</ele><time>2026-04-29T13:13:21Z</time></trkpt><trkpt lat="43.67284558664142" lon="13.161563125410451"><ele>24.666666666666664</ele><time>2026-04-29T13:13:22Z</time></trkpt><trkpt lat="43.67300679072822" lon="13.161691441301432"><ele>24.0</ele><time>2026-04-29T13:13:23Z</time></trkpt><trkpt lat="43.673163884284854" lon="13.161810965649046"><ele>24.0</ele><time>2026-04-29T13:13:24Z</time></trkpt><trkpt lat="43.6733332313677" lon="13.161946289632425"><ele>24.0</ele><time>2026-04-29T13:13:25Z</time></trkpt><trkpt lat="43.67347481658412" lon="13.162061032087967"><ele>24.0</ele><time>2026-04-29T13:13:26Z</time></trkpt><trkpt lat="43.67361591475038" lon="13.162178340918368"><ele>23.666666666666668</ele><time>2026-04-29T13:13:27Z</time></trkpt><trkpt lat="43.67375020485155" lon="13.162291735402308"><ele>23.333333333333336</ele><time>2026-04-29T13:13:28Z</time></trkpt><trkpt lat="43.67388285500961" lon="13.162395873054294"><ele>23.0</ele><time>2026-04-29T13:13:29Z</time></trkpt><trkpt lat="43.67401944320903" lon="13.162501678467292"><ele>22.0</ele><time>2026-04-29T13:13:30Z</time></trkpt><trkpt lat="43.674156569750984" lon="13.162606708563565"><ele>21.0</ele><time>2026-04-29T13:13:31Z</time></trkpt><trkpt lat="43.674291655833656" lon="13.162712317484736"><ele>20.0</ele><time>2026-04-29T13:13:32Z</time></trkpt><trkpt lat="43.67442833031395" lon="13.16281352432255"><ele>21.333333333333336</ele><time>2026-04-29T13:13:33Z</time></trkpt><trkpt lat="43.67456854696872" lon="13.162924541520377"><ele>22.666666666666668</ele><time>2026-04-29T13:13:34Z</time></trkpt><trkpt lat="43.67470943767159" lon="13.163042963817256"><ele>24.0</ele><time>2026-04-29T13:13:35Z</time></trkpt><trkpt lat="43.67484432113214" lon="13.163157532140819"><ele>23.333333333333332</ele><time>2026-04-29T13:13:36Z</time></trkpt><trkpt lat="43.674978551531055" lon="13.163271049122397"><ele>22.666666666666664</ele><time>2026-04-29T13:13:37Z</time></trkpt><trkpt lat="43.67511665984868" lon="13.163379992470743"><ele>22.0</ele><time>2026-04-29T13:13:38Z</time></trkpt><trkpt lat="43.67525727781217" lon="13.163495306242083"><ele>23.333333333333332</ele><time>2026-04-29T13:13:39Z</time></trkpt><trkpt lat="43.67539821142676" lon="13.163609758391802"><ele>24.666666666666664</ele><time>2026-04-29T13:13:40Z</time></trkpt><trkpt lat="43.67554131049884" lon="13.163729896744774"><ele>26.0</ele><time>2026-04-29T13:13:41Z</time></trkpt><trkpt lat="43.67568002245466" lon="13.163846090696309"><ele>26.0</ele><time>2026-04-29T13:13:42Z</time></trkpt><trkpt lat="43.67582139612936" lon="13.163966572678383"><ele>26.0</ele><time>2026-04-29T13:13:43Z</time></trkpt><trkpt lat="43.675956072764485" lon="13.164093516102534"><ele>26.0</ele><time>2026-04-29T13:13:44Z</time></trkpt><trkpt lat="43.6760834089642" lon="13.164227081795179"><ele>27.0</ele><time>2026-04-29T13:13:45Z</time></trkpt><trkpt lat="43.67621312863487" lon="13.164374694154418"><ele>28.0</ele><time>2026-04-29T13:13:46Z</time></trkpt><trkpt lat="43.67633923075196" lon="13.164533059032603"><ele>29.0</ele><time>2026-04-29T13:13:47Z</time></trkpt><trkpt lat="43.67645804227887" lon="13.16469424923937"><ele>29.0</ele><time>2026-04-29T13:13:48Z</time></trkpt><trkpt lat="43.67656541120698" lon="13.164847555695253"><ele>29.0</ele><time>2026-04-29T13:13:49Z</time></trkpt><trkpt lat="43.67667743881692" lon="13.165020474645766"><ele>29.0</ele><time>2026-04-29T13:13:50Z</time></trkpt><trkpt lat="43.676783417219845" lon="13.165190114885121"><ele>29.0</ele><time>2026-04-29T13:13:51Z</time></trkpt><trkpt lat="43.67689005214294" lon="13.165358237394873"><ele>29.0</ele><time>2026-04-29T13:13:52Z</time></trkpt><trkpt lat="43.67699229803597" lon="13.165529298171574"><ele>29.0</ele><time>2026-04-29T13:13:53Z</time></trkpt><trkpt lat="43.677100210063905" lon="13.165700194042417"><ele>29.0</ele><time>2026-04-29T13:13:54Z</time></trkpt><trkpt lat="43.677207844388676" lon="13.165873106378335"><ele>29.0</ele><time>2026-04-29T13:13:55Z</time></trkpt><trkpt lat="43.67731524915825" lon="13.166048288627817"><ele>29.0</ele><time>2026-04-29T13:13:56Z</time></trkpt><trkpt lat="43.67741935218951" lon="13.166218746311726"><ele>29.0</ele><time>2026-04-29T13:13:57Z</time></trkpt><trkpt lat="43.67752003792755" lon="13.166387394685271"><ele>29.0</ele><time>2026-04-29T13:13:58Z</time></trkpt><trkpt lat="43.67762105972486" lon="13.166556647943972"><ele>29.0</ele><time>2026-04-29T13:13:59Z</time></trkpt><trkpt lat="43.6777182921533" lon="13.166719887450373"><ele>31.0</ele><time>2026-04-29T13:14:00Z</time></trkpt><trkpt lat="43.677826078206444" lon="13.16689296400313"><ele>33.0</ele><time>2026-04-29T13:14:01Z</time></trkpt><trkpt lat="43.677935956848174" lon="13.167063230748022"><ele>35.0</ele><time>2026-04-29T13:14:02Z</time></trkpt><trkpt lat="43.678042877013084" lon="13.167233493083648"><ele>33.33333333333333</ele><time>2026-04-29T13:14:03Z</time></trkpt><trkpt lat="43.67815555653731" lon="13.167401537334017"><ele>31.666666666666664</ele><time>2026-04-29T13:14:04Z</time></trkpt><trkpt lat="43.67826655494574" lon="13.16755641650071"><ele>30.0</ele><time>2026-04-29T13:14:05Z</time></trkpt><trkpt lat="43.67838730815191" lon="13.167717711697444"><ele>30.0</ele><time>2026-04-29T13:14:06Z</time></trkpt><trkpt lat="43.67851322410516" lon="13.167872163511907"><ele>30.0</ele><time>2026-04-29T13:14:07Z</time></trkpt><trkpt lat="43.67865318872346" lon="13.168035879255243"><ele>30.0</ele><time>2026-04-29T13:14:08Z</time></trkpt><trkpt lat="43.678790941238745" lon="13.168193120482059"><ele>31.0</ele><time>2026-04-29T13:14:09Z</time></trkpt><trkpt lat="43.67894082973812" lon="13.168356766258253"><ele>32.0</ele><time>2026-04-29T13:14:10Z</time></trkpt><trkpt lat="43.67909780932431" lon="13.168531408641984"><ele>33.0</ele><time>2026-04-29T13:14:11Z</time></trkpt><trkpt lat="43.67924035015798" lon="13.168691609721984"><ele>33.0</ele><time>2026-04-29T13:14:12Z</time></trkpt><trkpt lat="43.67937888275811" lon="13.168842899405313"><ele>33.0</ele><time>2026-04-29T13:14:13Z</time></trkpt><trkpt lat="43.679517552642324" lon="13.168983082179517"><ele>33.0</ele><time>2026-04-29T13:14:14Z</time></trkpt><trkpt lat="43.67964723856108" lon="13.169125142381455"><ele>31.333333333333336</ele><time>2026-04-29T13:14:15Z</time></trkpt><trkpt lat="43.67977712232351" lon="13.169266652782943"><ele>29.666666666666668</ele><time>2026-04-29T13:14:16Z</time></trkpt><trkpt lat="43.67991708385684" lon="13.169406219518248"><ele>28.0</ele><time>2026-04-29T13:14:17Z</time></trkpt><trkpt lat="43.68006299865471" lon="13.169537750598863"><ele>28.0</ele><time>2026-04-29T13:14:18Z</time></trkpt><trkpt lat="43.68022348758873" lon="13.169665188947809"><ele>28.0</ele><time>2026-04-29T13:14:19Z</time></trkpt><trkpt lat="43.6803642525409" lon="13.169771784537518"><ele>28.0</ele><time>2026-04-29T13:14:20Z</time></trkpt><trkpt lat="43.68052695654089" lon="13.169889056650804"><ele>27.666666666666668</ele><time>2026-04-29T13:14:21Z</time></trkpt><trkpt lat="43.68069100646219" lon="13.169993992495105"><ele>27.333333333333336</ele><time>2026-04-29T13:14:22Z</time></trkpt><trkpt lat="43.68086272680646" lon="13.170091011359581"><ele>27.0</ele><time>2026-04-29T13:14:23Z</time></trkpt><trkpt lat="43.68104513246729" lon="13.170181829973915"><ele>28.666666666666664</ele><time>2026-04-29T13:14:24Z</time></trkpt><trkpt lat="43.681239749465895" lon="13.17028472158615"><ele>30.333333333333332</ele><time>2026-04-29T13:14:25Z</time></trkpt><trkpt lat="43.68143915939445" lon="13.170422684729608"><ele>32.0</ele><time>2026-04-29T13:14:26Z</time></trkpt><trkpt lat="43.68165605901295" lon="13.170556834519717"><ele>32.0</ele><time>2026-04-29T13:14:27Z</time></trkpt><trkpt lat="43.681873101944795" lon="13.170672973595027"><ele>32.0</ele><time>2026-04-29T13:14:28Z</time></trkpt><trkpt lat="43.68206616053242" lon="13.170833578623768"><ele>31.333333333333332</ele><time>2026-04-29T13:14:29Z</time></trkpt><trkpt lat="43.682240547283364" lon="13.171008055582073"><ele>30.666666666666664</ele><time>2026-04-29T13:14:30Z</time></trkpt><trkpt lat="43.68239695283589" lon="13.171194119568245"><ele>30.0</ele><time>2026-04-29T13:14:31Z</time></trkpt><trkpt lat="43.68254078157711" lon="13.17138844535037"><ele>29.333333333333336</ele><time>2026-04-29T13:14:32Z</time></trkpt><trkpt lat="43.68267057247128" lon="13.1715845431166"><ele>28.666666666666668</ele><time>2026-04-29T13:14:33Z</time></trkpt><trkpt lat="43.68278358262749" lon="13.171781059484232"><ele>28.0</ele><time>2026-04-29T13:14:34Z</time></trkpt><trkpt lat="43.682877230496814" lon="13.17198316655257"><ele>28.0</ele><time>2026-04-29T13:14:35Z</time></trkpt><trkpt lat="43.68298311654535" lon="13.172185872913955"><ele>28.0</ele><time>2026-04-29T13:14:36Z</time></trkpt><trkpt lat="43.68308448445908" lon="13.172381051219963"><ele>28.0</ele><time>2026-04-29T13:14:37Z</time></trkpt><trkpt lat="43.683188592721706" lon="13.172580304098307"><ele>27.333333333333336</ele><time>2026-04-29T13:14:38Z</time></trkpt><trkpt lat="43.68329350023828" lon="13.172782301167889"><ele>26.666666666666664</ele><time>2026-04-29T13:14:39Z</time></trkpt><trkpt lat="43.683397885749365" lon="13.172979689323059"><ele>26.0</ele><time>2026-04-29T13:14:40Z</time></trkpt><trkpt lat="43.68350530225173" lon="13.173184225245775"><ele>28.0</ele><time>2026-04-29T13:14:41Z</time></trkpt><trkpt lat="43.68361265771326" lon="13.173391256710936"><ele>30.0</ele><time>2026-04-29T13:14:42Z</time></trkpt><trkpt lat="43.683726164696004" lon="13.17359689522381"><ele>32.0</ele><time>2026-04-29T13:14:43Z</time></trkpt><trkpt lat="43.683844598913026" lon="13.173809729544802"><ele>29.666666666666664</ele><time>2026-04-29T13:14:44Z</time></trkpt><trkpt lat="43.683947818014566" lon="13.174045820190392"><ele>27.333333333333336</ele><time>2026-04-29T13:14:45Z</time></trkpt><trkpt lat="43.68406550696858" lon="13.174272738505188"><ele>25.0</ele><time>2026-04-29T13:14:46Z</time></trkpt><trkpt lat="43.684145162397" lon="13.174416728883193"><ele>25.0</ele><time>2026-04-29T13:14:47Z</time></trkpt><trkpt lat="43.684251881695836" lon="13.17462611496305"><ele>25.0</ele><time>2026-04-29T13:14:48Z</time></trkpt><trkpt lat="43.684365435278444" lon="13.174837803593826"><ele>25.0</ele><time>2026-04-29T13:14:49Z</time></trkpt><trkpt lat="43.68447599026015" lon="13.175046672851227"><ele>25.666666666666668</ele><time>2026-04-29T13:14:50Z</time></trkpt><trkpt lat="43.68458483123796" lon="13.175252627435185"><ele>26.333333333333336</ele><time>2026-04-29T13:14:51Z</time></trkpt><trkpt lat="43.68469296619487" lon="13.17546188971488"><ele>27.0</ele><time>2026-04-29T13:14:52Z</time></trkpt><trkpt lat="43.684792496044864" lon="13.1756721785472"><ele>25.666666666666668</ele><time>2026-04-29T13:14:53Z</time></trkpt><trkpt lat="43.68489765255433" lon="13.175888684850074"><ele>24.333333333333336</ele><time>2026-04-29T13:14:54Z</time></trkpt><trkpt lat="43.68501334162324" lon="13.176109176169449"><ele>23.0</ele><time>2026-04-29T13:14:55Z</time></trkpt><trkpt lat="43.68513148185055" lon="13.176334750440917"><ele>22.0</ele><time>2026-04-29T13:14:56Z</time></trkpt><trkpt lat="43.685250936281136" lon="13.176566815808878"><ele>21.0</ele><time>2026-04-29T13:14:57Z</time></trkpt><trkpt lat="43.685377302142115" lon="13.176810459627209"><ele>20.0</ele><time>2026-04-29T13:14:58Z</time></trkpt><trkpt lat="43.68550644707043" lon="13.177058939491019"><ele>20.0</ele><time>2026-04-29T13:14:59Z</time></trkpt><trkpt lat="43.68563244680185" lon="13.177312263558289"><ele>20.0</ele><time>2026-04-29T13:15:00Z</time></trkpt><trkpt lat="43.68575792467283" lon="13.177543665351346"><ele>20.0</ele><time>2026-04-29T13:15:01Z</time></trkpt><trkpt lat="43.68587693191683" lon="13.177767178577566"><ele>19.333333333333336</ele><time>2026-04-29T13:15:02Z</time></trkpt><trkpt lat="43.68598655405044" lon="13.177976478857248"><ele>18.666666666666668</ele><time>2026-04-29T13:15:03Z</time></trkpt><trkpt lat="43.686095532827665" lon="13.178150573022155"><ele>18.0</ele><time>2026-04-29T13:15:04Z</time></trkpt><trkpt lat="43.68621814832967" lon="13.178303486222424"><ele>17.333333333333332</ele><time>2026-04-29T13:15:05Z</time></trkpt><trkpt lat="43.68635034243059" lon="13.178436059393277"><ele>16.666666666666664</ele><time>2026-04-29T13:15:06Z</time></trkpt><trkpt lat="43.68648588314839" lon="13.178543089737522"><ele>16.0</ele><time>2026-04-29T13:15:07Z</time></trkpt><trkpt lat="43.686624387776334" lon="13.178632507562769"><ele>16.0</ele><time>2026-04-29T13:15:08Z</time></trkpt><trkpt lat="43.68676261434222" lon="13.178703186040256"><ele>16.0</ele><time>2026-04-29T13:15:09Z</time></trkpt><trkpt lat="43.68690826781153" lon="13.17876353295724"><ele>16.0</ele><time>2026-04-29T13:15:10Z</time></trkpt><trkpt lat="43.687058942885756" lon="13.178809629517703"><ele>16.0</ele><time>2026-04-29T13:15:11Z</time></trkpt><trkpt lat="43.687220681488796" lon="13.178837119156498"><ele>16.0</ele><time>2026-04-29T13:15:12Z</time></trkpt><trkpt lat="43.6873802522962" lon="13.178846012080209"><ele>16.0</ele><time>2026-04-29T13:15:13Z</time></trkpt><trkpt lat="43.68752724339277" lon="13.178836834961986"><ele>16.0</ele><time>2026-04-29T13:15:14Z</time></trkpt><trkpt lat="43.687665403464" lon="13.178806027218904"><ele>16.0</ele><time>2026-04-29T13:15:15Z</time></trkpt><trkpt lat="43.68780317118595" lon="13.17877876464045"><ele>16.0</ele><time>2026-04-29T13:15:16Z</time></trkpt><trkpt lat="43.687941353271675" lon="13.17874713306221"><ele>16.0</ele><time>2026-04-29T13:15:17Z</time></trkpt><trkpt lat="43.68807582320881" lon="13.178718475195108"><ele>16.0</ele><time>2026-04-29T13:15:18Z</time></trkpt><trkpt lat="43.68821016143911" lon="13.178691554604889"><ele>16.0</ele><time>2026-04-29T13:15:19Z</time></trkpt><trkpt lat="43.68834221846737" lon="13.178667052465013"><ele>16.0</ele><time>2026-04-29T13:15:20Z</time></trkpt><trkpt lat="43.68847805629612" lon="13.178645538146819"><ele>16.0</ele><time>2026-04-29T13:15:21Z</time></trkpt><trkpt lat="43.688618605545564" lon="13.178623391395169"><ele>16.0</ele><time>2026-04-29T13:15:22Z</time></trkpt><trkpt lat="43.68875369424528" lon="13.178605135026425"><ele>16.0</ele><time>2026-04-29T13:15:23Z</time></trkpt><trkpt lat="43.68888744805535" lon="13.178601649330625"><ele>16.0</ele><time>2026-04-29T13:15:24Z</time></trkpt><trkpt lat="43.68903034406675" lon="13.178612857790592"><ele>16.0</ele><time>2026-04-29T13:15:25Z</time></trkpt><trkpt lat="43.68917635496617" lon="13.178656951962186"><ele>16.0</ele><time>2026-04-29T13:15:26Z</time></trkpt><trkpt lat="43.689319273184374" lon="13.178708121852447"><ele>16.0</ele><time>2026-04-29T13:15:27Z</time></trkpt><trkpt lat="43.68945696050163" lon="13.178764472780694"><ele>16.0</ele><time>2026-04-29T13:15:28Z</time></trkpt><trkpt lat="43.68958887696705" lon="13.17883144123042"><ele>16.0</ele><time>2026-04-29T13:15:29Z</time></trkpt><trkpt lat="43.68970815561575" lon="13.178902153832412"><ele>16.25</ele><time>2026-04-29T13:15:30Z</time></trkpt><trkpt lat="43.68981846628225" lon="13.17897793946222"><ele>16.5</ele><time>2026-04-29T13:15:31Z</time></trkpt><trkpt lat="43.689918515716236" lon="13.179058314206445"><ele>16.75</ele><time>2026-04-29T13:15:32Z</time></trkpt><trkpt lat="43.690014090497264" lon="13.179148498669852"><ele>17.0</ele><time>2026-04-29T13:15:33Z</time></trkpt><trkpt lat="43.69010348994325" lon="13.179245042023629"><ele>17.6</ele><time>2026-04-29T13:15:34Z</time></trkpt><trkpt lat="43.690185546965736" lon="13.179336996270454"><ele>18.2</ele><time>2026-04-29T13:15:35Z</time></trkpt><trkpt lat="43.6902602974629" lon="13.179428050680123"><ele>18.8</ele><time>2026-04-29T13:15:36Z</time></trkpt><trkpt lat="43.690331100209285" lon="13.179517347361044"><ele>19.4</ele><time>2026-04-29T13:15:37Z</time></trkpt><trkpt lat="43.69040561871693" lon="13.179607652120342"><ele>20.0</ele><time>2026-04-29T13:15:38Z</time></trkpt><trkpt lat="43.69049366277791" lon="13.179713787425971"><ele>21.0</ele><time>2026-04-29T13:15:39Z</time></trkpt><trkpt lat="43.69058795889695" lon="13.179828096403758"><ele>22.0</ele><time>2026-04-29T13:15:40Z</time></trkpt><trkpt lat="43.69068583286211" lon="13.179949031786016"><ele>23.0</ele><time>2026-04-29T13:15:41Z</time></trkpt><trkpt lat="43.69077497819568" lon="13.180062717648756"><ele>24.0</ele><time>2026-04-29T13:15:42Z</time></trkpt><trkpt lat="43.690862248863596" lon="13.180175880635327"><ele>24.75</ele><time>2026-04-29T13:15:43Z</time></trkpt><trkpt lat="43.690952696870504" lon="13.180287882934595"><ele>25.5</ele><time>2026-04-29T13:15:44Z</time></trkpt><trkpt lat="43.69103800961631" lon="13.180390892961517"><ele>26.25</ele><time>2026-04-29T13:15:45Z</time></trkpt><trkpt lat="43.691131468694266" lon="13.180504833879136"><ele>27.0</ele><time>2026-04-29T13:15:46Z</time></trkpt><trkpt lat="43.691218916403386" lon="13.180609910684693"><ele>27.25</ele><time>2026-04-29T13:15:47Z</time></trkpt><trkpt lat="43.69133551938408" lon="13.180754968548518"><ele>27.5</ele><time>2026-04-29T13:15:48Z</time></trkpt><trkpt lat="43.69144087705967" lon="13.180877351673116"><ele>27.75</ele><time>2026-04-29T13:15:49Z</time></trkpt><trkpt lat="43.69156022248188" lon="13.181012476889777"><ele>28.0</ele><time>2026-04-29T13:15:50Z</time></trkpt><trkpt lat="43.69167671385056" lon="13.181169595619126"><ele>28.0</ele><time>2026-04-29T13:15:51Z</time></trkpt><trkpt lat="43.69181348227721" lon="13.181334597800761"><ele>28.0</ele><time>2026-04-29T13:15:52Z</time></trkpt><trkpt lat="43.69194509106629" lon="13.181493288342601"><ele>28.0</ele><time>2026-04-29T13:15:53Z</time></trkpt><trkpt lat="43.69207746997975" lon="13.18165291012446"><ele>28.333333333333336</ele><time>2026-04-29T13:15:54Z</time></trkpt><trkpt lat="43.692223393733606" lon="13.18181291456365"><ele>28.666666666666664</ele><time>2026-04-29T13:15:55Z</time></trkpt><trkpt lat="43.692355483035534" lon="13.181986177239502"><ele>29.0</ele><time>2026-04-29T13:15:56Z</time></trkpt><trkpt lat="43.692485124403525" lon="13.182156128220937"><ele>29.0</ele><time>2026-04-29T13:15:57Z</time></trkpt><trkpt lat="43.692614576546816" lon="13.182328658388137"><ele>29.0</ele><time>2026-04-29T13:15:58Z</time></trkpt><trkpt lat="43.692749135215344" lon="13.182508096590066"><ele>29.0</ele><time>2026-04-29T13:15:59Z</time></trkpt><trkpt lat="43.69287752110107" lon="13.182677653034947"><ele>29.0</ele><time>2026-04-29T13:16:00Z</time></trkpt><trkpt lat="43.69300492123208" lon="13.182865587450117"><ele>29.0</ele><time>2026-04-29T13:16:01Z</time></trkpt><trkpt lat="43.69312766405355" lon="13.183059177308364"><ele>29.0</ele><time>2026-04-29T13:16:02Z</time></trkpt><trkpt lat="43.69325146206822" lon="13.183259912134218"><ele>28.666666666666664</ele><time>2026-04-29T13:16:03Z</time></trkpt><trkpt lat="43.69337456526619" lon="13.183463895742879"><ele>28.333333333333336</ele><time>2026-04-29T13:16:04Z</time></trkpt><trkpt lat="43.69349908192887" lon="13.18366799685846"><ele>28.0</ele><time>2026-04-29T13:16:05Z</time></trkpt><trkpt lat="43.69362931619495" lon="13.183881935008506"><ele>27.0</ele><time>2026-04-29T13:16:06Z</time></trkpt><trkpt lat="43.69375608663629" lon="13.184101086832111"><ele>26.0</ele><time>2026-04-29T13:16:07Z</time></trkpt><trkpt lat="43.69388104245863" lon="13.18433440018926"><ele>25.0</ele><time>2026-04-29T13:16:08Z</time></trkpt><trkpt lat="43.694004613569" lon="13.18457046675655"><ele>25.0</ele><time>2026-04-29T13:16:09Z</time></trkpt><trkpt lat="43.694123963016814" lon="13.18480635301526"><ele>25.0</ele><time>2026-04-29T13:16:10Z</time></trkpt><trkpt lat="43.69423907030439" lon="13.185043387218371"><ele>25.0</ele><time>2026-04-29T13:16:11Z</time></trkpt><trkpt lat="43.6943378303098" lon="13.185275599045832"><ele>25.0</ele><time>2026-04-29T13:16:12Z</time></trkpt><trkpt lat="43.69447509472187" lon="13.185502282425862"><ele>25.0</ele><time>2026-04-29T13:16:13Z</time></trkpt><trkpt lat="43.69459965958749" lon="13.185765175449413"><ele>25.0</ele><time>2026-04-29T13:16:14Z</time></trkpt><trkpt lat="43.69473473980404" lon="13.186036760835373"><ele>24.5</ele><time>2026-04-29T13:16:15Z</time></trkpt><trkpt lat="43.69486660999537" lon="13.186304922307826"><ele>24.0</ele><time>2026-04-29T13:16:16Z</time></trkpt><trkpt lat="43.6949951895895" lon="13.186570610661626"><ele>24.0</ele><time>2026-04-29T13:16:17Z</time></trkpt><trkpt lat="43.695141346769674" lon="13.186852239452975"><ele>24.0</ele><time>2026-04-29T13:16:18Z</time></trkpt><trkpt lat="43.695289691629604" lon="13.187124327822051"><ele>23.5</ele><time>2026-04-29T13:16:19Z</time></trkpt><trkpt lat="43.69544484272964" lon="13.187379354249382"><ele>23.0</ele><time>2026-04-29T13:16:20Z</time></trkpt><trkpt lat="43.69560635632563" lon="13.187628192565201"><ele>23.0</ele><time>2026-04-29T13:16:21Z</time></trkpt><trkpt lat="43.69577103845297" lon="13.18787011972468"><ele>23.0</ele><time>2026-04-29T13:16:22Z</time></trkpt><trkpt lat="43.69594125665898" lon="13.18811355730356"><ele>22.5</ele><time>2026-04-29T13:16:23Z</time></trkpt><trkpt lat="43.69611661320186" lon="13.188354017697034"><ele>22.0</ele><time>2026-04-29T13:16:24Z</time></trkpt><trkpt lat="43.69629179357821" lon="13.188585683851583"><ele>22.0</ele><time>2026-04-29T13:16:25Z</time></trkpt><trkpt lat="43.69647030796061" lon="13.188797017929948"><ele>22.0</ele><time>2026-04-29T13:16:26Z</time></trkpt><trkpt lat="43.69663226476793" lon="13.189006465942358"><ele>21.666666666666664</ele><time>2026-04-29T13:16:27Z</time></trkpt><trkpt lat="43.69679044721853" lon="13.18920717849465"><ele>21.333333333333332</ele><time>2026-04-29T13:16:28Z</time></trkpt><trkpt lat="43.69693882084441" lon="13.189394137922568"><ele>21.0</ele><time>2026-04-29T13:16:29Z</time></trkpt><trkpt lat="43.69708000450529" lon="13.189574403120814"><ele>20.666666666666668</ele><time>2026-04-29T13:16:30Z</time></trkpt><trkpt lat="43.697216167109985" lon="13.189721667882242"><ele>20.333333333333336</ele><time>2026-04-29T13:16:31Z</time></trkpt><trkpt lat="43.697347437290595" lon="13.189861032929787"><ele>20.0</ele><time>2026-04-29T13:16:32Z</time></trkpt><trkpt lat="43.69748154919216" lon="13.189991921333347"><ele>19.333333333333336</ele><time>2026-04-29T13:16:33Z</time></trkpt><trkpt lat="43.69762339380546" lon="13.190123777806583"><ele>18.666666666666668</ele><time>2026-04-29T13:16:34Z</time></trkpt><trkpt lat="43.697765948751986" lon="13.190247367766347"><ele>18.0</ele><time>2026-04-29T13:16:35Z</time></trkpt><trkpt lat="43.69790077331322" lon="13.190359995203023"><ele>18.0</ele><time>2026-04-29T13:16:36Z</time></trkpt><trkpt lat="43.69804310616886" lon="13.190466143106965"><ele>18.0</ele><time>2026-04-29T13:16:37Z</time></trkpt><trkpt lat="43.69819146973191" lon="13.190583130390062"><ele>18.0</ele><time>2026-04-29T13:16:38Z</time></trkpt><trkpt lat="43.69833518196129" lon="13.190676226709869"><ele>18.0</ele><time>2026-04-29T13:16:39Z</time></trkpt><trkpt lat="43.698479091933365" lon="13.190767231025694"><ele>18.0</ele><time>2026-04-29T13:16:40Z</time></trkpt><trkpt lat="43.698626743270296" lon="13.190856989973563"><ele>18.0</ele><time>2026-04-29T13:16:41Z</time></trkpt><trkpt lat="43.698777273743836" lon="13.190947789589702"><ele>18.0</ele><time>2026-04-29T13:16:42Z</time></trkpt><trkpt lat="43.69893130130452" lon="13.191040738937152"><ele>18.0</ele><time>2026-04-29T13:16:43Z</time></trkpt><trkpt lat="43.69908835095057" lon="13.191134555954605"><ele>18.0</ele><time>2026-04-29T13:16:44Z</time></trkpt><trkpt lat="43.69923645422937" lon="13.191224529367547"><ele>18.0</ele><time>2026-04-29T13:16:45Z</time></trkpt><trkpt lat="43.69938410423617" lon="13.191319019773422"><ele>18.0</ele><time>2026-04-29T13:16:46Z</time></trkpt><trkpt lat="43.69950357708148" lon="13.191403829496597"><ele>18.0</ele><time>2026-04-29T13:16:47Z</time></trkpt><trkpt lat="43.699627008819064" lon="13.191488437681285"><ele>18.0</ele><time>2026-04-29T13:16:48Z</time></trkpt><trkpt lat="43.69975073529424" lon="13.191567197015704"><ele>17.25</ele><time>2026-04-29T13:16:49Z</time></trkpt><trkpt lat="43.699872857178725" lon="13.191645710963215"><ele>16.5</ele><time>2026-04-29T13:16:50Z</time></trkpt><trkpt lat="43.69999594085585" lon="13.19171742490919"><ele>15.75</ele><time>2026-04-29T13:16:51Z</time></trkpt><trkpt lat="43.70012020068487" lon="13.191792604228725"><ele>15.0</ele><time>2026-04-29T13:16:52Z</time></trkpt><trkpt lat="43.70024901172958" lon="13.191870846918322"><ele>14.666666666666668</ele><time>2026-04-29T13:16:53Z</time></trkpt><trkpt lat="43.70038213341191" lon="13.191951628178586"><ele>14.333333333333334</ele><time>2026-04-29T13:16:54Z</time></trkpt><trkpt lat="43.70051815708483" lon="13.192034348030058"><ele>14.0</ele><time>2026-04-29T13:16:55Z</time></trkpt><trkpt lat="43.70066326658928" lon="13.192126361951603"><ele>14.0</ele><time>2026-04-29T13:16:56Z</time></trkpt><trkpt lat="43.70083322072373" lon="13.192232142327118"><ele>14.0</ele><time>2026-04-29T13:16:57Z</time></trkpt><trkpt lat="43.70101482946241" lon="13.19234201150363"><ele>14.0</ele><time>2026-04-29T13:16:58Z</time></trkpt><trkpt lat="43.70119370490932" lon="13.192465804504106"><ele>14.0</ele><time>2026-04-29T13:16:59Z</time></trkpt><trkpt lat="43.70134689526608" lon="13.19261537941969"><ele>14.0</ele><time>2026-04-29T13:17:00Z</time></trkpt><trkpt lat="43.70149426213887" lon="13.19280495453433"><ele>14.0</ele><time>2026-04-29T13:17:01Z</time></trkpt><trkpt lat="43.70164356984943" lon="13.193018896801492"><ele>13.5</ele><time>2026-04-29T13:17:02Z</time></trkpt><trkpt lat="43.70179626458698" lon="13.193250523593358"><ele>13.0</ele><time>2026-04-29T13:17:03Z</time></trkpt><trkpt lat="43.70191487074758" lon="13.193533859157283"><ele>13.5</ele><time>2026-04-29T13:17:04Z</time></trkpt><trkpt lat="43.702016121895646" lon="13.193831036404557"><ele>14.0</ele><time>2026-04-29T13:17:05Z</time></trkpt><trkpt lat="43.70210521602669" lon="13.194148085769573"><ele>13.0</ele><time>2026-04-29T13:17:06Z</time></trkpt><trkpt lat="43.70216376778015" lon="13.1944632542643"><ele>12.0</ele><time>2026-04-29T13:17:07Z</time></trkpt><trkpt lat="43.70218688193827" lon="13.194778798823862"><ele>11.5</ele><time>2026-04-29T13:17:08Z</time></trkpt><trkpt lat="43.70217229065748" lon="13.195101861476182"><ele>11.0</ele><time>2026-04-29T13:17:09Z</time></trkpt><trkpt lat="43.702142602822356" lon="13.19541942048398"><ele>10.5</ele><time>2026-04-29T13:17:10Z</time></trkpt><trkpt lat="43.70208325717444" lon="13.195762272561623"><ele>10.0</ele><time>2026-04-29T13:17:11Z</time></trkpt><trkpt lat="43.70202417083396" lon="13.196131629153276"><ele>10.0</ele><time>2026-04-29T13:17:12Z</time></trkpt><trkpt lat="43.70193317860662" lon="13.196515001619881"><ele>10.0</ele><time>2026-04-29T13:17:13Z</time></trkpt><trkpt lat="43.70185511138077" lon="13.196895905603421"><ele>9.0</ele><time>2026-04-29T13:17:14Z</time></trkpt><trkpt lat="43.7017714625193" lon="13.19727053638359"><ele>8.0</ele><time>2026-04-29T13:17:15Z</time></trkpt><trkpt lat="43.70169272483532" lon="13.19765353008004"><ele>7.5</ele><time>2026-04-29T13:17:16Z</time></trkpt><trkpt lat="43.70161193787457" lon="13.198044813903174"><ele>7.0</ele><time>2026-04-29T13:17:17Z</time></trkpt><trkpt lat="43.70152952415962" lon="13.198443976726265"><ele>6.5</ele><time>2026-04-29T13:17:18Z</time></trkpt><trkpt lat="43.70144778859114" lon="13.19883985503955"><ele>6.0</ele><time>2026-04-29T13:17:19Z</time></trkpt><trkpt lat="43.70137273466556" lon="13.199205107151048"><ele>6.0</ele><time>2026-04-29T13:17:20Z</time></trkpt><trkpt lat="43.7013178989915" lon="13.199541003260402"><ele>6.0</ele><time>2026-04-29T13:17:21Z</time></trkpt><trkpt lat="43.70125367201294" lon="13.199841402145921"><ele>5.666666666666667</ele><time>2026-04-29T13:17:22Z</time></trkpt><trkpt lat="43.701196756324116" lon="13.200109595523665"><ele>5.333333333333334</ele><time>2026-04-29T13:17:23Z</time></trkpt><trkpt lat="43.7011448450404" lon="13.200348622884443"><ele>5.0</ele><time>2026-04-29T13:17:24Z</time></trkpt><trkpt lat="43.70110277604617" lon="13.200563718288715"><ele>5.0</ele><time>2026-04-29T13:17:25Z</time></trkpt><trkpt lat="43.701061956619" lon="13.200765647608112"><ele>5.0</ele><time>2026-04-29T13:17:26Z</time></trkpt><trkpt lat="43.701026303046405" lon="13.200950158679941"><ele>5.0</ele><time>2026-04-29T13:17:27Z</time></trkpt><trkpt lat="43.70099003644926" lon="13.201113973361256"><ele>5.0</ele><time>2026-04-29T13:17:28Z</time></trkpt><trkpt lat="43.70095573883961" lon="13.201273358232784"><ele>5.0</ele><time>2026-04-29T13:17:29Z</time></trkpt><trkpt lat="43.700926231957304" lon="13.201418866962573"><ele>5.0</ele><time>2026-04-29T13:17:30Z</time></trkpt><trkpt lat="43.70089787944997" lon="13.2015597025145"><ele>5.0</ele><time>2026-04-29T13:17:31Z</time></trkpt><trkpt lat="43.70086915887728" lon="13.201694023912834"><ele>5.0</ele><time>2026-04-29T13:17:32Z</time></trkpt><trkpt lat="43.70084458390539" lon="13.201821932834665"><ele>5.0</ele><time>2026-04-29T13:17:33Z</time></trkpt><trkpt lat="43.700823753307354" lon="13.201936808140394"><ele>5.0</ele><time>2026-04-29T13:17:34Z</time></trkpt><trkpt lat="43.700799537853634" lon="13.202054026618676"><ele>5.0</ele><time>2026-04-29T13:17:35Z</time></trkpt><trkpt lat="43.70077064426908" lon="13.202169358661925"><ele>5.0</ele><time>2026-04-29T13:17:36Z</time></trkpt><trkpt lat="43.70074030316218" lon="13.202267076852422"><ele>5.0</ele><time>2026-04-29T13:17:37Z</time></trkpt><trkpt lat="43.700704695752805" lon="13.202365161839282"><ele>5.0</ele><time>2026-04-29T13:17:38Z</time></trkpt><trkpt lat="43.70066201509319" lon="13.202459478895909"><ele>5.0</ele><time>2026-04-29T13:17:39Z</time></trkpt><trkpt lat="43.70061089170982" lon="13.202555180517159"><ele>5.0</ele><time>2026-04-29T13:17:40Z</time></trkpt><trkpt lat="43.70055493599265" lon="13.202637205224214"><ele>5.0</ele><time>2026-04-29T13:17:41Z</time></trkpt><trkpt lat="43.700493354597675" lon="13.202717357475217"><ele>5.0</ele><time>2026-04-29T13:17:42Z</time></trkpt><trkpt lat="43.700435417599" lon="13.202787274321688"><ele>5.0</ele><time>2026-04-29T13:17:43Z</time></trkpt><trkpt lat="43.70037910550769" lon="13.202857412457"><ele>5.0</ele><time>2026-04-29T13:17:44Z</time></trkpt><trkpt lat="43.70033361787928" lon="13.202936139851289"><ele>5.0</ele><time>2026-04-29T13:17:45Z</time></trkpt><trkpt lat="43.70029719850023" lon="13.203102352915845"><ele>5.0</ele><time>2026-04-29T13:17:47Z</time></trkpt><trkpt lat="43.700343402331555" lon="13.203262145739203"><ele>5.0</ele><time>2026-04-29T13:17:49Z</time></trkpt><trkpt lat="43.700395316627414" lon="13.20332630780269"><ele>5.0</ele><time>2026-04-29T13:17:50Z</time></trkpt><trkpt lat="43.70045047332436" lon="13.20336956996929"><ele>5.0</ele><time>2026-04-29T13:17:51Z</time></trkpt><trkpt lat="43.70051014486563" lon="13.203415933641264"><ele>5.0</ele><time>2026-04-29T13:17:52Z</time></trkpt><trkpt lat="43.7006173370104" lon="13.203525230804013"><ele>5.0</ele><time>2026-04-29T13:17:54Z</time></trkpt><trkpt lat="43.70066390701375" lon="13.203608959583454"><ele>5.0</ele><time>2026-04-29T13:17:55Z</time></trkpt><trkpt lat="43.70071272756248" lon="13.20369966878646"><ele>5.0</ele><time>2026-04-29T13:17:56Z</time></trkpt><trkpt lat="43.700758176024344" lon="13.203796537775501"><ele>5.0</ele><time>2026-04-29T13:17:57Z</time></trkpt><trkpt lat="43.70080517549151" lon="13.203900771611993"><ele>5.0</ele><time>2026-04-29T13:17:58Z</time></trkpt><trkpt lat="43.700858566052794" lon="13.204013069198579"><ele>5.0</ele><time>2026-04-29T13:17:59Z</time></trkpt><trkpt lat="43.70091104549012" lon="13.204116683416911"><ele>5.2</ele><time>2026-04-29T13:18:00Z</time></trkpt><trkpt lat="43.700967149901615" lon="13.204220380888028"><ele>5.4</ele><time>2026-04-29T13:18:01Z</time></trkpt><trkpt lat="43.701026910123126" lon="13.204318078610235"><ele>5.6</ele><time>2026-04-29T13:18:02Z</time></trkpt><trkpt lat="43.7010930430415" lon="13.204413374387462"><ele>5.8</ele><time>2026-04-29T13:18:03Z</time></trkpt><trkpt lat="43.701166612749844" lon="13.204509878803975"><ele>6.0</ele><time>2026-04-29T13:18:04Z</time></trkpt><trkpt lat="43.70123929814898" lon="13.204609262511209"><ele>6.0</ele><time>2026-04-29T13:18:05Z</time></trkpt><trkpt lat="43.70131144382114" lon="13.204704826736469"><ele>6.0</ele><time>2026-04-29T13:18:06Z</time></trkpt><trkpt lat="43.70138571316115" lon="13.204800055220357"><ele>6.0</ele><time>2026-04-29T13:18:07Z</time></trkpt><trkpt lat="43.70145793786631" lon="13.204895310250523"><ele>6.0</ele><time>2026-04-29T13:18:08Z</time></trkpt><trkpt lat="43.70153247594214" lon="13.20499059045596"><ele>6.0</ele><time>2026-04-29T13:18:09Z</time></trkpt><trkpt lat="43.70160333496493" lon="13.20508122409007"><ele>6.0</ele><time>2026-04-29T13:18:10Z</time></trkpt><trkpt lat="43.70167581444378" lon="13.205178476604008"><ele>6.0</ele><time>2026-04-29T13:18:11Z</time></trkpt><trkpt lat="43.70174726265655" lon="13.205273408475996"><ele>6.0</ele><time>2026-04-29T13:18:12Z</time></trkpt><trkpt lat="43.701824066481244" lon="13.20536845681173"><ele>6.0</ele><time>2026-04-29T13:18:13Z</time></trkpt><trkpt lat="43.70190397701017" lon="13.205464896204555"><ele>6.0</ele><time>2026-04-29T13:18:14Z</time></trkpt><trkpt lat="43.701983683457534" lon="13.205563079564214"><ele>6.0</ele><time>2026-04-29T13:18:15Z</time></trkpt><trkpt lat="43.7020631930167" lon="13.205668358319604"><ele>6.0</ele><time>2026-04-29T13:18:16Z</time></trkpt><trkpt lat="43.70215321393144" lon="13.205778155080587"><ele>6.0</ele><time>2026-04-29T13:18:17Z</time></trkpt><trkpt lat="43.70225459309125" lon="13.205897796928307"><ele>6.0</ele><time>2026-04-29T13:18:18Z</time></trkpt><trkpt lat="43.70235186770402" lon="13.206002412891289"><ele>6.0</ele><time>2026-04-29T13:18:19Z</time></trkpt><trkpt lat="43.7024627050526" lon="13.206130109395982"><ele>6.0</ele><time>2026-04-29T13:18:20Z</time></trkpt><trkpt lat="43.70255044414925" lon="13.206233586646364"><ele>6.0</ele><time>2026-04-29T13:18:21Z</time></trkpt><trkpt lat="43.70263301644972" lon="13.206333072182796"><ele>6.0</ele><time>2026-04-29T13:18:22Z</time></trkpt><trkpt lat="43.702712007089076" lon="13.20644051277972"><ele>6.199999999999999</ele><time>2026-04-29T13:18:23Z</time></trkpt><trkpt lat="43.70277385825496" lon="13.206556009623894"><ele>6.3999999999999995</ele><time>2026-04-29T13:18:24Z</time></trkpt><trkpt lat="43.70281347475311" lon="13.206679245465338"><ele>6.6</ele><time>2026-04-29T13:18:25Z</time></trkpt><trkpt lat="43.70284210052674" lon="13.2068105620443"><ele>6.8</ele><time>2026-04-29T13:18:26Z</time></trkpt><trkpt lat="43.70286600543751" lon="13.206923530568018"><ele>7.0</ele><time>2026-04-29T13:18:27Z</time></trkpt><trkpt lat="43.70291048352167" lon="13.207026561863579"><ele>7.0</ele><time>2026-04-29T13:18:28Z</time></trkpt><trkpt lat="43.70297434810542" lon="13.207116801757442"><ele>6.999999999999999</ele><time>2026-04-29T13:18:29Z</time></trkpt><trkpt lat="43.70304664302591" lon="13.207210798717957"><ele>6.999999999999999</ele><time>2026-04-29T13:18:30Z</time></trkpt><trkpt lat="43.70311664875438" lon="13.207298633548758"><ele>7.0</ele><time>2026-04-29T13:18:31Z</time></trkpt><trkpt lat="43.703184581159036" lon="13.207384912058815"><ele>7.0</ele><time>2026-04-29T13:18:32Z</time></trkpt><trkpt lat="43.70325587685692" lon="13.207470513504076"><ele>6.8</ele><time>2026-04-29T13:18:33Z</time></trkpt><trkpt lat="43.703326635776946" lon="13.207556761995516"><ele>6.6</ele><time>2026-04-29T13:18:34Z</time></trkpt><trkpt lat="43.70340549179311" lon="13.207649676835306"><ele>6.3999999999999995</ele><time>2026-04-29T13:18:35Z</time></trkpt><trkpt lat="43.70349215222504" lon="13.207743099193861"><ele>6.199999999999999</ele><time>2026-04-29T13:18:36Z</time></trkpt><trkpt lat="43.70358439059842" lon="13.207829628282623"><ele>6.0</ele><time>2026-04-29T13:18:37Z</time></trkpt><trkpt lat="43.703688129914504" lon="13.207913210420369"><ele>5.75</ele><time>2026-04-29T13:18:38Z</time></trkpt><trkpt lat="43.7037980307227" lon="13.207996987719671"><ele>5.5</ele><time>2026-04-29T13:18:39Z</time></trkpt><trkpt lat="43.70390996247798" lon="13.208084957545694"><ele>5.25</ele><time>2026-04-29T13:18:40Z</time></trkpt><trkpt lat="43.70402608880491" lon="13.208186918351025"><ele>5.0</ele><time>2026-04-29T13:18:41Z</time></trkpt><trkpt lat="43.70413764052394" lon="13.208296071739385"><ele>5.0</ele><time>2026-04-29T13:18:42Z</time></trkpt><trkpt lat="43.70424651683206" lon="13.208406818548305"><ele>5.0</ele><time>2026-04-29T13:18:43Z</time></trkpt><trkpt lat="43.70436186452937" lon="13.208520901265246"><ele>5.0</ele><time>2026-04-29T13:18:44Z</time></trkpt><trkpt lat="43.70448510528546" lon="13.208632028217961"><ele>5.0</ele><time>2026-04-29T13:18:45Z</time></trkpt><trkpt lat="43.70461639237125" lon="13.208736661913852"><ele>5.0</ele><time>2026-04-29T13:18:46Z</time></trkpt><trkpt lat="43.70475242591219" lon="13.208870612802375"><ele>5.0</ele><time>2026-04-29T13:18:47Z</time></trkpt><trkpt lat="43.70487041017354" lon="13.208973574389422"><ele>5.0</ele><time>2026-04-29T13:18:48Z</time></trkpt><trkpt lat="43.70500813235364" lon="13.20908147963576"><ele>5.0</ele><time>2026-04-29T13:18:49Z</time></trkpt><trkpt lat="43.70513754240159" lon="13.209201454695316"><ele>5.0</ele><time>2026-04-29T13:18:50Z</time></trkpt><trkpt lat="43.705244802150574" lon="13.209323056495995"><ele>5.0</ele><time>2026-04-29T13:18:51Z</time></trkpt><trkpt lat="43.70534089961457" lon="13.209455074495642"><ele>5.0</ele><time>2026-04-29T13:18:52Z</time></trkpt><trkpt lat="43.705415055516966" lon="13.209583993993498"><ele>5.0</ele><time>2026-04-29T13:18:53Z</time></trkpt><trkpt lat="43.705472503061486" lon="13.209714073377048"><ele>5.0</ele><time>2026-04-29T13:18:54Z</time></trkpt><trkpt lat="43.705518402911004" lon="13.209852451653617"><ele>5.0</ele><time>2026-04-29T13:18:55Z</time></trkpt><trkpt lat="43.70555167818487" lon="13.209964686235404"><ele>5.0</ele><time>2026-04-29T13:18:56Z</time></trkpt><trkpt lat="43.70561333637721" lon="13.210032725525343"><ele>5.0</ele><time>2026-04-29T13:18:57Z</time></trkpt><trkpt lat="43.705687406169304" lon="13.210085746199832"><ele>5.25</ele><time>2026-04-29T13:18:58Z</time></trkpt><trkpt lat="43.70578756327467" lon="13.210148466520998"><ele>5.5</ele><time>2026-04-29T13:18:59Z</time></trkpt><trkpt lat="43.705891276988915" lon="13.210235093398934"><ele>5.75</ele><time>2026-04-29T13:19:00Z</time></trkpt><trkpt lat="43.70598757144129" lon="13.210350141604351"><ele>6.0</ele><time>2026-04-29T13:19:01Z</time></trkpt><trkpt lat="43.706082439650785" lon="13.210482559432469"><ele>6.25</ele><time>2026-04-29T13:19:02Z</time></trkpt><trkpt lat="43.70617873194663" lon="13.210599892556395"><ele>6.5</ele><time>2026-04-29T13:19:03Z</time></trkpt><trkpt lat="43.70628743335813" lon="13.210728467884914"><ele>6.75</ele><time>2026-04-29T13:19:04Z</time></trkpt><trkpt lat="43.7063906824334" lon="13.210869965444843"><ele>7.0</ele><time>2026-04-29T13:19:05Z</time></trkpt><trkpt lat="43.70649619926941" lon="13.211016905991059"><ele>6.5</ele><time>2026-04-29T13:19:06Z</time></trkpt><trkpt lat="43.7065979106849" lon="13.21116887926224"><ele>6.0</ele><time>2026-04-29T13:19:07Z</time></trkpt><trkpt lat="43.706688549270524" lon="13.211315111257328"><ele>5.5</ele><time>2026-04-29T13:19:08Z</time></trkpt><trkpt lat="43.706770124545564" lon="13.211459496408022"><ele>5.0</ele><time>2026-04-29T13:19:09Z</time></trkpt><trkpt lat="43.706850560735084" lon="13.211596259597611"><ele>4.75</ele><time>2026-04-29T13:19:10Z</time></trkpt><trkpt lat="43.70693572387981" lon="13.211722956123957"><ele>4.5</ele><time>2026-04-29T13:19:11Z</time></trkpt><trkpt lat="43.70702791219887" lon="13.211846846173627"><ele>4.25</ele><time>2026-04-29T13:19:12Z</time></trkpt><trkpt lat="43.7071284222223" lon="13.211961172364475"><ele>4.0</ele><time>2026-04-29T13:19:13Z</time></trkpt><trkpt lat="43.707235815481745" lon="13.212070511681343"><ele>4.0</ele><time>2026-04-29T13:19:14Z</time></trkpt><trkpt lat="43.70735212464668" lon="13.212182810736468"><ele>4.0</ele><time>2026-04-29T13:19:15Z</time></trkpt><trkpt lat="43.70745629187753" lon="13.21226168753438"><ele>4.0</ele><time>2026-04-29T13:19:16Z</time></trkpt><trkpt lat="43.707562986695194" lon="13.21234070949685"><ele>4.0</ele><time>2026-04-29T13:19:17Z</time></trkpt><trkpt lat="43.70766794362556" lon="13.21242095881145"><ele>4.2</ele><time>2026-04-29T13:19:18Z</time></trkpt><trkpt lat="43.70777705433349" lon="13.212518452794216"><ele>4.4</ele><time>2026-04-29T13:19:19Z</time></trkpt><trkpt lat="43.70786845734113" lon="13.21261457641199"><ele>4.6</ele><time>2026-04-29T13:19:20Z</time></trkpt><trkpt lat="43.707935774204984" lon="13.2127077494388"><ele>4.8</ele><time>2026-04-29T13:19:21Z</time></trkpt><trkpt lat="43.7080104454422" lon="13.212807344954829"><ele>5.0</ele><time>2026-04-29T13:19:22Z</time></trkpt><trkpt lat="43.70809130938443" lon="13.212911374611105"><ele>5.0</ele><time>2026-04-29T13:19:23Z</time></trkpt><trkpt lat="43.708167392870195" lon="13.213011429959693"><ele>5.0</ele><time>2026-04-29T13:19:24Z</time></trkpt><trkpt lat="43.70825092509907" lon="13.213114268437375"><ele>5.0</ele><time>2026-04-29T13:19:25Z</time></trkpt><trkpt lat="43.7083339079404" lon="13.213224353725902"><ele>5.0</ele><time>2026-04-29T13:19:26Z</time></trkpt><trkpt lat="43.70841355738989" lon="13.213331219514858"><ele>5.0</ele><time>2026-04-29T13:19:27Z</time></trkpt><trkpt lat="43.70849185584425" lon="13.213436931487891"><ele>5.0</ele><time>2026-04-29T13:19:28Z</time></trkpt><trkpt lat="43.70856825847431" lon="13.213555081092773"><ele>5.0</ele><time>2026-04-29T13:19:29Z</time></trkpt><trkpt lat="43.70864132952137" lon="13.213691239129341"><ele>5.0</ele><time>2026-04-29T13:19:30Z</time></trkpt><trkpt lat="43.70871219941246" lon="13.213834406571323"><ele>5.0</ele><time>2026-04-29T13:19:31Z</time></trkpt><trkpt lat="43.708781329321" lon="13.21398783141389"><ele>4.75</ele><time>2026-04-29T13:19:32Z</time></trkpt><trkpt lat="43.70884695172399" lon="13.21414935130232"><ele>4.5</ele><time>2026-04-29T13:19:33Z</time></trkpt><trkpt lat="43.70891459786202" lon="13.21431641830684"><ele>4.25</ele><time>2026-04-29T13:19:34Z</time></trkpt><trkpt lat="43.70898381382861" lon="13.21449448211378"><ele>4.0</ele><time>2026-04-29T13:19:35Z</time></trkpt><trkpt lat="43.70904408094099" lon="13.21465771788359"><ele>4.0</ele><time>2026-04-29T13:19:36Z</time></trkpt><trkpt lat="43.70910731906172" lon="13.214812072900592"><ele>4.0</ele><time>2026-04-29T13:19:37Z</time></trkpt><trkpt lat="43.709171494761414" lon="13.214964074655976"><ele>4.0</ele><time>2026-04-29T13:19:38Z</time></trkpt><trkpt lat="43.709233711415806" lon="13.215102195364361"><ele>4.0</ele><time>2026-04-29T13:19:39Z</time></trkpt><trkpt lat="43.70929189826114" lon="13.21523548029874"><ele>4.0</ele><time>2026-04-29T13:19:40Z</time></trkpt><trkpt lat="43.70935566246527" lon="13.215372201833029"><ele>4.0</ele><time>2026-04-29T13:19:41Z</time></trkpt><trkpt lat="43.709419482308064" lon="13.215513697785056"><ele>4.0</ele><time>2026-04-29T13:19:42Z</time></trkpt><trkpt lat="43.70949137440646" lon="13.2156624909236"><ele>4.0</ele><time>2026-04-29T13:19:43Z</time></trkpt><trkpt lat="43.70956585975427" lon="13.215808073833948"><ele>4.0</ele><time>2026-04-29T13:19:44Z</time></trkpt><trkpt lat="43.7096457307696" lon="13.215946210439455"><ele>4.0</ele><time>2026-04-29T13:19:45Z</time></trkpt><trkpt lat="43.70972964800401" lon="13.216084163550354"><ele>4.0</ele><time>2026-04-29T13:19:46Z</time></trkpt><trkpt lat="43.70981283455105" lon="13.216228694184954"><ele>4.0</ele><time>2026-04-29T13:19:47Z</time></trkpt><trkpt lat="43.70989460146612" lon="13.216377937143157"><ele>4.5</ele><time>2026-04-29T13:19:48Z</time></trkpt><trkpt lat="43.709977085156204" lon="13.21650802037374"><ele>5.0</ele><time>2026-04-29T13:19:49Z</time></trkpt><trkpt lat="43.71005103574561" lon="13.216642411629516"><ele>5.5</ele><time>2026-04-29T13:19:50Z</time></trkpt><trkpt lat="43.71013609953766" lon="13.216784343151176"><ele>6.0</ele><time>2026-04-29T13:19:51Z</time></trkpt><trkpt lat="43.71021933214983" lon="13.216922090764719"><ele>6.0</ele><time>2026-04-29T13:19:52Z</time></trkpt><trkpt lat="43.710310382852214" lon="13.217057716816923"><ele>6.0</ele><time>2026-04-29T13:19:53Z</time></trkpt><trkpt lat="43.7103870767067" lon="13.217188536940085"><ele>6.0</ele><time>2026-04-29T13:19:54Z</time></trkpt><trkpt lat="43.71047008519885" lon="13.217316108911447"><ele>6.0</ele><time>2026-04-29T13:19:55Z</time></trkpt><trkpt lat="43.71055112816932" lon="13.217446562451887"><ele>5.75</ele><time>2026-04-29T13:19:56Z</time></trkpt><trkpt lat="43.71063515941677" lon="13.217582644876488"><ele>5.5</ele><time>2026-04-29T13:19:57Z</time></trkpt><trkpt lat="43.710723753621956" lon="13.217720975243546"><ele>5.25</ele><time>2026-04-29T13:19:58Z</time></trkpt><trkpt lat="43.71080555626178" lon="13.217859740959396"><ele>5.0</ele><time>2026-04-29T13:19:59Z</time></trkpt><trkpt lat="43.7108915073481" lon="13.217991628618801"><ele>5.0</ele><time>2026-04-29T13:20:00Z</time></trkpt><trkpt lat="43.71096369300415" lon="13.21810646931971"><ele>5.0</ele><time>2026-04-29T13:20:01Z</time></trkpt><trkpt lat="43.71102868446894" lon="13.218210774812043"><ele>5.0</ele><time>2026-04-29T13:20:02Z</time></trkpt><trkpt lat="43.71107900881458" lon="13.21828767774163"><ele>5.0</ele><time>2026-04-29T13:20:03Z</time></trkpt><trkpt lat="43.71113801981963" lon="13.218384168536371"><ele>5.0</ele><time>2026-04-29T13:20:05Z</time></trkpt><trkpt lat="43.71117527285798" lon="13.21847227609882"><ele>5.166666666666667</ele><time>2026-04-29T13:20:35Z</time></trkpt><trkpt lat="43.711244163632614" lon="13.218569794412307"><ele>5.333333333333334</ele><time>2026-04-29T13:20:37Z</time></trkpt><trkpt lat="43.711289235383745" lon="13.218632561484341"><ele>5.5</ele><time>2026-04-29T13:20:38Z</time></trkpt><trkpt lat="43.71134738228159" lon="13.218710355685516"><ele>5.666666666666667</ele><time>2026-04-29T13:20:39Z</time></trkpt><trkpt lat="43.71138989996573" lon="13.21878189015825"><ele>5.833333333333333</ele><time>2026-04-29T13:20:40Z</time></trkpt><trkpt lat="43.711432111708476" lon="13.218852738010362"><ele>6.0</ele><time>2026-04-29T13:20:41Z</time></trkpt><trkpt lat="43.71152153275969" lon="13.218981935929177"><ele>5.999999999999999</ele><time>2026-04-29T13:20:43Z</time></trkpt><trkpt lat="43.71156652228147" lon="13.219050108717436"><ele>6.0</ele><time>2026-04-29T13:20:44Z</time></trkpt><trkpt lat="43.71161678210185" lon="13.219117892651651"><ele>6.0</ele><time>2026-04-29T13:20:46Z</time></trkpt><trkpt lat="43.71156899827221" lon="13.219044232508152"><ele>6.0</ele><time>2026-04-29T13:21:10Z</time></trkpt><trkpt lat="43.711523626357575" lon="13.218968955287467"><ele>6.0</ele><time>2026-04-29T13:21:18Z</time></trkpt><trkpt lat="43.71148286358807" lon="13.218891296734919"><ele>5.999999999999999</ele><time>2026-04-29T13:21:25Z</time></trkpt><trkpt lat="43.71144365005423" lon="13.218820706937572"><ele>6.0</ele><time>2026-04-29T13:21:32Z</time></trkpt><trkpt lat="43.71139132560779" lon="13.218760314760797"><ele>6.0</ele><time>2026-04-29T13:21:40Z</time></trkpt><trkpt lat="43.71134594960115" lon="13.218686859132745"><ele>6.0</ele><time>2026-04-29T13:22:00Z</time></trkpt><trkpt lat="43.7114946692493" lon="13.218454888864935"><ele>6.0</ele><time>2026-04-29T13:22:03Z</time></trkpt><trkpt lat="43.71156031081806" lon="13.218370556534367"><ele>6.0</ele><time>2026-04-29T13:22:05Z</time></trkpt><trkpt lat="43.71162155839165" lon="13.21828756852089"><ele>6.0</ele><time>2026-04-29T13:22:07Z</time></trkpt><trkpt lat="43.7116727364501" lon="13.218216822551074"><ele>6.0</ele><time>2026-04-29T13:22:09Z</time></trkpt><trkpt lat="43.71179971583745" lon="13.218292690505287"><ele>6.0</ele><time>2026-04-29T13:22:16Z</time></trkpt><trkpt lat="43.71184611518901" lon="13.21835175314023"><ele>6.0</ele><time>2026-04-29T13:22:18Z</time></trkpt><trkpt lat="43.711906116980224" lon="13.218397556575022"><ele>6.0</ele><time>2026-04-29T13:22:21Z</time></trkpt><trkpt lat="43.71198952108316" lon="13.21837153959716"><ele>6.0</ele><time>2026-04-29T13:23:31Z</time></trkpt><trkpt lat="43.71206187623477" lon="13.218351217987548"><ele>7.0</ele><time>2026-04-29T13:23:33Z</time></trkpt><trkpt lat="43.71231772443049" lon="13.218736200004024"><ele>8.0</ele><time>2026-04-29T13:23:44Z</time></trkpt><trkpt lat="43.71238605571802" lon="13.218816500147625"><ele>8.0</ele><time>2026-04-29T13:23:47Z</time></trkpt><trkpt lat="43.712454914530916" lon="13.21889521608224"><ele>7.999999999999999</ele><time>2026-04-29T13:23:50Z</time></trkpt><trkpt lat="43.71252235672582" lon="13.21897177365924"><ele>8.0</ele><time>2026-04-29T13:23:53Z</time></trkpt><trkpt lat="43.7125694749031" lon="13.219031061398129"><ele>8.0</ele><time>2026-04-29T13:23:55Z</time></trkpt><trkpt lat="43.71261968208377" lon="13.219089204915475"><ele>7.999999999999999</ele><time>2026-04-29T13:23:57Z</time></trkpt><trkpt lat="43.71267424682162" lon="13.219144067105349"><ele>8.0</ele><time>2026-04-29T13:23:59Z</time></trkpt><trkpt lat="43.712721049913206" lon="13.219209379758826"><ele>8.0</ele><time>2026-04-29T13:24:01Z</time></trkpt><trkpt lat="43.71277634771402" lon="13.219271675228526"><ele>7.857142857142857</ele><time>2026-04-29T13:24:03Z</time></trkpt><trkpt lat="43.71282474782138" lon="13.21933234277236"><ele>7.7142857142857135</ele><time>2026-04-29T13:24:05Z</time></trkpt><trkpt lat="43.712878355515336" lon="13.2193930265791"><ele>7.571428571428571</ele><time>2026-04-29T13:24:07Z</time></trkpt><trkpt lat="43.71292843828645" lon="13.2194578218386"><ele>7.428571428571429</ele><time>2026-04-29T13:24:09Z</time></trkpt><trkpt lat="43.71297813775521" lon="13.219517971477433"><ele>7.285714285714286</ele><time>2026-04-29T13:24:11Z</time></trkpt><trkpt lat="43.71303396293822" lon="13.21957478486148"><ele>7.142857142857142</ele><time>2026-04-29T13:24:13Z</time></trkpt><trkpt lat="43.71309432391242" lon="13.219645779327267"><ele>7.0</ele><time>2026-04-29T13:24:16Z</time></trkpt><trkpt lat="43.71315770512403" lon="13.219701787693948"><ele>7.0</ele><time>2026-04-29T13:26:32Z</time></trkpt><trkpt lat="43.713214350378045" lon="13.219773698485493"><ele>7.0</ele><time>2026-04-29T13:26:36Z</time></trkpt><trkpt lat="43.713270502025345" lon="13.219733496486594"><ele>7.0</ele><time>2026-04-29T13:26:53Z</time></trkpt></trkseg></trk></gpx>